<?xml version="1.0" encoding="utf-8"?>
<gpx version="1.1" creator="com.bodunov.galileo/v6.1.1" xmlns:xsi="http://www.w3.org/2001/XMLSchema-instance" xmlns="http://www.topografix.com/GPX/1/1" xmlns:gom="https://gurumaps.app/gpx/v3" xsi:schemaLocation="http://www.topografix.com/GPX/1/1 http://www.topografix.com/GPX/1/1/gpx.xsd https://gurumaps.app/gpx/v3 https://gurumaps.app/gpx/v3/schema.xsd">
 <trk>
  <name>20260815группа1</name>
  <type>TrackStyle_FFD60AC8</type>
  <extensions>
   <gom:time>2026-08-15T14:10:14.211Z</gom:time>
   <line xmlns="http://www.topografix.com/GPX/gpx_style/0/2">
    <color>FFD60A</color>
   </line>
  </extensions>
  <trkseg>
   <trkpt lat="59.3647879663" lon="34.7149203845"><ele>162.273</ele><time>2026-08-15T14:10:13.493Z</time><hdop>6.437</hdop><vdop>2.187</vdop><extensions><gom:speed>0.094</gom:speed></extensions></trkpt>
   <trkpt lat="59.364842281" lon="34.7147790656"><ele>162.218</ele><time>2026-08-15T14:10:24.481Z</time><hdop>3.437</hdop><vdop>1.312</vdop><extensions><gom:speed>0.957</gom:speed><gom:rel_alt>-0.597</gom:rel_alt></extensions></trkpt>
   <trkpt lat="59.3647965996" lon="34.7146154508"><ele>162.093</ele><time>2026-08-15T14:10:31.637Z</time><hdop>3.125</hdop><vdop>1.625</vdop><extensions><gom:speed>1.238</gom:speed><gom:rel_alt>-0.092</gom:rel_alt></extensions></trkpt>
   <trkpt lat="59.3647149599" lon="34.7145400975"><ele>162.135</ele><time>2026-08-15T14:10:38.679Z</time><hdop>3.0</hdop><vdop>1.812</vdop><extensions><gom:speed>1.146</gom:speed><gom:rel_alt>-0.015</gom:rel_alt></extensions></trkpt>
   <trkpt lat="59.3647240962" lon="34.7143534325"><ele>162.203</ele><time>2026-08-15T14:10:47.877Z</time><hdop>3.0</hdop><vdop>1.687</vdop><extensions><gom:speed>1.176</gom:speed><gom:rel_alt>-0.945</gom:rel_alt></extensions></trkpt>
   <trkpt lat="59.3647721664" lon="34.7141993731"><ele>162.173</ele><time>2026-08-15T14:10:55.879Z</time><hdop>3.0</hdop><vdop>1.562</vdop><extensions><gom:speed>1.266</gom:speed><gom:rel_alt>-0.774</gom:rel_alt></extensions></trkpt>
   <trkpt lat="59.3648289957" lon="34.71403316"><ele>162.067</ele><time>2026-08-15T14:11:04.422Z</time><hdop>3.0</hdop><vdop>1.812</vdop><extensions><gom:speed>1.33</gom:speed><gom:rel_alt>-0.599</gom:rel_alt></extensions></trkpt>
   <trkpt lat="59.3648746771" lon="34.7138652705"><ele>162.423</ele><time>2026-08-15T14:11:12.716Z</time><hdop>3.0</hdop><vdop>1.625</vdop><extensions><gom:speed>1.21</gom:speed><gom:rel_alt>-0.237</gom:rel_alt></extensions></trkpt>
   <trkpt lat="59.3649246751" lon="34.7137157373"><ele>162.724</ele><time>2026-08-15T14:11:20.300Z</time><hdop>3.0</hdop><vdop>1.375</vdop><extensions><gom:speed>1.285</gom:speed><gom:rel_alt>0.406</gom:rel_alt></extensions></trkpt>
   <trkpt lat="59.3649673809" lon="34.7135529608"><ele>163.108</ele><time>2026-08-15T14:11:28.463Z</time><hdop>3.0</hdop><vdop>1.437</vdop><extensions><gom:speed>1.274</gom:speed><gom:rel_alt>0.953</gom:rel_alt></extensions></trkpt>
   <trkpt lat="59.3650086618" lon="34.7133807965"><ele>168.464</ele><time>2026-08-15T14:15:04.145Z</time><hdop>3.0</hdop><vdop>1.312</vdop><extensions><gom:speed>0.803</gom:speed><gom:rel_alt>1.225</gom:rel_alt></extensions></trkpt>
   <trkpt lat="59.3650792793" lon="34.7132623602"><ele>168.606</ele><time>2026-08-15T14:15:13.325Z</time><hdop>3.0</hdop><vdop>1.312</vdop><extensions><gom:speed>0.83</gom:speed><gom:rel_alt>0.826</gom:rel_alt></extensions></trkpt>
   <trkpt lat="59.3651681694" lon="34.7132320177"><ele>168.724</ele><time>2026-08-15T14:15:21.337Z</time><hdop>3.062</hdop><vdop>1.312</vdop><extensions><gom:speed>1.165</gom:speed><gom:rel_alt>1.569</gom:rel_alt></extensions></trkpt>
   <trkpt lat="59.365257772" lon="34.7131771162"><ele>168.844</ele><time>2026-08-15T14:15:30.492Z</time><hdop>3.0</hdop><vdop>1.312</vdop><extensions><gom:speed>1.057</gom:speed><gom:rel_alt>1.646</gom:rel_alt></extensions></trkpt>
   <trkpt lat="59.3653499729" lon="34.7131615259"><ele>168.645</ele><time>2026-08-15T14:15:40.455Z</time><hdop>3.0</hdop><vdop>1.312</vdop><extensions><gom:speed>1.087</gom:speed><gom:rel_alt>0.866</gom:rel_alt></extensions></trkpt>
   <trkpt lat="59.3654530703" lon="34.7131049481"><ele>168.74</ele><time>2026-08-15T14:15:50.493Z</time><hdop>3.0</hdop><vdop>1.312</vdop><extensions><gom:speed>0.917</gom:speed><gom:rel_alt>1.643</gom:rel_alt></extensions></trkpt>
   <trkpt lat="59.3655414994" lon="34.7130489569"><ele>169.024</ele><time>2026-08-15T14:15:59.139Z</time><hdop>3.0</hdop><vdop>1.312</vdop><extensions><gom:speed>1.074</gom:speed><gom:rel_alt>1.907</gom:rel_alt></extensions></trkpt>
   <trkpt lat="59.3656071716" lon="34.7129185345"><ele>169.418</ele><time>2026-08-15T14:16:07.700Z</time><hdop>3.062</hdop><vdop>1.312</vdop><extensions><gom:speed>0.973</gom:speed><gom:rel_alt>2.42</gom:rel_alt></extensions></trkpt>
   <trkpt lat="59.3656795912" lon="34.71281133"><ele>169.58</ele><time>2026-08-15T14:16:17.003Z</time><hdop>3.0</hdop><vdop>1.312</vdop><extensions><gom:speed>1.185</gom:speed><gom:rel_alt>1.963</gom:rel_alt></extensions></trkpt>
   <trkpt lat="59.3657513822" lon="34.7126973361"><ele>169.356</ele><time>2026-08-15T14:16:25.023Z</time><hdop>3.062</hdop><vdop>1.312</vdop><extensions><gom:speed>1.265</gom:speed><gom:rel_alt>1.474</gom:rel_alt></extensions></trkpt>
   <trkpt lat="59.3658163839" lon="34.7125543408"><ele>169.201</ele><time>2026-08-15T14:16:33.493Z</time><hdop>3.0</hdop><vdop>1.312</vdop><extensions><gom:speed>1.168</gom:speed><gom:rel_alt>2.38</gom:rel_alt></extensions></trkpt>
   <trkpt lat="59.3658836906" lon="34.712423164"><ele>169.473</ele><time>2026-08-15T14:16:41.493Z</time><hdop>3.0</hdop><vdop>1.312</vdop><extensions><gom:speed>1.261</gom:speed><gom:rel_alt>2.116</gom:rel_alt></extensions></trkpt>
   <trkpt lat="59.3659539728" lon="34.7122957591"><ele>169.255</ele><time>2026-08-15T14:16:49.720Z</time><hdop>3.0</hdop><vdop>1.312</vdop><extensions><gom:speed>1.118</gom:speed><gom:rel_alt>1.387</gom:rel_alt></extensions></trkpt>
   <trkpt lat="59.3660157894" lon="34.7121578768"><ele>168.617</ele><time>2026-08-15T14:16:57.865Z</time><hdop>3.062</hdop><vdop>1.312</vdop><extensions><gom:speed>1.175</gom:speed><gom:rel_alt>0.663</gom:rel_alt></extensions></trkpt>
   <trkpt lat="59.3660904721" lon="34.7120557852"><ele>168.418</ele><time>2026-08-15T14:17:05.401Z</time><hdop>3.0</hdop><vdop>1.312</vdop><extensions><gom:speed>1.098</gom:speed><gom:rel_alt>0.451</gom:rel_alt></extensions></trkpt>
   <trkpt lat="59.3661093733" lon="34.7118735627"><ele>169.093</ele><time>2026-08-15T14:17:14.903Z</time><hdop>3.0</hdop><vdop>1.312</vdop><extensions><gom:speed>1.13</gom:speed><gom:rel_alt>1.558</gom:rel_alt></extensions></trkpt>
   <trkpt lat="59.3661599581" lon="34.7117204253"><ele>169.663</ele><time>2026-08-15T14:17:24.087Z</time><hdop>3.0</hdop><vdop>1.312</vdop><extensions><gom:speed>1.165</gom:speed><gom:rel_alt>2.113</gom:rel_alt></extensions></trkpt>
   <trkpt lat="59.3662500636" lon="34.7116835449"><ele>170.465</ele><time>2026-08-15T14:19:48.492Z</time><hdop>3.312</hdop><vdop>1.312</vdop><extensions><gom:speed>1.339</gom:speed><gom:rel_alt>2.671</gom:rel_alt></extensions></trkpt>
   <trkpt lat="59.3663434799" lon="34.711645994"><ele>170.147</ele><time>2026-08-15T14:19:55.464Z</time><hdop>3.0</hdop><vdop>1.312</vdop><extensions><gom:speed>1.202</gom:speed><gom:rel_alt>2.703</gom:rel_alt></extensions></trkpt>
   <trkpt lat="59.3664095712" lon="34.7115155716"><ele>170.365</ele><time>2026-08-15T14:20:05.450Z</time><hdop>3.0</hdop><vdop>1.312</vdop><extensions><gom:speed>0.971</gom:speed><gom:rel_alt>3.062</gom:rel_alt></extensions></trkpt>
   <trkpt lat="59.3664840863" lon="34.7113809582"><ele>170.928</ele><time>2026-08-15T14:20:17.831Z</time><hdop>3.0</hdop><vdop>1.312</vdop><extensions><gom:speed>1.222</gom:speed><gom:rel_alt>3.625</gom:rel_alt></extensions></trkpt>
   <trkpt lat="59.3665464896" lon="34.7112394717"><ele>171.126</ele><time>2026-08-15T14:20:26.610Z</time><hdop>3.0</hdop><vdop>1.375</vdop><extensions><gom:speed>0.959</gom:speed><gom:rel_alt>3.675</gom:rel_alt></extensions></trkpt>
   <trkpt lat="59.3666680691" lon="34.7111344464"><ele>171.685</ele><time>2026-08-15T14:20:36.709Z</time><hdop>4.375</hdop><vdop>1.437</vdop><extensions><gom:speed>1.404</gom:speed><gom:rel_alt>4.454</gom:rel_alt></extensions></trkpt>
   <trkpt lat="59.3667397763" lon="34.7110159263"><ele>171.756</ele><time>2026-08-15T14:20:38.991Z</time><hdop>4.75</hdop><vdop>1.437</vdop><extensions><gom:speed>1.34</gom:speed><gom:rel_alt>4.235</gom:rel_alt></extensions></trkpt>
   <trkpt lat="59.3668250621" lon="34.7109548222"><ele>172.165</ele><time>2026-08-15T14:20:51.626Z</time><hdop>3.75</hdop><vdop>1.437</vdop><extensions><gom:speed>1.212</gom:speed><gom:rel_alt>4.534</gom:rel_alt></extensions></trkpt>
   <trkpt lat="59.36691588" lon="34.7108853363"><ele>172.408</ele><time>2026-08-15T14:20:58.230Z</time><hdop>3.312</hdop><vdop>1.375</vdop><extensions><gom:speed>1.033</gom:speed><gom:rel_alt>5.009</gom:rel_alt></extensions></trkpt>
   <trkpt lat="59.3669894731" lon="34.7107764554"><ele>172.594</ele><time>2026-08-15T14:21:05.492Z</time><hdop>3.0</hdop><vdop>1.5</vdop><extensions><gom:speed>1.072</gom:speed><gom:rel_alt>5.073</gom:rel_alt></extensions></trkpt>
   <trkpt lat="59.3670850688" lon="34.7107886929"><ele>173.006</ele><time>2026-08-15T14:21:14.943Z</time><hdop>3.0</hdop><vdop>1.375</vdop><extensions><gom:speed>1.012</gom:speed><gom:rel_alt>5.659</gom:rel_alt></extensions></trkpt>
   <trkpt lat="59.367169265" lon="34.710715938"><ele>172.902</ele><time>2026-08-15T14:21:20.947Z</time><hdop>3.0</hdop><vdop>1.375</vdop><extensions><gom:speed>1.162</gom:speed><gom:rel_alt>5.252</gom:rel_alt></extensions></trkpt>
   <trkpt lat="59.3672652797" lon="34.710681656"><ele>172.952</ele><time>2026-08-15T14:21:32.710Z</time><hdop>3.0</hdop><vdop>1.375</vdop><extensions><gom:speed>0.779</gom:speed><gom:rel_alt>5.165</gom:rel_alt></extensions></trkpt>
   <trkpt lat="59.3673487634" lon="34.7107547462"><ele>172.677</ele><time>2026-08-15T14:21:39.588Z</time><hdop>3.0</hdop><vdop>1.375</vdop><extensions><gom:speed>0.958</gom:speed><gom:rel_alt>5.509</gom:rel_alt></extensions></trkpt>
   <trkpt lat="59.3674387851" lon="34.7107665647"><ele>172.757</ele><time>2026-08-15T14:21:47.170Z</time><hdop>3.25</hdop><vdop>1.562</vdop><extensions><gom:speed>1.019</gom:speed><gom:rel_alt>5.009</gom:rel_alt></extensions></trkpt>
   <trkpt lat="59.3675229813" lon="34.7106822428"><ele>172.742</ele><time>2026-08-15T14:21:53.868Z</time><hdop>3.0</hdop><vdop>1.375</vdop><extensions><gom:speed>1.158</gom:speed><gom:rel_alt>2.75</gom:rel_alt></extensions></trkpt>
   <trkpt lat="59.3676077642" lon="34.7105819952"><ele>172.816</ele><time>2026-08-15T14:22:05.992Z</time><hdop>3.0</hdop><vdop>1.5</vdop><extensions><gom:speed>1.087</gom:speed><gom:rel_alt>5.598</gom:rel_alt></extensions></trkpt>
   <trkpt lat="59.3676932596" lon="34.7105200529"><ele>173.009</ele><time>2026-08-15T14:22:11.493Z</time><hdop>3.0</hdop><vdop>1.375</vdop><extensions><gom:speed>1.23</gom:speed><gom:rel_alt>5.879</gom:rel_alt></extensions></trkpt>
   <trkpt lat="59.3677757795" lon="34.7104433585"><ele>173.5</ele><time>2026-08-15T14:22:18.608Z</time><hdop>3.375</hdop><vdop>1.562</vdop><extensions><gom:speed>1.1</gom:speed><gom:rel_alt>6.566</gom:rel_alt></extensions></trkpt>
   <trkpt lat="59.367794974" lon="34.710269434"><ele>173.321</ele><time>2026-08-15T14:24:54.656Z</time><hdop>3.25</hdop><vdop>1.562</vdop><extensions><gom:speed>0.729</gom:speed><gom:rel_alt>5.266</gom:rel_alt></extensions></trkpt>
   <trkpt lat="59.367863077" lon="34.7101290371"><ele>173.959</ele><time>2026-08-15T14:25:07.307Z</time><hdop>3.75</hdop><vdop>1.5</vdop><extensions><gom:speed>1.177</gom:speed><gom:rel_alt>5.464</gom:rel_alt></extensions></trkpt>
   <trkpt lat="59.3679406934" lon="34.7100182284"><ele>174.116</ele><time>2026-08-15T14:25:14.742Z</time><hdop>3.187</hdop><vdop>1.437</vdop><extensions><gom:speed>1.132</gom:speed><gom:rel_alt>5.873</gom:rel_alt></extensions></trkpt>
   <trkpt lat="59.3680296673" lon="34.7099605609"><ele>174.072</ele><time>2026-08-15T14:25:21.101Z</time><hdop>3.187</hdop><vdop>1.5</vdop><extensions><gom:speed>1.2</gom:speed><gom:rel_alt>5.783</gom:rel_alt></extensions></trkpt>
   <trkpt lat="59.3681149951" lon="34.7098991215"><ele>173.817</ele><time>2026-08-15T14:25:30.215Z</time><hdop>3.0</hdop><vdop>1.437</vdop><extensions><gom:speed>1.041</gom:speed><gom:rel_alt>5.535</gom:rel_alt></extensions></trkpt>
   <trkpt lat="59.3682065674" lon="34.7098394424"><ele>173.531</ele><time>2026-08-15T14:25:39.360Z</time><hdop>3.0</hdop><vdop>1.437</vdop><extensions><gom:speed>1.078</gom:speed><gom:rel_alt>5.012</gom:rel_alt></extensions></trkpt>
   <trkpt lat="59.3682960861" lon="34.7098062501"><ele>173.113</ele><time>2026-08-15T14:25:47.278Z</time><hdop>3.0</hdop><vdop>1.5</vdop><extensions><gom:speed>1.24</gom:speed><gom:rel_alt>4.552</gom:rel_alt></extensions></trkpt>
   <trkpt lat="59.3683798632" lon="34.7097213414"><ele>172.548</ele><time>2026-08-15T14:25:54.777Z</time><hdop>3.0</hdop><vdop>1.625</vdop><extensions><gom:speed>1.134</gom:speed><gom:rel_alt>4.33</gom:rel_alt></extensions></trkpt>
   <trkpt lat="59.3684675799" lon="34.7096232731"><ele>173.193</ele><time>2026-08-15T14:26:03.455Z</time><hdop>3.0</hdop><vdop>1.437</vdop><extensions><gom:speed>1.231</gom:speed><gom:rel_alt>4.671</gom:rel_alt></extensions></trkpt>
   <trkpt lat="59.3685554641" lon="34.7095539548"><ele>173.03</ele><time>2026-08-15T14:26:11.400Z</time><hdop>3.0</hdop><vdop>1.562</vdop><extensions><gom:speed>1.27</gom:speed><gom:rel_alt>4.83</gom:rel_alt></extensions></trkpt>
   <trkpt lat="59.3686376906" lon="34.7094689623"><ele>173.227</ele><time>2026-08-15T14:26:18.737Z</time><hdop>3.0</hdop><vdop>1.562</vdop><extensions><gom:speed>1.285</gom:speed><gom:rel_alt>4.824</gom:rel_alt></extensions></trkpt>
   <trkpt lat="59.3687201685" lon="34.7093686309"><ele>173.643</ele><time>2026-08-15T14:26:26.739Z</time><hdop>3.0</hdop><vdop>1.437</vdop><extensions><gom:speed>1.269</gom:speed><gom:rel_alt>5.548</gom:rel_alt></extensions></trkpt>
   <trkpt lat="59.3687976592" lon="34.7092757594"><ele>174.171</ele><time>2026-08-15T14:26:33.820Z</time><hdop>3.0</hdop><vdop>1.437</vdop><extensions><gom:speed>1.253</gom:speed><gom:rel_alt>5.598</gom:rel_alt></extensions></trkpt>
   <trkpt lat="59.3688827774" lon="34.7092029207"><ele>174.196</ele><time>2026-08-15T14:26:40.881Z</time><hdop>3.0</hdop><vdop>1.562</vdop><extensions><gom:speed>1.271</gom:speed><gom:rel_alt>6.034</gom:rel_alt></extensions></trkpt>
   <trkpt lat="59.3689714999" lon="34.7091360331"><ele>174.361</ele><time>2026-08-15T14:26:48.321Z</time><hdop>3.0</hdop><vdop>1.5</vdop><extensions><gom:speed>1.268</gom:speed><gom:rel_alt>5.81</gom:rel_alt></extensions></trkpt>
   <trkpt lat="59.3690633655" lon="34.7091120608"><ele>174.399</ele><time>2026-08-15T14:26:56.456Z</time><hdop>3.0</hdop><vdop>1.437</vdop><extensions><gom:speed>1.246</gom:speed><gom:rel_alt>6.449</gom:rel_alt></extensions></trkpt>
   <trkpt lat="59.3691527585" lon="34.7090693969"><ele>175.148</ele><time>2026-08-15T14:27:04.491Z</time><hdop>3.0</hdop><vdop>1.437</vdop><extensions><gom:speed>1.195</gom:speed><gom:rel_alt>6.447</gom:rel_alt></extensions></trkpt>
   <trkpt lat="59.3692443727" lon="34.7090079576"><ele>175.437</ele><time>2026-08-15T14:27:12.972Z</time><hdop>3.0</hdop><vdop>1.625</vdop><extensions><gom:speed>1.205</gom:speed><gom:rel_alt>3.617</gom:rel_alt></extensions></trkpt>
   <trkpt lat="59.3693423991" lon="34.7089500386"><ele>174.978</ele><time>2026-08-15T14:29:21.492Z</time><hdop>3.75</hdop><vdop>1.437</vdop><extensions><gom:speed>1.579</gom:speed><gom:rel_alt>6.045</gom:rel_alt></extensions></trkpt>
   <trkpt lat="59.369433678" lon="34.7089269884"><ele>174.819</ele><time>2026-08-15T14:29:29.491Z</time><hdop>3.687</hdop><vdop>1.437</vdop><extensions><gom:speed>1.017</gom:speed><gom:rel_alt>5.974</gom:rel_alt></extensions></trkpt>
   <trkpt lat="59.369523993" lon="34.7088978194"><ele>174.655</ele><time>2026-08-15T14:29:37.994Z</time><hdop>3.562</hdop><vdop>1.437</vdop><extensions><gom:speed>1.26</gom:speed><gom:rel_alt>5.752</gom:rel_alt></extensions></trkpt>
   <trkpt lat="59.3695962869" lon="34.7087415807"><ele>173.968</ele><time>2026-08-15T14:29:54.594Z</time><hdop>3.062</hdop><vdop>1.437</vdop><extensions><gom:speed>1.176</gom:speed><gom:rel_alt>5.363</gom:rel_alt></extensions></trkpt>
   <trkpt lat="59.369689368" lon="34.7087154292"><ele>173.734</ele><time>2026-08-15T14:30:03.841Z</time><hdop>3.812</hdop><vdop>1.437</vdop><extensions><gom:speed>1.182</gom:speed><gom:rel_alt>5.506</gom:rel_alt></extensions></trkpt>
   <trkpt lat="59.3697815689" lon="34.7087052871"><ele>173.777</ele><time>2026-08-15T14:30:07.062Z</time><hdop>4.5</hdop><vdop>1.5</vdop><extensions><gom:speed>1.107</gom:speed><gom:rel_alt>5.4</gom:rel_alt></extensions></trkpt>
   <trkpt lat="59.3698642983" lon="34.7087996673"><ele>174.199</ele><time>2026-08-15T14:30:14.779Z</time><hdop>3.125</hdop><vdop>1.5</vdop><extensions><gom:speed>1.255</gom:speed><gom:rel_alt>5.694</gom:rel_alt></extensions></trkpt>
   <trkpt lat="59.3699236841" lon="34.7089378849"><ele>174.025</ele><time>2026-08-15T14:30:24.118Z</time><hdop>3.0</hdop><vdop>1.5</vdop><extensions><gom:speed>1.109</gom:speed><gom:rel_alt>5.865</gom:rel_alt></extensions></trkpt>
   <trkpt lat="59.3700263624" lon="34.7089533914"><ele>174.25</ele><time>2026-08-15T14:30:32.490Z</time><hdop>3.0</hdop><vdop>1.562</vdop><extensions><gom:speed>1.152</gom:speed><gom:rel_alt>5.585</gom:rel_alt></extensions></trkpt>
   <trkpt lat="59.3701276996" lon="34.7089851588"><ele>173.508</ele><time>2026-08-15T14:30:57.661Z</time><hdop>3.0</hdop><vdop>1.5</vdop><extensions><gom:speed>1.162</gom:speed><gom:rel_alt>5.149</gom:rel_alt></extensions></trkpt>
   <trkpt lat="59.3702204873" lon="34.7089844883"><ele>173.448</ele><time>2026-08-15T14:31:02.499Z</time><hdop>3.0</hdop><vdop>1.5</vdop><extensions><gom:speed>1.105</gom:speed><gom:rel_alt>4.861</gom:rel_alt></extensions></trkpt>
   <trkpt lat="59.3703160829" lon="34.7089871705"><ele>173.752</ele><time>2026-08-15T14:31:08.313Z</time><hdop>3.0</hdop><vdop>1.562</vdop><extensions><gom:speed>1.065</gom:speed><gom:rel_alt>4.861</gom:rel_alt></extensions></trkpt>
   <trkpt lat="59.3704041767" lon="34.7090468496"><ele>173.208</ele><time>2026-08-15T14:31:18.014Z</time><hdop>3.5</hdop><vdop>1.5</vdop><extensions><gom:speed>0.977</gom:speed><gom:rel_alt>5.12</gom:rel_alt></extensions></trkpt>
   <trkpt lat="59.3704907617" lon="34.7091003262"><ele>173.338</ele><time>2026-08-15T14:31:25.491Z</time><hdop>3.0</hdop><vdop>1.437</vdop><extensions><gom:speed>1.028</gom:speed><gom:rel_alt>5.236</gom:rel_alt></extensions></trkpt>
   <trkpt lat="59.3705808672" lon="34.7090482746"><ele>173.505</ele><time>2026-08-15T14:31:34.492Z</time><hdop>3.0</hdop><vdop>1.5</vdop><extensions><gom:speed>0.635</gom:speed><gom:rel_alt>4.758</gom:rel_alt></extensions></trkpt>
   <trkpt lat="59.3706733615" lon="34.7090507891"><ele>172.792</ele><time>2026-08-15T14:34:34.974Z</time><hdop>3.375</hdop><vdop>1.5</vdop><extensions><gom:speed>1.156</gom:speed><gom:rel_alt>4.322</gom:rel_alt></extensions></trkpt>
   <trkpt lat="59.3707616649" lon="34.7091106359"><ele>172.867</ele><time>2026-08-15T14:34:42.490Z</time><hdop>3.0</hdop><vdop>1.5</vdop><extensions><gom:speed>1.305</gom:speed><gom:rel_alt>4.076</gom:rel_alt></extensions></trkpt>
   <trkpt lat="59.3708550812" lon="34.7091206942"><ele>172.47</ele><time>2026-08-15T14:34:49.095Z</time><hdop>3.0</hdop><vdop>1.5</vdop><extensions><gom:speed>1.296</gom:speed><gom:rel_alt>3.168</gom:rel_alt></extensions></trkpt>
   <trkpt lat="59.3709445999" lon="34.7091561496"><ele>171.67</ele><time>2026-08-15T14:34:57.096Z</time><hdop>3.0</hdop><vdop>1.375</vdop><extensions><gom:speed>1.224</gom:speed><gom:rel_alt>3.239</gom:rel_alt></extensions></trkpt>
   <trkpt lat="59.3709978669" lon="34.7093082812"><ele>171.751</ele><time>2026-08-15T14:35:07.095Z</time><hdop>3.0</hdop><vdop>1.562</vdop><extensions><gom:speed>1.152</gom:speed><gom:rel_alt>3.152</gom:rel_alt></extensions></trkpt>
   <trkpt lat="59.3710515949" lon="34.709452869"><ele>171.941</ele><time>2026-08-15T14:35:14.491Z</time><hdop>3.062</hdop><vdop>1.5</vdop><extensions><gom:speed>1.174</gom:speed><gom:rel_alt>2.552</gom:rel_alt></extensions></trkpt>
   <trkpt lat="59.3711396887" lon="34.7095309884"><ele>171.779</ele><time>2026-08-15T14:35:21.633Z</time><hdop>3.0</hdop><vdop>1.437</vdop><extensions><gom:speed>1.211</gom:speed><gom:rel_alt>3.054</gom:rel_alt></extensions></trkpt>
   <trkpt lat="59.37122246" lon="34.709614053"><ele>171.197</ele><time>2026-08-15T14:35:28.492Z</time><hdop>3.0</hdop><vdop>1.437</vdop><extensions><gom:speed>1.253</gom:speed><gom:rel_alt>2.185</gom:rel_alt></extensions></trkpt>
   <trkpt lat="59.3713006631" lon="34.7097174857"><ele>171.06</ele><time>2026-08-15T14:35:35.460Z</time><hdop>3.062</hdop><vdop>1.5</vdop><extensions><gom:speed>1.301</gom:speed><gom:rel_alt>2.626</gom:rel_alt></extensions></trkpt>
   <trkpt lat="59.3713836859" lon="34.7098135423"><ele>170.952</ele><time>2026-08-15T14:35:42.778Z</time><hdop>3.0</hdop><vdop>1.5</vdop><extensions><gom:speed>1.294</gom:speed><gom:rel_alt>2.023</gom:rel_alt></extensions></trkpt>
   <trkpt lat="59.3714600869" lon="34.7099108562"><ele>170.333</ele><time>2026-08-15T14:35:59.122Z</time><hdop>3.0</hdop><vdop>1.375</vdop><extensions><gom:speed>1.131</gom:speed><gom:rel_alt>1.897</gom:rel_alt></extensions></trkpt>
   <trkpt lat="59.3715480969" lon="34.709987383"><ele>170.912</ele><time>2026-08-15T14:36:07.132Z</time><hdop>3.0</hdop><vdop>1.562</vdop><extensions><gom:speed>1.269</gom:speed><gom:rel_alt>2.391</gom:rel_alt></extensions></trkpt>
   <trkpt lat="59.3716314969" lon="34.710063323"><ele>170.793</ele><time>2026-08-15T14:36:15.115Z</time><hdop>3.0</hdop><vdop>1.5</vdop><extensions><gom:speed>1.311</gom:speed><gom:rel_alt>2.243</gom:rel_alt></extensions></trkpt>
   <trkpt lat="59.3717060958" lon="34.7101658337"><ele>170.57</ele><time>2026-08-15T14:36:23.491Z</time><hdop>3.062</hdop><vdop>1.375</vdop><extensions><gom:speed>1.253</gom:speed><gom:rel_alt>2.882</gom:rel_alt></extensions></trkpt>
   <trkpt lat="59.3717846761" lon="34.7102681767"><ele>170.384</ele><time>2026-08-15T14:40:00.128Z</time><hdop>3.187</hdop><vdop>1.5</vdop><extensions><gom:speed>1.259</gom:speed><gom:rel_alt>2.14</gom:rel_alt></extensions></trkpt>
   <trkpt lat="59.3718660644" lon="34.7103507385"><ele>169.771</ele><time>2026-08-15T14:40:10.476Z</time><hdop>3.125</hdop><vdop>1.437</vdop><extensions><gom:speed>1.152</gom:speed><gom:rel_alt>1.878</gom:rel_alt></extensions></trkpt>
   <trkpt lat="59.3719687846" lon="34.7104699292"><ele>169.256</ele><time>2026-08-15T14:40:22.491Z</time><hdop>4.5</hdop><vdop>1.375</vdop><extensions><gom:speed>1.077</gom:speed><gom:rel_alt>-0.266</gom:rel_alt></extensions></trkpt>
   <trkpt lat="59.3720609856" lon="34.7105331287"><ele>169.494</ele><time>2026-08-15T14:40:27.990Z</time><hdop>3.5</hdop><vdop>1.375</vdop><extensions><gom:speed>1.245</gom:speed><gom:rel_alt>1.252</gom:rel_alt></extensions></trkpt>
   <trkpt lat="59.3721469839" lon="34.7104433585"><ele>169.953</ele><time>2026-08-15T14:40:33.871Z</time><hdop>3.125</hdop><vdop>1.375</vdop><extensions><gom:speed>1.381</gom:speed><gom:rel_alt>2.092</gom:rel_alt></extensions></trkpt>
   <trkpt lat="59.3722616902" lon="34.7103488945"><ele>169.34</ele><time>2026-08-15T14:40:46.723Z</time><hdop>3.625</hdop><vdop>1.375</vdop><extensions><gom:speed>1.274</gom:speed><gom:rel_alt>2.504</gom:rel_alt></extensions></trkpt>
   <trkpt lat="59.3723482753" lon="34.7102999442"><ele>169.586</ele><time>2026-08-15T14:40:49.908Z</time><hdop>4.437</hdop><vdop>1.375</vdop><extensions><gom:speed>1.207</gom:speed><gom:rel_alt>2.671</gom:rel_alt></extensions></trkpt>
   <trkpt lat="59.3724206949" lon="34.7101899736"><ele>169.964</ele><time>2026-08-15T14:40:56.825Z</time><hdop>3.25</hdop><vdop>1.375</vdop><extensions><gom:speed>1.34</gom:speed><gom:rel_alt>2.636</gom:rel_alt></extensions></trkpt>
   <trkpt lat="59.3725063999" lon="34.7101357427"><ele>170.622</ele><time>2026-08-15T14:41:04.104Z</time><hdop>3.0</hdop><vdop>1.437</vdop><extensions><gom:speed>1.274</gom:speed><gom:rel_alt>2.042</gom:rel_alt></extensions></trkpt>
   <trkpt lat="59.3725857765" lon="34.7100483194"><ele>169.215</ele><time>2026-08-15T14:41:11.491Z</time><hdop>3.0</hdop><vdop>1.375</vdop><extensions><gom:speed>1.303</gom:speed><gom:rel_alt>2.156</gom:rel_alt></extensions></trkpt>
   <trkpt lat="59.3726346849" lon="34.7098994568"><ele>169.552</ele><time>2026-08-15T14:41:19.004Z</time><hdop>3.0</hdop><vdop>1.375</vdop><extensions><gom:speed>1.301</gom:speed><gom:rel_alt>2.306</gom:rel_alt></extensions></trkpt>
   <trkpt lat="59.3726792767" lon="34.7097286336"><ele>170.163</ele><time>2026-08-15T14:41:26.426Z</time><hdop>3.0</hdop><vdop>1.375</vdop><extensions><gom:speed>1.383</gom:speed><gom:rel_alt>2.716</gom:rel_alt></extensions></trkpt>
   <trkpt lat="59.3727132653" lon="34.7095634263"><ele>170.499</ele><time>2026-08-15T14:41:33.200Z</time><hdop>3.0</hdop><vdop>1.437</vdop><extensions><gom:speed>1.369</gom:speed><gom:rel_alt>2.451</gom:rel_alt></extensions></trkpt>
   <trkpt lat="59.3727467929" lon="34.709387574"><ele>169.701</ele><time>2026-08-15T14:41:40.583Z</time><hdop>3.0</hdop><vdop>1.375</vdop><extensions><gom:speed>1.34</gom:speed><gom:rel_alt>3.355</gom:rel_alt></extensions></trkpt>
   <trkpt lat="59.3727904626" lon="34.7092279826"><ele>170.137</ele><time>2026-08-15T14:41:48.005Z</time><hdop>3.0</hdop><vdop>1.375</vdop><extensions><gom:speed>1.361</gom:speed><gom:rel_alt>2.792</gom:rel_alt></extensions></trkpt>
   <trkpt lat="59.372837988" lon="34.7090639487"><ele>171.3</ele><time>2026-08-15T14:41:56.147Z</time><hdop>3.062</hdop><vdop>1.375</vdop><extensions><gom:speed>1.31</gom:speed><gom:rel_alt>3.825</gom:rel_alt></extensions></trkpt>
   <trkpt lat="59.3728943982" lon="34.7088989929"><ele>171.001</ele><time>2026-08-15T14:42:05.279Z</time><hdop>3.0</hdop><vdop>1.375</vdop><extensions><gom:speed>1.229</gom:speed><gom:rel_alt>3.574</gom:rel_alt></extensions></trkpt>
   <trkpt lat="59.3729180771" lon="34.7087244816"><ele>170.181</ele><time>2026-08-15T14:45:03.491Z</time><hdop>3.0</hdop><vdop>1.437</vdop><extensions><gom:speed>0.752</gom:speed><gom:rel_alt>3.448</gom:rel_alt></extensions></trkpt>
   <trkpt lat="59.3729511856" lon="34.708463553"><ele>169.948</ele><time>2026-08-15T14:45:22.490Z</time><hdop>4.437</hdop><vdop>1.312</vdop><extensions><gom:speed>0.704</gom:speed><gom:rel_alt>3.3</gom:rel_alt></extensions></trkpt>
   <trkpt lat="59.3730155586" lon="34.7083386626"><ele>169.812</ele><time>2026-08-15T14:45:24.664Z</time><hdop>4.75</hdop><vdop>1.375</vdop><extensions><gom:speed>1.073</gom:speed><gom:rel_alt>3.226</gom:rel_alt></extensions></trkpt>
   <trkpt lat="59.3730245692" lon="34.7081588708"><ele>169.243</ele><time>2026-08-15T14:45:36.489Z</time><hdop>3.0</hdop><vdop>1.5</vdop><extensions><gom:speed>1.073</gom:speed><gom:rel_alt>2.845</gom:rel_alt></extensions></trkpt>
   <trkpt lat="59.3731233918" lon="34.70813515"><ele>169.185</ele><time>2026-08-15T14:45:45.346Z</time><hdop>4.25</hdop><vdop>1.437</vdop><extensions><gom:speed>1.243</gom:speed><gom:rel_alt>2.837</gom:rel_alt></extensions></trkpt>
   <trkpt lat="59.3731749824" lon="34.7079810906"><ele>169.123</ele><time>2026-08-15T14:45:46.362Z</time><hdop>4.312</hdop><vdop>1.5</vdop><extensions><gom:speed>1.112</gom:speed><gom:rel_alt>2.856</gom:rel_alt></extensions></trkpt>
   <trkpt lat="59.3732065822" lon="34.7078096807"><ele>169.285</ele><time>2026-08-15T14:45:52.701Z</time><hdop>3.562</hdop><vdop>1.625</vdop><extensions><gom:speed>1.279</gom:speed><gom:rel_alt>2.644</gom:rel_alt></extensions></trkpt>
   <trkpt lat="59.3733016749" lon="34.7077268675"><ele>168.295</ele><time>2026-08-15T14:46:03.079Z</time><hdop>3.437</hdop><vdop>1.625</vdop><extensions><gom:speed>1.346</gom:speed><gom:rel_alt>1.577</gom:rel_alt></extensions></trkpt>
   <trkpt lat="59.3733447998" lon="34.7075653482"><ele>168.29</ele><time>2026-08-15T14:46:12.490Z</time><hdop>3.125</hdop><vdop>1.5</vdop><extensions><gom:speed>1.22</gom:speed><gom:rel_alt>1.915</gom:rel_alt></extensions></trkpt>
   <trkpt lat="59.3734374617" lon="34.7073566389"><ele>168.248</ele><time>2026-08-15T14:46:25.260Z</time><hdop>4.437</hdop><vdop>1.687</vdop><extensions><gom:speed>1.117</gom:speed><gom:rel_alt>1.891</gom:rel_alt></extensions></trkpt>
   <trkpt lat="59.3735042655" lon="34.7072364424"><ele>168.062</ele><time>2026-08-15T14:46:29.307Z</time><hdop>3.937</hdop><vdop>1.875</vdop><extensions><gom:speed>1.164</gom:speed><gom:rel_alt>2.092</gom:rel_alt></extensions></trkpt>
   <trkpt lat="59.3735716979" lon="34.7071050979"><ele>168.384</ele><time>2026-08-15T14:46:37.822Z</time><hdop>3.0</hdop><vdop>1.5</vdop><extensions><gom:speed>1.302</gom:speed><gom:rel_alt>1.765</gom:rel_alt></extensions></trkpt>
   <trkpt lat="59.3736555588" lon="34.7070320916"><ele>168.454</ele><time>2026-08-15T14:46:45.490Z</time><hdop>3.0</hdop><vdop>1.437</vdop><extensions><gom:speed>1.264</gom:speed><gom:rel_alt>2.166</gom:rel_alt></extensions></trkpt>
   <trkpt lat="59.3737449937" lon="34.7069857396"><ele>168.558</ele><time>2026-08-15T14:46:53.702Z</time><hdop>3.0</hdop><vdop>1.625</vdop><extensions><gom:speed>1.221</gom:speed><gom:rel_alt>1.355</gom:rel_alt></extensions></trkpt>
   <trkpt lat="59.3738326684" lon="34.7069086261"><ele>167.833</ele><time>2026-08-15T14:47:02.490Z</time><hdop>3.0</hdop><vdop>1.437</vdop><extensions><gom:speed>1.31</gom:speed><gom:rel_alt>1.273</gom:rel_alt></extensions></trkpt>
   <trkpt lat="59.3739105782" lon="34.7068026789"><ele>168.209</ele><time>2026-08-15T14:47:10.483Z</time><hdop>3.0</hdop><vdop>1.437</vdop><extensions><gom:speed>1.313</gom:speed><gom:rel_alt>1.146</gom:rel_alt></extensions></trkpt>
   <trkpt lat="59.3739802738" lon="34.7066782914"><ele>167.44</ele><time>2026-08-15T14:49:31.383Z</time><hdop>3.562</hdop><vdop>1.437</vdop><extensions><gom:speed>1.051</gom:speed><gom:rel_alt>1.294</gom:rel_alt></extensions></trkpt>
   <trkpt lat="59.3740821977" lon="34.7066108171"><ele>166.902</ele><time>2026-08-15T14:49:40.163Z</time><hdop>3.062</hdop><vdop>1.437</vdop><extensions><gom:speed>1.455</gom:speed><gom:rel_alt>1.672</gom:rel_alt></extensions></trkpt>
   <trkpt lat="59.3741490853" lon="34.7064841666"><ele>167.005</ele><time>2026-08-15T14:49:45.844Z</time><hdop>3.187</hdop><vdop>1.375</vdop><extensions><gom:speed>1.48</gom:speed><gom:rel_alt>1.942</gom:rel_alt></extensions></trkpt>
   <trkpt lat="59.3741928807" lon="34.7063174505"><ele>167.121</ele><time>2026-08-15T14:49:52.201Z</time><hdop>3.0</hdop><vdop>1.437</vdop><extensions><gom:speed>1.504</gom:speed><gom:rel_alt>1.979</gom:rel_alt></extensions></trkpt>
   <trkpt lat="59.3742823995" lon="34.706227345"><ele>167.652</ele><time>2026-08-15T14:50:00.620Z</time><hdop>3.0</hdop><vdop>1.375</vdop><extensions><gom:speed>1.367</gom:speed><gom:rel_alt>2.216</gom:rel_alt></extensions></trkpt>
   <trkpt lat="59.3743389773" lon="34.7060874511"><ele>167.945</ele><time>2026-08-15T14:50:11.187Z</time><hdop>3.0</hdop><vdop>1.375</vdop><extensions><gom:speed>1.281</gom:speed><gom:rel_alt>2.636</gom:rel_alt></extensions></trkpt>
   <trkpt lat="59.374367392" lon="34.705913778"><ele>168.018</ele><time>2026-08-15T14:50:17.020Z</time><hdop>3.0</hdop><vdop>1.375</vdop><extensions><gom:speed>1.416</gom:speed><gom:rel_alt>2.518</gom:rel_alt></extensions></trkpt>
   <trkpt lat="59.3744398954" lon="34.7057754766"><ele>168.049</ele><time>2026-08-15T14:50:23.701Z</time><hdop>3.0</hdop><vdop>1.5</vdop><extensions><gom:speed>1.426</gom:speed><gom:rel_alt>2.589</gom:rel_alt></extensions></trkpt>
   <trkpt lat="59.3744742612" lon="34.7056111913"><ele>167.924</ele><time>2026-08-15T14:50:33.221Z</time><hdop>3.0</hdop><vdop>1.375</vdop><extensions><gom:speed>0.896</gom:speed><gom:rel_alt>2.317</gom:rel_alt></extensions></trkpt>
   <trkpt lat="59.3745598824" lon="34.7056893945"><ele>167.806</ele><time>2026-08-15T14:50:41.403Z</time><hdop>3.0</hdop><vdop>1.375</vdop><extensions><gom:speed>1.262</gom:speed><gom:rel_alt>2.301</gom:rel_alt></extensions></trkpt>
   <trkpt lat="59.3746168793" lon="34.7055226784"><ele>167.774</ele><time>2026-08-15T14:50:46.686Z</time><hdop>3.625</hdop><vdop>1.437</vdop><extensions><gom:speed>1.401</gom:speed><gom:rel_alt>2.327</gom:rel_alt></extensions></trkpt>
   <trkpt lat="59.3746582859" lon="34.7053535316"><ele>167.833</ele><time>2026-08-15T14:50:52.491Z</time><hdop>3.0</hdop><vdop>1.375</vdop><extensions><gom:speed>1.212</gom:speed><gom:rel_alt>2.449</gom:rel_alt></extensions></trkpt>
   <trkpt lat="59.3747152829" lon="34.7052094467"><ele>167.931</ele><time>2026-08-15T14:51:00.482Z</time><hdop>3.0</hdop><vdop>1.375</vdop><extensions><gom:speed>1.287</gom:speed><gom:rel_alt>1.965</gom:rel_alt></extensions></trkpt>
   <trkpt lat="59.3748012812" lon="34.7051318303"><ele>167.592</ele><time>2026-08-15T14:51:08.843Z</time><hdop>3.062</hdop><vdop>1.375</vdop><extensions><gom:speed>1.206</gom:speed><gom:rel_alt>2.214</gom:rel_alt></extensions></trkpt>
   <trkpt lat="59.3748487647" lon="34.7049816266"><ele>167.815</ele><time>2026-08-15T14:51:15.380Z</time><hdop>3.0</hdop><vdop>1.375</vdop><extensions><gom:speed>1.194</gom:speed><gom:rel_alt>2.314</gom:rel_alt></extensions></trkpt>
   <trkpt lat="59.3748928954" lon="34.7048274834"><ele>168.015</ele><time>2026-08-15T14:51:22.802Z</time><hdop>3.0</hdop><vdop>1.375</vdop><extensions><gom:speed>1.267</gom:speed><gom:rel_alt>2.481</gom:rel_alt></extensions></trkpt>
   <trkpt lat="59.3749437735" lon="34.7046763577"><ele>167.929</ele><time>2026-08-15T14:51:30.897Z</time><hdop>3.0</hdop><vdop>1.375</vdop><extensions><gom:speed>1.286</gom:speed><gom:rel_alt>2.169</gom:rel_alt></extensions></trkpt>
   <trkpt lat="59.375009781" lon="34.7045462705"><ele>167.754</ele><time>2026-08-15T14:51:38.298Z</time><hdop>3.062</hdop><vdop>1.375</vdop><extensions><gom:speed>1.319</gom:speed><gom:rel_alt>1.897</gom:rel_alt></extensions></trkpt>
   <trkpt lat="59.3750534926" lon="34.7043880202"><ele>167.521</ele><time>2026-08-15T14:54:30.858Z</time><hdop>3.812</hdop><vdop>1.375</vdop><extensions><gom:speed>1.352</gom:speed><gom:rel_alt>1.889</gom:rel_alt></extensions></trkpt>
   <trkpt lat="59.3751208831" lon="34.7042638842"><ele>167.46</ele><time>2026-08-15T14:54:38.260Z</time><hdop>3.062</hdop><vdop>1.375</vdop><extensions><gom:speed>1.237</gom:speed><gom:rel_alt>2.465</gom:rel_alt></extensions></trkpt>
   <trkpt lat="59.375207091" lon="34.7041808196"><ele>167.36</ele><time>2026-08-15T14:54:46.491Z</time><hdop>3.0</hdop><vdop>1.375</vdop><extensions><gom:speed>1.309</gom:speed><gom:rel_alt>1.617</gom:rel_alt></extensions></trkpt>
   <trkpt lat="59.3752950591" lon="34.704091217"><ele>167.591</ele><time>2026-08-15T14:54:54.463Z</time><hdop>3.0</hdop><vdop>1.375</vdop><extensions><gom:speed>1.333</gom:speed><gom:rel_alt>2.544</gom:rel_alt></extensions></trkpt>
   <trkpt lat="59.3753670596" lon="34.7039803244"><ele>167.971</ele><time>2026-08-15T14:55:02.823Z</time><hdop>3.0</hdop><vdop>1.375</vdop><extensions><gom:speed>1.331</gom:speed><gom:rel_alt>2.467</gom:rel_alt></extensions></trkpt>
   <trkpt lat="59.3754507949" lon="34.7039064799"><ele>167.928</ele><time>2026-08-15T14:55:10.055Z</time><hdop>3.0</hdop><vdop>1.375</vdop><extensions><gom:speed>1.324</gom:speed><gom:rel_alt>2.367</gom:rel_alt></extensions></trkpt>
   <trkpt lat="59.3755355778" lon="34.7038271871"><ele>168.034</ele><time>2026-08-15T14:55:17.960Z</time><hdop>3.0</hdop><vdop>1.375</vdop><extensions><gom:speed>1.345</gom:speed><gom:rel_alt>3.535</gom:rel_alt></extensions></trkpt>
   <trkpt lat="59.3756156669" lon="34.7037372492"><ele>168.293</ele><time>2026-08-15T14:55:26.122Z</time><hdop>3.062</hdop><vdop>1.375</vdop><extensions><gom:speed>1.283</gom:speed><gom:rel_alt>2.409</gom:rel_alt></extensions></trkpt>
   <trkpt lat="59.3756865778" lon="34.7036047314"><ele>168.373</ele><time>2026-08-15T14:55:33.490Z</time><hdop>3.0</hdop><vdop>1.375</vdop><extensions><gom:speed>1.259</gom:speed><gom:rel_alt>3.323</gom:rel_alt></extensions></trkpt>
   <trkpt lat="59.3757515795" lon="34.7034821879"><ele>168.311</ele><time>2026-08-15T14:55:40.042Z</time><hdop>3.0</hdop><vdop>1.437</vdop><extensions><gom:speed>1.401</gom:speed><gom:rel_alt>3.149</gom:rel_alt></extensions></trkpt>
   <trkpt lat="59.3758233705" lon="34.7033722174"><ele>168.515</ele><time>2026-08-15T14:55:48.661Z</time><hdop>3.0</hdop><vdop>1.375</vdop><extensions><gom:speed>1.154</gom:speed><gom:rel_alt>3.051</gom:rel_alt></extensions></trkpt>
   <trkpt lat="59.3759107937" lon="34.7032916673"><ele>168.586</ele><time>2026-08-15T14:55:57.079Z</time><hdop>3.0</hdop><vdop>1.375</vdop><extensions><gom:speed>1.311</gom:speed><gom:rel_alt>3.897</gom:rel_alt></extensions></trkpt>
   <trkpt lat="59.3759977979" lon="34.7032304794"><ele>168.84</ele><time>2026-08-15T14:56:04.576Z</time><hdop>3.0</hdop><vdop>1.375</vdop><extensions><gom:speed>1.305</gom:speed><gom:rel_alt>3.384</gom:rel_alt></extensions></trkpt>
   <trkpt lat="59.3760913818" lon="34.7031821996"><ele>168.907</ele><time>2026-08-15T14:56:12.491Z</time><hdop>3.0</hdop><vdop>1.375</vdop><extensions><gom:speed>1.335</gom:speed><gom:rel_alt>2.967</gom:rel_alt></extensions></trkpt>
   <trkpt lat="59.3761805653" lon="34.7031099476"><ele>168.972</ele><time>2026-08-15T14:56:20.015Z</time><hdop>3.0</hdop><vdop>1.375</vdop><extensions><gom:speed>1.332</gom:speed><gom:rel_alt>3.149</gom:rel_alt></extensions></trkpt>
   <trkpt lat="59.3762645938" lon="34.7030363545"><ele>168.755</ele><time>2026-08-15T14:56:27.057Z</time><hdop>3.0</hdop><vdop>1.375</vdop><extensions><gom:speed>1.367</gom:speed><gom:rel_alt>3.109</gom:rel_alt></extensions></trkpt>
   <trkpt lat="59.3763581778" lon="34.7029792737"><ele>169.025</ele><time>2026-08-15T14:56:35.179Z</time><hdop>3.0</hdop><vdop>1.437</vdop><extensions><gom:speed>1.31</gom:speed><gom:rel_alt>3.477</gom:rel_alt></extensions></trkpt>
   <trkpt lat="59.3764426674" lon="34.7029000648"><ele>169.091</ele><time>2026-08-15T14:56:44.158Z</time><hdop>3.0</hdop><vdop>1.375</vdop><extensions><gom:speed>1.186</gom:speed><gom:rel_alt>2.61</gom:rel_alt></extensions></trkpt>
   <trkpt lat="59.3764908633" lon="34.7027374558"><ele>169.404</ele><time>2026-08-15T14:59:50.490Z</time><hdop>3.75</hdop><vdop>1.375</vdop><extensions><gom:speed>1.159</gom:speed><gom:rel_alt>3.427</gom:rel_alt></extensions></trkpt>
   <trkpt lat="59.3765510873" lon="34.7025971428"><ele>169.197</ele><time>2026-08-15T14:59:58.158Z</time><hdop>3.0</hdop><vdop>1.437</vdop><extensions><gom:speed>1.332</gom:speed><gom:rel_alt>2.193</gom:rel_alt></extensions></trkpt>
   <trkpt lat="59.3765654622" lon="34.7024166804"><ele>168.659</ele><time>2026-08-15T15:00:05.979Z</time><hdop>3.0</hdop><vdop>1.312</vdop><extensions><gom:speed>1.296</gom:speed><gom:rel_alt>2.729</gom:rel_alt></extensions></trkpt>
   <trkpt lat="59.3765631991" lon="34.7022375591"><ele>168.795</ele><time>2026-08-15T15:00:13.836Z</time><hdop>3.0</hdop><vdop>1.312</vdop><extensions><gom:speed>1.23</gom:speed><gom:rel_alt>2.581</gom:rel_alt></extensions></trkpt>
   <trkpt lat="59.376575772" lon="34.702062545"><ele>167.987</ele><time>2026-08-15T15:00:21.237Z</time><hdop>3.062</hdop><vdop>1.312</vdop><extensions><gom:speed>1.322</gom:speed><gom:rel_alt>1.881</gom:rel_alt></extensions></trkpt>
   <trkpt lat="59.3765598883" lon="34.7018772211"><ele>167.551</ele><time>2026-08-15T15:00:30.283Z</time><hdop>3.0</hdop><vdop>1.375</vdop><extensions><gom:speed>1.218</gom:speed><gom:rel_alt>1.698</gom:rel_alt></extensions></trkpt>
   <trkpt lat="59.3765704914" lon="34.7016959205"><ele>168.284</ele><time>2026-08-15T15:00:38.978Z</time><hdop>3.0</hdop><vdop>1.312</vdop><extensions><gom:speed>1.141</gom:speed><gom:rel_alt>1.543</gom:rel_alt></extensions></trkpt>
   <trkpt lat="59.376594296" lon="34.7015222475"><ele>167.391</ele><time>2026-08-15T15:00:47.490Z</time><hdop>3.062</hdop><vdop>1.312</vdop><extensions><gom:speed>1.185</gom:speed><gom:rel_alt>1.669</gom:rel_alt></extensions></trkpt>
   <trkpt lat="59.3766314697" lon="34.7013601415"><ele>167.846</ele><time>2026-08-15T15:00:54.683Z</time><hdop>3.0</hdop><vdop>1.375</vdop><extensions><gom:speed>1.319</gom:speed><gom:rel_alt>0.887</gom:rel_alt></extensions></trkpt>
   <trkpt lat="59.3766730859" lon="34.7012022265"><ele>166.949</ele><time>2026-08-15T15:01:01.837Z</time><hdop>3.0</hdop><vdop>1.375</vdop><extensions><gom:speed>1.369</gom:speed><gom:rel_alt>1.181</gom:rel_alt></extensions></trkpt>
   <trkpt lat="59.3767209885" lon="34.7010430541"><ele>168.35</ele><time>2026-08-15T15:01:10.094Z</time><hdop>3.0</hdop><vdop>1.312</vdop><extensions><gom:speed>1.287</gom:speed><gom:rel_alt>1.305</gom:rel_alt></extensions></trkpt>
   <trkpt lat="59.3767637781" lon="34.7008771762"><ele>167.255</ele><time>2026-08-15T15:01:18.219Z</time><hdop>3.0</hdop><vdop>1.312</vdop><extensions><gom:speed>1.251</gom:speed><gom:rel_alt>1.236</gom:rel_alt></extensions></trkpt>
   <trkpt lat="59.3767901811" lon="34.700703587"><ele>167.331</ele><time>2026-08-15T15:01:26.457Z</time><hdop>3.0</hdop><vdop>1.312</vdop><extensions><gom:speed>1.149</gom:speed><gom:rel_alt>1.78</gom:rel_alt></extensions></trkpt>
   <trkpt lat="59.3768225771" lon="34.7005375415"><ele>167.137</ele><time>2026-08-15T15:04:21.803Z</time><hdop>3.187</hdop><vdop>1.312</vdop><extensions><gom:speed>1.141</gom:speed><gom:rel_alt>1.038</gom:rel_alt></extensions></trkpt>
   <trkpt lat="59.37686478" lon="34.7003740944"><ele>168.019</ele><time>2026-08-15T15:04:29.159Z</time><hdop>3.0</hdop><vdop>1.312</vdop><extensions><gom:speed>1.343</gom:speed><gom:rel_alt>1.424</gom:rel_alt></extensions></trkpt>
   <trkpt lat="59.3768771852" lon="34.7001817297"><ele>168.003</ele><time>2026-08-15T15:04:37.075Z</time><hdop>3.0</hdop><vdop>1.312</vdop><extensions><gom:speed>1.274</gom:speed><gom:rel_alt>1.416</gom:rel_alt></extensions></trkpt>
   <trkpt lat="59.3768580745" lon="34.6999989204"><ele>167.094</ele><time>2026-08-15T15:04:44.277Z</time><hdop>3.0</hdop><vdop>1.312</vdop><extensions><gom:speed>1.372</gom:speed><gom:rel_alt>1.167</gom:rel_alt></extensions></trkpt>
   <trkpt lat="59.3768441605" lon="34.6998076454"><ele>167.064</ele><time>2026-08-15T15:04:52.490Z</time><hdop>3.0</hdop><vdop>1.312</vdop><extensions><gom:speed>1.323</gom:speed><gom:rel_alt>0.612</gom:rel_alt></extensions></trkpt>
   <trkpt lat="59.3768338927" lon="34.6996246685"><ele>167.718</ele><time>2026-08-15T15:05:00.081Z</time><hdop>3.0</hdop><vdop>1.312</vdop><extensions><gom:speed>1.292</gom:speed><gom:rel_alt>0.742</gom:rel_alt></extensions></trkpt>
   <trkpt lat="59.3768175899" lon="34.6994460501"><ele>166.983</ele><time>2026-08-15T15:05:07.597Z</time><hdop>3.0</hdop><vdop>1.312</vdop><extensions><gom:speed>1.347</gom:speed><gom:rel_alt>1.442</gom:rel_alt></extensions></trkpt>
   <trkpt lat="59.376745296" lon="34.6993383426"><ele>167.087</ele><time>2026-08-15T15:05:21.062Z</time><hdop>3.0</hdop><vdop>1.312</vdop><extensions><gom:speed>1.386</gom:speed><gom:rel_alt>1.046</gom:rel_alt></extensions></trkpt>
   <trkpt lat="59.3768088727" lon="34.6992102672"><ele>167.226</ele><time>2026-08-15T15:05:26.137Z</time><hdop>3.0</hdop><vdop>1.312</vdop><extensions><gom:speed>1.417</gom:speed><gom:rel_alt>0.792</gom:rel_alt></extensions></trkpt>
   <trkpt lat="59.3768345633" lon="34.6990276255"><ele>167.266</ele><time>2026-08-15T15:05:33.958Z</time><hdop>3.0</hdop><vdop>1.312</vdop><extensions><gom:speed>1.364</gom:speed><gom:rel_alt>0.755</gom:rel_alt></extensions></trkpt>
   <trkpt lat="59.3768310848" lon="34.6988446485"><ele>166.329</ele><time>2026-08-15T15:05:41.489Z</time><hdop>3.0</hdop><vdop>1.312</vdop><extensions><gom:speed>1.251</gom:speed><gom:rel_alt>0.811</gom:rel_alt></extensions></trkpt>
   <trkpt lat="59.3768366587" lon="34.6986627612"><ele>166.681</ele><time>2026-08-15T15:05:49.489Z</time><hdop>3.0</hdop><vdop>1.312</vdop><extensions><gom:speed>1.391</gom:speed><gom:rel_alt>1.17</gom:rel_alt></extensions></trkpt>
   <trkpt lat="59.3768791969" lon="34.6984936983"><ele>167.996</ele><time>2026-08-15T15:05:58.490Z</time><hdop>3.062</hdop><vdop>1.312</vdop><extensions><gom:speed>1.368</gom:speed><gom:rel_alt>2.034</gom:rel_alt></extensions></trkpt>
   <trkpt lat="59.3768530873" lon="34.6983139903"><ele>167.203</ele><time>2026-08-15T15:06:07.237Z</time><hdop>3.125</hdop><vdop>1.312</vdop><extensions><gom:speed>1.169</gom:speed><gom:rel_alt>1.532</gom:rel_alt></extensions></trkpt>
   <trkpt lat="59.3768238763" lon="34.6981422451"><ele>167.676</ele><time>2026-08-15T15:06:15.297Z</time><hdop>3.0</hdop><vdop>1.312</vdop><extensions><gom:speed>1.199</gom:speed><gom:rel_alt>1.476</gom:rel_alt></extensions></trkpt>
   <trkpt lat="59.3768131894" lon="34.6979553286"><ele>168.092</ele><time>2026-08-15T15:06:23.204Z</time><hdop>3.0</hdop><vdop>1.375</vdop><extensions><gom:speed>1.244</gom:speed><gom:rel_alt>2.483</gom:rel_alt></extensions></trkpt>
   <trkpt lat="59.3768033826" lon="34.6977778837"><ele>168.776</ele><time>2026-08-15T15:06:30.463Z</time><hdop>3.0</hdop><vdop>1.312</vdop><extensions><gom:speed>1.282</gom:speed><gom:rel_alt>2.314</gom:rel_alt></extensions></trkpt>
   <trkpt lat="59.3767792846" lon="34.6976046298"><ele>167.754</ele><time>2026-08-15T15:06:38.122Z</time><hdop>3.0</hdop><vdop>1.312</vdop><extensions><gom:speed>1.107</gom:speed><gom:rel_alt>2.478</gom:rel_alt></extensions></trkpt>
   <trkpt lat="59.3767472657" lon="34.697429448"><ele>168.997</ele><time>2026-08-15T15:09:11.823Z</time><hdop>3.375</hdop><vdop>1.375</vdop><extensions><gom:speed>1.221</gom:speed><gom:rel_alt>2.483</gom:rel_alt></extensions></trkpt>
   <trkpt lat="59.3767260595" lon="34.6972457167"><ele>168.855</ele><time>2026-08-15T15:09:20.138Z</time><hdop>3.0</hdop><vdop>1.312</vdop><extensions><gom:speed>1.212</gom:speed><gom:rel_alt>1.891</gom:rel_alt></extensions></trkpt>
   <trkpt lat="59.3767173842" lon="34.6970685233"><ele>168.532</ele><time>2026-08-15T15:09:29.059Z</time><hdop>3.0</hdop><vdop>1.375</vdop><extensions><gom:speed>1.206</gom:speed><gom:rel_alt>1.408</gom:rel_alt></extensions></trkpt>
   <trkpt lat="59.3766780731" lon="34.6968910784"><ele>168.504</ele><time>2026-08-15T15:09:37.982Z</time><hdop>3.0</hdop><vdop>1.375</vdop><extensions><gom:speed>1.213</gom:speed><gom:rel_alt>1.31</gom:rel_alt></extensions></trkpt>
   <trkpt lat="59.3766543942" lon="34.6967105322"><ele>167.905</ele><time>2026-08-15T15:09:57.489Z</time><hdop>3.0</hdop><vdop>1.312</vdop><extensions><gom:speed>1.037</gom:speed><gom:rel_alt>1.86</gom:rel_alt></extensions></trkpt>
   <trkpt lat="59.3766119818" lon="34.6965373621"><ele>168.729</ele><time>2026-08-15T15:10:04.490Z</time><hdop>3.0</hdop><vdop>1.375</vdop><extensions><gom:speed>1.105</gom:speed><gom:rel_alt>2.23</gom:rel_alt></extensions></trkpt>
   <trkpt lat="59.3766339843" lon="34.6967136335"><ele>168.781</ele><time>2026-08-15T15:10:26.481Z</time><hdop>3.0</hdop><vdop>1.375</vdop><extensions><gom:speed>1.02</gom:speed><gom:rel_alt>1.617</gom:rel_alt></extensions></trkpt>
   <trkpt lat="59.3767108883" lon="34.6966191694"><ele>168.467</ele><time>2026-08-15T15:10:35.917Z</time><hdop>3.0</hdop><vdop>1.375</vdop><extensions><gom:speed>1.077</gom:speed><gom:rel_alt>1.12</gom:rel_alt></extensions></trkpt>
   <trkpt lat="59.3767904744" lon="34.6965353504"><ele>168.394</ele><time>2026-08-15T15:10:45.323Z</time><hdop>3.0</hdop><vdop>1.312</vdop><extensions><gom:speed>1.139</gom:speed><gom:rel_alt>1.45</gom:rel_alt></extensions></trkpt>
   <trkpt lat="59.3768797836" lon="34.6964932732"><ele>168.672</ele><time>2026-08-15T15:11:19.122Z</time><hdop>3.187</hdop><vdop>1.375</vdop><extensions><gom:speed>0.741</gom:speed><gom:rel_alt>1.691</gom:rel_alt></extensions></trkpt>
   <trkpt lat="59.3769618844" lon="34.6964026649"><ele>168.895</ele><time>2026-08-15T15:11:35.489Z</time><hdop>3.0</hdop><vdop>1.375</vdop><extensions><gom:speed>0.675</gom:speed><gom:rel_alt>2.496</gom:rel_alt></extensions></trkpt>
   <trkpt lat="59.3770561808" lon="34.6964291517"><ele>168.949</ele><time>2026-08-15T15:11:48.489Z</time><hdop>3.0</hdop><vdop>1.375</vdop><extensions><gom:speed>0.744</gom:speed><gom:rel_alt>1.905</gom:rel_alt></extensions></trkpt>
   <trkpt lat="59.377137569" lon="34.6963447459"><ele>169.167</ele><time>2026-08-15T15:12:01.489Z</time><hdop>3.0</hdop><vdop>1.375</vdop><extensions><gom:speed>0.771</gom:speed><gom:rel_alt>2.37</gom:rel_alt></extensions></trkpt>
   <trkpt lat="59.3772324941" lon="34.696307195"><ele>169.069</ele><time>2026-08-15T15:12:22.490Z</time><hdop>3.0</hdop><vdop>1.375</vdop><extensions><gom:speed>0.919</gom:speed><gom:rel_alt>1.487</gom:rel_alt></extensions></trkpt>
   <trkpt lat="59.3773234797" lon="34.6963250485"><ele>168.992</ele><time>2026-08-15T15:12:31.422Z</time><hdop>3.0</hdop><vdop>1.375</vdop><extensions><gom:speed>0.84</gom:speed><gom:rel_alt>2.002</gom:rel_alt></extensions></trkpt>
   <trkpt lat="59.377404365" lon="34.696243744"><ele>169.364</ele><time>2026-08-15T15:12:43.480Z</time><hdop>3.0</hdop><vdop>1.312</vdop><extensions><gom:speed>0.88</gom:speed><gom:rel_alt>2.018</gom:rel_alt></extensions></trkpt>
   <trkpt lat="59.3774991644" lon="34.696293784"><ele>169.481</ele><time>2026-08-15T15:12:55.357Z</time><hdop>3.0</hdop><vdop>1.312</vdop><extensions><gom:speed>0.871</gom:speed><gom:rel_alt>2.298</gom:rel_alt></extensions></trkpt>
   <trkpt lat="59.3775815585" lon="34.6963770163"><ele>169.781</ele><time>2026-08-15T15:13:05.489Z</time><hdop>3.0</hdop><vdop>1.375</vdop><extensions><gom:speed>0.897</gom:speed><gom:rel_alt>2.948</gom:rel_alt></extensions></trkpt>
   <trkpt lat="59.3776682692" lon="34.6963114698"><ele>170.199</ele><time>2026-08-15T15:13:19.036Z</time><hdop>3.0</hdop><vdop>1.375</vdop><extensions><gom:speed>0.812</gom:speed><gom:rel_alt>2.438</gom:rel_alt></extensions></trkpt>
   <trkpt lat="59.3777609731" lon="34.6962931972"><ele>169.91</ele><time>2026-08-15T15:13:30.116Z</time><hdop>3.0</hdop><vdop>1.375</vdop><extensions><gom:speed>1.032</gom:speed><gom:rel_alt>2.848</gom:rel_alt></extensions></trkpt>
   <trkpt lat="59.3778447921" lon="34.6962246333"><ele>169.71</ele><time>2026-08-15T15:13:40.320Z</time><hdop>3.0</hdop><vdop>1.312</vdop><extensions><gom:speed>0.939</gom:speed><gom:rel_alt>2.592</gom:rel_alt></extensions></trkpt>
   <trkpt lat="59.377937496" lon="34.696185825"><ele>169.822</ele><time>2026-08-15T15:13:51.489Z</time><hdop>3.0</hdop><vdop>1.375</vdop><extensions><gom:speed>0.8</gom:speed><gom:rel_alt>3.094</gom:rel_alt></extensions></trkpt>
   <trkpt lat="59.3780256736" lon="34.6961325161"><ele>169.983</ele><time>2026-08-15T15:14:03.418Z</time><hdop>3.0</hdop><vdop>1.375</vdop><extensions><gom:speed>0.725</gom:speed><gom:rel_alt>3.057</gom:rel_alt></extensions></trkpt>
   <trkpt lat="59.3781096603" lon="34.6960657962"><ele>170.117</ele><time>2026-08-15T15:14:13.490Z</time><hdop>3.0</hdop><vdop>1.375</vdop><extensions><gom:speed>0.752</gom:speed><gom:rel_alt>2.85</gom:rel_alt></extensions></trkpt>
   <trkpt lat="59.3781937727" lon="34.6959782891"><ele>169.834</ele><time>2026-08-15T15:22:06.145Z</time><hdop>5.812</hdop><vdop>1.375</vdop><extensions><gom:speed>0.641</gom:speed><gom:rel_alt>2.837</gom:rel_alt></extensions></trkpt>
   <trkpt lat="59.3782912961" lon="34.6959571667"><ele>170.062</ele><time>2026-08-15T15:22:16.489Z</time><hdop>4.625</hdop><vdop>1.375</vdop><extensions><gom:speed>0.761</gom:speed><gom:rel_alt>3.067</gom:rel_alt></extensions></trkpt>
   <trkpt lat="59.3783832875" lon="34.6959897723"><ele>170.302</ele><time>2026-08-15T15:22:25.622Z</time><hdop>3.062</hdop><vdop>1.375</vdop><extensions><gom:speed>1.064</gom:speed><gom:rel_alt>3.448</gom:rel_alt></extensions></trkpt>
   <trkpt lat="59.3784699983" lon="34.6959436719"><ele>170.429</ele><time>2026-08-15T15:22:33.680Z</time><hdop>3.0</hdop><vdop>1.375</vdop><extensions><gom:speed>1.03</gom:speed><gom:rel_alt>2.959</gom:rel_alt></extensions></trkpt>
   <trkpt lat="59.3785606905" lon="34.6959181909"><ele>170.515</ele><time>2026-08-15T15:22:40.844Z</time><hdop>3.0</hdop><vdop>1.375</vdop><extensions><gom:speed>1.142</gom:speed><gom:rel_alt>3.466</gom:rel_alt></extensions></trkpt>
   <trkpt lat="59.3786534781" lon="34.6959126588"><ele>170.479</ele><time>2026-08-15T15:22:48.104Z</time><hdop>3.0</hdop><vdop>1.375</vdop><extensions><gom:speed>1.108</gom:speed><gom:rel_alt>2.988</gom:rel_alt></extensions></trkpt>
   <trkpt lat="59.3787423682" lon="34.6958705817"><ele>170.475</ele><time>2026-08-15T15:22:56.580Z</time><hdop>3.0</hdop><vdop>1.375</vdop><extensions><gom:speed>1.065</gom:speed><gom:rel_alt>3.146</gom:rel_alt></extensions></trkpt>
   <trkpt lat="59.3788319708" lon="34.6958359644"><ele>170.367</ele><time>2026-08-15T15:23:05.123Z</time><hdop>3.0</hdop><vdop>1.375</vdop><extensions><gom:speed>1.103</gom:speed><gom:rel_alt>3.242</gom:rel_alt></extensions></trkpt>
   <trkpt lat="59.3789181787" lon="34.6957472839"><ele>170.509</ele><time>2026-08-15T15:23:14.025Z</time><hdop>3.0</hdop><vdop>1.375</vdop><extensions><gom:speed>0.916</gom:speed><gom:rel_alt>3.498</gom:rel_alt></extensions></trkpt>
   <trkpt lat="59.3790171689" lon="34.6957132533"><ele>171.6</ele><time>2026-08-15T15:23:24.489Z</time><hdop>3.0</hdop><vdop>1.375</vdop><extensions><gom:speed>0.925</gom:speed><gom:rel_alt>3.839</gom:rel_alt></extensions></trkpt>
   <trkpt lat="59.3790720704" lon="34.6955710963"><ele>170.487</ele><time>2026-08-15T15:23:39.319Z</time><hdop>3.0</hdop><vdop>1.375</vdop><extensions><gom:speed>0.713</gom:speed><gom:rel_alt>3.001</gom:rel_alt></extensions></trkpt>
   <trkpt lat="59.3791284806" lon="34.6957128342"><ele>172.428</ele><time>2026-08-15T15:28:32.908Z</time><hdop>3.0</hdop><vdop>1.312</vdop><extensions><gom:speed>0.623</gom:speed><gom:rel_alt>4.206</gom:rel_alt></extensions></trkpt>
   <trkpt lat="59.3792205977" lon="34.6957010996"><ele>174.083</ele><time>2026-08-15T15:28:43.488Z</time><hdop>3.0</hdop><vdop>1.375</vdop><extensions><gom:speed>0.961</gom:speed><gom:rel_alt>3.667</gom:rel_alt></extensions></trkpt>
   <trkpt lat="59.3793088592" lon="34.6956676558"><ele>172.935</ele><time>2026-08-15T15:28:53.033Z</time><hdop>3.0</hdop><vdop>1.375</vdop><extensions><gom:speed>1.03</gom:speed><gom:rel_alt>2.732</gom:rel_alt></extensions></trkpt>
   <trkpt lat="59.3793928877" lon="34.6955901232"><ele>172.526</ele><time>2026-08-15T15:29:05.034Z</time><hdop>3.0</hdop><vdop>1.312</vdop><extensions><gom:speed>0.913</gom:speed><gom:rel_alt>3.207</gom:rel_alt></extensions></trkpt>
   <trkpt lat="59.3794903693" lon="34.6955505606"><ele>173.673</ele><time>2026-08-15T15:29:16.218Z</time><hdop>3.0</hdop><vdop>1.375</vdop><extensions><gom:speed>1.036</gom:speed><gom:rel_alt>2.959</gom:rel_alt></extensions></trkpt>
   <trkpt lat="59.379581271" lon="34.6955399994"><ele>172.509</ele><time>2026-08-15T15:29:26.071Z</time><hdop>3.0</hdop><vdop>1.375</vdop><extensions><gom:speed>1.092</gom:speed><gom:rel_alt>3.03</gom:rel_alt></extensions></trkpt>
   <trkpt lat="59.3796700773" lon="34.6955068909"><ele>171.23</ele><time>2026-08-15T15:29:35.933Z</time><hdop>3.0</hdop><vdop>1.312</vdop><extensions><gom:speed>1.051</gom:speed><gom:rel_alt>4.32</gom:rel_alt></extensions></trkpt>
   <trkpt lat="59.3797631583" lon="34.6954861876"><ele>174.598</ele><time>2026-08-15T15:29:43.942Z</time><hdop>3.0</hdop><vdop>1.375</vdop><extensions><gom:speed>1.076</gom:speed><gom:rel_alt>3.604</gom:rel_alt></extensions></trkpt>
   <trkpt lat="59.379854563" lon="34.6954500616"><ele>174.46</ele><time>2026-08-15T15:29:53.488Z</time><hdop>3.0</hdop><vdop>1.375</vdop><extensions><gom:speed>1.037</gom:speed><gom:rel_alt>4.058</gom:rel_alt></extensions></trkpt>
   <trkpt lat="59.3799441655" lon="34.6954134327"><ele>172.411</ele><time>2026-08-15T15:30:03.182Z</time><hdop>3.0</hdop><vdop>1.312</vdop><extensions><gom:speed>0.973</gom:speed><gom:rel_alt>4.386</gom:rel_alt></extensions></trkpt>
   <trkpt lat="59.38003008" lon="34.695361381"><ele>174.802</ele><time>2026-08-15T15:30:12.305Z</time><hdop>3.0</hdop><vdop>1.375</vdop><extensions><gom:speed>0.957</gom:speed><gom:rel_alt>4.365</gom:rel_alt></extensions></trkpt>
   <trkpt lat="59.3801048885" lon="34.6952428609"><ele>174.995</ele><time>2026-08-15T15:30:26.424Z</time><hdop>3.0</hdop><vdop>1.375</vdop><extensions><gom:speed>0.833</gom:speed><gom:rel_alt>5.028</gom:rel_alt></extensions></trkpt>
   <trkpt lat="59.3801954969" lon="34.6952985168"><ele>175.193</ele><time>2026-08-15T15:30:38.005Z</time><hdop>3.0</hdop><vdop>1.375</vdop><extensions><gom:speed>0.893</gom:speed><gom:rel_alt>4.542</gom:rel_alt></extensions></trkpt>
   <trkpt lat="59.3802863986" lon="34.6952821721"><ele>175.359</ele><time>2026-08-15T15:30:51.620Z</time><hdop>3.0</hdop><vdop>1.375</vdop><extensions><gom:speed>0.981</gom:speed><gom:rel_alt>4.18</gom:rel_alt></extensions></trkpt>
   <trkpt lat="59.3803742829" lon="34.6952404302"><ele>173.557</ele><time>2026-08-15T15:31:01.378Z</time><hdop>3.0</hdop><vdop>1.312</vdop><extensions><gom:speed>1.054</gom:speed><gom:rel_alt>5.112</gom:rel_alt></extensions></trkpt>
   <trkpt lat="59.3804673639" lon="34.6952109259"><ele>176.05</ele><time>2026-08-15T15:31:10.357Z</time><hdop>3.0</hdop><vdop>1.375</vdop><extensions><gom:speed>1.128</gom:speed><gom:rel_alt>5.379</gom:rel_alt></extensions></trkpt>
   <trkpt lat="59.3805588943" lon="34.6951936592"><ele>176.183</ele><time>2026-08-15T15:31:19.364Z</time><hdop>3.0</hdop><vdop>1.375</vdop><extensions><gom:speed>1.067</gom:speed><gom:rel_alt>6.05</gom:rel_alt></extensions></trkpt>
   <trkpt lat="59.3806461918" lon="34.6951511629"><ele>170.331</ele><time>2026-08-15T15:33:53.490Z</time><hdop>3.0</hdop><vdop>1.312</vdop><extensions><gom:speed>0.122</gom:speed><gom:rel_alt>5.715</gom:rel_alt></extensions></trkpt>
   <trkpt lat="59.3806685715" lon="34.6953222376"><ele>172.151</ele><time>2026-08-15T15:36:09.490Z</time><hdop>3.0</hdop><vdop>1.437</vdop><extensions><gom:speed>0.435</gom:speed><gom:rel_alt>6.048</gom:rel_alt></extensions></trkpt>
   <trkpt lat="59.380732274" lon="34.6951824274"><ele>171.787</ele><time>2026-08-15T15:37:17.663Z</time><hdop>3.187</hdop><vdop>1.5</vdop><extensions><gom:speed>0.971</gom:speed><gom:rel_alt>5.947</gom:rel_alt></extensions></trkpt>
   <trkpt lat="59.3808233852" lon="34.695168262"><ele>171.38</ele><time>2026-08-15T15:37:47.698Z</time><hdop>3.0</hdop><vdop>1.5</vdop><extensions><gom:speed>0.185</gom:speed><gom:rel_alt>6.019</gom:rel_alt></extensions></trkpt>
   <trkpt lat="59.3809146642" lon="34.6951911446"><ele>171.677</ele><time>2026-08-15T15:38:02.359Z</time><hdop>3.062</hdop><vdop>1.562</vdop><extensions><gom:speed>0.893</gom:speed><gom:rel_alt>4.061</gom:rel_alt></extensions></trkpt>
   <trkpt lat="59.3810071585" lon="34.6951606345"><ele>172.036</ele><time>2026-08-15T15:38:11.936Z</time><hdop>3.0</hdop><vdop>1.562</vdop><extensions><gom:speed>1.192</gom:speed><gom:rel_alt>5.612</gom:rel_alt></extensions></trkpt>
   <trkpt lat="59.3810946655" lon="34.6951150369"><ele>170.999</ele><time>2026-08-15T15:38:20.602Z</time><hdop>3.062</hdop><vdop>1.625</vdop><extensions><gom:speed>1.046</gom:speed><gom:rel_alt>4.692</gom:rel_alt></extensions></trkpt>
   <trkpt lat="59.3811793647" lon="34.6950559445"><ele>171.385</ele><time>2026-08-15T15:38:29.000Z</time><hdop>3.0</hdop><vdop>1.625</vdop><extensions><gom:speed>1.136</gom:speed><gom:rel_alt>5.107</gom:rel_alt></extensions></trkpt>
   <trkpt lat="59.3812635609" lon="34.6949839439"><ele>170.98</ele><time>2026-08-15T15:38:51.805Z</time><hdop>3.0</hdop><vdop>1.562</vdop><extensions><gom:speed>0.888</gom:speed><gom:rel_alt>5.733</gom:rel_alt></extensions></trkpt>
   <trkpt lat="59.3813576897" lon="34.6949836925"><ele>171.518</ele><time>2026-08-15T15:39:05.490Z</time><hdop>3.0</hdop><vdop>1.437</vdop><extensions><gom:speed>0.477</gom:speed><gom:rel_alt>5.99</gom:rel_alt></extensions></trkpt>
   <trkpt lat="59.3814480885" lon="34.6949359995"><ele>171.375</ele><time>2026-08-15T15:39:18.324Z</time><hdop>3.062</hdop><vdop>1.5</vdop><extensions><gom:speed>0.906</gom:speed><gom:rel_alt>5.728</gom:rel_alt></extensions></trkpt>
   <trkpt lat="59.3815383616" lon="34.6949236781"><ele>171.001</ele><time>2026-08-15T15:39:29.439Z</time><hdop>3.0</hdop><vdop>1.5</vdop><extensions><gom:speed>0.935</gom:speed><gom:rel_alt>6.502</gom:rel_alt></extensions></trkpt>
   <trkpt lat="59.3816046624" lon="34.6950485684"><ele>171.412</ele><time>2026-08-15T15:39:38.940Z</time><hdop>3.0</hdop><vdop>1.5</vdop><extensions><gom:speed>0.843</gom:speed><gom:rel_alt>5.139</gom:rel_alt></extensions></trkpt>
   <trkpt lat="59.3816859669" lon="34.6951260172"><ele>170.877</ele><time>2026-08-15T15:39:49.496Z</time><hdop>3.0</hdop><vdop>1.437</vdop><extensions><gom:speed>0.747</gom:speed><gom:rel_alt>5.482</gom:rel_alt></extensions></trkpt>
   <trkpt lat="59.3817711689" lon="34.6952011191"><ele>170.946</ele><time>2026-08-15T15:40:30.979Z</time><hdop>3.0</hdop><vdop>1.437</vdop><extensions><gom:speed>0.768</gom:speed><gom:rel_alt>6.019</gom:rel_alt></extensions></trkpt>
   <trkpt lat="59.3818372602" lon="34.695334056"><ele>170.72</ele><time>2026-08-15T15:40:41.259Z</time><hdop>3.0</hdop><vdop>1.375</vdop><extensions><gom:speed>0.961</gom:speed><gom:rel_alt>5.992</gom:rel_alt></extensions></trkpt>
   <trkpt lat="59.3819131584" lon="34.6954303641"><ele>170.802</ele><time>2026-08-15T15:40:52.917Z</time><hdop>3.0</hdop><vdop>1.5</vdop><extensions><gom:speed>0.84</gom:speed><gom:rel_alt>5.696</gom:rel_alt></extensions></trkpt>
   <trkpt lat="59.3819986957" lon="34.6954879478"><ele>171.088</ele><time>2026-08-15T15:41:05.239Z</time><hdop>3.0</hdop><vdop>1.375</vdop><extensions><gom:speed>1.023</gom:speed><gom:rel_alt>6.225</gom:rel_alt></extensions></trkpt>
   <trkpt lat="59.3820807964" lon="34.6955754548"><ele>171.181</ele><time>2026-08-15T15:41:15.044Z</time><hdop>3.0</hdop><vdop>1.5</vdop><extensions><gom:speed>1.041</gom:speed><gom:rel_alt>6.098</gom:rel_alt></extensions></trkpt>
   <trkpt lat="59.3821526713" lon="34.6956927177"><ele>171.063</ele><time>2026-08-15T15:41:24.441Z</time><hdop>3.0</hdop><vdop>1.5</vdop><extensions><gom:speed>0.991</gom:speed><gom:rel_alt>3.109</gom:rel_alt></extensions></trkpt>
   <trkpt lat="59.3822071955" lon="34.6958363835"><ele>171.637</ele><time>2026-08-15T15:41:33.886Z</time><hdop>3.0</hdop><vdop>1.375</vdop><extensions><gom:speed>0.825</gom:speed><gom:rel_alt>7.12</gom:rel_alt></extensions></trkpt>
   <trkpt lat="59.382269976" lon="34.6959691528"><ele>172.172</ele><time>2026-08-15T15:41:43.025Z</time><hdop>3.0</hdop><vdop>1.562</vdop><extensions><gom:speed>0.939</gom:speed><gom:rel_alt>6.661</gom:rel_alt></extensions></trkpt>
   <trkpt lat="59.3823421861" lon="34.6960779499"><ele>171.227</ele><time>2026-08-15T15:41:53.202Z</time><hdop>3.0</hdop><vdop>1.5</vdop><extensions><gom:speed>0.941</gom:speed><gom:rel_alt>6.999</gom:rel_alt></extensions></trkpt>
   <trkpt lat="59.3824080679" lon="34.6962028403"><ele>171.185</ele><time>2026-08-15T15:42:05.657Z</time><hdop>3.0</hdop><vdop>1.375</vdop><extensions><gom:speed>0.87</gom:speed><gom:rel_alt>6.153</gom:rel_alt></extensions></trkpt>
   <trkpt lat="59.3824979638" lon="34.6962038461"><ele>171.33</ele><time>2026-08-15T15:42:13.162Z</time><hdop>3.0</hdop><vdop>1.437</vdop><extensions><gom:speed>0.82</gom:speed><gom:rel_alt>5.971</gom:rel_alt></extensions></trkpt>
   <trkpt lat="59.3825887817" lon="34.6961887587"><ele>170.699</ele><time>2026-08-15T15:42:22.159Z</time><hdop>3.0</hdop><vdop>1.5</vdop><extensions><gom:speed>0.923</gom:speed><gom:rel_alt>6.848</gom:rel_alt></extensions></trkpt>
   <trkpt lat="59.3826802702" lon="34.6962078694"><ele>170.714</ele><time>2026-08-15T15:42:32.859Z</time><hdop>3.062</hdop><vdop>1.375</vdop><extensions><gom:speed>0.856</gom:speed><gom:rel_alt>4.922</gom:rel_alt></extensions></trkpt>
   <trkpt lat="59.3827699984" lon="34.6961791195"><ele>170.216</ele><time>2026-08-15T15:42:43.480Z</time><hdop>3.0</hdop><vdop>1.5</vdop><extensions><gom:speed>0.927</gom:speed><gom:rel_alt>5.086</gom:rel_alt></extensions></trkpt>
   <trkpt lat="59.3828575893" lon="34.6962484379"><ele>170.169</ele><time>2026-08-15T15:42:54.018Z</time><hdop>3.0</hdop><vdop>1.437</vdop><extensions><gom:speed>0.911</gom:speed><gom:rel_alt>4.959</gom:rel_alt></extensions></trkpt>
   <trkpt lat="59.3829428752" lon="34.6963336818"><ele>170.116</ele><time>2026-08-15T15:43:04.079Z</time><hdop>3.0</hdop><vdop>1.375</vdop><extensions><gom:speed>0.923</gom:speed><gom:rel_alt>5.395</gom:rel_alt></extensions></trkpt>
   <trkpt lat="59.3829938791" lon="34.696484137"><ele>170.387</ele><time>2026-08-15T15:43:16.489Z</time><hdop>3.0</hdop><vdop>1.437</vdop><extensions><gom:speed>0.914</gom:speed><gom:rel_alt>6.724</gom:rel_alt></extensions></trkpt>
   <trkpt lat="59.3830483614" lon="34.6966418844"><ele>170.541</ele><time>2026-08-15T15:43:26.283Z</time><hdop>3.0</hdop><vdop>1.437</vdop><extensions><gom:speed>0.93</gom:speed><gom:rel_alt>6.095</gom:rel_alt></extensions></trkpt>
   <trkpt lat="59.3831128602" lon="34.6967690379"><ele>170.824</ele><time>2026-08-15T15:43:36.239Z</time><hdop>3.0</hdop><vdop>1.437</vdop><extensions><gom:speed>0.942</gom:speed><gom:rel_alt>8.36</gom:rel_alt></extensions></trkpt>
   <trkpt lat="59.3832002834" lon="34.6968117856"><ele>171.92</ele><time>2026-08-15T15:43:47.156Z</time><hdop>3.0</hdop><vdop>1.5</vdop><extensions><gom:speed>0.741</gom:speed><gom:rel_alt>7.16</gom:rel_alt></extensions></trkpt>
   <trkpt lat="59.3832842701" lon="34.6968952693"><ele>174.513</ele><time>2026-08-15T15:49:42.490Z</time><hdop>3.75</hdop><vdop>1.5</vdop><extensions><gom:speed>0.889</gom:speed><gom:rel_alt>9.047</gom:rel_alt></extensions></trkpt>
   <trkpt lat="59.3833743756" lon="34.6969216723"><ele>175.36</ele><time>2026-08-15T15:49:55.229Z</time><hdop>3.0</hdop><vdop>1.375</vdop><extensions><gom:speed>0.924</gom:speed><gom:rel_alt>9.086</gom:rel_alt></extensions></trkpt>
   <trkpt lat="59.3834515729" lon="34.6970414497"><ele>174.826</ele><time>2026-08-15T15:50:05.465Z</time><hdop>3.0</hdop><vdop>1.375</vdop><extensions><gom:speed>1.268</gom:speed><gom:rel_alt>8.587</gom:rel_alt></extensions></trkpt>
   <trkpt lat="59.3835132637" lon="34.6971860375"><ele>174.934</ele><time>2026-08-15T15:50:15.166Z</time><hdop>3.0</hdop><vdop>1.5</vdop><extensions><gom:speed>1.069</gom:speed><gom:rel_alt>8.352</gom:rel_alt></extensions></trkpt>
   <trkpt lat="59.383611793" lon="34.6971897256"><ele>174.09</ele><time>2026-08-15T15:50:31.659Z</time><hdop>3.0</hdop><vdop>1.437</vdop><extensions><gom:speed>1.064</gom:speed><gom:rel_alt>7.903</gom:rel_alt></extensions></trkpt>
   <trkpt lat="59.3836200911" lon="34.6973725349"><ele>173.975</ele><time>2026-08-15T15:50:48.490Z</time><hdop>3.0</hdop><vdop>1.5</vdop><extensions><gom:speed>0.706</gom:speed><gom:rel_alt>7.348</gom:rel_alt></extensions></trkpt>
   <trkpt lat="59.3836922592" lon="34.6975985948"><ele>173.615</ele><time>2026-08-15T15:51:03.020Z</time><hdop>3.937</hdop><vdop>1.562</vdop><extensions><gom:speed>1.738</gom:speed><gom:rel_alt>7.665</gom:rel_alt></extensions></trkpt>
   <trkpt lat="59.3837826581" lon="34.6975900453"><ele>174.295</ele><time>2026-08-15T15:51:13.490Z</time><hdop>3.0</hdop><vdop>1.437</vdop><extensions><gom:speed>0.846</gom:speed><gom:rel_alt>7.538</gom:rel_alt></extensions></trkpt>
   <trkpt lat="59.3837402875" lon="34.6977538277"><ele>173.347</ele><time>2026-08-15T15:51:27.491Z</time><hdop>3.125</hdop><vdop>1.687</vdop><extensions><gom:speed>0.973</gom:speed><gom:rel_alt>7.485</gom:rel_alt></extensions></trkpt>
   <trkpt lat="59.3838184907" lon="34.6978475373"><ele>173.886</ele><time>2026-08-15T15:51:34.979Z</time><hdop>3.437</hdop><vdop>1.437</vdop><extensions><gom:speed>1.045</gom:speed><gom:rel_alt>7.482</gom:rel_alt></extensions></trkpt>
   <trkpt lat="59.383910985" lon="34.6978471182"><ele>173.565</ele><time>2026-08-15T15:51:46.491Z</time><hdop>3.0</hdop><vdop>1.5</vdop><extensions><gom:speed>1.204</gom:speed><gom:rel_alt>8.095</gom:rel_alt></extensions></trkpt>
   <trkpt lat="59.3840030602" lon="34.6979029417"><ele>174.256</ele><time>2026-08-15T15:51:54.142Z</time><hdop>3.0</hdop><vdop>1.437</vdop><extensions><gom:speed>1.011</gom:speed><gom:rel_alt>8.066</gom:rel_alt></extensions></trkpt>
   <trkpt lat="59.3840829817" lon="34.6980043628"><ele>174.482</ele><time>2026-08-15T15:52:05.342Z</time><hdop>3.0</hdop><vdop>1.5</vdop><extensions><gom:speed>1.007</gom:speed><gom:rel_alt>7.879</gom:rel_alt></extensions></trkpt>
   <trkpt lat="59.3841060738" lon="34.6978335396"><ele>174.383</ele><time>2026-08-15T15:52:23.118Z</time><hdop>3.0</hdop><vdop>1.437</vdop><extensions><gom:speed>0.579</gom:speed><gom:rel_alt>7.279</gom:rel_alt></extensions></trkpt>
   <trkpt lat="59.3840517591" lon="34.697988521"><ele>173.902</ele><time>2026-08-15T15:52:44.489Z</time><hdop>3.062</hdop><vdop>1.375</vdop><extensions><gom:speed>1.063</gom:speed><gom:rel_alt>7.424</gom:rel_alt></extensions></trkpt>
   <trkpt lat="59.3841220832" lon="34.6981055323"><ele>174.829</ele><time>2026-08-15T15:52:55.200Z</time><hdop>3.0</hdop><vdop>1.375</vdop><extensions><gom:speed>0.996</gom:speed><gom:rel_alt>7.263</gom:rel_alt></extensions></trkpt>
   <trkpt lat="59.3842039744" lon="34.6981958892"><ele>173.682</ele><time>2026-08-15T15:53:07.285Z</time><hdop>3.0</hdop><vdop>1.562</vdop><extensions><gom:speed>0.913</gom:speed><gom:rel_alt>6.957</gom:rel_alt></extensions></trkpt>
   <trkpt lat="59.3842338978" lon="34.6983624377"><ele>172.144</ele><time>2026-08-15T15:53:43.100Z</time><hdop>3.062</hdop><vdop>1.437</vdop><extensions><gom:speed>0.84</gom:speed><gom:rel_alt>5.591</gom:rel_alt></extensions></trkpt>
   <trkpt lat="59.3843216983" lon="34.6983014174"><ele>172.549</ele><time>2026-08-15T15:53:52.306Z</time><hdop>3.0</hdop><vdop>1.437</vdop><extensions><gom:speed>1.092</gom:speed><gom:rel_alt>4.882</gom:rel_alt></extensions></trkpt>
   <trkpt lat="59.3844070679" lon="34.698239978"><ele>171.643</ele><time>2026-08-15T15:54:00.363Z</time><hdop>3.0</hdop><vdop>1.375</vdop><extensions><gom:speed>1.064</gom:speed><gom:rel_alt>4.962</gom:rel_alt></extensions></trkpt>
   <trkpt lat="59.3844886658" lon="34.6981562428"><ele>171.984</ele><time>2026-08-15T15:54:09.862Z</time><hdop>3.0</hdop><vdop>1.375</vdop><extensions><gom:speed>1.084</gom:speed><gom:rel_alt>5.591</gom:rel_alt></extensions></trkpt>
   <trkpt lat="59.3844898811" lon="34.6979615312"><ele>172.839</ele><time>2026-08-15T15:54:34.906Z</time><hdop>3.0</hdop><vdop>1.562</vdop><extensions><gom:speed>0.751</gom:speed><gom:rel_alt>6.555</gom:rel_alt></extensions></trkpt>
   <trkpt lat="59.3845864826" lon="34.6979644649"><ele>173.304</ele><time>2026-08-15T15:57:25.490Z</time><hdop>3.75</hdop><vdop>1.687</vdop><extensions><gom:speed>0.789</gom:speed><gom:rel_alt>6.307</gom:rel_alt></extensions></trkpt>
   <trkpt lat="59.3846753727" lon="34.6980008424"><ele>172.775</ele><time>2026-08-15T15:57:35.683Z</time><hdop>3.0</hdop><vdop>1.5</vdop><extensions><gom:speed>0.838</gom:speed><gom:rel_alt>6.439</gom:rel_alt></extensions></trkpt>
   <trkpt lat="59.3847588983" lon="34.6980702445"><ele>173.06</ele><time>2026-08-15T15:57:49.504Z</time><hdop>3.0</hdop><vdop>1.375</vdop><extensions><gom:speed>0.877</gom:speed><gom:rel_alt>6.003</gom:rel_alt></extensions></trkpt>
   <trkpt lat="59.3848494648" lon="34.6980548218"><ele>172.6</ele><time>2026-08-15T15:58:01.778Z</time><hdop>3.0</hdop><vdop>1.375</vdop><extensions><gom:speed>0.913</gom:speed><gom:rel_alt>5.778</gom:rel_alt></extensions></trkpt>
   <trkpt lat="59.3849384806" lon="34.6979753614"><ele>173.638</ele><time>2026-08-15T15:58:14.366Z</time><hdop>3.0</hdop><vdop>1.375</vdop><extensions><gom:speed>0.924</gom:speed><gom:rel_alt>6.275</gom:rel_alt></extensions></trkpt>
   <trkpt lat="59.3850245628" lon="34.6979147602"><ele>173.339</ele><time>2026-08-15T15:58:27.490Z</time><hdop>3.062</hdop><vdop>1.437</vdop><extensions><gom:speed>0.801</gom:speed><gom:rel_alt>6.56</gom:rel_alt></extensions></trkpt>
   <trkpt lat="59.3850951803" lon="34.6978056278"><ele>172.954</ele><time>2026-08-15T15:58:36.407Z</time><hdop>3.0</hdop><vdop>1.437</vdop><extensions><gom:speed>1.018</gom:speed><gom:rel_alt>6.214</gom:rel_alt></extensions></trkpt>
   <trkpt lat="59.3851781611" lon="34.6977254968"><ele>173.346</ele><time>2026-08-15T15:58:45.328Z</time><hdop>3.0</hdop><vdop>1.375</vdop><extensions><gom:speed>0.921</gom:speed><gom:rel_alt>6.312</gom:rel_alt></extensions></trkpt>
   <trkpt lat="59.3852494911" lon="34.6976105809"><ele>173.105</ele><time>2026-08-15T15:58:54.200Z</time><hdop>3.0</hdop><vdop>1.5</vdop><extensions><gom:speed>1.087</gom:speed><gom:rel_alt>6.888</gom:rel_alt></extensions></trkpt>
   <trkpt lat="59.3852824739" lon="34.6974430267"><ele>174.417</ele><time>2026-08-15T15:59:10.883Z</time><hdop>3.0</hdop><vdop>1.437</vdop><extensions><gom:speed>0.901</gom:speed><gom:rel_alt>6.941</gom:rel_alt></extensions></trkpt>
   <trkpt lat="59.385364868" lon="34.6973362412"><ele>173.225</ele><time>2026-08-15T15:59:22.862Z</time><hdop>3.0</hdop><vdop>1.5</vdop><extensions><gom:speed>1.037</gom:speed><gom:rel_alt>6.785</gom:rel_alt></extensions></trkpt>
   <trkpt lat="59.3854326776" lon="34.6972173859"><ele>173.498</ele><time>2026-08-15T15:59:31.925Z</time><hdop>3.0</hdop><vdop>1.375</vdop><extensions><gom:speed>1.178</gom:speed><gom:rel_alt>6.978</gom:rel_alt></extensions></trkpt>
   <trkpt lat="59.3854960867" lon="34.6970799227"><ele>174.598</ele><time>2026-08-15T15:59:41.007Z</time><hdop>3.0</hdop><vdop>1.437</vdop><extensions><gom:speed>1.105</gom:speed><gom:rel_alt>7.747</gom:rel_alt></extensions></trkpt>
   <trkpt lat="59.3855491861" lon="34.6969328202"><ele>174.582</ele><time>2026-08-15T15:59:53.119Z</time><hdop>3.0</hdop><vdop>1.5</vdop><extensions><gom:speed>0.992</gom:speed><gom:rel_alt>8.159</gom:rel_alt></extensions></trkpt>
   <trkpt lat="59.3856313706" lon="34.6968447264"><ele>175.391</ele><time>2026-08-15T16:00:05.478Z</time><hdop>3.0</hdop><vdop>1.437</vdop><extensions><gom:speed>0.986</gom:speed><gom:rel_alt>8.539</gom:rel_alt></extensions></trkpt>
   <trkpt lat="59.3855924786" lon="34.6966812793"><ele>174.935</ele><time>2026-08-15T16:00:24.491Z</time><hdop>3.0</hdop><vdop>1.375</vdop><extensions><gom:speed>0.082</gom:speed><gom:rel_alt>8.774</gom:rel_alt></extensions></trkpt>
   <trkpt lat="59.3856585699" lon="34.6968213409"><ele>174.194</ele><time>2026-08-15T16:03:27.491Z</time><hdop>4.125</hdop><vdop>1.625</vdop><extensions><gom:speed>0.909</gom:speed><gom:rel_alt>7.659</gom:rel_alt></extensions></trkpt>
   <trkpt lat="59.3857465799" lon="34.6968645916"><ele>174.2</ele><time>2026-08-15T16:03:36.907Z</time><hdop>3.187</hdop><vdop>1.437</vdop><extensions><gom:speed>1.139</gom:speed><gom:rel_alt>7.622</gom:rel_alt></extensions></trkpt>
   <trkpt lat="59.3858302732" lon="34.6967990451"><ele>173.738</ele><time>2026-08-15T16:03:43.388Z</time><hdop>3.125</hdop><vdop>1.437</vdop><extensions><gom:speed>1.13</gom:speed><gom:rel_alt>9.062</gom:rel_alt></extensions></trkpt>
   <trkpt lat="59.3859194986" lon="34.6968273759"><ele>173.964</ele><time>2026-08-15T16:03:56.803Z</time><hdop>3.062</hdop><vdop>1.625</vdop><extensions><gom:speed>0.897</gom:speed><gom:rel_alt>6.824</gom:rel_alt></extensions></trkpt>
   <trkpt lat="59.3858547903" lon="34.6966974564"><ele>174.43</ele><time>2026-08-15T16:04:25.890Z</time><hdop>3.0</hdop><vdop>1.625</vdop><extensions><gom:speed>0.914</gom:speed><gom:rel_alt>7.538</gom:rel_alt></extensions></trkpt>
   <trkpt lat="59.3859380645" lon="34.6967978716"><ele>173.945</ele><time>2026-08-15T16:05:08.370Z</time><hdop>3.0</hdop><vdop>1.375</vdop><extensions><gom:speed>1.049</gom:speed><gom:rel_alt>8.08</gom:rel_alt></extensions></trkpt>
   <trkpt lat="59.3860298882" lon="34.6967902441"><ele>174.293</ele><time>2026-08-15T16:05:18.253Z</time><hdop>3.0</hdop><vdop>1.5</vdop><extensions><gom:speed>0.846</gom:speed><gom:rel_alt>7.823</gom:rel_alt></extensions></trkpt>
   <trkpt lat="59.386123095" lon="34.6968299743"><ele>174.131</ele><time>2026-08-15T16:05:29.824Z</time><hdop>3.0</hdop><vdop>1.437</vdop><extensions><gom:speed>0.995</gom:speed><gom:rel_alt>7.839</gom:rel_alt></extensions></trkpt>
   <trkpt lat="59.3862198641" lon="34.6968483307"><ele>173.812</ele><time>2026-08-15T16:05:40.491Z</time><hdop>3.0</hdop><vdop>1.5</vdop><extensions><gom:speed>0.941</gom:speed><gom:rel_alt>8.032</gom:rel_alt></extensions></trkpt>
   <trkpt lat="59.3862994921" lon="34.6967610751"><ele>174.077</ele><time>2026-08-15T16:05:50.492Z</time><hdop>3.0</hdop><vdop>1.5</vdop><extensions><gom:speed>0.951</gom:speed><gom:rel_alt>8.146</gom:rel_alt></extensions></trkpt>
   <trkpt lat="59.3863598837" lon="34.6966281381"><ele>174.415</ele><time>2026-08-15T16:06:00.396Z</time><hdop>3.0</hdop><vdop>1.437</vdop><extensions><gom:speed>0.952</gom:speed><gom:rel_alt>8.494</gom:rel_alt></extensions></trkpt>
   <trkpt lat="59.3864313814" lon="34.6965170779"><ele>174.47</ele><time>2026-08-15T16:06:08.491Z</time><hdop>3.0</hdop><vdop>1.437</vdop><extensions><gom:speed>0.887</gom:speed><gom:rel_alt>8.32</gom:rel_alt></extensions></trkpt>
   <trkpt lat="59.3864992748" lon="34.6963893376"><ele>174.72</ele><time>2026-08-15T16:06:17.091Z</time><hdop>3.0</hdop><vdop>1.562</vdop><extensions><gom:speed>1.031</gom:speed><gom:rel_alt>8.526</gom:rel_alt></extensions></trkpt>
   <trkpt lat="59.386578861" lon="34.696265034"><ele>174.936</ele><time>2026-08-15T16:06:25.252Z</time><hdop>3.0</hdop><vdop>1.562</vdop><extensions><gom:speed>1.094</gom:speed><gom:rel_alt>8.159</gom:rel_alt></extensions></trkpt>
   <trkpt lat="59.3866574832" lon="34.6961672172"><ele>174.019</ele><time>2026-08-15T16:06:34.163Z</time><hdop>3.0</hdop><vdop>1.375</vdop><extensions><gom:speed>1.111</gom:speed><gom:rel_alt>7.979</gom:rel_alt></extensions></trkpt>
   <trkpt lat="59.3867456608" lon="34.6960925345"><ele>174.437</ele><time>2026-08-15T16:06:43.266Z</time><hdop>3.0</hdop><vdop>1.5</vdop><extensions><gom:speed>1.131</gom:speed><gom:rel_alt>8.531</gom:rel_alt></extensions></trkpt>
   <trkpt lat="59.3868379875" lon="34.6961382996"><ele>174.476</ele><time>2026-08-15T16:06:53.088Z</time><hdop>3.0</hdop><vdop>1.5</vdop><extensions><gom:speed>1.029</gom:speed><gom:rel_alt>7.955</gom:rel_alt></extensions></trkpt>
   <trkpt lat="59.3869258718" lon="34.6960860804"><ele>174.255</ele><time>2026-08-15T16:07:04.492Z</time><hdop>3.0</hdop><vdop>1.437</vdop><extensions><gom:speed>0.888</gom:speed><gom:rel_alt>7.76</gom:rel_alt></extensions></trkpt>
   <trkpt lat="59.3870162706" lon="34.6960382197"><ele>172.966</ele><time>2026-08-15T16:10:29.491Z</time><hdop>3.0</hdop><vdop>1.375</vdop><extensions><gom:speed>0.804</gom:speed><gom:rel_alt>8.389</gom:rel_alt></extensions></trkpt>
   <trkpt lat="59.3871066694" lon="34.6959843241"><ele>172.481</ele><time>2026-08-15T16:10:40.492Z</time><hdop>3.0</hdop><vdop>1.437</vdop><extensions><gom:speed>0.775</gom:speed><gom:rel_alt>8.251</gom:rel_alt></extensions></trkpt>
   <trkpt lat="59.387205073" lon="34.6960000821"><ele>172.831</ele><time>2026-08-15T16:10:54.491Z</time><hdop>3.0</hdop><vdop>1.312</vdop><extensions><gom:speed>0.95</gom:speed><gom:rel_alt>8.254</gom:rel_alt></extensions></trkpt>
   <trkpt lat="59.3873028898" lon="34.6959998306"><ele>172.982</ele><time>2026-08-15T16:11:02.491Z</time><hdop>3.0</hdop><vdop>1.437</vdop><extensions><gom:speed>1.096</gom:speed><gom:rel_alt>7.527</gom:rel_alt></extensions></trkpt>
   <trkpt lat="59.3873951745" lon="34.6960303407"><ele>171.995</ele><time>2026-08-15T16:11:18.492Z</time><hdop>3.0</hdop><vdop>1.375</vdop><extensions><gom:speed>1.099</gom:speed><gom:rel_alt>7.176</gom:rel_alt></extensions></trkpt>
   <trkpt lat="59.3874730843" lon="34.6961181831"><ele>172.236</ele><time>2026-08-15T16:11:24.992Z</time><hdop>3.0</hdop><vdop>1.312</vdop><extensions><gom:speed>1.249</gom:speed><gom:rel_alt>7.4</gom:rel_alt></extensions></trkpt>
   <trkpt lat="59.3875510779" lon="34.6962199394"><ele>171.954</ele><time>2026-08-15T16:11:32.906Z</time><hdop>3.0</hdop><vdop>1.437</vdop><extensions><gom:speed>1.111</gom:speed><gom:rel_alt>7.192</gom:rel_alt></extensions></trkpt>
   <trkpt lat="59.3876289877" lon="34.6963281498"><ele>171.952</ele><time>2026-08-15T16:11:43.148Z</time><hdop>3.0</hdop><vdop>1.437</vdop><extensions><gom:speed>1.151</gom:speed><gom:rel_alt>8.119</gom:rel_alt></extensions></trkpt>
   <trkpt lat="59.3876954981" lon="34.6964478433"><ele>173.092</ele><time>2026-08-15T16:11:51.707Z</time><hdop>3.0</hdop><vdop>1.375</vdop><extensions><gom:speed>1.132</gom:speed><gom:rel_alt>8.55</gom:rel_alt></extensions></trkpt>
   <trkpt lat="59.3877491842" lon="34.696597125"><ele>173.309</ele><time>2026-08-15T16:12:01.207Z</time><hdop>3.0</hdop><vdop>1.437</vdop><extensions><gom:speed>1.163</gom:speed><gom:rel_alt>8.743</gom:rel_alt></extensions></trkpt>
   <trkpt lat="59.3878279741" lon="34.6967032399"><ele>172.487</ele><time>2026-08-15T16:13:17.352Z</time><hdop>3.0</hdop><vdop>1.375</vdop><extensions><gom:speed>1.36</gom:speed><gom:rel_alt>8.793</gom:rel_alt></extensions></trkpt>
   <trkpt lat="59.3878240765" lon="34.696894934"><ele>172.472</ele><time>2026-08-15T16:13:25.190Z</time><hdop>3.0</hdop><vdop>1.5</vdop><extensions><gom:speed>1.243</gom:speed><gom:rel_alt>8.621</gom:rel_alt></extensions></trkpt>
   <trkpt lat="59.387909991" lon="34.6969481591"><ele>172.301</ele><time>2026-08-15T16:13:36.492Z</time><hdop>3.0</hdop><vdop>1.437</vdop><extensions><gom:speed>0.957</gom:speed><gom:rel_alt>9.086</gom:rel_alt></extensions></trkpt>
   <trkpt lat="59.3879688739" lon="34.6970904838"><ele>173.053</ele><time>2026-08-15T16:13:49.491Z</time><hdop>3.0</hdop><vdop>1.437</vdop><extensions><gom:speed>0.851</gom:speed><gom:rel_alt>8.444</gom:rel_alt></extensions></trkpt>
   <trkpt lat="59.3880402877" lon="34.6972042263"><ele>171.892</ele><time>2026-08-15T16:14:06.023Z</time><hdop>3.0</hdop><vdop>1.437</vdop><extensions><gom:speed>0.367</gom:speed><gom:rel_alt>8.32</gom:rel_alt></extensions></trkpt>
   <trkpt lat="59.3881181975" lon="34.6973269373"><ele>171.878</ele><time>2026-08-15T16:14:21.746Z</time><hdop>3.0</hdop><vdop>1.562</vdop><extensions><gom:speed>1.066</gom:speed><gom:rel_alt>7.686</gom:rel_alt></extensions></trkpt>
   <trkpt lat="59.3881756973" lon="34.6974738721"><ele>171.391</ele><time>2026-08-15T16:14:32.330Z</time><hdop>3.0</hdop><vdop>1.562</vdop><extensions><gom:speed>0.829</gom:speed><gom:rel_alt>7.739</gom:rel_alt></extensions></trkpt>
   <trkpt lat="59.3882674792" lon="34.6974851877"><ele>170.784</ele><time>2026-08-15T16:14:54.144Z</time><hdop>3.0</hdop><vdop>1.437</vdop><extensions><gom:speed>0.791</gom:speed><gom:rel_alt>8.117</gom:rel_alt></extensions></trkpt>
   <trkpt lat="59.3883441736" lon="34.6973732893"><ele>171.244</ele><time>2026-08-15T16:15:05.364Z</time><hdop>3.0</hdop><vdop>1.5</vdop><extensions><gom:speed>0.847</gom:speed><gom:rel_alt>8.328</gom:rel_alt></extensions></trkpt>
   <trkpt lat="59.3883971891" lon="34.6972172182"><ele>171.945</ele><time>2026-08-15T16:15:13.492Z</time><hdop>3.0</hdop><vdop>1.437</vdop><extensions><gom:speed>0.836</gom:speed><gom:rel_alt>8.164</gom:rel_alt></extensions></trkpt>
   <trkpt lat="59.3883998713" lon="34.6970344927"><ele>170.955</ele><time>2026-08-15T16:15:25.491Z</time><hdop>3.0</hdop><vdop>1.437</vdop><extensions><gom:speed>0.841</gom:speed><gom:rel_alt>7.971</gom:rel_alt></extensions></trkpt>
   <trkpt lat="59.3883872985" lon="34.6972161286"><ele>172.973</ele><time>2026-08-15T16:19:36.491Z</time><hdop>3.187</hdop><vdop>1.312</vdop><extensions><gom:speed>0.786</gom:speed><gom:rel_alt>8.143</gom:rel_alt></extensions></trkpt>
   <trkpt lat="59.3884383862" lon="34.6973654941"><ele>172.942</ele><time>2026-08-15T16:19:50.490Z</time><hdop>3.062</hdop><vdop>1.375</vdop><extensions><gom:speed>1.084</gom:speed><gom:rel_alt>8.117</gom:rel_alt></extensions></trkpt>
   <trkpt lat="59.3884313873" lon="34.6975516562"><ele>172.842</ele><time>2026-08-15T16:20:01.444Z</time><hdop>3.312</hdop><vdop>1.312</vdop><extensions><gom:speed>0.799</gom:speed><gom:rel_alt>8.209</gom:rel_alt></extensions></trkpt>
   <trkpt lat="59.3884485702" lon="34.697733292"><ele>173.19</ele><time>2026-08-15T16:20:13.063Z</time><hdop>3.0</hdop><vdop>1.375</vdop><extensions><gom:speed>0.832</gom:speed><gom:rel_alt>7.799</gom:rel_alt></extensions></trkpt>
   <trkpt lat="59.3884386796" lon="34.6979144249"><ele>173.0</ele><time>2026-08-15T16:20:23.124Z</time><hdop>3.0</hdop><vdop>1.375</vdop><extensions><gom:speed>0.972</gom:speed><gom:rel_alt>8.486</gom:rel_alt></extensions></trkpt>
   <trkpt lat="59.3884917789" lon="34.6980678976"><ele>173.418</ele><time>2026-08-15T16:20:32.370Z</time><hdop>3.0</hdop><vdop>1.312</vdop><extensions><gom:speed>0.944</gom:speed><gom:rel_alt>8.497</gom:rel_alt></extensions></trkpt>
   <trkpt lat="59.3885315929" lon="34.6982270699"><ele>173.164</ele><time>2026-08-15T16:20:42.268Z</time><hdop>3.0</hdop><vdop>1.375</vdop><extensions><gom:speed>1.11</gom:speed><gom:rel_alt>7.976</gom:rel_alt></extensions></trkpt>
   <trkpt lat="59.3885643662" lon="34.698402587"><ele>173.371</ele><time>2026-08-15T16:20:55.285Z</time><hdop>3.0</hdop><vdop>1.375</vdop><extensions><gom:speed>1.108</gom:speed><gom:rel_alt>9.126</gom:rel_alt></extensions></trkpt>
   <trkpt lat="59.3885734606" lon="34.6985812891"><ele>174.096</ele><time>2026-08-15T16:21:03.491Z</time><hdop>3.0</hdop><vdop>1.312</vdop><extensions><gom:speed>1.279</gom:speed><gom:rel_alt>8.851</gom:rel_alt></extensions></trkpt>
   <trkpt lat="59.3886209859" lon="34.6987381984"><ele>174.275</ele><time>2026-08-15T16:21:12.746Z</time><hdop>3.0</hdop><vdop>1.312</vdop><extensions><gom:speed>1.009</gom:speed><gom:rel_alt>8.854</gom:rel_alt></extensions></trkpt>
   <trkpt lat="59.3886620992" lon="34.6988987956"><ele>173.73</ele><time>2026-08-15T16:21:24.669Z</time><hdop>3.0</hdop><vdop>1.375</vdop><extensions><gom:speed>0.816</gom:speed><gom:rel_alt>9.295</gom:rel_alt></extensions></trkpt>
   <trkpt lat="59.3887416854" lon="34.6988031581"><ele>173.097</ele><time>2026-08-15T16:23:13.492Z</time><hdop>3.0</hdop><vdop>1.437</vdop><extensions><gom:speed>0.183</gom:speed><gom:rel_alt>9.89</gom:rel_alt></extensions></trkpt>
   <trkpt lat="59.3887424816" lon="34.6989835367"><ele>174.232</ele><time>2026-08-15T16:23:37.839Z</time><hdop>3.125</hdop><vdop>1.375</vdop><extensions><gom:speed>0.698</gom:speed><gom:rel_alt>10.23</gom:rel_alt></extensions></trkpt>
   <trkpt lat="59.3887414758" lon="34.6991607301"><ele>173.255</ele><time>2026-08-15T16:23:48.932Z</time><hdop>3.312</hdop><vdop>1.437</vdop><extensions><gom:speed>0.656</gom:speed><gom:rel_alt>9.337</gom:rel_alt></extensions></trkpt>
   <trkpt lat="59.3886545974" lon="34.6992097642"><ele>173.348</ele><time>2026-08-15T16:24:06.491Z</time><hdop>3.0</hdop><vdop>1.375</vdop><extensions><gom:speed>0.997</gom:speed><gom:rel_alt>9.424</gom:rel_alt></extensions></trkpt>
   <trkpt lat="59.3885544755" lon="34.6991968561"><ele>172.247</ele><time>2026-08-15T16:24:23.874Z</time><hdop>3.062</hdop><vdop>1.375</vdop><extensions><gom:speed>1.461</gom:speed><gom:rel_alt>8.439</gom:rel_alt></extensions></trkpt>
   <trkpt lat="59.388468561" lon="34.6991403621"><ele>171.047</ele><time>2026-08-15T16:24:35.799Z</time><hdop>3.125</hdop><vdop>1.375</vdop><extensions><gom:speed>1.191</gom:speed><gom:rel_alt>8.146</gom:rel_alt></extensions></trkpt>
   <trkpt lat="59.3883787909" lon="34.6992055733"><ele>170.689</ele><time>2026-08-15T16:25:06.756Z</time><hdop>3.0</hdop><vdop>1.437</vdop><extensions><gom:speed>1.392</gom:speed><gom:rel_alt>8.035</gom:rel_alt></extensions></trkpt>
   <trkpt lat="59.3882878891" lon="34.6991400268"><ele>170.592</ele><time>2026-08-15T16:25:15.491Z</time><hdop>3.187</hdop><vdop>1.437</vdop><extensions><gom:speed>1.014</gom:speed><gom:rel_alt>7.984</gom:rel_alt></extensions></trkpt>
   <trkpt lat="59.3881887731" lon="34.6991270349"><ele>171.606</ele><time>2026-08-15T16:25:28.491Z</time><hdop>3.125</hdop><vdop>1.562</vdop><extensions><gom:speed>1.239</gom:speed><gom:rel_alt>8.597</gom:rel_alt></extensions></trkpt>
   <trkpt lat="59.3881893598" lon="34.6993114367"><ele>171.461</ele><time>2026-08-15T16:25:51.795Z</time><hdop>3.0</hdop><vdop>1.375</vdop><extensions><gom:speed>1.112</gom:speed><gom:rel_alt>8.14</gom:rel_alt></extensions></trkpt>
   <trkpt lat="59.3881385655" lon="34.6994670887"><ele>170.989</ele><time>2026-08-15T16:26:01.135Z</time><hdop>3.0</hdop><vdop>1.375</vdop><extensions><gom:speed>1.085</gom:speed><gom:rel_alt>8.222</gom:rel_alt></extensions></trkpt>
   <trkpt lat="59.3881271661" lon="34.6996432763"><ele>171.104</ele><time>2026-08-15T16:28:34.492Z</time><hdop>3.75</hdop><vdop>1.437</vdop><extensions><gom:speed>0.829</gom:speed><gom:rel_alt>7.895</gom:rel_alt></extensions></trkpt>
   <trkpt lat="59.3880756593" lon="34.6998075616"><ele>171.245</ele><time>2026-08-15T16:28:47.492Z</time><hdop>3.75</hdop><vdop>1.5</vdop><extensions><gom:speed>0.789</gom:speed><gom:rel_alt>7.836</gom:rel_alt></extensions></trkpt>
   <trkpt lat="59.3880209674" lon="34.6999514789"><ele>171.352</ele><time>2026-08-15T16:29:01.733Z</time><hdop>4.937</hdop><vdop>1.437</vdop><extensions><gom:speed>0.827</gom:speed><gom:rel_alt>7.26</gom:rel_alt></extensions></trkpt>
   <trkpt lat="59.3879878589" lon="34.7001224697"><ele>171.052</ele><time>2026-08-15T16:29:09.492Z</time><hdop>3.125</hdop><vdop>1.5</vdop><extensions><gom:speed>0.933</gom:speed><gom:rel_alt>7.696</gom:rel_alt></extensions></trkpt>
   <trkpt lat="59.3879089852" lon="34.7002227172"><ele>172.505</ele><time>2026-08-15T16:29:21.648Z</time><hdop>3.0</hdop><vdop>1.375</vdop><extensions><gom:speed>0.844</gom:speed><gom:rel_alt>7.44</gom:rel_alt></extensions></trkpt>
   <trkpt lat="59.3878697998" lon="34.7003860805"><ele>170.848</ele><time>2026-08-15T16:29:45.491Z</time><hdop>3.0</hdop><vdop>1.437</vdop><extensions><gom:speed>0.12</gom:speed><gom:rel_alt>7.07</gom:rel_alt></extensions></trkpt>
   <trkpt lat="59.3877993918" lon="34.7005105518"><ele>170.089</ele><time>2026-08-15T16:30:10.068Z</time><hdop>3.0</hdop><vdop>1.375</vdop><extensions><gom:speed>0.634</gom:speed><gom:rel_alt>6.719</gom:rel_alt></extensions></trkpt>
   <trkpt lat="59.3877882858" lon="34.7007087838"><ele>171.512</ele><time>2026-08-15T16:30:24.491Z</time><hdop>3.0</hdop><vdop>1.437</vdop><extensions><gom:speed>0.964</gom:speed><gom:rel_alt>6.698</gom:rel_alt></extensions></trkpt>
   <trkpt lat="59.3878874856" lon="34.7006866556"><ele>171.157</ele><time>2026-08-15T16:30:41.289Z</time><hdop>3.0</hdop><vdop>1.437</vdop><extensions><gom:speed>1.026</gom:speed><gom:rel_alt>6.182</gom:rel_alt></extensions></trkpt>
   <trkpt lat="59.3879537865" lon="34.7008155693"><ele>171.168</ele><time>2026-08-15T16:31:07.825Z</time><hdop>3.0</hdop><vdop>1.375</vdop><extensions><gom:speed>0.467</gom:speed><gom:rel_alt>8.0</gom:rel_alt></extensions></trkpt>
   <trkpt lat="59.3878920956" lon="34.700951859"><ele>172.338</ele><time>2026-08-15T16:31:17.214Z</time><hdop>3.062</hdop><vdop>1.375</vdop><extensions><gom:speed>0.807</gom:speed><gom:rel_alt>7.345</gom:rel_alt></extensions></trkpt>
   <trkpt lat="59.3878231964" lon="34.7010731451"><ele>171.63</ele><time>2026-08-15T16:31:50.491Z</time><hdop>4.562</hdop><vdop>1.375</vdop><extensions><gom:speed>0.903</gom:speed><gom:rel_alt>7.202</gom:rel_alt></extensions></trkpt>
   <trkpt lat="59.3877429816" lon="34.7011623286"><ele>172.4</ele><time>2026-08-15T16:32:15.190Z</time><hdop>3.0</hdop><vdop>1.375</vdop><extensions><gom:speed>0.305</gom:speed><gom:rel_alt>7.393</gom:rel_alt></extensions></trkpt>
   <trkpt lat="59.3876655747" lon="34.7010657691"><ele>172.085</ele><time>2026-08-15T16:32:40.491Z</time><hdop>3.187</hdop><vdop>1.375</vdop><extensions><gom:speed>0.957</gom:speed><gom:rel_alt>7.34</gom:rel_alt></extensions></trkpt>
   <trkpt lat="59.3875739605" lon="34.7010952734"><ele>171.079</ele><time>2026-08-15T16:32:56.472Z</time><hdop>3.0</hdop><vdop>1.375</vdop><extensions><gom:speed>0.506</gom:speed><gom:rel_alt>7.39</gom:rel_alt></extensions></trkpt>
   <trkpt lat="59.3875511617" lon="34.7012725506"><ele>172.003</ele><time>2026-08-15T16:33:09.138Z</time><hdop>3.125</hdop><vdop>1.375</vdop><extensions><gom:speed>0.724</gom:speed><gom:rel_alt>7.448</gom:rel_alt></extensions></trkpt>
   <trkpt lat="59.3874825978" lon="34.7014048171"><ele>172.277</ele><time>2026-08-15T16:37:05.127Z</time><hdop>3.0</hdop><vdop>1.375</vdop><extensions><gom:speed>0.805</gom:speed><gom:rel_alt>7.858</gom:rel_alt></extensions></trkpt>
   <trkpt lat="59.3874198592" lon="34.7015536797"><ele>170.947</ele><time>2026-08-15T16:37:19.048Z</time><hdop>3.0</hdop><vdop>1.312</vdop><extensions><gom:speed>0.634</gom:speed><gom:rel_alt>7.43</gom:rel_alt></extensions></trkpt>
   <trkpt lat="59.3873462661" lon="34.7014307171"><ele>171.479</ele><time>2026-08-15T16:37:40.491Z</time><hdop>3.0</hdop><vdop>1.312</vdop><extensions><gom:speed>0.353</gom:speed><gom:rel_alt>8.333</gom:rel_alt></extensions></trkpt>
   <trkpt lat="59.3872331942" lon="34.7013331518"><ele>171.459</ele><time>2026-08-15T16:37:56.133Z</time><hdop>4.812</hdop><vdop>1.312</vdop><extensions><gom:speed>0.827</gom:speed><gom:rel_alt>7.266</gom:rel_alt></extensions></trkpt>
   <trkpt lat="59.3871433821" lon="34.7013502509"><ele>172.425</ele><time>2026-08-15T16:38:03.492Z</time><hdop>3.437</hdop><vdop>1.312</vdop><extensions><gom:speed>0.492</gom:speed><gom:rel_alt>7.326</gom:rel_alt></extensions></trkpt>
   <trkpt lat="59.3871836991" lon="34.70151923"><ele>172.377</ele><time>2026-08-15T16:38:33.248Z</time><hdop>3.0</hdop><vdop>1.312</vdop><extensions><gom:speed>1.058</gom:speed><gom:rel_alt>7.205</gom:rel_alt></extensions></trkpt>
   <trkpt lat="59.387148998" lon="34.7016848564"><ele>170.675</ele><time>2026-08-15T16:38:41.491Z</time><hdop>3.0</hdop><vdop>1.312</vdop><extensions><gom:speed>1.027</gom:speed><gom:rel_alt>7.667</gom:rel_alt></extensions></trkpt>
   <trkpt lat="59.3871122853" lon="34.7018460404"><ele>171.656</ele><time>2026-08-15T16:38:53.492Z</time><hdop>3.0</hdop><vdop>1.312</vdop><extensions><gom:speed>0.807</gom:speed><gom:rel_alt>8.317</gom:rel_alt></extensions></trkpt>
   <trkpt lat="59.3870989581" lon="34.7020325378"><ele>171.897</ele><time>2026-08-15T16:39:06.287Z</time><hdop>3.0</hdop><vdop>1.312</vdop><extensions><gom:speed>0.958</gom:speed><gom:rel_alt>7.998</gom:rel_alt></extensions></trkpt>
   <trkpt lat="59.3871083877" lon="34.7022169396"><ele>171.596</ele><time>2026-08-15T16:39:20.244Z</time><hdop>3.0</hdop><vdop>1.312</vdop><extensions><gom:speed>0.602</gom:speed><gom:rel_alt>7.908</gom:rel_alt></extensions></trkpt>
   <trkpt lat="59.3870880616" lon="34.7023888525"><ele>171.824</ele><time>2026-08-15T16:39:35.491Z</time><hdop>3.0</hdop><vdop>1.312</vdop><extensions><gom:speed>0.67</gom:speed><gom:rel_alt>8.109</gom:rel_alt></extensions></trkpt>
   <trkpt lat="59.3869954835" lon="34.7023978211"><ele>172.539</ele><time>2026-08-15T16:40:00.903Z</time><hdop>3.0</hdop><vdop>1.312</vdop><extensions><gom:speed>0.674</gom:speed><gom:rel_alt>8.119</gom:rel_alt></extensions></trkpt>
   <trkpt lat="59.3870125825" lon="34.7025747631"><ele>171.408</ele><time>2026-08-15T16:40:12.183Z</time><hdop>3.0</hdop><vdop>1.312</vdop><extensions><gom:speed>0.761</gom:speed><gom:rel_alt>8.265</gom:rel_alt></extensions></trkpt>
   <trkpt lat="59.3870149714" lon="34.7027698938"><ele>173.033</ele><time>2026-08-15T16:40:25.492Z</time><hdop>3.0</hdop><vdop>1.437</vdop><extensions><gom:speed>0.877</gom:speed><gom:rel_alt>8.28</gom:rel_alt></extensions></trkpt>
   <trkpt lat="59.3869668593" lon="34.7029225283"><ele>170.758</ele><time>2026-08-15T16:40:42.913Z</time><hdop>3.0</hdop><vdop>1.312</vdop><extensions><gom:speed>0.695</gom:speed><gom:rel_alt>7.736</gom:rel_alt></extensions></trkpt>
   <trkpt lat="59.3869270871" lon="34.7030821197"><ele>171.704</ele><time>2026-08-15T16:40:52.491Z</time><hdop>3.125</hdop><vdop>1.312</vdop><extensions><gom:speed>0.946</gom:speed><gom:rel_alt>8.286</gom:rel_alt></extensions></trkpt>
   <trkpt lat="59.3868751612" lon="34.7032318205"><ele>171.738</ele><time>2026-08-15T16:41:04.872Z</time><hdop>3.0</hdop><vdop>1.312</vdop><extensions><gom:speed>0.944</gom:speed><gom:rel_alt>8.582</gom:rel_alt></extensions></trkpt>
   <trkpt lat="59.3868096986" lon="34.7033726365"><ele>171.393</ele><time>2026-08-15T16:41:16.257Z</time><hdop>3.0</hdop><vdop>1.312</vdop><extensions><gom:speed>0.884</gom:speed><gom:rel_alt>7.683</gom:rel_alt></extensions></trkpt>
   <trkpt lat="59.3867921804" lon="34.703558128"><ele>171.517</ele><time>2026-08-15T16:44:00.492Z</time><hdop>3.062</hdop><vdop>1.312</vdop><extensions><gom:speed>0.799</gom:speed><gom:rel_alt>8.225</gom:rel_alt></extensions></trkpt>
   <trkpt lat="59.3867310763" lon="34.7036909811"><ele>171.802</ele><time>2026-08-15T16:44:10.290Z</time><hdop>3.0</hdop><vdop>1.312</vdop><extensions><gom:speed>0.946</gom:speed><gom:rel_alt>8.455</gom:rel_alt></extensions></trkpt>
   <trkpt lat="59.3866983869" lon="34.7038636483"><ele>172.006</ele><time>2026-08-15T16:44:20.491Z</time><hdop>3.0</hdop><vdop>1.312</vdop><extensions><gom:speed>1.001</gom:speed><gom:rel_alt>8.531</gom:rel_alt></extensions></trkpt>
   <trkpt lat="59.3866275598" lon="34.70398703"><ele>171.708</ele><time>2026-08-15T16:44:33.491Z</time><hdop>3.0</hdop><vdop>1.312</vdop><extensions><gom:speed>0.791</gom:speed><gom:rel_alt>8.566</gom:rel_alt></extensions></trkpt>
   <trkpt lat="59.3865388793" lon="34.7040340524"><ele>172.125</ele><time>2026-08-15T16:44:44.236Z</time><hdop>3.0</hdop><vdop>1.312</vdop><extensions><gom:speed>0.87</gom:speed><gom:rel_alt>7.644</gom:rel_alt></extensions></trkpt>
   <trkpt lat="59.3864507855" lon="34.7039733675"><ele>171.313</ele><time>2026-08-15T16:45:06.348Z</time><hdop>3.0</hdop><vdop>1.312</vdop><extensions><gom:speed>0.668</gom:speed><gom:rel_alt>7.504</gom:rel_alt></extensions></trkpt>
   <trkpt lat="59.3863619792" lon="34.7040157799"><ele>171.882</ele><time>2026-08-15T16:45:19.016Z</time><hdop>3.0</hdop><vdop>1.312</vdop><extensions><gom:speed>0.821</gom:speed><gom:rel_alt>7.464</gom:rel_alt></extensions></trkpt>
   <trkpt lat="59.3863039765" lon="34.704157937"><ele>171.694</ele><time>2026-08-15T16:45:27.216Z</time><hdop>3.0</hdop><vdop>1.312</vdop><extensions><gom:speed>0.844</gom:speed><gom:rel_alt>8.019</gom:rel_alt></extensions></trkpt>
   <trkpt lat="59.3862612707" lon="34.7043139242"><ele>172.188</ele><time>2026-08-15T16:45:37.650Z</time><hdop>3.0</hdop><vdop>1.312</vdop><extensions><gom:speed>0.946</gom:speed><gom:rel_alt>8.328</gom:rel_alt></extensions></trkpt>
   <trkpt lat="59.3862766934" lon="34.7045061212"><ele>172.226</ele><time>2026-08-15T16:45:43.856Z</time><hdop>3.0</hdop><vdop>1.312</vdop><extensions><gom:speed>0.995</gom:speed><gom:rel_alt>8.056</gom:rel_alt></extensions></trkpt>
   <trkpt lat="59.3862891824" lon="34.7046844881"><ele>171.99</ele><time>2026-08-15T16:45:52.056Z</time><hdop>3.0</hdop><vdop>1.312</vdop><extensions><gom:speed>0.974</gom:speed><gom:rel_alt>8.526</gom:rel_alt></extensions></trkpt>
   <trkpt lat="59.3862738854" lon="34.7048634418"><ele>171.923</ele><time>2026-08-15T16:46:01.036Z</time><hdop>3.0</hdop><vdop>1.312</vdop><extensions><gom:speed>1.147</gom:speed><gom:rel_alt>9.02</gom:rel_alt></extensions></trkpt>
   <trkpt lat="59.3862795851" lon="34.7050451614"><ele>172.683</ele><time>2026-08-15T16:46:10.272Z</time><hdop>3.0</hdop><vdop>1.312</vdop><extensions><gom:speed>1.057</gom:speed><gom:rel_alt>9.232</gom:rel_alt></extensions></trkpt>
   <trkpt lat="59.3862857877" lon="34.7052307368"><ele>172.667</ele><time>2026-08-15T16:46:20.991Z</time><hdop>3.0</hdop><vdop>1.312</vdop><extensions><gom:speed>1.051</gom:speed><gom:rel_alt>8.362</gom:rel_alt></extensions></trkpt>
   <trkpt lat="59.3862942954" lon="34.7054143843"><ele>172.349</ele><time>2026-08-15T16:46:32.052Z</time><hdop>3.0</hdop><vdop>1.312</vdop><extensions><gom:speed>0.948</gom:speed><gom:rel_alt>9.678</gom:rel_alt></extensions></trkpt>
   <trkpt lat="59.3862105601" lon="34.7054939285"><ele>172.753</ele><time>2026-08-15T16:46:44.928Z</time><hdop>3.0</hdop><vdop>1.312</vdop><extensions><gom:speed>0.952</gom:speed><gom:rel_alt>8.423</gom:rel_alt></extensions></trkpt>
   <trkpt lat="59.3861513839" lon="34.7056285419"><ele>172.112</ele><time>2026-08-15T16:46:54.829Z</time><hdop>3.0</hdop><vdop>1.312</vdop><extensions><gom:speed>0.966</gom:speed><gom:rel_alt>8.233</gom:rel_alt></extensions></trkpt>
   <trkpt lat="59.3861168924" lon="34.7058013767"><ele>171.214</ele><time>2026-08-15T16:47:28.713Z</time><hdop>3.0</hdop><vdop>1.312</vdop><extensions><gom:speed>0.672</gom:speed><gom:rel_alt>7.868</gom:rel_alt></extensions></trkpt>
   <trkpt lat="59.3860397789" lon="34.7059025463"><ele>171.738</ele><time>2026-08-15T16:47:36.211Z</time><hdop>3.0</hdop><vdop>1.312</vdop><extensions><gom:speed>0.849</gom:speed><gom:rel_alt>7.924</gom:rel_alt></extensions></trkpt>
   <trkpt lat="59.3859715921" lon="34.7060328849"><ele>171.287</ele><time>2026-08-15T16:47:45.913Z</time><hdop>3.0</hdop><vdop>1.312</vdop><extensions><gom:speed>0.86</gom:speed><gom:rel_alt>7.099</gom:rel_alt></extensions></trkpt>
   <trkpt lat="59.3859893617" lon="34.7062091563"><ele>170.787</ele><time>2026-08-15T16:48:01.492Z</time><hdop>3.0</hdop><vdop>1.312</vdop><extensions><gom:speed>0.463</gom:speed><gom:rel_alt>7.583</gom:rel_alt></extensions></trkpt>
   <trkpt lat="59.3859077639" lon="34.7061216492"><ele>170.034</ele><time>2026-08-15T16:50:55.491Z</time><hdop>3.062</hdop><vdop>1.312</vdop><extensions><gom:speed>0.831</gom:speed><gom:rel_alt>6.521</gom:rel_alt></extensions></trkpt>
   <trkpt lat="59.385815982" lon="34.7060454577"><ele>169.777</ele><time>2026-08-15T16:51:07.036Z</time><hdop>3.0</hdop><vdop>1.312</vdop><extensions><gom:speed>0.871</gom:speed><gom:rel_alt>6.634</gom:rel_alt></extensions></trkpt>
   <trkpt lat="59.3857292713" lon="34.7059907239"><ele>169.11</ele><time>2026-08-15T16:51:17.013Z</time><hdop>3.0</hdop><vdop>1.312</vdop><extensions><gom:speed>0.936</gom:speed><gom:rel_alt>6.893</gom:rel_alt></extensions></trkpt>
   <trkpt lat="59.3856560972" lon="34.7058852796"><ele>170.059</ele><time>2026-08-15T16:51:28.397Z</time><hdop>3.0</hdop><vdop>1.312</vdop><extensions><gom:speed>0.884</gom:speed><gom:rel_alt>6.803</gom:rel_alt></extensions></trkpt>
   <trkpt lat="59.3855643992" lon="34.7059046418"><ele>169.838</ele><time>2026-08-15T16:51:37.831Z</time><hdop>3.0</hdop><vdop>1.312</vdop><extensions><gom:speed>1.089</gom:speed><gom:rel_alt>7.06</gom:rel_alt></extensions></trkpt>
   <trkpt lat="59.3854735813" lon="34.7059130237"><ele>169.416</ele><time>2026-08-15T16:51:47.902Z</time><hdop>3.0</hdop><vdop>1.312</vdop><extensions><gom:speed>0.901</gom:speed><gom:rel_alt>7.171</gom:rel_alt></extensions></trkpt>
   <trkpt lat="59.3853849846" lon="34.7058413584"><ele>170.491</ele><time>2026-08-15T16:51:58.492Z</time><hdop>3.0</hdop><vdop>1.312</vdop><extensions><gom:speed>1.035</gom:speed><gom:rel_alt>7.43</gom:rel_alt></extensions></trkpt>
   <trkpt lat="59.3852947953" lon="34.7058559429"><ele>170.13</ele><time>2026-08-15T16:52:08.268Z</time><hdop>3.0</hdop><vdop>1.312</vdop><extensions><gom:speed>0.954</gom:speed><gom:rel_alt>7.527</gom:rel_alt></extensions></trkpt>
   <trkpt lat="59.3852093837" lon="34.7059290331"><ele>170.809</ele><time>2026-08-15T16:52:25.411Z</time><hdop>3.0</hdop><vdop>1.312</vdop><extensions><gom:speed>1.02</gom:speed><gom:rel_alt>7.741</gom:rel_alt></extensions></trkpt>
   <trkpt lat="59.385117099" lon="34.7059712779"><ele>170.86</ele><time>2026-08-15T16:52:35.332Z</time><hdop>3.0</hdop><vdop>1.312</vdop><extensions><gom:speed>1.039</gom:speed><gom:rel_alt>7.77</gom:rel_alt></extensions></trkpt>
   <trkpt lat="59.3850229702" lon="34.7059476409"><ele>170.596</ele><time>2026-08-15T16:52:46.490Z</time><hdop>3.0</hdop><vdop>1.312</vdop><extensions><gom:speed>0.98</gom:speed><gom:rel_alt>8.309</gom:rel_alt></extensions></trkpt>
   <trkpt lat="59.3849996685" lon="34.7057664242"><ele>170.913</ele><time>2026-08-15T16:53:02.232Z</time><hdop>3.0</hdop><vdop>1.312</vdop><extensions><gom:speed>0.76</gom:speed><gom:rel_alt>7.94</gom:rel_alt></extensions></trkpt>
   <trkpt lat="59.3849129996" lon="34.7058199845"><ele>170.486</ele><time>2026-08-15T16:53:17.056Z</time><hdop>3.0</hdop><vdop>1.312</vdop><extensions><gom:speed>0.715</gom:speed><gom:rel_alt>7.792</gom:rel_alt></extensions></trkpt>
   <trkpt lat="59.3848671925" lon="34.7059718646"><ele>170.811</ele><time>2026-08-15T16:53:27.491Z</time><hdop>3.0</hdop><vdop>1.312</vdop><extensions><gom:speed>0.96</gom:speed><gom:rel_alt>7.575</gom:rel_alt></extensions></trkpt>
   <trkpt lat="59.3847734828" lon="34.7059925679"><ele>170.213</ele><time>2026-08-15T16:53:36.812Z</time><hdop>3.0</hdop><vdop>1.312</vdop><extensions><gom:speed>0.912</gom:speed><gom:rel_alt>6.721</gom:rel_alt></extensions></trkpt>
   <trkpt lat="59.3846917593" lon="34.7060827572"><ele>169.933</ele><time>2026-08-15T16:53:46.492Z</time><hdop>3.0</hdop><vdop>1.312</vdop><extensions><gom:speed>0.925</gom:speed><gom:rel_alt>7.43</gom:rel_alt></extensions></trkpt>
   <trkpt lat="59.3846310743" lon="34.7062144369"><ele>170.218</ele><time>2026-08-15T16:53:56.813Z</time><hdop>3.0</hdop><vdop>1.312</vdop><extensions><gom:speed>0.863</gom:speed><gom:rel_alt>6.928</gom:rel_alt></extensions></trkpt>
   <trkpt lat="59.3845891648" lon="34.7063748665"><ele>169.643</ele><time>2026-08-15T16:54:07.892Z</time><hdop>3.0</hdop><vdop>1.312</vdop><extensions><gom:speed>0.811</gom:speed><gom:rel_alt>6.576</gom:rel_alt></extensions></trkpt>
   <trkpt lat="59.3845411784" lon="34.7062121738"><ele>169.612</ele><time>2026-08-15T16:56:56.492Z</time><hdop>3.625</hdop><vdop>1.312</vdop><extensions><gom:speed>0.375</gom:speed><gom:rel_alt>4.959</gom:rel_alt></extensions></trkpt>
   <trkpt lat="59.3844760929" lon="34.7060886245"><ele>170.244</ele><time>2026-08-15T16:57:11.336Z</time><hdop>3.062</hdop><vdop>1.312</vdop><extensions><gom:speed>0.877</gom:speed><gom:rel_alt>6.444</gom:rel_alt></extensions></trkpt>
   <trkpt lat="59.3843814612" lon="34.7060990181"><ele>169.915</ele><time>2026-08-15T16:57:22.492Z</time><hdop>3.0</hdop><vdop>1.312</vdop><extensions><gom:speed>0.893</gom:speed><gom:rel_alt>6.566</gom:rel_alt></extensions></trkpt>
   <trkpt lat="59.3842992767" lon="34.7060119301"><ele>169.604</ele><time>2026-08-15T16:57:46.491Z</time><hdop>3.0</hdop><vdop>1.312</vdop><extensions><gom:speed>0.509</gom:speed><gom:rel_alt>6.177</gom:rel_alt></extensions></trkpt>
   <trkpt lat="59.3842565709" lon="34.7058527578"><ele>169.886</ele><time>2026-08-15T16:57:57.467Z</time><hdop>3.0</hdop><vdop>1.312</vdop><extensions><gom:speed>1.021</gom:speed><gom:rel_alt>6.367</gom:rel_alt></extensions></trkpt>
   <trkpt lat="59.3841667588" lon="34.7057864569"><ele>169.651</ele><time>2026-08-15T16:58:08.034Z</time><hdop>3.0</hdop><vdop>1.312</vdop><extensions><gom:speed>1.058</gom:speed><gom:rel_alt>6.407</gom:rel_alt></extensions></trkpt>
   <trkpt lat="59.384075396" lon="34.705771621"><ele>169.764</ele><time>2026-08-15T16:58:18.447Z</time><hdop>3.0</hdop><vdop>1.312</vdop><extensions><gom:speed>1.097</gom:speed><gom:rel_alt>6.243</gom:rel_alt></extensions></trkpt>
   <trkpt lat="59.3839851648" lon="34.7057245985"><ele>169.769</ele><time>2026-08-15T16:58:28.956Z</time><hdop>3.0</hdop><vdop>1.312</vdop><extensions><gom:speed>1.067</gom:speed><gom:rel_alt>5.725</gom:rel_alt></extensions></trkpt>
   <trkpt lat="59.3838948918" lon="34.7057605569"><ele>169.366</ele><time>2026-08-15T16:58:38.848Z</time><hdop>3.125</hdop><vdop>1.312</vdop><extensions><gom:speed>1.114</gom:speed><gom:rel_alt>6.0</gom:rel_alt></extensions></trkpt>
   <trkpt lat="59.3838537785" lon="34.7055891469"><ele>169.375</ele><time>2026-08-15T16:58:47.770Z</time><hdop>3.0</hdop><vdop>1.312</vdop><extensions><gom:speed>1.08</gom:speed><gom:rel_alt>5.995</gom:rel_alt></extensions></trkpt>
   <trkpt lat="59.3838245676" lon="34.7054130431"><ele>169.291</ele><time>2026-08-15T16:59:17.435Z</time><hdop>3.0</hdop><vdop>1.312</vdop><extensions><gom:speed>0.965</gom:speed><gom:rel_alt>6.056</gom:rel_alt></extensions></trkpt>
   <trkpt lat="59.3838249867" lon="34.7052276354"><ele>169.144</ele><time>2026-08-15T16:59:32.209Z</time><hdop>3.0</hdop><vdop>1.312</vdop><extensions><gom:speed>0.805</gom:speed><gom:rel_alt>5.654</gom:rel_alt></extensions></trkpt>
   <trkpt lat="59.3837542853" lon="34.7051183354"><ele>169.127</ele><time>2026-08-15T16:59:52.491Z</time><hdop>3.0</hdop><vdop>1.312</vdop><extensions><gom:speed>0.507</gom:speed><gom:rel_alt>5.276</gom:rel_alt></extensions></trkpt>
   <trkpt lat="59.3837092745" lon="34.7049592469"><ele>169.139</ele><time>2026-08-15T17:00:09.476Z</time><hdop>3.0</hdop><vdop>1.312</vdop><extensions><gom:speed>0.828</gom:speed><gom:rel_alt>5.376</gom:rel_alt></extensions></trkpt>
   <trkpt lat="59.3836285987" lon="34.7048571553"><ele>169.067</ele><time>2026-08-15T17:00:25.789Z</time><hdop>3.0</hdop><vdop>1.312</vdop><extensions><gom:speed>0.889</gom:speed><gom:rel_alt>4.832</gom:rel_alt></extensions></trkpt>
   <trkpt lat="59.3836118768" lon="34.7046682272"><ele>168.748</ele><time>2026-08-15T17:03:16.414Z</time><hdop>3.625</hdop><vdop>1.312</vdop><extensions><gom:speed>0.782</gom:speed><gom:rel_alt>5.321</gom:rel_alt></extensions></trkpt>
   <trkpt lat="59.3835322906" lon="34.7045778703"><ele>168.951</ele><time>2026-08-15T17:03:28.492Z</time><hdop>3.0</hdop><vdop>1.312</vdop><extensions><gom:speed>0.867</gom:speed><gom:rel_alt>5.657</gom:rel_alt></extensions></trkpt>
   <trkpt lat="59.3835093661" lon="34.7044065442"><ele>169.192</ele><time>2026-08-15T17:03:38.267Z</time><hdop>3.0</hdop><vdop>1.312</vdop><extensions><gom:speed>1.025</gom:speed><gom:rel_alt>4.967</gom:rel_alt></extensions></trkpt>
   <trkpt lat="59.3834722762" lon="34.7042442706"><ele>169.24</ele><time>2026-08-15T17:03:47.492Z</time><hdop>3.0</hdop><vdop>1.312</vdop><extensions><gom:speed>1.044</gom:speed><gom:rel_alt>5.136</gom:rel_alt></extensions></trkpt>
   <trkpt lat="59.3834511957" lon="34.7040695917"><ele>169.066</ele><time>2026-08-15T17:03:59.836Z</time><hdop>3.0</hdop><vdop>1.312</vdop><extensions><gom:speed>1.025</gom:speed><gom:rel_alt>4.671</gom:rel_alt></extensions></trkpt>
   <trkpt lat="59.3834161594" lon="34.7039039653"><ele>169.116</ele><time>2026-08-15T17:04:09.728Z</time><hdop>3.0</hdop><vdop>1.312</vdop><extensions><gom:speed>1.093</gom:speed><gom:rel_alt>4.845</gom:rel_alt></extensions></trkpt>
   <trkpt lat="59.3834103758" lon="34.7037227486"><ele>169.408</ele><time>2026-08-15T17:04:19.153Z</time><hdop>3.0</hdop><vdop>1.312</vdop><extensions><gom:speed>1.001</gom:speed><gom:rel_alt>5.622</gom:rel_alt></extensions></trkpt>
   <trkpt lat="59.3834217752" lon="34.7035426215"><ele>169.488</ele><time>2026-08-15T17:04:27.491Z</time><hdop>3.0</hdop><vdop>1.312</vdop><extensions><gom:speed>1.094</gom:speed><gom:rel_alt>5.635</gom:rel_alt></extensions></trkpt>
   <trkpt lat="59.3834163689" lon="34.7033624944"><ele>169.498</ele><time>2026-08-15T17:04:38.071Z</time><hdop>3.0</hdop><vdop>1.312</vdop><extensions><gom:speed>1.083</gom:speed><gom:rel_alt>5.345</gom:rel_alt></extensions></trkpt>
   <trkpt lat="59.3834611702" lon="34.7032075968"><ele>169.491</ele><time>2026-08-15T17:04:47.491Z</time><hdop>3.0</hdop><vdop>1.312</vdop><extensions><gom:speed>1.039</gom:speed><gom:rel_alt>5.696</gom:rel_alt></extensions></trkpt>
   <trkpt lat="59.3835393733" lon="34.7031087741"><ele>169.324</ele><time>2026-08-15T17:04:58.491Z</time><hdop>3.0</hdop><vdop>1.312</vdop><extensions><gom:speed>0.915</gom:speed><gom:rel_alt>5.318</gom:rel_alt></extensions></trkpt>
   <trkpt lat="59.3835926822" lon="34.7029634319"><ele>169.102</ele><time>2026-08-15T17:05:09.490Z</time><hdop>3.0</hdop><vdop>1.312</vdop><extensions><gom:speed>0.989</gom:speed><gom:rel_alt>4.917</gom:rel_alt></extensions></trkpt>
   <trkpt lat="59.3836863919" lon="34.7029894997"><ele>169.374</ele><time>2026-08-15T17:05:27.110Z</time><hdop>3.0</hdop><vdop>1.312</vdop><extensions><gom:speed>0.576</gom:speed><gom:rel_alt>4.69</gom:rel_alt></extensions></trkpt>
   <trkpt lat="59.3837643855" lon="34.702886989"><ele>169.229</ele><time>2026-08-15T17:05:38.834Z</time><hdop>3.0</hdop><vdop>1.312</vdop><extensions><gom:speed>1.007</gom:speed><gom:rel_alt>4.935</gom:rel_alt></extensions></trkpt>
   <trkpt lat="59.3838100669" lon="34.7027304989"><ele>168.983</ele><time>2026-08-15T17:05:49.334Z</time><hdop>3.0</hdop><vdop>1.312</vdop><extensions><gom:speed>0.928</gom:speed><gom:rel_alt>5.115</gom:rel_alt></extensions></trkpt>
   <trkpt lat="59.3838403675" lon="34.702546097"><ele>168.42</ele><time>2026-08-15T17:06:03.254Z</time><hdop>3.125</hdop><vdop>1.312</vdop><extensions><gom:speed>1.158</gom:speed><gom:rel_alt>4.837</gom:rel_alt></extensions></trkpt>
   <trkpt lat="59.3839015973" lon="34.7024062868"><ele>169.297</ele><time>2026-08-15T17:06:17.013Z</time><hdop>3.062</hdop><vdop>1.312</vdop><extensions><gom:speed>0.802</gom:speed><gom:rel_alt>5.509</gom:rel_alt></extensions></trkpt>
   <trkpt lat="59.3839647968" lon="34.7022704162"><ele>169.455</ele><time>2026-08-15T17:06:32.870Z</time><hdop>3.0</hdop><vdop>1.312</vdop><extensions><gom:speed>0.638</gom:speed><gom:rel_alt>5.591</gom:rel_alt></extensions></trkpt>
   <trkpt lat="59.3840537707" lon="34.7022291772"><ele>169.551</ele><time>2026-08-15T17:06:49.896Z</time><hdop>3.0</hdop><vdop>1.312</vdop><extensions><gom:speed>0.831</gom:speed><gom:rel_alt>6.04</gom:rel_alt></extensions></trkpt>
   <trkpt lat="59.3840838618" lon="34.7020529896"><ele>169.674</ele><time>2026-08-15T17:07:04.452Z</time><hdop>3.0</hdop><vdop>1.312</vdop><extensions><gom:speed>0.649</gom:speed><gom:rel_alt>5.889</gom:rel_alt></extensions></trkpt>
   <trkpt lat="59.3841316805" lon="34.7018912189"><ele>169.709</ele><time>2026-08-15T17:07:12.329Z</time><hdop>3.0</hdop><vdop>1.312</vdop><extensions><gom:speed>0.945</gom:speed><gom:rel_alt>6.042</gom:rel_alt></extensions></trkpt>
   <trkpt lat="59.3841034754" lon="34.7017033804"><ele>170.29</ele><time>2026-08-15T17:07:26.894Z</time><hdop>3.0</hdop><vdop>1.312</vdop><extensions><gom:speed>0.913</gom:speed><gom:rel_alt>6.423</gom:rel_alt></extensions></trkpt>
   <trkpt lat="59.3840663855" lon="34.701536832"><ele>170.715</ele><time>2026-08-15T17:07:40.016Z</time><hdop>3.0</hdop><vdop>1.312</vdop><extensions><gom:speed>0.871</gom:speed><gom:rel_alt>7.192</gom:rel_alt></extensions></trkpt>
   <trkpt lat="59.384012867" lon="34.7013916575"><ele>171.398</ele><time>2026-08-15T17:08:05.992Z</time><hdop>3.0</hdop><vdop>1.312</vdop><extensions><gom:speed>0.746</gom:speed><gom:rel_alt>7.657</gom:rel_alt></extensions></trkpt>
   <trkpt lat="59.3839862964" lon="34.7012225945"><ele>172.569</ele><time>2026-08-15T17:12:39.491Z</time><hdop>3.0</hdop><vdop>1.312</vdop><extensions><gom:speed>0.063</gom:speed><gom:rel_alt>8.066</gom:rel_alt></extensions></trkpt>
   <trkpt lat="59.3839091829" lon="34.7011208382"><ele>171.802</ele><time>2026-08-15T17:13:08.495Z</time><hdop>3.0</hdop><vdop>1.312</vdop><extensions><gom:speed>0.72</gom:speed><gom:rel_alt>6.898</gom:rel_alt></extensions></trkpt>
   <trkpt lat="59.3838195804" lon="34.7010982909"><ele>170.483</ele><time>2026-08-15T17:13:22.491Z</time><hdop>3.0</hdop><vdop>1.312</vdop><extensions><gom:speed>0.701</gom:speed><gom:rel_alt>5.778</gom:rel_alt></extensions></trkpt>
   <trkpt lat="59.3837466997" lon="34.7009938523"><ele>169.437</ele><time>2026-08-15T17:13:34.491Z</time><hdop>3.0</hdop><vdop>1.312</vdop><extensions><gom:speed>0.817</gom:speed><gom:rel_alt>5.3</gom:rel_alt></extensions></trkpt>
   <trkpt lat="59.3836626711" lon="34.7010716364"><ele>169.528</ele><time>2026-08-15T17:13:44.295Z</time><hdop>3.0</hdop><vdop>1.312</vdop><extensions><gom:speed>0.866</gom:speed><gom:rel_alt>5.456</gom:rel_alt></extensions></trkpt>
   <trkpt lat="59.3835878626" lon="34.7009526972"><ele>169.801</ele><time>2026-08-15T17:13:56.491Z</time><hdop>3.0</hdop><vdop>1.312</vdop><extensions><gom:speed>0.866</gom:speed><gom:rel_alt>5.768</gom:rel_alt></extensions></trkpt>
   <trkpt lat="59.3835097852" lon="34.7010529448"><ele>169.969</ele><time>2026-08-15T17:14:11.269Z</time><hdop>3.0</hdop><vdop>1.312</vdop><extensions><gom:speed>0.943</gom:speed><gom:rel_alt>5.58</gom:rel_alt></extensions></trkpt>
   <trkpt lat="59.3834207694" lon="34.701022267"><ele>169.901</ele><time>2026-08-15T17:14:23.492Z</time><hdop>3.0</hdop><vdop>1.312</vdop><extensions><gom:speed>0.867</gom:speed><gom:rel_alt>5.921</gom:rel_alt></extensions></trkpt>
   <trkpt lat="59.3834149859" lon="34.7008405473"><ele>170.467</ele><time>2026-08-15T17:14:35.468Z</time><hdop>3.0</hdop><vdop>1.312</vdop><extensions><gom:speed>0.871</gom:speed><gom:rel_alt>5.765</gom:rel_alt></extensions></trkpt>
   <trkpt lat="59.3833531693" lon="34.7006931935"><ele>171.146</ele><time>2026-08-15T17:14:49.491Z</time><hdop>3.0</hdop><vdop>1.312</vdop><extensions><gom:speed>0.819</gom:speed><gom:rel_alt>7.366</gom:rel_alt></extensions></trkpt>
   <trkpt lat="59.383293574" lon="34.7005589992"><ele>171.613</ele><time>2026-08-15T17:15:02.916Z</time><hdop>3.0</hdop><vdop>1.312</vdop><extensions><gom:speed>0.918</gom:speed><gom:rel_alt>7.527</gom:rel_alt></extensions></trkpt>
   <trkpt lat="59.3832255968" lon="34.7004403953"><ele>172.05</ele><time>2026-08-15T17:15:19.770Z</time><hdop>3.0</hdop><vdop>1.312</vdop><extensions><gom:speed>1.0</gom:speed><gom:rel_alt>7.839</gom:rel_alt></extensions></trkpt>
   <trkpt lat="59.3831614752" lon="34.7003072906"><ele>172.621</ele><time>2026-08-15T17:15:31.855Z</time><hdop>3.0</hdop><vdop>1.312</vdop><extensions><gom:speed>0.847</gom:speed><gom:rel_alt>8.55</gom:rel_alt></extensions></trkpt>
   <trkpt lat="59.3831466812" lon="34.7001289237"><ele>172.902</ele><time>2026-08-15T17:15:43.009Z</time><hdop>3.0</hdop><vdop>1.312</vdop><extensions><gom:speed>0.913</gom:speed><gom:rel_alt>8.574</gom:rel_alt></extensions></trkpt>
   <trkpt lat="59.3831204877" lon="34.6999542449"><ele>172.836</ele><time>2026-08-15T17:15:54.391Z</time><hdop>3.0</hdop><vdop>1.312</vdop><extensions><gom:speed>0.812</gom:speed><gom:rel_alt>8.471</gom:rel_alt></extensions></trkpt>
   <trkpt lat="59.3830845713" lon="34.6997872774"><ele>172.527</ele><time>2026-08-15T17:16:16.492Z</time><hdop>3.0</hdop><vdop>1.312</vdop><extensions><gom:speed>0.697</gom:speed><gom:rel_alt>8.806</gom:rel_alt></extensions></trkpt>
   <trkpt lat="59.3830506665" lon="34.6996238303"><ele>172.913</ele><time>2026-08-15T17:16:33.491Z</time><hdop>3.0</hdop><vdop>1.312</vdop><extensions><gom:speed>0.895</gom:speed><gom:rel_alt>8.547</gom:rel_alt></extensions></trkpt>
   <trkpt lat="59.3830271971" lon="34.699441021"><ele>172.882</ele><time>2026-08-15T17:16:43.833Z</time><hdop>3.0</hdop><vdop>1.312</vdop><extensions><gom:speed>0.916</gom:speed><gom:rel_alt>8.584</gom:rel_alt></extensions></trkpt>
   <trkpt lat="59.3830853675" lon="34.6992887218"><ele>172.979</ele><time>2026-08-15T17:16:54.732Z</time><hdop>3.0</hdop><vdop>1.312</vdop><extensions><gom:speed>0.894</gom:speed><gom:rel_alt>8.912</gom:rel_alt></extensions></trkpt>
   <trkpt lat="59.3830606828" lon="34.6991137915"><ele>173.198</ele><time>2026-08-15T17:17:06.388Z</time><hdop>3.0</hdop><vdop>1.312</vdop><extensions><gom:speed>0.857</gom:speed><gom:rel_alt>8.967</gom:rel_alt></extensions></trkpt>
   <trkpt lat="59.3829757742" lon="34.6990368456"><ele>173.0</ele><time>2026-08-15T17:17:17.989Z</time><hdop>3.0</hdop><vdop>1.312</vdop><extensions><gom:speed>0.895</gom:speed><gom:rel_alt>9.173</gom:rel_alt></extensions></trkpt>
   <trkpt lat="59.3828946792" lon="34.699115384"><ele>173.389</ele><time>2026-08-15T17:17:37.257Z</time><hdop>3.0</hdop><vdop>1.312</vdop><extensions><gom:speed>0.266</gom:speed><gom:rel_alt>9.192</gom:rel_alt></extensions></trkpt>
   <trkpt lat="59.3828042804" lon="34.699121419"><ele>172.902</ele><time>2026-08-15T17:17:47.288Z</time><hdop>3.0</hdop><vdop>1.312</vdop><extensions><gom:speed>0.848</gom:speed><gom:rel_alt>8.814</gom:rel_alt></extensions></trkpt>
   <trkpt lat="59.382725281" lon="34.6990330737"><ele>172.935</ele><time>2026-08-15T17:17:59.491Z</time><hdop>3.0</hdop><vdop>1.312</vdop><extensions><gom:speed>0.91</gom:speed><gom:rel_alt>8.28</gom:rel_alt></extensions></trkpt>
   <trkpt lat="59.3826766659" lon="34.6988764998"><ele>172.986</ele><time>2026-08-15T17:18:08.133Z</time><hdop>3.0</hdop><vdop>1.312</vdop><extensions><gom:speed>0.883</gom:speed><gom:rel_alt>9.033</gom:rel_alt></extensions></trkpt>
   <trkpt lat="59.3826143884" lon="34.6990141306"><ele>172.402</ele><time>2026-08-15T17:20:46.009Z</time><hdop>3.062</hdop><vdop>1.375</vdop><extensions><gom:speed>0.817</gom:speed><gom:rel_alt>8.584</gom:rel_alt></extensions></trkpt>
   <trkpt lat="59.3825911705" lon="34.6991847862"><ele>172.42</ele><time>2026-08-15T17:20:59.889Z</time><hdop>3.0</hdop><vdop>1.312</vdop><extensions><gom:speed>0.75</gom:speed><gom:rel_alt>7.847</gom:rel_alt></extensions></trkpt>
   <trkpt lat="59.3825060942" lon="34.6992586307"><ele>172.236</ele><time>2026-08-15T17:21:10.349Z</time><hdop>3.0</hdop><vdop>1.312</vdop><extensions><gom:speed>0.843</gom:speed><gom:rel_alt>8.27</gom:rel_alt></extensions></trkpt>
   <trkpt lat="59.3824382846" lon="34.6993873768"><ele>171.772</ele><time>2026-08-15T17:21:23.233Z</time><hdop>3.0</hdop><vdop>1.312</vdop><extensions><gom:speed>0.884</gom:speed><gom:rel_alt>8.08</gom:rel_alt></extensions></trkpt>
   <trkpt lat="59.3824025777" lon="34.6995534223"><ele>171.608</ele><time>2026-08-15T17:21:33.492Z</time><hdop>3.0</hdop><vdop>1.312</vdop><extensions><gom:speed>1.05</gom:speed><gom:rel_alt>7.636</gom:rel_alt></extensions></trkpt>
   <trkpt lat="59.382320477" lon="34.6996275183"><ele>171.103</ele><time>2026-08-15T17:21:45.236Z</time><hdop>3.0</hdop><vdop>1.375</vdop><extensions><gom:speed>0.769</gom:speed><gom:rel_alt>7.44</gom:rel_alt></extensions></trkpt>
   <trkpt lat="59.3822344786" lon="34.6996864431"><ele>170.324</ele><time>2026-08-15T17:21:57.311Z</time><hdop>3.0</hdop><vdop>1.312</vdop><extensions><gom:speed>0.791</gom:speed><gom:rel_alt>6.441</gom:rel_alt></extensions></trkpt>
   <trkpt lat="59.3821576585" lon="34.6997855172"><ele>170.494</ele><time>2026-08-15T17:22:08.913Z</time><hdop>3.0</hdop><vdop>1.312</vdop><extensions><gom:speed>1.022</gom:speed><gom:rel_alt>7.321</gom:rel_alt></extensions></trkpt>
   <trkpt lat="59.3820941656" lon="34.6999286801"><ele>169.802</ele><time>2026-08-15T17:22:21.367Z</time><hdop>3.125</hdop><vdop>1.312</vdop><extensions><gom:speed>1.08</gom:speed><gom:rel_alt>7.519</gom:rel_alt></extensions></trkpt>
   <trkpt lat="59.3820606799" lon="34.7000961505"><ele>170.936</ele><time>2026-08-15T17:22:30.374Z</time><hdop>3.0</hdop><vdop>1.312</vdop><extensions><gom:speed>0.975</gom:speed><gom:rel_alt>7.781</gom:rel_alt></extensions></trkpt>
   <trkpt lat="59.3820280743" lon="34.7002656326"><ele>171.355</ele><time>2026-08-15T17:22:42.392Z</time><hdop>3.0</hdop><vdop>1.375</vdop><extensions><gom:speed>0.919</gom:speed><gom:rel_alt>8.169</gom:rel_alt></extensions></trkpt>
   <trkpt lat="59.3819572891" lon="34.7003866673"><ele>171.166</ele><time>2026-08-15T17:22:54.429Z</time><hdop>3.0</hdop><vdop>1.312</vdop><extensions><gom:speed>0.866</gom:speed><gom:rel_alt>7.831</gom:rel_alt></extensions></trkpt>
   <trkpt lat="59.3818702849" lon="34.7004547283"><ele>171.025</ele><time>2026-08-15T17:23:05.492Z</time><hdop>3.0</hdop><vdop>1.312</vdop><extensions><gom:speed>0.941</gom:speed><gom:rel_alt>7.551</gom:rel_alt></extensions></trkpt>
   <trkpt lat="59.3817785869" lon="34.700497476"><ele>170.458</ele><time>2026-08-15T17:23:15.948Z</time><hdop>3.0</hdop><vdop>1.312</vdop><extensions><gom:speed>0.965</gom:speed><gom:rel_alt>7.313</gom:rel_alt></extensions></trkpt>
   <trkpt lat="59.3816955642" lon="34.7005754277"><ele>169.815</ele><time>2026-08-15T17:23:26.275Z</time><hdop>3.0</hdop><vdop>1.312</vdop><extensions><gom:speed>0.882</gom:speed><gom:rel_alt>6.301</gom:rel_alt></extensions></trkpt>
   <trkpt lat="59.3816374776" lon="34.7007195965"><ele>170.03</ele><time>2026-08-15T17:23:36.450Z</time><hdop>3.0</hdop><vdop>1.312</vdop><extensions><gom:speed>0.866</gom:speed><gom:rel_alt>6.219</gom:rel_alt></extensions></trkpt>
   <trkpt lat="59.3815801873" lon="34.7008619212"><ele>169.277</ele><time>2026-08-15T17:23:48.107Z</time><hdop>3.0</hdop><vdop>1.312</vdop><extensions><gom:speed>0.866</gom:speed><gom:rel_alt>6.888</gom:rel_alt></extensions></trkpt>
   <trkpt lat="59.3816504695" lon="34.700979184"><ele>169.858</ele><time>2026-08-15T17:24:00.211Z</time><hdop>3.0</hdop><vdop>1.312</vdop><extensions><gom:speed>0.78</gom:speed><gom:rel_alt>6.399</gom:rel_alt></extensions></trkpt>
   <trkpt lat="59.381723895" lon="34.7010960277"><ele>169.76</ele><time>2026-08-15T17:24:10.110Z</time><hdop>3.0</hdop><vdop>1.312</vdop><extensions><gom:speed>0.826</gom:speed><gom:rel_alt>6.957</gom:rel_alt></extensions></trkpt>
   <trkpt lat="59.3817599791" lon="34.7012618218"><ele>168.971</ele><time>2026-08-15T17:24:21.493Z</time><hdop>3.0</hdop><vdop>1.312</vdop><extensions><gom:speed>0.857</gom:speed><gom:rel_alt>6.259</gom:rel_alt></extensions></trkpt>
   <trkpt lat="59.381685464" lon="34.7013644163"><ele>169.211</ele><time>2026-08-15T17:24:33.434Z</time><hdop>3.0</hdop><vdop>1.312</vdop><extensions><gom:speed>0.908</gom:speed><gom:rel_alt>6.251</gom:rel_alt></extensions></trkpt>
   <trkpt lat="59.3816706699" lon="34.7015463874"><ele>168.942</ele><time>2026-08-15T17:24:44.929Z</time><hdop>3.0</hdop><vdop>1.312</vdop><extensions><gom:speed>0.926</gom:speed><gom:rel_alt>6.204</gom:rel_alt></extensions></trkpt>
   <trkpt lat="59.3816520621" lon="34.7017211501"><ele>169.209</ele><time>2026-08-15T17:24:55.837Z</time><hdop>3.0</hdop><vdop>1.312</vdop><extensions><gom:speed>0.916</gom:speed><gom:rel_alt>6.312</gom:rel_alt></extensions></trkpt>
   <trkpt lat="59.381640998" lon="34.7019051329"><ele>169.112</ele><time>2026-08-15T17:25:05.374Z</time><hdop>3.0</hdop><vdop>1.312</vdop><extensions><gom:speed>0.969</gom:speed><gom:rel_alt>5.923</gom:rel_alt></extensions></trkpt>
   <trkpt lat="59.3817256971" lon="34.7019732777"><ele>167.895</ele><time>2026-08-15T17:25:20.492Z</time><hdop>3.0</hdop><vdop>1.312</vdop><extensions><gom:speed>0.989</gom:speed><gom:rel_alt>5.942</gom:rel_alt></extensions></trkpt>
   <trkpt lat="59.3818190715" lon="34.7019860182"><ele>168.064</ele><time>2026-08-15T17:25:29.828Z</time><hdop>3.0</hdop><vdop>1.312</vdop><extensions><gom:speed>1.054</gom:speed><gom:rel_alt>5.918</gom:rel_alt></extensions></trkpt>
   <trkpt lat="59.3819075844" lon="34.7019400854"><ele>168.013</ele><time>2026-08-15T17:25:43.234Z</time><hdop>3.0</hdop><vdop>1.312</vdop><extensions><gom:speed>0.718</gom:speed><gom:rel_alt>5.879</gom:rel_alt></extensions></trkpt>
   <trkpt lat="59.381997187" lon="34.7019552566"><ele>168.197</ele><time>2026-08-15T17:25:56.492Z</time><hdop>3.0</hdop><vdop>1.312</vdop><extensions><gom:speed>0.752</gom:speed><gom:rel_alt>6.227</gom:rel_alt></extensions></trkpt>
   <trkpt lat="59.3820306727" lon="34.702119039"><ele>168.506</ele><time>2026-08-15T17:26:05.948Z</time><hdop>3.0</hdop><vdop>1.312</vdop><extensions><gom:speed>0.95</gom:speed><gom:rel_alt>5.971</gom:rel_alt></extensions></trkpt>
   <trkpt lat="59.3820407729" lon="34.7022985794"><ele>167.749</ele><time>2026-08-15T17:28:28.491Z</time><hdop>3.5</hdop><vdop>1.312</vdop><extensions><gom:speed>0.786</gom:speed><gom:rel_alt>5.921</gom:rel_alt></extensions></trkpt>
   <trkpt lat="59.3820273618" lon="34.702478455"><ele>167.337</ele><time>2026-08-15T17:28:40.113Z</time><hdop>3.375</hdop><vdop>1.312</vdop><extensions><gom:speed>0.899</gom:speed><gom:rel_alt>6.106</gom:rel_alt></extensions></trkpt>
   <trkpt lat="59.38202359" lon="34.7026604261"><ele>167.229</ele><time>2026-08-15T17:28:52.294Z</time><hdop>3.375</hdop><vdop>1.312</vdop><extensions><gom:speed>1.021</gom:speed><gom:rel_alt>5.979</gom:rel_alt></extensions></trkpt>
   <trkpt lat="59.3820853646" lon="34.7027981408"><ele>167.783</ele><time>2026-08-15T17:29:01.142Z</time><hdop>3.062</hdop><vdop>1.312</vdop><extensions><gom:speed>1.067</gom:speed><gom:rel_alt>5.728</gom:rel_alt></extensions></trkpt>
   <trkpt lat="59.3821537609" lon="34.7029256296"><ele>167.256</ele><time>2026-08-15T17:29:11.355Z</time><hdop>3.0</hdop><vdop>1.312</vdop><extensions><gom:speed>1.095</gom:speed><gom:rel_alt>6.074</gom:rel_alt></extensions></trkpt>
   <trkpt lat="59.3822182597" lon="34.7030542918"><ele>167.697</ele><time>2026-08-15T17:29:20.492Z</time><hdop>3.0</hdop><vdop>1.312</vdop><extensions><gom:speed>1.039</gom:speed><gom:rel_alt>6.206</gom:rel_alt></extensions></trkpt>
   <trkpt lat="59.3822507814" lon="34.7032239415"><ele>168.171</ele><time>2026-08-15T17:29:30.880Z</time><hdop>3.0</hdop><vdop>1.312</vdop><extensions><gom:speed>0.929</gom:speed><gom:rel_alt>5.916</gom:rel_alt></extensions></trkpt>
   <trkpt lat="59.3823080718" lon="34.7033613209"><ele>167.577</ele><time>2026-08-15T17:29:41.122Z</time><hdop>3.0</hdop><vdop>1.312</vdop><extensions><gom:speed>1.01</gom:speed><gom:rel_alt>5.86</gom:rel_alt></extensions></trkpt>
   <trkpt lat="59.3823951597" lon="34.7034195751"><ele>168.045</ele><time>2026-08-15T17:29:52.257Z</time><hdop>3.0</hdop><vdop>1.312</vdop><extensions><gom:speed>0.989</gom:speed><gom:rel_alt>6.354</gom:rel_alt></extensions></trkpt>
   <trkpt lat="59.3824872768" lon="34.703412199"><ele>168.359</ele><time>2026-08-15T17:30:02.357Z</time><hdop>3.0</hdop><vdop>1.312</vdop><extensions><gom:speed>1.003</gom:speed><gom:rel_alt>6.172</gom:rel_alt></extensions></trkpt>
   <trkpt lat="59.3825672821" lon="34.7034947608"><ele>167.278</ele><time>2026-08-15T17:30:11.944Z</time><hdop>3.0</hdop><vdop>1.312</vdop><extensions><gom:speed>0.925</gom:speed><gom:rel_alt>6.05</gom:rel_alt></extensions></trkpt>
   <trkpt lat="59.3825944814" lon="34.7036643267"><ele>167.796</ele><time>2026-08-15T17:30:21.719Z</time><hdop>3.0</hdop><vdop>1.312</vdop><extensions><gom:speed>0.965</gom:speed><gom:rel_alt>6.304</gom:rel_alt></extensions></trkpt>
   <trkpt lat="59.3827028594" lon="34.7037198987"><ele>167.816</ele><time>2026-08-15T17:30:31.491Z</time><hdop>3.0</hdop><vdop>1.312</vdop><extensions><gom:speed>2.11</gom:speed><gom:rel_alt>6.235</gom:rel_alt></extensions></trkpt>
   <trkpt lat="59.3826436832" lon="34.7038638998"><ele>167.238</ele><time>2026-08-15T17:30:39.315Z</time><hdop>3.062</hdop><vdop>1.312</vdop><extensions><gom:speed>0.963</gom:speed><gom:rel_alt>6.344</gom:rel_alt></extensions></trkpt>
   <trkpt lat="59.3826498858" lon="34.7040498942"><ele>168.474</ele><time>2026-08-15T17:30:53.158Z</time><hdop>3.0</hdop><vdop>1.312</vdop><extensions><gom:speed>0.981</gom:speed><gom:rel_alt>6.856</gom:rel_alt></extensions></trkpt>
   <trkpt lat="59.3826592735" lon="34.7042309433"><ele>168.442</ele><time>2026-08-15T17:31:04.996Z</time><hdop>3.0</hdop><vdop>1.312</vdop><extensions><gom:speed>0.973</gom:speed><gom:rel_alt>7.001</gom:rel_alt></extensions></trkpt>
   <trkpt lat="59.3826439765" lon="34.7044065442"><ele>168.462</ele><time>2026-08-15T17:31:15.492Z</time><hdop>3.0</hdop><vdop>1.312</vdop><extensions><gom:speed>0.978</gom:speed><gom:rel_alt>7.583</gom:rel_alt></extensions></trkpt>
   <trkpt lat="59.3826451919" lon="34.7045922872"><ele>168.976</ele><time>2026-08-15T17:31:27.492Z</time><hdop>3.0</hdop><vdop>1.312</vdop><extensions><gom:speed>0.857</gom:speed><gom:rel_alt>7.369</gom:rel_alt></extensions></trkpt>
   <trkpt lat="59.3826642607" lon="34.7047776949"><ele>169.275</ele><time>2026-08-15T17:34:21.492Z</time><hdop>3.375</hdop><vdop>1.312</vdop><extensions><gom:speed>0.744</gom:speed><gom:rel_alt>7.588</gom:rel_alt></extensions></trkpt>
   <trkpt lat="59.3826840839" lon="34.7049586602"><ele>168.643</ele><time>2026-08-15T17:34:34.195Z</time><hdop>3.0</hdop><vdop>1.312</vdop><extensions><gom:speed>0.751</gom:speed><gom:rel_alt>7.443</gom:rel_alt></extensions></trkpt>
   <trkpt lat="59.3827336629" lon="34.7051233646"><ele>169.593</ele><time>2026-08-15T17:34:46.175Z</time><hdop>3.0</hdop><vdop>1.312</vdop><extensions><gom:speed>1.016</gom:speed><gom:rel_alt>7.683</gom:rel_alt></extensions></trkpt>
   <trkpt lat="59.3827789671" lon="34.7052812796"><ele>168.648</ele><time>2026-08-15T17:34:56.864Z</time><hdop>3.0</hdop><vdop>1.312</vdop><extensions><gom:speed>0.751</gom:speed><gom:rel_alt>7.398</gom:rel_alt></extensions></trkpt>
   <trkpt lat="59.3828260734" lon="34.7054402843"><ele>168.17</ele><time>2026-08-15T17:35:07.492Z</time><hdop>3.0</hdop><vdop>1.312</vdop><extensions><gom:speed>0.82</gom:speed><gom:rel_alt>6.801</gom:rel_alt></extensions></trkpt>
   <trkpt lat="59.3828716709" lon="34.7056026418"><ele>168.179</ele><time>2026-08-15T17:35:17.698Z</time><hdop>3.0</hdop><vdop>1.312</vdop><extensions><gom:speed>0.893</gom:speed><gom:rel_alt>6.233</gom:rel_alt></extensions></trkpt>
   <trkpt lat="59.3829068749" lon="34.705772543"><ele>166.892</ele><time>2026-08-15T17:35:28.262Z</time><hdop>3.0</hdop><vdop>1.312</vdop><extensions><gom:speed>0.886</gom:speed><gom:rel_alt>6.201</gom:rel_alt></extensions></trkpt>
   <trkpt lat="59.3829434619" lon="34.7059431985"><ele>166.888</ele><time>2026-08-15T17:35:39.044Z</time><hdop>3.0</hdop><vdop>1.312</vdop><extensions><gom:speed>1.009</gom:speed><gom:rel_alt>5.506</gom:rel_alt></extensions></trkpt>
   <trkpt lat="59.3829922865" lon="34.7060990181"><ele>167.352</ele><time>2026-08-15T17:35:52.278Z</time><hdop>3.0</hdop><vdop>1.312</vdop><extensions><gom:speed>0.769</gom:speed><gom:rel_alt>6.283</gom:rel_alt></extensions></trkpt>
   <trkpt lat="59.3830217908" lon="34.7062789776"><ele>167.403</ele><time>2026-08-15T17:36:04.903Z</time><hdop>3.062</hdop><vdop>1.312</vdop><extensions><gom:speed>0.883</gom:speed><gom:rel_alt>6.415</gom:rel_alt></extensions></trkpt>
   <trkpt lat="59.38308608" lon="34.7064170275"><ele>167.82</ele><time>2026-08-15T17:36:17.500Z</time><hdop>3.0</hdop><vdop>1.312</vdop><extensions><gom:speed>0.858</gom:speed><gom:rel_alt>6.444</gom:rel_alt></extensions></trkpt>
   <trkpt lat="59.3831415682" lon="34.7065673989"><ele>167.253</ele><time>2026-08-15T17:36:28.444Z</time><hdop>3.0</hdop><vdop>1.312</vdop><extensions><gom:speed>1.059</gom:speed><gom:rel_alt>6.301</gom:rel_alt></extensions></trkpt>
   <trkpt lat="59.3832228727" lon="34.7066690713"><ele>167.23</ele><time>2026-08-15T17:36:39.198Z</time><hdop>3.0</hdop><vdop>1.312</vdop><extensions><gom:speed>0.944</gom:speed><gom:rel_alt>6.64</gom:rel_alt></extensions></trkpt>
   <trkpt lat="59.3832905984" lon="34.70679195"><ele>167.737</ele><time>2026-08-15T17:36:50.105Z</time><hdop>3.0</hdop><vdop>1.312</vdop><extensions><gom:speed>0.883</gom:speed><gom:rel_alt>5.99</gom:rel_alt></extensions></trkpt>
   <trkpt lat="59.3833807877" lon="34.7068233822"><ele>167.392</ele><time>2026-08-15T17:39:01.824Z</time><hdop>4.062</hdop><vdop>1.312</vdop><extensions><gom:speed>0.928</gom:speed><gom:rel_alt>5.982</gom:rel_alt></extensions></trkpt>
   <trkpt lat="59.3834499803" lon="34.7069487754"><ele>167.387</ele><time>2026-08-15T17:39:10.479Z</time><hdop>3.0</hdop><vdop>1.312</vdop><extensions><gom:speed>1.194</gom:speed><gom:rel_alt>6.439</gom:rel_alt></extensions></trkpt>
   <trkpt lat="59.3835313686" lon="34.7070409764"><ele>167.184</ele><time>2026-08-15T17:39:21.442Z</time><hdop>3.0</hdop><vdop>1.312</vdop><extensions><gom:speed>0.94</gom:speed><gom:rel_alt>6.367</gom:rel_alt></extensions></trkpt>
   <trkpt lat="59.3836121702" lon="34.7071320877"><ele>167.281</ele><time>2026-08-15T17:39:31.976Z</time><hdop>3.0</hdop><vdop>1.312</vdop><extensions><gom:speed>0.905</gom:speed><gom:rel_alt>6.621</gom:rel_alt></extensions></trkpt>
   <trkpt lat="59.3837014793" lon="34.7071038407"><ele>167.676</ele><time>2026-08-15T17:39:42.256Z</time><hdop>3.0</hdop><vdop>1.312</vdop><extensions><gom:speed>1.031</gom:speed><gom:rel_alt>7.004</gom:rel_alt></extensions></trkpt>
   <trkpt lat="59.3838001762" lon="34.7071033377"><ele>167.742</ele><time>2026-08-15T17:39:51.357Z</time><hdop>3.0</hdop><vdop>1.312</vdop><extensions><gom:speed>1.069</gom:speed><gom:rel_alt>6.571</gom:rel_alt></extensions></trkpt>
   <trkpt lat="59.3838925867" lon="34.7071113844"><ele>167.941</ele><time>2026-08-15T17:40:00.258Z</time><hdop>3.0</hdop><vdop>1.312</vdop><extensions><gom:speed>1.002</gom:speed><gom:rel_alt>7.308</gom:rel_alt></extensions></trkpt>
   <trkpt lat="59.3839853744" lon="34.7071242925"><ele>168.213</ele><time>2026-08-15T17:40:08.143Z</time><hdop>3.0</hdop><vdop>1.312</vdop><extensions><gom:speed>1.19</gom:speed><gom:rel_alt>7.469</gom:rel_alt></extensions></trkpt>
   <trkpt lat="59.3840791679" lon="34.7071352728"><ele>168.302</ele><time>2026-08-15T17:40:16.779Z</time><hdop>3.0</hdop><vdop>1.312</vdop><extensions><gom:speed>1.138</gom:speed><gom:rel_alt>7.033</gom:rel_alt></extensions></trkpt>
   <trkpt lat="59.3841748892" lon="34.7071545512"><ele>168.646</ele><time>2026-08-15T17:40:24.663Z</time><hdop>3.0</hdop><vdop>1.312</vdop><extensions><gom:speed>1.157</gom:speed><gom:rel_alt>7.976</gom:rel_alt></extensions></trkpt>
   <trkpt lat="59.3842644918" lon="34.707172237"><ele>168.845</ele><time>2026-08-15T17:40:32.263Z</time><hdop>3.0</hdop><vdop>1.312</vdop><extensions><gom:speed>1.213</gom:speed><gom:rel_alt>7.707</gom:rel_alt></extensions></trkpt>
   <trkpt lat="59.3843555611" lon="34.7071676269"><ele>169.015</ele><time>2026-08-15T17:40:39.816Z</time><hdop>3.0</hdop><vdop>1.312</vdop><extensions><gom:speed>1.149</gom:speed><gom:rel_alt>7.673</gom:rel_alt></extensions></trkpt>
   <trkpt lat="59.3844377876" lon="34.707242645"><ele>169.071</ele><time>2026-08-15T17:40:47.862Z</time><hdop>3.0</hdop><vdop>1.312</vdop><extensions><gom:speed>1.172</gom:speed><gom:rel_alt>8.138</gom:rel_alt></extensions></trkpt>
   <trkpt lat="59.3845006938" lon="34.7073715586"><ele>169.368</ele><time>2026-08-15T17:40:56.498Z</time><hdop>3.0</hdop><vdop>1.312</vdop><extensions><gom:speed>1.143</gom:speed><gom:rel_alt>8.251</gom:rel_alt></extensions></trkpt>
   <trkpt lat="59.3845559725" lon="34.7075181581"><ele>169.319</ele><time>2026-08-15T17:41:05.493Z</time><hdop>3.0</hdop><vdop>1.312</vdop><extensions><gom:speed>1.163</gom:speed><gom:rel_alt>7.725</gom:rel_alt></extensions></trkpt>
   <trkpt lat="59.384612676" lon="34.7076598961"><ele>169.063</ele><time>2026-08-15T17:41:13.798Z</time><hdop>3.0</hdop><vdop>1.312</vdop><extensions><gom:speed>1.163</gom:speed><gom:rel_alt>8.613</gom:rel_alt></extensions></trkpt>
   <trkpt lat="59.3846820782" lon="34.70779057"><ele>169.59</ele><time>2026-08-15T17:41:23.003Z</time><hdop>3.0</hdop><vdop>1.312</vdop><extensions><gom:speed>1.123</gom:speed><gom:rel_alt>8.545</gom:rel_alt></extensions></trkpt>
   <trkpt lat="59.3847503907" lon="34.707918394"><ele>169.758</ele><time>2026-08-15T17:41:32.997Z</time><hdop>3.0</hdop><vdop>1.312</vdop><extensions><gom:speed>1.192</gom:speed><gom:rel_alt>8.294</gom:rel_alt></extensions></trkpt>
   <trkpt lat="59.3847925936" lon="34.7080752194"><ele>169.576</ele><time>2026-08-15T17:41:41.461Z</time><hdop>3.0</hdop><vdop>1.312</vdop><extensions><gom:speed>1.13</gom:speed><gom:rel_alt>8.632</gom:rel_alt></extensions></trkpt>
   <trkpt lat="59.3848344612" lon="34.7082401753"><ele>169.514</ele><time>2026-08-15T17:41:50.493Z</time><hdop>3.0</hdop><vdop>1.312</vdop><extensions><gom:speed>1.087</gom:speed><gom:rel_alt>8.521</gom:rel_alt></extensions></trkpt>
   <trkpt lat="59.3849229741" lon="34.7082705178"><ele>169.458</ele><time>2026-08-15T17:42:22.493Z</time><hdop>3.0</hdop><vdop>1.312</vdop><extensions><gom:speed>0.022</gom:speed><gom:rel_alt>8.352</gom:rel_alt></extensions></trkpt>
   <trkpt lat="59.3849933821" lon="34.7083945699"><ele>169.057</ele><time>2026-08-15T17:44:58.804Z</time><hdop>3.0</hdop><vdop>1.312</vdop><extensions><gom:speed>0.842</gom:speed><gom:rel_alt>6.938</gom:rel_alt></extensions></trkpt>
   <trkpt lat="59.3850655922" lon="34.7085150179"><ele>168.544</ele><time>2026-08-15T17:45:07.498Z</time><hdop>3.0</hdop><vdop>1.312</vdop><extensions><gom:speed>1.144</gom:speed><gom:rel_alt>7.609</gom:rel_alt></extensions></trkpt>
   <trkpt lat="59.3851390595" lon="34.7086225577"><ele>168.961</ele><time>2026-08-15T17:45:15.944Z</time><hdop>3.0</hdop><vdop>1.312</vdop><extensions><gom:speed>1.184</gom:speed><gom:rel_alt>7.969</gom:rel_alt></extensions></trkpt>
   <trkpt lat="59.3851815977" lon="34.708788687"><ele>169.263</ele><time>2026-08-15T17:45:25.255Z</time><hdop>3.0</hdop><vdop>1.312</vdop><extensions><gom:speed>1.257</gom:speed><gom:rel_alt>8.407</gom:rel_alt></extensions></trkpt>
   <trkpt lat="59.3851906921" lon="34.7089793753"><ele>169.32</ele><time>2026-08-15T17:45:33.256Z</time><hdop>3.0</hdop><vdop>1.312</vdop><extensions><gom:speed>1.214</gom:speed><gom:rel_alt>8.154</gom:rel_alt></extensions></trkpt>
   <trkpt lat="59.3851635766" lon="34.7091616817"><ele>169.05</ele><time>2026-08-15T17:45:41.455Z</time><hdop>3.0</hdop><vdop>1.312</vdop><extensions><gom:speed>1.282</gom:speed><gom:rel_alt>7.961</gom:rel_alt></extensions></trkpt>
   <trkpt lat="59.3851501656" lon="34.7093501907"><ele>168.804</ele><time>2026-08-15T17:45:51.493Z</time><hdop>3.0</hdop><vdop>1.312</vdop><extensions><gom:speed>0.757</gom:speed><gom:rel_alt>7.107</gom:rel_alt></extensions></trkpt>
   <trkpt lat="59.385134659" lon="34.7095276356"><ele>168.751</ele><time>2026-08-15T17:46:01.378Z</time><hdop>3.125</hdop><vdop>1.312</vdop><extensions><gom:speed>1.204</gom:speed><gom:rel_alt>7.445</gom:rel_alt></extensions></trkpt>
   <trkpt lat="59.3850956832" lon="34.7096957766"><ele>169.124</ele><time>2026-08-15T17:46:12.770Z</time><hdop>3.875</hdop><vdop>1.312</vdop><extensions><gom:speed>1.021</gom:speed><gom:rel_alt>7.715</gom:rel_alt></extensions></trkpt>
   <trkpt lat="59.3851088847" lon="34.7098837827"><ele>169.159</ele><time>2026-08-15T17:46:17.300Z</time><hdop>4.375</hdop><vdop>1.312</vdop><extensions><gom:speed>1.126</gom:speed><gom:rel_alt>7.895</gom:rel_alt></extensions></trkpt>
   <trkpt lat="59.3851532669" lon="34.7100424521"><ele>169.315</ele><time>2026-08-15T17:46:26.493Z</time><hdop>3.0</hdop><vdop>1.312</vdop><extensions><gom:speed>1.102</gom:speed><gom:rel_alt>8.024</gom:rel_alt></extensions></trkpt>
   <trkpt lat="59.385211563" lon="34.7101818431"><ele>169.125</ele><time>2026-08-15T17:46:34.469Z</time><hdop>3.0</hdop><vdop>1.312</vdop><extensions><gom:speed>1.206</gom:speed><gom:rel_alt>7.852</gom:rel_alt></extensions></trkpt>
   <trkpt lat="59.3852971842" lon="34.710243031"><ele>169.226</ele><time>2026-08-15T17:46:45.041Z</time><hdop>3.312</hdop><vdop>1.312</vdop><extensions><gom:speed>1.118</gom:speed><gom:rel_alt>7.842</gom:rel_alt></extensions></trkpt>
   <trkpt lat="59.3853577853" lon="34.7103795722"><ele>169.162</ele><time>2026-08-15T17:46:53.868Z</time><hdop>3.125</hdop><vdop>1.312</vdop><extensions><gom:speed>1.225</gom:speed><gom:rel_alt>7.976</gom:rel_alt></extensions></trkpt>
   <trkpt lat="59.3853978927" lon="34.7105390799"><ele>168.908</ele><time>2026-08-15T17:47:02.492Z</time><hdop>3.0</hdop><vdop>1.312</vdop><extensions><gom:speed>1.238</gom:speed><gom:rel_alt>7.496</gom:rel_alt></extensions></trkpt>
   <trkpt lat="59.3854729946" lon="34.7106413391"><ele>168.961</ele><time>2026-08-15T17:47:10.930Z</time><hdop>3.0</hdop><vdop>1.312</vdop><extensions><gom:speed>1.285</gom:speed><gom:rel_alt>7.601</gom:rel_alt></extensions></trkpt>
   <trkpt lat="59.385548767" lon="34.7107427601"><ele>168.633</ele><time>2026-08-15T17:47:19.109Z</time><hdop>3.0</hdop><vdop>1.312</vdop><extensions><gom:speed>1.107</gom:speed><gom:rel_alt>6.983</gom:rel_alt></extensions></trkpt>
   <trkpt lat="59.385627976" lon="34.7108477853"><ele>168.36</ele><time>2026-08-15T17:47:28.343Z</time><hdop>3.0</hdop><vdop>1.312</vdop><extensions><gom:speed>1.069</gom:speed><gom:rel_alt>7.456</gom:rel_alt></extensions></trkpt>
   <trkpt lat="59.3856973781" lon="34.7109630365"><ele>168.067</ele><time>2026-08-15T17:49:47.384Z</time><hdop>3.312</hdop><vdop>1.312</vdop><extensions><gom:speed>0.912</gom:speed><gom:rel_alt>7.276</gom:rel_alt></extensions></trkpt>
   <trkpt lat="59.3857592785" lon="34.7110930398"><ele>168.165</ele><time>2026-08-15T17:49:57.663Z</time><hdop>3.0</hdop><vdop>1.312</vdop><extensions><gom:speed>1.047</gom:speed><gom:rel_alt>7.226</gom:rel_alt></extensions></trkpt>
   <trkpt lat="59.3858401638" lon="34.7111936227"><ele>168.195</ele><time>2026-08-15T17:50:08.493Z</time><hdop>3.0</hdop><vdop>1.312</vdop><extensions><gom:speed>0.831</gom:speed><gom:rel_alt>7.102</gom:rel_alt></extensions></trkpt>
   <trkpt lat="59.3859150981" lon="34.7113010787"><ele>168.139</ele><time>2026-08-15T17:50:20.493Z</time><hdop>3.0</hdop><vdop>1.312</vdop><extensions><gom:speed>0.8</gom:speed><gom:rel_alt>6.587</gom:rel_alt></extensions></trkpt>
   <trkpt lat="59.3859897808" lon="34.7114067745"><ele>167.764</ele><time>2026-08-15T17:50:33.493Z</time><hdop>3.0</hdop><vdop>1.312</vdop><extensions><gom:speed>0.722</gom:speed><gom:rel_alt>6.568</gom:rel_alt></extensions></trkpt>
   <trkpt lat="59.3860729712" lon="34.7114974667"><ele>167.335</ele><time>2026-08-15T17:50:45.493Z</time><hdop>3.0</hdop><vdop>1.312</vdop><extensions><gom:speed>0.693</gom:speed><gom:rel_alt>6.341</gom:rel_alt></extensions></trkpt>
   <trkpt lat="59.3860369709" lon="34.7116646856"><ele>167.717</ele><time>2026-08-15T17:51:05.423Z</time><hdop>3.0</hdop><vdop>1.312</vdop><extensions><gom:speed>0.71</gom:speed><gom:rel_alt>6.824</gom:rel_alt></extensions></trkpt>
   <trkpt lat="59.3859633778" lon="34.7117724769"><ele>168.015</ele><time>2026-08-15T17:51:22.494Z</time><hdop>3.0</hdop><vdop>1.312</vdop><extensions><gom:speed>0.56</gom:speed><gom:rel_alt>6.727</gom:rel_alt></extensions></trkpt>
   <trkpt lat="59.3858962807" lon="34.7119000495"><ele>167.673</ele><time>2026-08-15T17:51:36.494Z</time><hdop>3.0</hdop><vdop>1.312</vdop><extensions><gom:speed>0.846</gom:speed><gom:rel_alt>6.584</gom:rel_alt></extensions></trkpt>
   <trkpt lat="59.3858517728" lon="34.7120567911"><ele>167.753</ele><time>2026-08-15T17:51:58.146Z</time><hdop>3.0</hdop><vdop>1.312</vdop><extensions><gom:speed>0.619</gom:speed><gom:rel_alt>6.47</gom:rel_alt></extensions></trkpt>
   <trkpt lat="59.3858883598" lon="34.7122202382"><ele>167.559</ele><time>2026-08-15T17:52:15.140Z</time><hdop>3.0</hdop><vdop>1.312</vdop><extensions><gom:speed>0.589</gom:speed><gom:rel_alt>6.027</gom:rel_alt></extensions></trkpt>
   <trkpt lat="59.3858014814" lon="34.7122912329"><ele>168.147</ele><time>2026-08-15T17:52:42.128Z</time><hdop>3.0</hdop><vdop>1.312</vdop><extensions><gom:speed>0.878</gom:speed><gom:rel_alt>7.205</gom:rel_alt></extensions></trkpt>
   <trkpt lat="59.3857229848" lon="34.712193919"><ele>168.512</ele><time>2026-08-15T17:52:51.381Z</time><hdop>3.0</hdop><vdop>1.312</vdop><extensions><gom:speed>1.003</gom:speed><gom:rel_alt>7.564</gom:rel_alt></extensions></trkpt>
   <trkpt lat="59.3856947797" lon="34.712020246"><ele>168.44</ele><time>2026-08-15T17:53:03.495Z</time><hdop>3.0</hdop><vdop>1.312</vdop><extensions><gom:speed>0.772</gom:speed><gom:rel_alt>7.155</gom:rel_alt></extensions></trkpt>
   <trkpt lat="59.3856118827" lon="34.7119441383"><ele>168.704</ele><time>2026-08-15T17:53:17.809Z</time><hdop>3.0</hdop><vdop>1.312</vdop><extensions><gom:speed>0.854</gom:speed><gom:rel_alt>7.139</gom:rel_alt></extensions></trkpt>
   <trkpt lat="59.38553347" lon="34.7118385263"><ele>168.203</ele><time>2026-08-15T17:53:30.966Z</time><hdop>3.0</hdop><vdop>1.312</vdop><extensions><gom:speed>0.785</gom:speed><gom:rel_alt>6.539</gom:rel_alt></extensions></trkpt>
   <trkpt lat="59.3854507825" lon="34.7119205851"><ele>167.198</ele><time>2026-08-15T17:53:43.808Z</time><hdop>3.0</hdop><vdop>1.312</vdop><extensions><gom:speed>0.889</gom:speed><gom:rel_alt>5.347</gom:rel_alt></extensions></trkpt>
   <trkpt lat="59.3853814642" lon="34.712037848"><ele>166.102</ele><time>2026-08-15T17:54:03.494Z</time><hdop>3.75</hdop><vdop>1.312</vdop><extensions><gom:speed>0.999</gom:speed><gom:rel_alt>5.612</gom:rel_alt></extensions></trkpt>
   <trkpt lat="59.3853427817" lon="34.7122039773"><ele>167.174</ele><time>2026-08-15T17:54:15.494Z</time><hdop>3.75</hdop><vdop>1.312</vdop><extensions><gom:speed>1.016</gom:speed><gom:rel_alt>5.971</gom:rel_alt></extensions></trkpt>
   <trkpt lat="59.385293999" lon="34.7123543486"><ele>167.842</ele><time>2026-08-15T17:54:25.966Z</time><hdop>3.0</hdop><vdop>1.312</vdop><extensions><gom:speed>0.828</gom:speed><gom:rel_alt>6.69</gom:rel_alt></extensions></trkpt>
   <trkpt lat="59.3852988605" lon="34.712539924"><ele>168.548</ele><time>2026-08-15T17:54:38.495Z</time><hdop>3.0</hdop><vdop>1.312</vdop><extensions><gom:speed>0.897</gom:speed><gom:rel_alt>7.451</gom:rel_alt></extensions></trkpt>
   <trkpt lat="59.3852888861" lon="34.7127180394"><ele>168.971</ele><time>2026-08-15T17:54:54.247Z</time><hdop>3.0</hdop><vdop>1.312</vdop><extensions><gom:speed>0.851</gom:speed><gom:rel_alt>7.903</gom:rel_alt></extensions></trkpt>
   <trkpt lat="59.3853132774" lon="34.7128895331"><ele>168.893</ele><time>2026-08-15T17:55:03.488Z</time><hdop>3.0</hdop><vdop>1.312</vdop><extensions><gom:speed>0.947</gom:speed><gom:rel_alt>7.398</gom:rel_alt></extensions></trkpt>
   <trkpt lat="59.3853241739" lon="34.7130683191"><ele>168.806</ele><time>2026-08-15T17:55:13.320Z</time><hdop>3.0</hdop><vdop>1.312</vdop><extensions><gom:speed>1.072</gom:speed><gom:rel_alt>7.107</gom:rel_alt></extensions></trkpt>
   <trkpt lat="59.3853093798" lon="34.7132528886"><ele>168.607</ele><time>2026-08-15T17:55:26.943Z</time><hdop>3.0</hdop><vdop>1.312</vdop><extensions><gom:speed>0.806</gom:speed><gom:rel_alt>7.53</gom:rel_alt></extensions></trkpt>
   <trkpt lat="59.3853156662" lon="34.7134370391"><ele>168.823</ele><time>2026-08-15T17:55:40.222Z</time><hdop>3.0</hdop><vdop>1.312</vdop><extensions><gom:speed>0.92</gom:speed><gom:rel_alt>8.003</gom:rel_alt></extensions></trkpt>
   <trkpt lat="59.3852687695" lon="34.7135965467"><ele>169.656</ele><time>2026-08-15T17:55:53.495Z</time><hdop>3.0</hdop><vdop>1.312</vdop><extensions><gom:speed>0.809</gom:speed><gom:rel_alt>8.745</gom:rel_alt></extensions></trkpt>
   <trkpt lat="59.3852074978" lon="34.7137402963"><ele>170.397</ele><time>2026-08-15T18:05:36.496Z</time><hdop>3.0</hdop><vdop>1.312</vdop><extensions><gom:speed>0.71</gom:speed><gom:rel_alt>8.259</gom:rel_alt></extensions></trkpt>
   <trkpt lat="59.3851732996" lon="34.7139120415"><ele>169.874</ele><time>2026-08-15T18:05:56.764Z</time><hdop>3.0</hdop><vdop>1.312</vdop><extensions><gom:speed>0.676</gom:speed><gom:rel_alt>7.202</gom:rel_alt></extensions></trkpt>
   <trkpt lat="59.3850857926" lon="34.7139726427"><ele>170.261</ele><time>2026-08-15T18:06:07.496Z</time><hdop>3.0</hdop><vdop>1.312</vdop><extensions><gom:speed>0.861</gom:speed><gom:rel_alt>7.345</gom:rel_alt></extensions></trkpt>
   <trkpt lat="59.38499619" lon="34.7139857184"><ele>170.051</ele><time>2026-08-15T18:06:18.496Z</time><hdop>3.0</hdop><vdop>1.312</vdop><extensions><gom:speed>0.892</gom:speed><gom:rel_alt>7.435</gom:rel_alt></extensions></trkpt>
   <trkpt lat="59.3849068808" lon="34.714010026"><ele>169.408</ele><time>2026-08-15T18:06:28.440Z</time><hdop>3.0</hdop><vdop>1.312</vdop><extensions><gom:speed>0.977</gom:speed><gom:rel_alt>6.949</gom:rel_alt></extensions></trkpt>
   <trkpt lat="59.3848281748" lon="34.7141099382"><ele>169.585</ele><time>2026-08-15T18:06:37.381Z</time><hdop>3.0</hdop><vdop>1.312</vdop><extensions><gom:speed>0.96</gom:speed><gom:rel_alt>6.428</gom:rel_alt></extensions></trkpt>
   <trkpt lat="59.3847440624" lon="34.7141734731"><ele>169.184</ele><time>2026-08-15T18:06:46.265Z</time><hdop>3.0</hdop><vdop>1.312</vdop><extensions><gom:speed>1.022</gom:speed><gom:rel_alt>6.285</gom:rel_alt></extensions></trkpt>
   <trkpt lat="59.384684467" lon="34.7143178933"><ele>168.15</ele><time>2026-08-15T18:06:55.403Z</time><hdop>3.0</hdop><vdop>1.312</vdop><extensions><gom:speed>0.944</gom:speed><gom:rel_alt>5.741</gom:rel_alt></extensions></trkpt>
   <trkpt lat="59.3846320801" lon="34.7144649957"><ele>168.381</ele><time>2026-08-15T18:07:05.408Z</time><hdop>3.0</hdop><vdop>1.312</vdop><extensions><gom:speed>0.984</gom:speed><gom:rel_alt>5.432</gom:rel_alt></extensions></trkpt>
   <trkpt lat="59.384595074" lon="34.7146368247"><ele>168.412</ele><time>2026-08-15T18:07:14.946Z</time><hdop>3.0</hdop><vdop>1.312</vdop><extensions><gom:speed>1.053</gom:speed><gom:rel_alt>5.289</gom:rel_alt></extensions></trkpt>
   <trkpt lat="59.3845946968" lon="34.7148150239"><ele>167.558</ele><time>2026-08-15T18:07:24.323Z</time><hdop>3.0</hdop><vdop>1.312</vdop><extensions><gom:speed>1.03</gom:speed><gom:rel_alt>5.128</gom:rel_alt></extensions></trkpt>
   <trkpt lat="59.3845955769" lon="34.7149922174"><ele>167.626</ele><time>2026-08-15T18:07:33.495Z</time><hdop>3.0</hdop><vdop>1.312</vdop><extensions><gom:speed>1.071</gom:speed><gom:rel_alt>5.382</gom:rel_alt></extensions></trkpt>
   <trkpt lat="59.3846031626" lon="34.7151694946"><ele>167.883</ele><time>2026-08-15T18:07:41.803Z</time><hdop>3.0</hdop><vdop>1.312</vdop><extensions><gom:speed>1.14</gom:speed><gom:rel_alt>5.247</gom:rel_alt></extensions></trkpt>
   <trkpt lat="59.3845991812" lon="34.7153489512"><ele>167.17</ele><time>2026-08-15T18:07:50.648Z</time><hdop>3.0</hdop><vdop>1.312</vdop><extensions><gom:speed>1.08</gom:speed><gom:rel_alt>4.938</gom:rel_alt></extensions></trkpt>
   <trkpt lat="59.3846137657" lon="34.7155263961"><ele>166.951</ele><time>2026-08-15T18:07:59.209Z</time><hdop>3.0</hdop><vdop>1.312</vdop><extensions><gom:speed>1.045</gom:speed><gom:rel_alt>4.983</gom:rel_alt></extensions></trkpt>
   <trkpt lat="59.3846008995" lon="34.7157024998"><ele>167.542</ele><time>2026-08-15T18:08:07.863Z</time><hdop>3.0</hdop><vdop>1.312</vdop><extensions><gom:speed>1.055</gom:speed><gom:rel_alt>5.067</gom:rel_alt></extensions></trkpt>
   <trkpt lat="59.3846116702" lon="34.7158860635"><ele>167.735</ele><time>2026-08-15T18:08:16.584Z</time><hdop>3.0</hdop><vdop>1.312</vdop><extensions><gom:speed>1.153</gom:speed><gom:rel_alt>5.152</gom:rel_alt></extensions></trkpt>
   <trkpt lat="59.3846175794" lon="34.7160692919"><ele>167.475</ele><time>2026-08-15T18:08:25.905Z</time><hdop>3.0</hdop><vdop>1.312</vdop><extensions><gom:speed>0.975</gom:speed><gom:rel_alt>4.602</gom:rel_alt></extensions></trkpt>
   <trkpt lat="59.3846315772" lon="34.7162521851"><ele>167.599</ele><time>2026-08-15T18:08:35.496Z</time><hdop>3.0</hdop><vdop>1.312</vdop><extensions><gom:speed>1.035</gom:speed><gom:rel_alt>4.93</gom:rel_alt></extensions></trkpt>
   <trkpt lat="59.3845912603" lon="34.7164155483"><ele>167.567</ele><time>2026-08-15T18:08:46.495Z</time><hdop>3.0</hdop><vdop>1.312</vdop><extensions><gom:speed>0.924</gom:speed><gom:rel_alt>4.917</gom:rel_alt></extensions></trkpt>
   <trkpt lat="59.3845846805" lon="34.7165994473"><ele>166.175</ele><time>2026-08-15T18:11:17.748Z</time><hdop>3.062</hdop><vdop>1.312</vdop><extensions><gom:speed>0.856</gom:speed><gom:rel_alt>3.828</gom:rel_alt></extensions></trkpt>
   <trkpt lat="59.3845908831" lon="34.716777898"><ele>166.617</ele><time>2026-08-15T18:11:27.020Z</time><hdop>3.0</hdop><vdop>1.312</vdop><extensions><gom:speed>0.995</gom:speed><gom:rel_alt>4.51</gom:rel_alt></extensions></trkpt>
   <trkpt lat="59.384595996" lon="34.7169545885"><ele>167.318</ele><time>2026-08-15T18:11:35.496Z</time><hdop>3.0</hdop><vdop>1.312</vdop><extensions><gom:speed>1.059</gom:speed><gom:rel_alt>4.827</gom:rel_alt></extensions></trkpt>
   <trkpt lat="59.3845919727" lon="34.7171371464"><ele>166.776</ele><time>2026-08-15T18:11:45.823Z</time><hdop>3.0</hdop><vdop>1.312</vdop><extensions><gom:speed>0.916</gom:speed><gom:rel_alt>4.811</gom:rel_alt></extensions></trkpt>
   <trkpt lat="59.3845863988" lon="34.7173163515"><ele>166.878</ele><time>2026-08-15T18:11:55.959Z</time><hdop>3.0</hdop><vdop>1.312</vdop><extensions><gom:speed>0.959</gom:speed><gom:rel_alt>4.594</gom:rel_alt></extensions></trkpt>
   <trkpt lat="59.3845702636" lon="34.7175056987"><ele>167.196</ele><time>2026-08-15T18:12:08.187Z</time><hdop>3.0</hdop><vdop>1.312</vdop><extensions><gom:speed>0.905</gom:speed><gom:rel_alt>4.967</gom:rel_alt></extensions></trkpt>
   <trkpt lat="59.3846045875" lon="34.7176706545"><ele>166.711</ele><time>2026-08-15T18:12:17.346Z</time><hdop>3.0</hdop><vdop>1.312</vdop><extensions><gom:speed>1.032</gom:speed><gom:rel_alt>4.454</gom:rel_alt></extensions></trkpt>
   <trkpt lat="59.3846498917" lon="34.7178249654"><ele>167.315</ele><time>2026-08-15T18:12:31.044Z</time><hdop>3.0</hdop><vdop>1.312</vdop><extensions><gom:speed>0.939</gom:speed><gom:rel_alt>5.118</gom:rel_alt></extensions></trkpt>
   <trkpt lat="59.3846139752" lon="34.7179931902"><ele>166.735</ele><time>2026-08-15T18:12:41.648Z</time><hdop>3.0</hdop><vdop>1.312</vdop><extensions><gom:speed>0.955</gom:speed><gom:rel_alt>4.729</gom:rel_alt></extensions></trkpt>
   <trkpt lat="59.3845847643" lon="34.7181611635"><ele>166.509</ele><time>2026-08-15T18:12:51.365Z</time><hdop>3.0</hdop><vdop>1.312</vdop><extensions><gom:speed>1.014</gom:speed><gom:rel_alt>5.107</gom:rel_alt></extensions></trkpt>
   <trkpt lat="59.3845599958" lon="34.718333244"><ele>167.578</ele><time>2026-08-15T18:13:03.383Z</time><hdop>3.0</hdop><vdop>1.312</vdop><extensions><gom:speed>0.851</gom:speed><gom:rel_alt>5.015</gom:rel_alt></extensions></trkpt>
   <trkpt lat="59.3844907612" lon="34.7184549492"><ele>167.167</ele><time>2026-08-15T18:13:23.305Z</time><hdop>3.0</hdop><vdop>1.312</vdop><extensions><gom:speed>0.616</gom:speed><gom:rel_alt>5.176</gom:rel_alt></extensions></trkpt>
   <trkpt lat="59.3844229936" lon="34.7185709547"><ele>167.494</ele><time>2026-08-15T18:13:34.771Z</time><hdop>3.0</hdop><vdop>1.312</vdop><extensions><gom:speed>0.981</gom:speed><gom:rel_alt>5.028</gom:rel_alt></extensions></trkpt>
   <trkpt lat="59.3843497776" lon="34.7186807577"><ele>167.369</ele><time>2026-08-15T18:13:44.083Z</time><hdop>3.0</hdop><vdop>1.312</vdop><extensions><gom:speed>1.062</gom:speed><gom:rel_alt>5.762</gom:rel_alt></extensions></trkpt>
   <trkpt lat="59.3843143641" lon="34.7188467194"><ele>168.842</ele><time>2026-08-15T18:13:58.495Z</time><hdop>3.0</hdop><vdop>1.312</vdop><extensions><gom:speed>0.852</gom:speed><gom:rel_alt>6.587</gom:rel_alt></extensions></trkpt>
   <trkpt lat="59.3843258892" lon="34.7190337196"><ele>168.925</ele><time>2026-08-15T18:14:14.264Z</time><hdop>3.0</hdop><vdop>1.312</vdop><extensions><gom:speed>0.93</gom:speed><gom:rel_alt>7.408</gom:rel_alt></extensions></trkpt>
   <trkpt lat="59.3843561898" lon="34.7192071412"><ele>170.034</ele><time>2026-08-15T18:14:27.327Z</time><hdop>3.0</hdop><vdop>1.312</vdop><extensions><gom:speed>0.891</gom:speed><gom:rel_alt>7.762</gom:rel_alt></extensions></trkpt>
   <trkpt lat="59.3843872867" lon="34.7193845861"><ele>169.37</ele><time>2026-08-15T18:17:16.107Z</time><hdop>3.312</hdop><vdop>1.312</vdop><extensions><gom:speed>1.024</gom:speed><gom:rel_alt>7.9</gom:rel_alt></extensions></trkpt>
   <trkpt lat="59.3843632725" lon="34.7195548225"><ele>169.408</ele><time>2026-08-15T18:17:31.206Z</time><hdop>3.0</hdop><vdop>1.312</vdop><extensions><gom:speed>0.601</gom:speed><gom:rel_alt>8.394</gom:rel_alt></extensions></trkpt>
   <trkpt lat="59.3844050982" lon="34.7197117318"><ele>169.825</ele><time>2026-08-15T18:17:46.464Z</time><hdop>3.0</hdop><vdop>1.312</vdop><extensions><gom:speed>0.591</gom:speed><gom:rel_alt>8.439</gom:rel_alt></extensions></trkpt>
   <trkpt lat="59.3844455828" lon="34.7198705688"><ele>169.706</ele><time>2026-08-15T18:18:09.863Z</time><hdop>3.0</hdop><vdop>1.312</vdop><extensions><gom:speed>0.525</gom:speed><gom:rel_alt>8.74</gom:rel_alt></extensions></trkpt>
   <trkpt lat="59.384479278" lon="34.7200398833"><ele>171.153</ele><time>2026-08-15T18:18:20.495Z</time><hdop>3.0</hdop><vdop>1.312</vdop><extensions><gom:speed>0.855</gom:speed><gom:rel_alt>9.599</gom:rel_alt></extensions></trkpt>
   <trkpt lat="59.384484391" lon="34.7202217706"><ele>170.776</ele><time>2026-08-15T18:18:31.494Z</time><hdop>3.0</hdop><vdop>1.312</vdop><extensions><gom:speed>0.88</gom:speed><gom:rel_alt>9.591</gom:rel_alt></extensions></trkpt>
   <trkpt lat="59.3844220716" lon="34.7203613293"><ele>170.967</ele><time>2026-08-15T18:18:42.488Z</time><hdop>3.0</hdop><vdop>1.312</vdop><extensions><gom:speed>0.877</gom:speed><gom:rel_alt>9.747</gom:rel_alt></extensions></trkpt>
   <trkpt lat="59.3843981831" lon="34.7205327392"><ele>170.514</ele><time>2026-08-15T18:18:59.343Z</time><hdop>3.0</hdop><vdop>1.312</vdop><extensions><gom:speed>0.47</gom:speed><gom:rel_alt>8.862</gom:rel_alt></extensions></trkpt>
   <trkpt lat="59.3843039705" lon="34.7205945976"><ele>170.528</ele><time>2026-08-15T18:19:19.444Z</time><hdop>3.0</hdop><vdop>1.312</vdop><extensions><gom:speed>0.902</gom:speed><gom:rel_alt>8.806</gom:rel_alt></extensions></trkpt>
   <trkpt lat="59.3842088778" lon="34.7206130378"><ele>170.243</ele><time>2026-08-15T18:19:29.144Z</time><hdop>3.0</hdop><vdop>1.312</vdop><extensions><gom:speed>0.897</gom:speed><gom:rel_alt>8.656</gom:rel_alt></extensions></trkpt>
   <trkpt lat="59.3841114801" lon="34.7206330706"><ele>169.594</ele><time>2026-08-15T18:19:38.825Z</time><hdop>3.0</hdop><vdop>1.312</vdop><extensions><gom:speed>1.03</gom:speed><gom:rel_alt>8.682</gom:rel_alt></extensions></trkpt>
   <trkpt lat="59.3840187763" lon="34.7206686937"><ele>170.132</ele><time>2026-08-15T18:19:50.444Z</time><hdop>3.0</hdop><vdop>1.312</vdop><extensions><gom:speed>0.931</gom:speed><gom:rel_alt>9.107</gom:rel_alt></extensions></trkpt>
   <trkpt lat="59.3839268687" lon="34.7207158838"><ele>170.436</ele><time>2026-08-15T18:20:01.359Z</time><hdop>3.0</hdop><vdop>1.312</vdop><extensions><gom:speed>0.931</gom:speed><gom:rel_alt>9.121</gom:rel_alt></extensions></trkpt>
   <trkpt lat="59.3838387749" lon="34.7207605593"><ele>169.843</ele><time>2026-08-15T18:20:10.260Z</time><hdop>3.0</hdop><vdop>1.312</vdop><extensions><gom:speed>1.025</gom:speed><gom:rel_alt>9.195</gom:rel_alt></extensions></trkpt>
   <trkpt lat="59.3837419639" lon="34.7207714558"><ele>169.839</ele><time>2026-08-15T18:20:19.808Z</time><hdop>3.0</hdop><vdop>1.312</vdop><extensions><gom:speed>1.099</gom:speed><gom:rel_alt>8.439</gom:rel_alt></extensions></trkpt>
   <trkpt lat="59.3836523614" lon="34.7207879681"><ele>169.221</ele><time>2026-08-15T18:20:29.507Z</time><hdop>3.0</hdop><vdop>1.312</vdop><extensions><gom:speed>0.92</gom:speed><gom:rel_alt>8.035</gom:rel_alt></extensions></trkpt>
   <trkpt lat="59.3835623817" lon="34.7208101802"><ele>168.982</ele><time>2026-08-15T18:20:42.180Z</time><hdop>3.0</hdop><vdop>1.312</vdop><extensions><gom:speed>0.946</gom:speed><gom:rel_alt>8.36</gom:rel_alt></extensions></trkpt>
   <trkpt lat="59.3834730725" lon="34.7208301291"><ele>169.625</ele><time>2026-08-15T18:20:55.062Z</time><hdop>3.0</hdop><vdop>1.312</vdop><extensions><gom:speed>0.907</gom:speed><gom:rel_alt>8.682</gom:rel_alt></extensions></trkpt>
   <trkpt lat="59.3833884991" lon="34.7208914846"><ele>169.603</ele><time>2026-08-15T18:21:07.707Z</time><hdop>3.0</hdop><vdop>1.312</vdop><extensions><gom:speed>0.92</gom:speed><gom:rel_alt>8.917</gom:rel_alt></extensions></trkpt>
   <trkpt lat="59.3832942865" lon="34.7209372498"><ele>168.959</ele><time>2026-08-15T18:23:44.862Z</time><hdop>3.125</hdop><vdop>1.312</vdop><extensions><gom:speed>0.873</gom:speed><gom:rel_alt>8.777</gom:rel_alt></extensions></trkpt>
   <trkpt lat="59.3832058993" lon="34.7209991921"><ele>169.238</ele><time>2026-08-15T18:23:54.496Z</time><hdop>3.062</hdop><vdop>1.312</vdop><extensions><gom:speed>0.838</gom:speed><gom:rel_alt>9.25</gom:rel_alt></extensions></trkpt>
   <trkpt lat="59.3831080825" lon="34.7210228291"><ele>169.498</ele><time>2026-08-15T18:24:06.496Z</time><hdop>3.0</hdop><vdop>1.312</vdop><extensions><gom:speed>1.149</gom:speed><gom:rel_alt>9.25</gom:rel_alt></extensions></trkpt>
   <trkpt lat="59.3830183961" lon="34.7210500703"><ele>169.822</ele><time>2026-08-15T18:24:16.042Z</time><hdop>3.0</hdop><vdop>1.312</vdop><extensions><gom:speed>0.938</gom:speed><gom:rel_alt>9.498</gom:rel_alt></extensions></trkpt>
   <trkpt lat="59.3829213756" lon="34.7210577816"><ele>170.13</ele><time>2026-08-15T18:24:28.486Z</time><hdop>3.0</hdop><vdop>1.312</vdop><extensions><gom:speed>0.975</gom:speed><gom:rel_alt>9.816</gom:rel_alt></extensions></trkpt>
   <trkpt lat="59.3828266601" lon="34.7210757189"><ele>170.631</ele><time>2026-08-15T18:24:40.381Z</time><hdop>3.0</hdop><vdop>1.312</vdop><extensions><gom:speed>0.928</gom:speed><gom:rel_alt>10.434</gom:rel_alt></extensions></trkpt>
   <trkpt lat="59.3827284661" lon="34.7210757189"><ele>171.048</ele><time>2026-08-15T18:24:55.343Z</time><hdop>3.0</hdop><vdop>1.312</vdop><extensions><gom:speed>0.862</gom:speed><gom:rel_alt>10.931</gom:rel_alt></extensions></trkpt>
   <trkpt lat="59.3826337925" lon="34.7210836817"><ele>171.989</ele><time>2026-08-15T18:25:13.496Z</time><hdop>3.0</hdop><vdop>1.312</vdop><extensions><gom:speed>0.253</gom:speed><gom:rel_alt>11.578</gom:rel_alt></extensions></trkpt>
   <trkpt lat="59.3825431841" lon="34.7210821729"><ele>172.131</ele><time>2026-08-15T18:25:19.405Z</time><hdop>3.25</hdop><vdop>1.312</vdop><extensions><gom:speed>0.881</gom:speed><gom:rel_alt>11.475</gom:rel_alt></extensions></trkpt>
   <trkpt lat="59.3824580659" lon="34.7211596217"><ele>172.048</ele><time>2026-08-15T18:25:30.986Z</time><hdop>3.0</hdop><vdop>1.312</vdop><extensions><gom:speed>0.846</gom:speed><gom:rel_alt>11.187</gom:rel_alt></extensions></trkpt>
   <trkpt lat="59.3825512727" lon="34.7211245854"><ele>171.577</ele><time>2026-08-15T18:26:02.496Z</time><hdop>3.0</hdop><vdop>1.312</vdop><extensions><gom:speed>1.025</gom:speed><gom:rel_alt>11.123</gom:rel_alt></extensions></trkpt>
   <trkpt lat="59.3826425935" lon="34.7211086598"><ele>171.834</ele><time>2026-08-15T18:26:11.939Z</time><hdop>3.0</hdop><vdop>1.312</vdop><extensions><gom:speed>0.965</gom:speed><gom:rel_alt>12.088</gom:rel_alt></extensions></trkpt>
   <trkpt lat="59.3825805674" lon="34.7209700231"><ele>172.231</ele><time>2026-08-15T18:26:33.496Z</time><hdop>3.0</hdop><vdop>1.312</vdop><extensions><gom:speed>0.949</gom:speed><gom:rel_alt>12.024</gom:rel_alt></extensions></trkpt>
   <trkpt lat="59.3825065971" lon="34.7208691888"><ele>172.43</ele><time>2026-08-15T18:26:42.224Z</time><hdop>3.0</hdop><vdop>1.312</vdop><extensions><gom:speed>0.936</gom:speed><gom:rel_alt>12.138</gom:rel_alt></extensions></trkpt>
   <trkpt lat="59.3825364786" lon="34.7206926659"><ele>172.319</ele><time>2026-08-15T18:27:16.496Z</time><hdop>3.062</hdop><vdop>1.312</vdop><extensions><gom:speed>1.038</gom:speed><gom:rel_alt>11.588</gom:rel_alt></extensions></trkpt>
   <trkpt lat="59.3826063837" lon="34.7205735591"><ele>171.79</ele><time>2026-08-15T18:27:27.101Z</time><hdop>3.0</hdop><vdop>1.312</vdop><extensions><gom:speed>0.983</gom:speed><gom:rel_alt>10.682</gom:rel_alt></extensions></trkpt>
   <trkpt lat="59.3826951899" lon="34.7205105271"><ele>170.558</ele><time>2026-08-15T18:27:36.383Z</time><hdop>3.0</hdop><vdop>1.312</vdop><extensions><gom:speed>0.903</gom:speed><gom:rel_alt>10.188</gom:rel_alt></extensions></trkpt>
   <trkpt lat="59.3827758658" lon="34.7204187453"><ele>170.252</ele><time>2026-08-15T18:27:58.480Z</time><hdop>3.0</hdop><vdop>1.312</vdop><extensions><gom:speed>0.801</gom:speed><gom:rel_alt>9.995</gom:rel_alt></extensions></trkpt>
   <trkpt lat="59.3827545757" lon="34.7202388697"><ele>169.901</ele><time>2026-08-15T18:28:28.496Z</time><hdop>3.0</hdop><vdop>1.312</vdop><extensions><gom:speed>0.893</gom:speed><gom:rel_alt>9.818</gom:rel_alt></extensions></trkpt>
   <trkpt lat="59.382757677" lon="34.7200621791"><ele>169.863</ele><time>2026-08-15T18:28:43.184Z</time><hdop>3.0</hdop><vdop>1.312</vdop><extensions><gom:speed>0.741</gom:speed><gom:rel_alt>9.691</gom:rel_alt></extensions></trkpt>
   <trkpt lat="59.3828598943" lon="34.7200817928"><ele>169.417</ele><time>2026-08-15T18:28:58.497Z</time><hdop>3.187</hdop><vdop>1.312</vdop><extensions><gom:speed>0.747</gom:speed><gom:rel_alt>9.409</gom:rel_alt></extensions></trkpt>
   <trkpt lat="59.3829048633" lon="34.7199226205"><ele>169.845</ele><time>2026-08-15T18:29:14.163Z</time><hdop>3.0</hdop><vdop>1.312</vdop><extensions><gom:speed>0.762</gom:speed><gom:rel_alt>10.458</gom:rel_alt></extensions></trkpt>
   <trkpt lat="59.3829268658" lon="34.7197465167"><ele>170.051</ele><time>2026-08-15T18:29:24.497Z</time><hdop>3.0</hdop><vdop>1.312</vdop><extensions><gom:speed>0.998</gom:speed><gom:rel_alt>10.341</gom:rel_alt></extensions></trkpt>
   <trkpt lat="59.3829635785" lon="34.7195834887"><ele>169.962</ele><time>2026-08-15T18:29:35.062Z</time><hdop>3.0</hdop><vdop>1.312</vdop><extensions><gom:speed>0.898</gom:speed><gom:rel_alt>10.024</gom:rel_alt></extensions></trkpt>
   <trkpt lat="59.3829710803" lon="34.7194060438"><ele>169.981</ele><time>2026-08-15T18:29:48.496Z</time><hdop>3.0</hdop><vdop>1.312</vdop><extensions><gom:speed>0.813</gom:speed><gom:rel_alt>9.895</gom:rel_alt></extensions></trkpt>
   <trkpt lat="59.3830618982" lon="34.7194273338"><ele>169.368</ele><time>2026-08-15T18:30:02.800Z</time><hdop>3.0</hdop><vdop>1.312</vdop><extensions><gom:speed>0.785</gom:speed><gom:rel_alt>9.747</gom:rel_alt></extensions></trkpt>
   <trkpt lat="59.3831585835" lon="34.7194093965"><ele>170.272</ele><time>2026-08-15T18:30:18.485Z</time><hdop>3.0</hdop><vdop>1.312</vdop><extensions><gom:speed>0.961</gom:speed><gom:rel_alt>10.283</gom:rel_alt></extensions></trkpt>
   <trkpt lat="59.383182891" lon="34.7192304429"><ele>170.261</ele><time>2026-08-15T18:30:37.388Z</time><hdop>3.0</hdop><vdop>1.375</vdop><extensions><gom:speed>0.837</gom:speed><gom:rel_alt>10.516</gom:rel_alt></extensions></trkpt>
   <trkpt lat="59.3831357847" lon="34.7190708515"><ele>170.05</ele><time>2026-08-15T18:30:50.080Z</time><hdop>3.0</hdop><vdop>1.312</vdop><extensions><gom:speed>0.93</gom:speed><gom:rel_alt>9.652</gom:rel_alt></extensions></trkpt>
   <trkpt lat="59.383091193" lon="34.7189159539"><ele>168.857</ele><time>2026-08-15T18:31:22.497Z</time><hdop>3.0</hdop><vdop>1.375</vdop><extensions><gom:speed>0.113</gom:speed><gom:rel_alt>9.07</gom:rel_alt></extensions></trkpt>
   <trkpt lat="59.3830680589" lon="34.7187407721"><ele>168.906</ele><time>2026-08-15T18:33:10.062Z</time><hdop>3.0</hdop><vdop>1.312</vdop><extensions><gom:speed>0.92</gom:speed><gom:rel_alt>9.076</gom:rel_alt></extensions></trkpt>
   <trkpt lat="59.3830482776" lon="34.7185665962"><ele>168.6</ele><time>2026-08-15T18:33:23.497Z</time><hdop>3.0</hdop><vdop>1.375</vdop><extensions><gom:speed>0.779</gom:speed><gom:rel_alt>8.846</gom:rel_alt></extensions></trkpt>
   <trkpt lat="59.3831098846" lon="34.7184269537"><ele>168.328</ele><time>2026-08-15T18:33:36.168Z</time><hdop>3.0</hdop><vdop>1.312</vdop><extensions><gom:speed>0.849</gom:speed><gom:rel_alt>8.724</gom:rel_alt></extensions></trkpt>
   <trkpt lat="59.3831654985" lon="34.7182732295"><ele>168.669</ele><time>2026-08-15T18:33:48.498Z</time><hdop>3.0</hdop><vdop>1.375</vdop><extensions><gom:speed>0.806</gom:speed><gom:rel_alt>9.504</gom:rel_alt></extensions></trkpt>
   <trkpt lat="59.3831753892" lon="34.7180977963"><ele>169.04</ele><time>2026-08-15T18:33:59.823Z</time><hdop>3.0</hdop><vdop>1.375</vdop><extensions><gom:speed>0.884</gom:speed><gom:rel_alt>9.491</gom:rel_alt></extensions></trkpt>
   <trkpt lat="59.3832499881" lon="34.7179937769"><ele>169.293</ele><time>2026-08-15T18:34:10.482Z</time><hdop>3.0</hdop><vdop>1.312</vdop><extensions><gom:speed>0.966</gom:speed><gom:rel_alt>9.461</gom:rel_alt></extensions></trkpt>
   <trkpt lat="59.3832136945" lon="34.7178310842"><ele>169.011</ele><time>2026-08-15T18:34:21.498Z</time><hdop>3.0</hdop><vdop>1.375</vdop><extensions><gom:speed>0.902</gom:speed><gom:rel_alt>9.765</gom:rel_alt></extensions></trkpt>
   <trkpt lat="59.3831724974" lon="34.7176693972"><ele>168.948</ele><time>2026-08-15T18:34:31.762Z</time><hdop>3.0</hdop><vdop>1.375</vdop><extensions><gom:speed>0.918</gom:speed><gom:rel_alt>8.901</gom:rel_alt></extensions></trkpt>
   <trkpt lat="59.383152758" lon="34.7174905274"><ele>168.395</ele><time>2026-08-15T18:34:40.625Z</time><hdop>3.0</hdop><vdop>1.312</vdop><extensions><gom:speed>0.997</gom:speed><gom:rel_alt>7.112</gom:rel_alt></extensions></trkpt>
   <trkpt lat="59.3831261874" lon="34.7173169382"><ele>166.056</ele><time>2026-08-15T18:34:51.389Z</time><hdop>3.0</hdop><vdop>1.375</vdop><extensions><gom:speed>0.911</gom:speed><gom:rel_alt>6.19</gom:rel_alt></extensions></trkpt>
   <trkpt lat="59.383162984" lon="34.7171533235"><ele>165.969</ele><time>2026-08-15T18:35:03.225Z</time><hdop>3.0</hdop><vdop>1.312</vdop><extensions><gom:speed>0.958</gom:speed><gom:rel_alt>6.222</gom:rel_alt></extensions></trkpt>
   <trkpt lat="59.383180586" lon="34.7169707656"><ele>165.942</ele><time>2026-08-15T18:35:17.721Z</time><hdop>3.0</hdop><vdop>1.375</vdop><extensions><gom:speed>1.051</gom:speed><gom:rel_alt>6.32</gom:rel_alt></extensions></trkpt>
   <trkpt lat="59.3831867886" lon="34.7167933207"><ele>166.623</ele><time>2026-08-15T18:35:29.701Z</time><hdop>3.0</hdop><vdop>1.375</vdop><extensions><gom:speed>0.885</gom:speed><gom:rel_alt>7.123</gom:rel_alt></extensions></trkpt>
   <trkpt lat="59.383114788" lon="34.7166721184"><ele>166.846</ele><time>2026-08-15T18:35:40.497Z</time><hdop>3.0</hdop><vdop>1.312</vdop><extensions><gom:speed>0.945</gom:speed><gom:rel_alt>6.7</gom:rel_alt></extensions></trkpt>
   <trkpt lat="59.3830632812" lon="34.7165165503"><ele>166.065</ele><time>2026-08-15T18:35:52.063Z</time><hdop>3.0</hdop><vdop>1.312</vdop><extensions><gom:speed>0.866</gom:speed><gom:rel_alt>6.785</gom:rel_alt></extensions></trkpt>
   <trkpt lat="59.383066173" lon="34.7163343277"><ele>166.227</ele><time>2026-08-15T18:36:04.004Z</time><hdop>3.0</hdop><vdop>1.375</vdop><extensions><gom:speed>0.942</gom:speed><gom:rel_alt>6.378</gom:rel_alt></extensions></trkpt>
   <trkpt lat="59.3830595932" lon="34.7161488362"><ele>166.927</ele><time>2026-08-15T18:38:03.181Z</time><hdop>3.125</hdop><vdop>1.312</vdop><extensions><gom:speed>0.668</gom:speed><gom:rel_alt>6.618</gom:rel_alt></extensions></trkpt>
   <trkpt lat="59.3830649995" lon="34.7159700502"><ele>166.445</ele><time>2026-08-15T18:38:12.425Z</time><hdop>3.0</hdop><vdop>1.312</vdop><extensions><gom:speed>1.006</gom:speed><gom:rel_alt>7.049</gom:rel_alt></extensions></trkpt>
   <trkpt lat="59.3831227927" lon="34.7158144821"><ele>166.25</ele><time>2026-08-15T18:38:21.497Z</time><hdop>3.0</hdop><vdop>1.375</vdop><extensions><gom:speed>1.071</gom:speed><gom:rel_alt>6.272</gom:rel_alt></extensions></trkpt>
   <trkpt lat="59.3831785743" lon="34.7156661224"><ele>166.52</ele><time>2026-08-15T18:38:35.348Z</time><hdop>3.0</hdop><vdop>1.375</vdop><extensions><gom:speed>0.944</gom:speed><gom:rel_alt>5.889</gom:rel_alt></extensions></trkpt>
   <trkpt lat="59.3832443722" lon="34.7155414835"><ele>166.21</ele><time>2026-08-15T18:38:47.185Z</time><hdop>3.0</hdop><vdop>1.312</vdop><extensions><gom:speed>0.978</gom:speed><gom:rel_alt>6.098</gom:rel_alt></extensions></trkpt>
   <trkpt lat="59.3831669654" lon="34.7154414874"><ele>167.138</ele><time>2026-08-15T18:39:01.768Z</time><hdop>3.0</hdop><vdop>1.375</vdop><extensions><gom:speed>0.891</gom:speed><gom:rel_alt>6.484</gom:rel_alt></extensions></trkpt>
   <trkpt lat="59.3830794583" lon="34.7153975662"><ele>166.78</ele><time>2026-08-15T18:39:10.707Z</time><hdop>3.0</hdop><vdop>1.375</vdop><extensions><gom:speed>0.871</gom:speed><gom:rel_alt>6.756</gom:rel_alt></extensions></trkpt>
   <trkpt lat="59.3829961841" lon="34.7153311815"><ele>167.783</ele><time>2026-08-15T18:40:47.339Z</time><hdop>3.0</hdop><vdop>1.375</vdop><extensions><gom:speed>0.72</gom:speed><gom:rel_alt>6.703</gom:rel_alt></extensions></trkpt>
   <trkpt lat="59.3829799651" lon="34.7151559998"><ele>167.612</ele><time>2026-08-15T18:40:59.062Z</time><hdop>3.0</hdop><vdop>1.375</vdop><extensions><gom:speed>1.047</gom:speed><gom:rel_alt>7.023</gom:rel_alt></extensions></trkpt>
   <trkpt lat="59.3829955974" lon="34.7149807342"><ele>167.173</ele><time>2026-08-15T18:41:10.498Z</time><hdop>3.0</hdop><vdop>1.375</vdop><extensions><gom:speed>0.95</gom:speed><gom:rel_alt>6.925</gom:rel_alt></extensions></trkpt>
   <trkpt lat="59.3830903967" lon="34.7149708435"><ele>167.898</ele><time>2026-08-15T18:41:23.402Z</time><hdop>3.0</hdop><vdop>1.375</vdop><extensions><gom:speed>0.716</gom:speed><gom:rel_alt>6.994</gom:rel_alt></extensions></trkpt>
   <trkpt lat="59.3831469745" lon="34.7148204722"><ele>167.18</ele><time>2026-08-15T18:41:36.368Z</time><hdop>3.0</hdop><vdop>1.375</vdop><extensions><gom:speed>0.765</gom:speed><gom:rel_alt>6.991</gom:rel_alt></extensions></trkpt>
   <trkpt lat="59.3831506626" lon="34.7146406804"><ele>168.177</ele><time>2026-08-15T18:41:52.497Z</time><hdop>3.0</hdop><vdop>1.375</vdop><extensions><gom:speed>0.791</gom:speed><gom:rel_alt>7.636</gom:rel_alt></extensions></trkpt>
   <trkpt lat="59.3832051868" lon="34.7144947514"><ele>168.193</ele><time>2026-08-15T18:42:08.221Z</time><hdop>3.0</hdop><vdop>1.375</vdop><extensions><gom:speed>0.864</gom:speed><gom:rel_alt>7.342</gom:rel_alt></extensions></trkpt>
   <trkpt lat="59.3832849826" lon="34.7144079987"><ele>168.522</ele><time>2026-08-15T18:42:19.497Z</time><hdop>3.0</hdop><vdop>1.437</vdop><extensions><gom:speed>0.905</gom:speed><gom:rel_alt>8.381</gom:rel_alt></extensions></trkpt>
   <trkpt lat="59.383284773" lon="34.7142232616"><ele>168.155</ele><time>2026-08-15T18:42:31.499Z</time><hdop>3.0</hdop><vdop>1.5</vdop><extensions><gom:speed>0.981</gom:speed><gom:rel_alt>8.23</gom:rel_alt></extensions></trkpt>
   <trkpt lat="59.3832831805" lon="34.7140453976"><ele>168.538</ele><time>2026-08-15T18:42:40.498Z</time><hdop>3.0</hdop><vdop>1.375</vdop><extensions><gom:speed>1.059</gom:speed><gom:rel_alt>8.341</gom:rel_alt></extensions></trkpt>
   <trkpt lat="59.3833575698" lon="34.7139441442"><ele>170.213</ele><time>2026-08-15T18:45:35.498Z</time><hdop>3.375</hdop><vdop>1.437</vdop><extensions><gom:speed>1.001</gom:speed><gom:rel_alt>8.428</gom:rel_alt></extensions></trkpt>
   <trkpt lat="59.3834030836" lon="34.7137873188"><ele>169.921</ele><time>2026-08-15T18:45:44.693Z</time><hdop>3.0</hdop><vdop>1.437</vdop><extensions><gom:speed>0.823</gom:speed><gom:rel_alt>8.225</gom:rel_alt></extensions></trkpt>
   <trkpt lat="59.383466786" lon="34.7136566449"><ele>170.539</ele><time>2026-08-15T18:45:56.085Z</time><hdop>3.0</hdop><vdop>1.375</vdop><extensions><gom:speed>0.979</gom:speed><gom:rel_alt>7.839</gom:rel_alt></extensions></trkpt>
   <trkpt lat="59.3834485973" lon="34.7134759311"><ele>169.834</ele><time>2026-08-15T18:46:06.420Z</time><hdop>3.0</hdop><vdop>1.5</vdop><extensions><gom:speed>0.921</gom:speed><gom:rel_alt>8.117</gom:rel_alt></extensions></trkpt>
   <trkpt lat="59.3833964619" lon="34.7133216202"><ele>169.329</ele><time>2026-08-15T18:46:18.324Z</time><hdop>3.0</hdop><vdop>1.375</vdop><extensions><gom:speed>0.913</gom:speed><gom:rel_alt>7.834</gom:rel_alt></extensions></trkpt>
   <trkpt lat="59.3833683825" lon="34.7131535631"><ele>170.441</ele><time>2026-08-15T18:46:31.498Z</time><hdop>3.0</hdop><vdop>1.437</vdop><extensions><gom:speed>0.992</gom:speed><gom:rel_alt>7.881</gom:rel_alt></extensions></trkpt>
   <trkpt lat="59.3833877866" lon="34.7129795548"><ele>169.73</ele><time>2026-08-15T18:46:42.444Z</time><hdop>3.0</hdop><vdop>1.437</vdop><extensions><gom:speed>0.862</gom:speed><gom:rel_alt>7.839</gom:rel_alt></extensions></trkpt>
   <trkpt lat="59.3833948693" lon="34.7127951529"><ele>170.319</ele><time>2026-08-15T18:46:52.808Z</time><hdop>3.0</hdop><vdop>1.375</vdop><extensions><gom:speed>0.943</gom:speed><gom:rel_alt>7.445</gom:rel_alt></extensions></trkpt>
   <trkpt lat="59.3834392934" lon="34.7126341366"><ele>170.293</ele><time>2026-08-15T18:47:01.367Z</time><hdop>3.0</hdop><vdop>1.437</vdop><extensions><gom:speed>0.973</gom:speed><gom:rel_alt>7.443</gom:rel_alt></extensions></trkpt>
   <trkpt lat="59.38338808" lon="34.7124821726"><ele>169.48</ele><time>2026-08-15T18:47:09.840Z</time><hdop>3.0</hdop><vdop>1.5</vdop><extensions><gom:speed>1.026</gom:speed><gom:rel_alt>7.472</gom:rel_alt></extensions></trkpt>
   <trkpt lat="59.3834095796" lon="34.7123017941"><ele>169.782</ele><time>2026-08-15T18:47:22.285Z</time><hdop>3.0</hdop><vdop>1.375</vdop><extensions><gom:speed>0.988</gom:speed><gom:rel_alt>7.057</gom:rel_alt></extensions></trkpt>
   <trkpt lat="59.3834571888" lon="34.7121415321"><ele>169.351</ele><time>2026-08-15T18:47:33.220Z</time><hdop>3.0</hdop><vdop>1.562</vdop><extensions><gom:speed>0.909</gom:speed><gom:rel_alt>7.202</gom:rel_alt></extensions></trkpt>
   <trkpt lat="59.383466786" lon="34.7119629976"><ele>168.943</ele><time>2026-08-15T18:47:43.860Z</time><hdop>3.0</hdop><vdop>1.437</vdop><extensions><gom:speed>0.983</gom:speed><gom:rel_alt>6.928</gom:rel_alt></extensions></trkpt>
   <trkpt lat="59.3834804905" lon="34.7117781766"><ele>169.212</ele><time>2026-08-15T18:47:56.047Z</time><hdop>3.0</hdop><vdop>1.437</vdop><extensions><gom:speed>0.834</gom:speed><gom:rel_alt>7.112</gom:rel_alt></extensions></trkpt>
   <trkpt lat="59.3834406764" lon="34.7116155677"><ele>169.487</ele><time>2026-08-15T18:50:12.061Z</time><hdop>3.125</hdop><vdop>1.375</vdop><extensions><gom:speed>0.867</gom:speed><gom:rel_alt>6.928</gom:rel_alt></extensions></trkpt>
   <trkpt lat="59.3834842623" lon="34.7114456665"><ele>169.538</ele><time>2026-08-15T18:50:45.302Z</time><hdop>3.125</hdop><vdop>1.375</vdop><extensions><gom:speed>0.996</gom:speed><gom:rel_alt>6.344</gom:rel_alt></extensions></trkpt>
   <trkpt lat="59.3834613797" lon="34.7112593368"><ele>169.741</ele><time>2026-08-15T18:50:57.498Z</time><hdop>3.0</hdop><vdop>1.5</vdop><extensions><gom:speed>1.034</gom:speed><gom:rel_alt>7.004</gom:rel_alt></extensions></trkpt>
   <trkpt lat="59.3835484677" lon="34.7111901861"><ele>169.721</ele><time>2026-08-15T18:51:10.108Z</time><hdop>3.0</hdop><vdop>1.375</vdop><extensions><gom:speed>0.958</gom:speed><gom:rel_alt>6.811</gom:rel_alt></extensions></trkpt>
   <trkpt lat="59.3834877827" lon="34.7110453468"><ele>169.725</ele><time>2026-08-15T18:51:25.146Z</time><hdop>3.0</hdop><vdop>1.437</vdop><extensions><gom:speed>0.877</gom:speed><gom:rel_alt>6.928</gom:rel_alt></extensions></trkpt>
   <trkpt lat="59.3833987669" lon="34.7109947201"><ele>169.624</ele><time>2026-08-15T18:51:34.304Z</time><hdop>3.0</hdop><vdop>1.375</vdop><extensions><gom:speed>0.914</gom:speed><gom:rel_alt>6.766</gom:rel_alt></extensions></trkpt>
   <trkpt lat="59.3833291971" lon="34.7108765353"><ele>169.377</ele><time>2026-08-15T18:51:49.500Z</time><hdop>3.0</hdop><vdop>1.437</vdop><extensions><gom:speed>1.123</gom:speed><gom:rel_alt>6.198</gom:rel_alt></extensions></trkpt>
   <trkpt lat="59.3833271854" lon="34.7106884454"><ele>168.947</ele><time>2026-08-15T18:52:00.500Z</time><hdop>3.0</hdop><vdop>1.437</vdop><extensions><gom:speed>0.937</gom:speed><gom:rel_alt>6.034</gom:rel_alt></extensions></trkpt>
   <trkpt lat="59.3834137705" lon="34.7106158581"><ele>169.338</ele><time>2026-08-15T18:52:25.498Z</time><hdop>3.75</hdop><vdop>1.5</vdop><extensions><gom:speed>0.939</gom:speed><gom:rel_alt>5.947</gom:rel_alt></extensions></trkpt>
   <trkpt lat="59.3834612959" lon="34.7104648162"><ele>168.882</ele><time>2026-08-15T18:52:38.499Z</time><hdop>3.75</hdop><vdop>1.375</vdop><extensions><gom:speed>1.869</gom:speed><gom:rel_alt>6.021</gom:rel_alt></extensions></trkpt>
   <trkpt lat="59.3835103719" lon="34.7103098348"><ele>169.796</ele><time>2026-08-15T18:52:49.107Z</time><hdop>3.125</hdop><vdop>1.437</vdop><extensions><gom:speed>0.932</gom:speed><gom:rel_alt>5.984</gom:rel_alt></extensions></trkpt>
   <trkpt lat="59.3835652734" lon="34.7101562783"><ele>168.592</ele><time>2026-08-15T18:53:01.499Z</time><hdop>3.0</hdop><vdop>1.375</vdop><extensions><gom:speed>0.981</gom:speed><gom:rel_alt>6.13</gom:rel_alt></extensions></trkpt>
   <trkpt lat="59.3836173669" lon="34.7100101818"><ele>169.096</ele><time>2026-08-15T18:53:14.283Z</time><hdop>3.0</hdop><vdop>1.437</vdop><extensions><gom:speed>0.872</gom:speed><gom:rel_alt>5.855</gom:rel_alt></extensions></trkpt>
   <trkpt lat="59.3836578934" lon="34.7098334912"><ele>170.354</ele><time>2026-08-15T18:53:22.119Z</time><hdop>3.0</hdop><vdop>1.437</vdop><extensions><gom:speed>1.095</gom:speed><gom:rel_alt>5.789</gom:rel_alt></extensions></trkpt>
   <trkpt lat="59.3837190813" lon="34.7097040747"><ele>168.966</ele><time>2026-08-15T18:53:34.242Z</time><hdop>3.0</hdop><vdop>1.375</vdop><extensions><gom:speed>1.029</gom:speed><gom:rel_alt>6.151</gom:rel_alt></extensions></trkpt>
   <trkpt lat="59.3836979589" lon="34.7095246181"><ele>170.173</ele><time>2026-08-15T18:53:47.160Z</time><hdop>3.0</hdop><vdop>1.437</vdop><extensions><gom:speed>0.889</gom:speed><gom:rel_alt>6.28</gom:rel_alt></extensions></trkpt>
   <trkpt lat="59.3836445662" lon="34.7093822934"><ele>169.252</ele><time>2026-08-15T18:54:00.499Z</time><hdop>3.0</hdop><vdop>1.375</vdop><extensions><gom:speed>0.471</gom:speed><gom:rel_alt>6.906</gom:rel_alt></extensions></trkpt>
   <trkpt lat="59.3835960769" lon="34.7095324971"><ele>168.801</ele><time>2026-08-15T18:58:28.500Z</time><hdop>3.0</hdop><vdop>1.312</vdop><extensions><gom:speed>1.011</gom:speed><gom:rel_alt>6.042</gom:rel_alt></extensions></trkpt>
   <trkpt lat="59.3835386609" lon="34.7093957883"><ele>168.684</ele><time>2026-08-15T18:58:42.439Z</time><hdop>3.0</hdop><vdop>1.437</vdop><extensions><gom:speed>0.862</gom:speed><gom:rel_alt>6.193</gom:rel_alt></extensions></trkpt>
   <trkpt lat="59.3835328774" lon="34.7092073631"><ele>169.032</ele><time>2026-08-15T18:59:05.259Z</time><hdop>3.0</hdop><vdop>1.375</vdop><extensions><gom:speed>0.781</gom:speed><gom:rel_alt>6.198</gom:rel_alt></extensions></trkpt>
   <trkpt lat="59.3835647705" lon="34.7090331871"><ele>169.049</ele><time>2026-08-15T18:59:16.499Z</time><hdop>3.0</hdop><vdop>1.375</vdop><extensions><gom:speed>0.758</gom:speed><gom:rel_alt>6.499</gom:rel_alt></extensions></trkpt>
   <trkpt lat="59.3835682909" lon="34.7088528924"><ele>169.447</ele><time>2026-08-15T18:59:34.985Z</time><hdop>3.0</hdop><vdop>1.437</vdop><extensions><gom:speed>0.858</gom:speed><gom:rel_alt>6.719</gom:rel_alt></extensions></trkpt>
   <trkpt lat="59.3835488868" lon="34.70867243"><ele>169.221</ele><time>2026-08-15T18:59:47.031Z</time><hdop>3.0</hdop><vdop>1.375</vdop><extensions><gom:speed>0.914</gom:speed><gom:rel_alt>6.55</gom:rel_alt></extensions></trkpt>
   <trkpt lat="59.3835243697" lon="34.7084828314"><ele>169.435</ele><time>2026-08-15T18:59:59.333Z</time><hdop>3.0</hdop><vdop>1.437</vdop><extensions><gom:speed>0.853</gom:speed><gom:rel_alt>6.373</gom:rel_alt></extensions></trkpt>
   <trkpt lat="59.3834717733" lon="34.7083363995"><ele>169.252</ele><time>2026-08-15T19:00:19.227Z</time><hdop>3.0</hdop><vdop>1.375</vdop><extensions><gom:speed>0.813</gom:speed><gom:rel_alt>6.412</gom:rel_alt></extensions></trkpt>
   <trkpt lat="59.3833825898" lon="34.7082889579"><ele>169.345</ele><time>2026-08-15T19:00:29.952Z</time><hdop>3.0</hdop><vdop>1.375</vdop><extensions><gom:speed>0.762</gom:speed><gom:rel_alt>6.877</gom:rel_alt></extensions></trkpt>
   <trkpt lat="59.3832937836" lon="34.7083427698"><ele>169.604</ele><time>2026-08-15T19:00:39.471Z</time><hdop>3.0</hdop><vdop>1.437</vdop><extensions><gom:speed>1.042</gom:speed><gom:rel_alt>7.231</gom:rel_alt></extensions></trkpt>
   <trkpt lat="59.3832082882" lon="34.7082700987"><ele>169.776</ele><time>2026-08-15T19:00:48.499Z</time><hdop>3.0</hdop><vdop>1.375</vdop><extensions><gom:speed>0.97</gom:speed><gom:rel_alt>7.181</gom:rel_alt></extensions></trkpt>
   <trkpt lat="59.3831498663" lon="34.7081185539"><ele>169.811</ele><time>2026-08-15T19:01:03.327Z</time><hdop>3.0</hdop><vdop>1.437</vdop><extensions><gom:speed>0.647</gom:speed><gom:rel_alt>7.052</gom:rel_alt></extensions></trkpt>
   <trkpt lat="59.3831264808" lon="34.707944797"><ele>169.637</ele><time>2026-08-15T19:01:15.419Z</time><hdop>3.0</hdop><vdop>1.312</vdop><extensions><gom:speed>0.569</gom:speed><gom:rel_alt>7.105</gom:rel_alt></extensions></trkpt>
   <trkpt lat="59.3831639898" lon="34.7077813499"><ele>169.209</ele><time>2026-08-15T19:01:29.005Z</time><hdop>3.375</hdop><vdop>1.437</vdop><extensions><gom:speed>1.024</gom:speed><gom:rel_alt>6.283</gom:rel_alt></extensions></trkpt>
   <trkpt lat="59.383073591" lon="34.7077932522"><ele>169.036</ele><time>2026-08-15T19:01:36.499Z</time><hdop>3.25</hdop><vdop>1.375</vdop><extensions><gom:speed>0.867</gom:speed><gom:rel_alt>6.589</gom:rel_alt></extensions></trkpt>
   <trkpt lat="59.3829862934" lon="34.707724772"><ele>169.52</ele><time>2026-08-15T19:01:49.032Z</time><hdop>3.0</hdop><vdop>1.437</vdop><extensions><gom:speed>0.984</gom:speed><gom:rel_alt>6.642</gom:rel_alt></extensions></trkpt>
   <trkpt lat="59.3829547775" lon="34.7075525239"><ele>169.566</ele><time>2026-08-15T19:02:00.794Z</time><hdop>3.0</hdop><vdop>1.437</vdop><extensions><gom:speed>0.965</gom:speed><gom:rel_alt>7.292</gom:rel_alt></extensions></trkpt>
   <trkpt lat="59.3829814739" lon="34.7073813655"><ele>169.08</ele><time>2026-08-15T19:04:06.500Z</time><hdop>3.75</hdop><vdop>1.312</vdop><extensions><gom:speed>1.319</gom:speed><gom:rel_alt>6.439</gom:rel_alt></extensions></trkpt>
   <trkpt lat="59.3829369659" lon="34.7071981371"><ele>168.798</ele><time>2026-08-15T19:04:19.501Z</time><hdop>3.75</hdop><vdop>1.375</vdop><extensions><gom:speed>1.599</gom:speed><gom:rel_alt>6.51</gom:rel_alt></extensions></trkpt>
   <trkpt lat="59.3829006723" lon="34.7070184291"><ele>168.562</ele><time>2026-08-15T19:04:32.190Z</time><hdop>3.625</hdop><vdop>1.312</vdop><extensions><gom:speed>0.917</gom:speed><gom:rel_alt>7.406</gom:rel_alt></extensions></trkpt>
   <trkpt lat="59.3829104791" lon="34.7068428282"><ele>170.527</ele><time>2026-08-15T19:04:48.085Z</time><hdop>3.0</hdop><vdop>1.312</vdop><extensions><gom:speed>0.933</gom:speed><gom:rel_alt>8.436</gom:rel_alt></extensions></trkpt>
   <trkpt lat="59.3828510933" lon="34.7067059517"><ele>170.898</ele><time>2026-08-15T19:05:08.044Z</time><hdop>3.0</hdop><vdop>1.375</vdop><extensions><gom:speed>0.489</gom:speed><gom:rel_alt>8.78</gom:rel_alt></extensions></trkpt>
   <trkpt lat="59.3827655979" lon="34.7066468593"><ele>171.187</ele><time>2026-08-15T19:05:23.254Z</time><hdop>3.0</hdop><vdop>1.312</vdop><extensions><gom:speed>0.59</gom:speed><gom:rel_alt>8.814</gom:rel_alt></extensions></trkpt>
   <trkpt lat="59.3826800606" lon="34.7067385573"><ele>170.484</ele><time>2026-08-15T19:05:47.500Z</time><hdop>3.0</hdop><vdop>1.375</vdop><extensions><gom:speed>0.229</gom:speed><gom:rel_alt>7.942</gom:rel_alt></extensions></trkpt>
   <trkpt lat="59.38258216" lon="34.7067514654"><ele>170.925</ele><time>2026-08-15T19:06:41.499Z</time><hdop>3.062</hdop><vdop>1.5</vdop><extensions><gom:speed>0.887</gom:speed><gom:rel_alt>8.463</gom:rel_alt></extensions></trkpt>
   <trkpt lat="59.3825532843" lon="34.7065764513"><ele>171.201</ele><time>2026-08-15T19:06:49.500Z</time><hdop>3.0</hdop><vdop>1.562</vdop><extensions><gom:speed>1.188</gom:speed><gom:rel_alt>8.634</gom:rel_alt></extensions></trkpt>
   <trkpt lat="59.3824917612" lon="34.7064423409"><ele>171.481</ele><time>2026-08-15T19:07:04.470Z</time><hdop>3.0</hdop><vdop>1.562</vdop><extensions><gom:speed>0.674</gom:speed><gom:rel_alt>8.967</gom:rel_alt></extensions></trkpt>
   <trkpt lat="59.3823999793" lon="34.7064661455"><ele>172.161</ele><time>2026-08-15T19:07:15.347Z</time><hdop>3.0</hdop><vdop>1.375</vdop><extensions><gom:speed>1.043</gom:speed><gom:rel_alt>9.052</gom:rel_alt></extensions></trkpt>
   <trkpt lat="59.3823409707" lon="34.7063207194"><ele>171.149</ele><time>2026-08-15T19:07:25.208Z</time><hdop>3.0</hdop><vdop>1.375</vdop><extensions><gom:speed>0.928</gom:speed><gom:rel_alt>8.748</gom:rel_alt></extensions></trkpt>
   <trkpt lat="59.3823447845" lon="34.7061396703"><ele>171.435</ele><time>2026-08-15T19:07:38.501Z</time><hdop>3.0</hdop><vdop>1.437</vdop><extensions><gom:speed>0.657</gom:speed><gom:rel_alt>8.51</gom:rel_alt></extensions></trkpt>
   <trkpt lat="59.3822984745" lon="34.7059728705"><ele>171.322</ele><time>2026-08-15T19:07:51.500Z</time><hdop>3.75</hdop><vdop>1.375</vdop><extensions><gom:speed>1.099</gom:speed><gom:rel_alt>11.139</gom:rel_alt></extensions></trkpt>
   <trkpt lat="59.3822080756" lon="34.7059788216"><ele>171.527</ele><time>2026-08-15T19:07:59.500Z</time><hdop>3.75</hdop><vdop>1.5</vdop><extensions><gom:speed>1.079</gom:speed><gom:rel_alt>9.142</gom:rel_alt></extensions></trkpt>
   <trkpt lat="59.3821258911" lon="34.7060718607"><ele>171.994</ele><time>2026-08-15T19:08:10.500Z</time><hdop>3.75</hdop><vdop>1.437</vdop><extensions><gom:speed>0.96</gom:speed><gom:rel_alt>9.203</gom:rel_alt></extensions></trkpt>
   <trkpt lat="59.3820830596" lon="34.7062338829"><ele>171.798</ele><time>2026-08-15T19:08:19.673Z</time><hdop>3.0</hdop><vdop>1.375</vdop><extensions><gom:speed>1.011</gom:speed><gom:rel_alt>9.081</gom:rel_alt></extensions></trkpt>
   <trkpt lat="59.3820098855" lon="34.7063466195"><ele>172.388</ele><time>2026-08-15T19:08:32.327Z</time><hdop>3.0</hdop><vdop>1.562</vdop><extensions><gom:speed>0.736</gom:speed><gom:rel_alt>9.136</gom:rel_alt></extensions></trkpt>
   <trkpt lat="59.3819711612" lon="34.7065155987"><ele>171.379</ele><time>2026-08-15T19:15:08.500Z</time><hdop>3.812</hdop><vdop>1.5</vdop><extensions><gom:speed>0.579</gom:speed><gom:rel_alt>9.033</gom:rel_alt></extensions></trkpt>
   <trkpt lat="59.3819452611" lon="34.7066871762"><ele>172.004</ele><time>2026-08-15T19:15:19.325Z</time><hdop>3.0</hdop><vdop>1.625</vdop><extensions><gom:speed>0.921</gom:speed><gom:rel_alt>9.266</gom:rel_alt></extensions></trkpt>
   <trkpt lat="59.3820353665" lon="34.706708131"><ele>171.796</ele><time>2026-08-15T19:15:28.334Z</time><hdop>3.0</hdop><vdop>1.437</vdop><extensions><gom:speed>0.822</gom:speed><gom:rel_alt>9.546</gom:rel_alt></extensions></trkpt>
   <trkpt lat="59.3820853646" lon="34.7068578318"><ele>171.728</ele><time>2026-08-15T19:15:38.794Z</time><hdop>3.0</hdop><vdop>1.437</vdop><extensions><gom:speed>0.852</gom:speed><gom:rel_alt>9.596</gom:rel_alt></extensions></trkpt>
   <trkpt lat="59.382106487" lon="34.7070418984"><ele>172.008</ele><time>2026-08-15T19:15:55.971Z</time><hdop>3.0</hdop><vdop>1.562</vdop><extensions><gom:speed>0.887</gom:speed><gom:rel_alt>9.205</gom:rel_alt></extensions></trkpt>
   <trkpt lat="59.3820697742" lon="34.7072109614"><ele>171.343</ele><time>2026-08-15T19:16:04.732Z</time><hdop>3.0</hdop><vdop>1.5</vdop><extensions><gom:speed>0.897</gom:speed><gom:rel_alt>8.806</gom:rel_alt></extensions></trkpt>
   <trkpt lat="59.3820561956" lon="34.7073897474"><ele>171.424</ele><time>2026-08-15T19:16:16.170Z</time><hdop>3.0</hdop><vdop>1.562</vdop><extensions><gom:speed>1.015</gom:speed><gom:rel_alt>8.693</gom:rel_alt></extensions></trkpt>
   <trkpt lat="59.3819895594" lon="34.7075295575"><ele>170.762</ele><time>2026-08-15T19:16:28.407Z</time><hdop>3.0</hdop><vdop>1.625</vdop><extensions><gom:speed>1.011</gom:speed><gom:rel_alt>8.436</gom:rel_alt></extensions></trkpt>
   <trkpt lat="59.3819364601" lon="34.7076830302"><ele>170.913</ele><time>2026-08-15T19:16:37.832Z</time><hdop>3.0</hdop><vdop>1.375</vdop><extensions><gom:speed>0.952</gom:speed><gom:rel_alt>8.751</gom:rel_alt></extensions></trkpt>
   <trkpt lat="59.3819497873" lon="34.7078597207"><ele>171.324</ele><time>2026-08-15T19:16:47.788Z</time><hdop>3.0</hdop><vdop>1.562</vdop><extensions><gom:speed>1.063</gom:speed><gom:rel_alt>8.73</gom:rel_alt></extensions></trkpt>
   <trkpt lat="59.3819761903" lon="34.7080379199"><ele>171.102</ele><time>2026-08-15T19:16:56.368Z</time><hdop>3.0</hdop><vdop>1.5</vdop><extensions><gom:speed>1.104</gom:speed><gom:rel_alt>9.047</gom:rel_alt></extensions></trkpt>
   <trkpt lat="59.3820034734" lon="34.7082133532"><ele>171.157</ele><time>2026-08-15T19:17:07.112Z</time><hdop>3.0</hdop><vdop>1.375</vdop><extensions><gom:speed>0.83</gom:speed><gom:rel_alt>9.047</gom:rel_alt></extensions></trkpt>
   <trkpt lat="59.3819120687" lon="34.7082698472"><ele>170.964</ele><time>2026-08-15T19:17:21.971Z</time><hdop>3.0</hdop><vdop>1.5</vdop><extensions><gom:speed>0.986</gom:speed><gom:rel_alt>8.664</gom:rel_alt></extensions></trkpt>
   <trkpt lat="59.3818703688" lon="34.7084287681"><ele>170.98</ele><time>2026-08-15T19:17:33.390Z</time><hdop>3.0</hdop><vdop>1.5</vdop><extensions><gom:speed>0.834</gom:speed><gom:rel_alt>8.36</gom:rel_alt></extensions></trkpt>
   <trkpt lat="59.3819097637" lon="34.7085948974"><ele>171.319</ele><time>2026-08-15T19:17:45.151Z</time><hdop>3.0</hdop><vdop>1.687</vdop><extensions><gom:speed>0.816</gom:speed><gom:rel_alt>8.819</gom:rel_alt></extensions></trkpt>
   <trkpt lat="59.3819153796" lon="34.7087720908"><ele>171.429</ele><time>2026-08-15T19:20:13.501Z</time><hdop>3.937</hdop><vdop>1.5</vdop><extensions><gom:speed>0.587</gom:speed><gom:rel_alt>9.2</gom:rel_alt></extensions></trkpt>
   <trkpt lat="59.3818730929" lon="34.7089310955"><ele>171.657</ele><time>2026-08-15T19:20:24.502Z</time><hdop>3.0</hdop><vdop>1.5</vdop><extensions><gom:speed>0.782</gom:speed><gom:rel_alt>9.073</gom:rel_alt></extensions></trkpt>
   <trkpt lat="59.3818669741" lon="34.7091090434"><ele>172.182</ele><time>2026-08-15T19:20:36.501Z</time><hdop>3.0</hdop><vdop>1.562</vdop><extensions><gom:speed>0.79</gom:speed><gom:rel_alt>9.221</gom:rel_alt></extensions></trkpt>
   <trkpt lat="59.3818809719" lon="34.7092867397"><ele>171.929</ele><time>2026-08-15T19:21:07.689Z</time><hdop>3.0</hdop><vdop>1.562</vdop><extensions><gom:speed>0.669</gom:speed><gom:rel_alt>9.118</gom:rel_alt></extensions></trkpt>
   <trkpt lat="59.3818326921" lon="34.7094355185"><ele>171.515</ele><time>2026-08-15T19:21:19.194Z</time><hdop>3.0</hdop><vdop>1.562</vdop><extensions><gom:speed>0.883</gom:speed><gom:rel_alt>9.369</gom:rel_alt></extensions></trkpt>
   <trkpt lat="59.3817433829" lon="34.7094938565"><ele>172.35</ele><time>2026-08-15T19:21:37.368Z</time><hdop>3.0</hdop><vdop>1.562</vdop><extensions><gom:speed>0.637</gom:speed><gom:rel_alt>9.76</gom:rel_alt></extensions></trkpt>
   <trkpt lat="59.3816528584" lon="34.7094666992"><ele>172.026</ele><time>2026-08-15T19:21:51.500Z</time><hdop>3.0</hdop><vdop>1.5</vdop><extensions><gom:speed>0.582</gom:speed><gom:rel_alt>9.652</gom:rel_alt></extensions></trkpt>
   <trkpt lat="59.3816286766" lon="34.7096402884"><ele>172.276</ele><time>2026-08-15T19:22:05.848Z</time><hdop>3.0</hdop><vdop>1.562</vdop><extensions><gom:speed>0.645</gom:speed><gom:rel_alt>9.924</gom:rel_alt></extensions></trkpt>
   <trkpt lat="59.3816757829" lon="34.7097933419"><ele>172.173</ele><time>2026-08-15T19:22:17.501Z</time><hdop>3.0</hdop><vdop>1.5</vdop><extensions><gom:speed>0.744</gom:speed><gom:rel_alt>10.109</gom:rel_alt></extensions></trkpt>
   <trkpt lat="59.3817404912" lon="34.7099163883"><ele>172.525</ele><time>2026-08-15T19:22:28.865Z</time><hdop>3.0</hdop><vdop>1.562</vdop><extensions><gom:speed>0.896</gom:speed><gom:rel_alt>10.024</gom:rel_alt></extensions></trkpt>
   <trkpt lat="59.381800799" lon="34.7100587968"><ele>172.485</ele><time>2026-08-15T19:22:40.351Z</time><hdop>3.0</hdop><vdop>1.5</vdop><extensions><gom:speed>0.878</gom:speed><gom:rel_alt>10.141</gom:rel_alt></extensions></trkpt>
   <trkpt lat="59.3817878908" lon="34.7102464676"><ele>172.449</ele><time>2026-08-15T19:22:52.473Z</time><hdop>3.0</hdop><vdop>1.5</vdop><extensions><gom:speed>0.779</gom:speed><gom:rel_alt>9.897</gom:rel_alt></extensions></trkpt>
   <trkpt lat="59.3818460612" lon="34.7103857748"><ele>172.908</ele><time>2026-08-15T19:23:01.926Z</time><hdop>3.0</hdop><vdop>1.562</vdop><extensions><gom:speed>0.975</gom:speed><gom:rel_alt>10.384</gom:rel_alt></extensions></trkpt>
   <trkpt lat="59.3818555747" lon="34.7105747868"><ele>172.486</ele><time>2026-08-15T19:23:11.948Z</time><hdop>3.0</hdop><vdop>1.5</vdop><extensions><gom:speed>1.055</gom:speed><gom:rel_alt>10.204</gom:rel_alt></extensions></trkpt>
   <trkpt lat="59.3818448878" lon="34.7107545786"><ele>172.611</ele><time>2026-08-15T19:23:20.501Z</time><hdop>3.0</hdop><vdop>1.5</vdop><extensions><gom:speed>0.975</gom:speed><gom:rel_alt>10.748</gom:rel_alt></extensions></trkpt>
   <trkpt lat="59.3818592627" lon="34.7109406568"><ele>173.257</ele><time>2026-08-15T19:23:30.910Z</time><hdop>3.0</hdop><vdop>1.562</vdop><extensions><gom:speed>0.957</gom:speed><gom:rel_alt>10.27</gom:rel_alt></extensions></trkpt>
   <trkpt lat="59.3818536888" lon="34.7111294173"><ele>172.825</ele><time>2026-08-15T19:23:40.501Z</time><hdop>3.0</hdop><vdop>1.5</vdop><extensions><gom:speed>1.03</gom:speed><gom:rel_alt>10.912</gom:rel_alt></extensions></trkpt>
   <trkpt lat="59.381765595" lon="34.7111807984"><ele>173.726</ele><time>2026-08-15T19:26:20.085Z</time><hdop>3.0</hdop><vdop>1.5</vdop><extensions><gom:speed>0.862</gom:speed><gom:rel_alt>10.796</gom:rel_alt></extensions></trkpt>
   <trkpt lat="59.3817824845" lon="34.7113586623"><ele>173.522</ele><time>2026-08-15T19:26:30.848Z</time><hdop>3.0</hdop><vdop>1.5</vdop><extensions><gom:speed>1.024</gom:speed><gom:rel_alt>10.532</gom:rel_alt></extensions></trkpt>
   <trkpt lat="59.3817549919" lon="34.7115337603"><ele>173.78</ele><time>2026-08-15T19:26:40.833Z</time><hdop>3.0</hdop><vdop>1.437</vdop><extensions><gom:speed>0.963</gom:speed><gom:rel_alt>10.732</gom:rel_alt></extensions></trkpt>
   <trkpt lat="59.3817225958" lon="34.7117129654"><ele>174.339</ele><time>2026-08-15T19:26:53.501Z</time><hdop>3.0</hdop><vdop>1.562</vdop><extensions><gom:speed>0.899</gom:speed><gom:rel_alt>11.396</gom:rel_alt></extensions></trkpt>
   <trkpt lat="59.3816918761" lon="34.7118846268"><ele>174.369</ele><time>2026-08-15T19:27:04.127Z</time><hdop>3.0</hdop><vdop>1.5</vdop><extensions><gom:speed>0.91</gom:speed><gom:rel_alt>11.118</gom:rel_alt></extensions></trkpt>
   <trkpt lat="59.381659983" lon="34.7120531868"><ele>174.465</ele><time>2026-08-15T19:27:15.659Z</time><hdop>3.0</hdop><vdop>1.5</vdop><extensions><gom:speed>0.87</gom:speed><gom:rel_alt>11.462</gom:rel_alt></extensions></trkpt>
   <trkpt lat="59.3816451889" lon="34.712230045"><ele>174.434</ele><time>2026-08-15T19:27:25.929Z</time><hdop>3.0</hdop><vdop>1.562</vdop><extensions><gom:speed>0.838</gom:speed><gom:rel_alt>11.633</gom:rel_alt></extensions></trkpt>
   <trkpt lat="59.3816508886" lon="34.7124137763"><ele>174.424</ele><time>2026-08-15T19:27:38.502Z</time><hdop>3.0</hdop><vdop>1.5</vdop><extensions><gom:speed>0.863</gom:speed><gom:rel_alt>11.855</gom:rel_alt></extensions></trkpt>
   <trkpt lat="59.3816581809" lon="34.712601028"><ele>174.94</ele><time>2026-08-15T19:27:49.128Z</time><hdop>3.0</hdop><vdop>1.562</vdop><extensions><gom:speed>0.872</gom:speed><gom:rel_alt>11.998</gom:rel_alt></extensions></trkpt>
   <trkpt lat="59.3816088953" lon="34.7127637208"><ele>174.33</ele><time>2026-08-15T19:28:01.193Z</time><hdop>3.0</hdop><vdop>1.375</vdop><extensions><gom:speed>0.903</gom:speed><gom:rel_alt>11.834</gom:rel_alt></extensions></trkpt>
   <trkpt lat="59.3815435584" lon="34.7128876891"><ele>174.711</ele><time>2026-08-15T19:28:13.501Z</time><hdop>3.0</hdop><vdop>1.5</vdop><extensions><gom:speed>0.834</gom:speed><gom:rel_alt>11.797</gom:rel_alt></extensions></trkpt>
   <trkpt lat="59.3815387807" lon="34.7130698279"><ele>174.732</ele><time>2026-08-15T19:28:25.227Z</time><hdop>3.0</hdop><vdop>1.562</vdop><extensions><gom:speed>1.01</gom:speed><gom:rel_alt>11.734</gom:rel_alt></extensions></trkpt>
   <trkpt lat="59.3814900818" lon="34.713224474"><ele>174.617</ele><time>2026-08-15T19:28:35.501Z</time><hdop>3.0</hdop><vdop>1.5</vdop><extensions><gom:speed>0.988</gom:speed><gom:rel_alt>11.858</gom:rel_alt></extensions></trkpt>
   <trkpt lat="59.3814405867" lon="34.7133791201"><ele>175.125</ele><time>2026-08-15T19:28:45.253Z</time><hdop>3.0</hdop><vdop>1.5</vdop><extensions><gom:speed>0.945</gom:speed><gom:rel_alt>12.386</gom:rel_alt></extensions></trkpt>
   <trkpt lat="59.3814484657" lon="34.7135624323"><ele>175.406</ele><time>2026-08-15T19:28:55.750Z</time><hdop>3.0</hdop><vdop>1.5</vdop><extensions><gom:speed>0.923</gom:speed><gom:rel_alt>12.521</gom:rel_alt></extensions></trkpt>
   <trkpt lat="59.3814730666" lon="34.7137470857"><ele>175.619</ele><time>2026-08-15T19:31:03.072Z</time><hdop>4.125</hdop><vdop>1.437</vdop><extensions><gom:speed>0.675</gom:speed><gom:rel_alt>12.69</gom:rel_alt></extensions></trkpt>
   <trkpt lat="59.3814161953" lon="34.7138888236"><ele>176.143</ele><time>2026-08-15T19:31:12.971Z</time><hdop>3.0</hdop><vdop>1.5</vdop><extensions><gom:speed>1.041</gom:speed><gom:rel_alt>13.015</gom:rel_alt></extensions></trkpt>
   <trkpt lat="59.3814430593" lon="34.7140585572"><ele>175.765</ele><time>2026-08-15T19:31:25.502Z</time><hdop>3.0</hdop><vdop>1.437</vdop><extensions><gom:speed>0.927</gom:speed><gom:rel_alt>13.533</gom:rel_alt></extensions></trkpt>
   <trkpt lat="59.3814333782" lon="34.7142397739"><ele>177.327</ele><time>2026-08-15T19:31:40.494Z</time><hdop>3.0</hdop><vdop>1.5</vdop><extensions><gom:speed>0.67</gom:speed><gom:rel_alt>14.286</gom:rel_alt></extensions></trkpt>
   <trkpt lat="59.381467283" lon="34.7144142851"><ele>177.539</ele><time>2026-08-15T19:31:54.374Z</time><hdop>3.0</hdop><vdop>1.437</vdop><extensions><gom:speed>0.728</gom:speed><gom:rel_alt>15.058</gom:rel_alt></extensions></trkpt>
   <trkpt lat="59.3815183707" lon="34.7145656623"><ele>178.118</ele><time>2026-08-15T19:32:02.488Z</time><hdop>3.0</hdop><vdop>1.437</vdop><extensions><gom:speed>0.952</gom:speed><gom:rel_alt>15.362</gom:rel_alt></extensions></trkpt>
   <trkpt lat="59.3814707615" lon="34.7147269301"><ele>178.892</ele><time>2026-08-15T19:32:16.502Z</time><hdop>3.0</hdop><vdop>1.5</vdop><extensions><gom:speed>0.759</gom:speed><gom:rel_alt>16.294</gom:rel_alt></extensions></trkpt>
   <trkpt lat="59.3814951948" lon="34.714899765"><ele>179.865</ele><time>2026-08-15T19:32:32.184Z</time><hdop>3.0</hdop><vdop>1.437</vdop><extensions><gom:speed>0.85</gom:speed><gom:rel_alt>16.833</gom:rel_alt></extensions></trkpt>
   <trkpt lat="59.3815487971" lon="34.715047957"><ele>179.749</ele><time>2026-08-15T19:32:48.501Z</time><hdop>3.0</hdop><vdop>1.375</vdop><extensions><gom:speed>0.778</gom:speed><gom:rel_alt>16.514</gom:rel_alt></extensions></trkpt>
   <trkpt lat="59.3815156885" lon="34.7152181935"><ele>179.594</ele><time>2026-08-15T19:33:03.502Z</time><hdop>3.0</hdop><vdop>1.5</vdop><extensions><gom:speed>0.826</gom:speed><gom:rel_alt>15.827</gom:rel_alt></extensions></trkpt>
   <trkpt lat="59.381476587" lon="34.715384239"><ele>178.979</ele><time>2026-08-15T19:33:14.991Z</time><hdop>3.0</hdop><vdop>1.375</vdop><extensions><gom:speed>0.888</gom:speed><gom:rel_alt>15.687</gom:rel_alt></extensions></trkpt>
   <trkpt lat="59.3814384912" lon="34.7155582473"><ele>178.849</ele><time>2026-08-15T19:33:26.447Z</time><hdop>3.0</hdop><vdop>1.625</vdop><extensions><gom:speed>0.849</gom:speed><gom:rel_alt>15.729</gom:rel_alt></extensions></trkpt>
   <trkpt lat="59.3813976713" lon="34.7157259692"><ele>179.146</ele><time>2026-08-15T19:33:37.154Z</time><hdop>3.0</hdop><vdop>1.5</vdop><extensions><gom:speed>0.954</gom:speed><gom:rel_alt>15.562</gom:rel_alt></extensions></trkpt>
   <trkpt lat="59.3814532853" lon="34.7158738259"><ele>178.373</ele><time>2026-08-15T19:33:44.991Z</time><hdop>3.0</hdop><vdop>1.312</vdop><extensions><gom:speed>0.955</gom:speed><gom:rel_alt>14.889</gom:rel_alt></extensions></trkpt>
   <trkpt lat="59.3815138864" lon="34.7160079364"><ele>177.986</ele><time>2026-08-15T19:35:57.352Z</time><hdop>3.375</hdop><vdop>1.5</vdop><extensions><gom:speed>0.908</gom:speed><gom:rel_alt>14.387</gom:rel_alt></extensions></trkpt>
   <trkpt lat="59.3815254954" lon="34.7161848784"><ele>176.893</ele><time>2026-08-15T19:36:07.953Z</time><hdop>3.0</hdop><vdop>1.375</vdop><extensions><gom:speed>1.042</gom:speed><gom:rel_alt>14.011</gom:rel_alt></extensions></trkpt>
   <trkpt lat="59.3815135931" lon="34.7163639996"><ele>176.067</ele><time>2026-08-15T19:36:20.171Z</time><hdop>3.0</hdop><vdop>1.625</vdop><extensions><gom:speed>0.862</gom:speed><gom:rel_alt>13.295</gom:rel_alt></extensions></trkpt>
   <trkpt lat="59.381466361" lon="34.7165150415"><ele>175.294</ele><time>2026-08-15T19:36:44.502Z</time><hdop>3.0</hdop><vdop>1.375</vdop><extensions><gom:speed>0.913</gom:speed><gom:rel_alt>13.335</gom:rel_alt></extensions></trkpt>
   <trkpt lat="59.3814267985" lon="34.7166865353"><ele>176.513</ele><time>2026-08-15T19:37:00.503Z</time><hdop>3.0</hdop><vdop>1.375</vdop><extensions><gom:speed>0.75</gom:speed><gom:rel_alt>13.364</gom:rel_alt></extensions></trkpt>
   <trkpt lat="59.3813946958" lon="34.7168588672"><ele>175.347</ele><time>2026-08-15T19:37:15.050Z</time><hdop>3.0</hdop><vdop>1.437</vdop><extensions><gom:speed>0.787</gom:speed><gom:rel_alt>13.692</gom:rel_alt></extensions></trkpt>
   <trkpt lat="59.3814096994" lon="34.7170391619"><ele>176.744</ele><time>2026-08-15T19:37:30.305Z</time><hdop>3.0</hdop><vdop>1.375</vdop><extensions><gom:speed>0.855</gom:speed><gom:rel_alt>13.443</gom:rel_alt></extensions></trkpt>
   <trkpt lat="59.3814265889" lon="34.7172186185"><ele>175.251</ele><time>2026-08-15T19:37:42.502Z</time><hdop>3.0</hdop><vdop>1.437</vdop><extensions><gom:speed>0.848</gom:speed><gom:rel_alt>13.832</gom:rel_alt></extensions></trkpt>
   <trkpt lat="59.3814269661" lon="34.7174036909"><ele>175.357</ele><time>2026-08-15T19:37:51.965Z</time><hdop>3.0</hdop><vdop>1.562</vdop><extensions><gom:speed>0.96</gom:speed><gom:rel_alt>13.451</gom:rel_alt></extensions></trkpt>
   <trkpt lat="59.3814462864" lon="34.7175848238"><ele>175.464</ele><time>2026-08-15T19:38:01.503Z</time><hdop>3.0</hdop><vdop>1.375</vdop><extensions><gom:speed>1.069</gom:speed><gom:rel_alt>14.019</gom:rel_alt></extensions></trkpt>
   <trkpt lat="59.3814464959" lon="34.7177633584"><ele>175.416</ele><time>2026-08-15T19:38:11.030Z</time><hdop>3.0</hdop><vdop>1.375</vdop><extensions><gom:speed>1.068</gom:speed><gom:rel_alt>13.388</gom:rel_alt></extensions></trkpt>
   <trkpt lat="59.381420973" lon="34.7179440722"><ele>174.625</ele><time>2026-08-15T19:38:20.947Z</time><hdop>3.0</hdop><vdop>1.562</vdop><extensions><gom:speed>1.102</gom:speed><gom:rel_alt>12.101</gom:rel_alt></extensions></trkpt>
   <trkpt lat="59.3813600785" lon="34.7180764225"><ele>174.86</ele><time>2026-08-15T19:38:28.024Z</time><hdop>3.0</hdop><vdop>1.375</vdop><extensions><gom:speed>1.087</gom:speed><gom:rel_alt>12.508</gom:rel_alt></extensions></trkpt>
   <trkpt lat="59.3814065981" lon="34.7182366845"><ele>172.797</ele><time>2026-08-15T19:38:40.907Z</time><hdop>3.0</hdop><vdop>1.437</vdop><extensions><gom:speed>0.842</gom:speed><gom:rel_alt>11.729</gom:rel_alt></extensions></trkpt>
   <trkpt lat="59.381407562" lon="34.7184157219"><ele>173.463</ele><time>2026-08-15T19:38:52.030Z</time><hdop>3.0</hdop><vdop>1.437</vdop><extensions><gom:speed>0.866</gom:speed><gom:rel_alt>11.755</gom:rel_alt></extensions></trkpt>
   <trkpt lat="59.3813869844" lon="34.7185956814"><ele>173.004</ele><time>2026-08-15T19:39:01.329Z</time><hdop>3.0</hdop><vdop>1.562</vdop><extensions><gom:speed>1.024</gom:speed><gom:rel_alt>12.643</gom:rel_alt></extensions></trkpt>
   <trkpt lat="59.3813875711" lon="34.718774635"><ele>172.984</ele><time>2026-08-15T19:39:12.206Z</time><hdop>3.0</hdop><vdop>1.5</vdop><extensions><gom:speed>0.983</gom:speed><gom:rel_alt>12.439</gom:rel_alt></extensions></trkpt>
   <trkpt lat="59.3814284748" lon="34.7189392556"><ele>174.799</ele><time>2026-08-15T19:39:49.407Z</time><hdop>3.0</hdop><vdop>1.5</vdop><extensions><gom:speed>0.948</gom:speed><gom:rel_alt>12.791</gom:rel_alt></extensions></trkpt>
   <trkpt lat="59.3813398781" lon="34.7190101665"><ele>174.66</ele><time>2026-08-15T19:39:58.504Z</time><hdop>3.0</hdop><vdop>1.5</vdop><extensions><gom:speed>0.799</gom:speed><gom:rel_alt>13.298</gom:rel_alt></extensions></trkpt>
   <trkpt lat="59.3812456655" lon="34.7190384973"><ele>175.51</ele><time>2026-08-15T19:40:06.970Z</time><hdop>3.0</hdop><vdop>1.375</vdop><extensions><gom:speed>0.891</gom:speed><gom:rel_alt>13.314</gom:rel_alt></extensions></trkpt>
   <trkpt lat="59.3811779817" lon="34.7189080749"><ele>176.467</ele><time>2026-08-15T19:40:18.503Z</time><hdop>3.0</hdop><vdop>1.5</vdop><extensions><gom:speed>0.981</gom:speed><gom:rel_alt>13.62</gom:rel_alt></extensions></trkpt>
   <trkpt lat="59.3810877924" lon="34.7189100866"><ele>176.282</ele><time>2026-08-15T19:40:31.289Z</time><hdop>3.0</hdop><vdop>1.375</vdop><extensions><gom:speed>0.743</gom:speed><gom:rel_alt>13.586</gom:rel_alt></extensions></trkpt>
   <trkpt lat="59.381005063" lon="34.7188199811"><ele>177.105</ele><time>2026-08-15T19:40:49.071Z</time><hdop>3.0</hdop><vdop>1.625</vdop><extensions><gom:speed>0.765</gom:speed><gom:rel_alt>12.685</gom:rel_alt></extensions></trkpt>
   <trkpt lat="59.380992071" lon="34.7186428715"><ele>179.719</ele><time>2026-08-15T19:57:58.504Z</time><hdop>3.75</hdop><vdop>1.375</vdop><extensions><gom:speed>0.509</gom:speed><gom:rel_alt>12.138</gom:rel_alt></extensions></trkpt>
   <trkpt lat="59.3809027619" lon="34.7185867965"><ele>179.161</ele><time>2026-08-15T19:58:13.505Z</time><hdop>3.75</hdop><vdop>1.312</vdop><extensions><gom:speed>0.779</gom:speed><gom:rel_alt>12.254</gom:rel_alt></extensions></trkpt>
   <trkpt lat="59.3808353714" lon="34.7184583858"><ele>179.261</ele><time>2026-08-15T19:58:24.504Z</time><hdop>3.75</hdop><vdop>1.375</vdop><extensions><gom:speed>0.829</gom:speed><gom:rel_alt>13.245</gom:rel_alt></extensions></trkpt>
   <trkpt lat="59.3807610658" lon="34.7183510974"><ele>180.206</ele><time>2026-08-15T19:58:34.504Z</time><hdop>3.062</hdop><vdop>1.375</vdop><extensions><gom:speed>0.935</gom:speed><gom:rel_alt>12.445</gom:rel_alt></extensions></trkpt>
   <trkpt lat="59.3806929628" lon="34.7182287216"><ele>179.135</ele><time>2026-08-15T19:58:44.505Z</time><hdop>3.0</hdop><vdop>1.375</vdop><extensions><gom:speed>1.027</gom:speed><gom:rel_alt>12.268</gom:rel_alt></extensions></trkpt>
   <trkpt lat="59.3806334932" lon="34.7180918452"><ele>179.28</ele><time>2026-08-15T19:58:54.749Z</time><hdop>3.0</hdop><vdop>1.312</vdop><extensions><gom:speed>0.908</gom:speed><gom:rel_alt>12.204</gom:rel_alt></extensions></trkpt>
   <trkpt lat="59.3805776698" lon="34.7179400489"><ele>179.45</ele><time>2026-08-15T19:59:05.446Z</time><hdop>3.0</hdop><vdop>1.312</vdop><extensions><gom:speed>0.952</gom:speed><gom:rel_alt>12.175</gom:rel_alt></extensions></trkpt>
   <trkpt lat="59.3805329942" lon="34.7177834749"><ele>178.668</ele><time>2026-08-15T19:59:15.504Z</time><hdop>3.0</hdop><vdop>1.375</vdop><extensions><gom:speed>0.97</gom:speed><gom:rel_alt>12.624</gom:rel_alt></extensions></trkpt>
   <trkpt lat="59.3804698785" lon="34.7176494483"><ele>179.197</ele><time>2026-08-15T19:59:27.087Z</time><hdop>3.0</hdop><vdop>1.312</vdop><extensions><gom:speed>0.963</gom:speed><gom:rel_alt>12.196</gom:rel_alt></extensions></trkpt>
   <trkpt lat="59.3804152704" lon="34.717506034"><ele>178.982</ele><time>2026-08-15T19:59:38.012Z</time><hdop>3.0</hdop><vdop>1.375</vdop><extensions><gom:speed>1.012</gom:speed><gom:rel_alt>11.655</gom:rel_alt></extensions></trkpt>
   <trkpt lat="59.3803618777" lon="34.7173535671"><ele>176.969</ele><time>2026-08-15T19:59:48.015Z</time><hdop>3.0</hdop><vdop>1.375</vdop><extensions><gom:speed>1.025</gom:speed><gom:rel_alt>10.508</gom:rel_alt></extensions></trkpt>
   <trkpt lat="59.380386269" lon="34.7171728533"><ele>177.945</ele><time>2026-08-15T19:59:57.713Z</time><hdop>3.0</hdop><vdop>1.312</vdop><extensions><gom:speed>1.048</gom:speed><gom:rel_alt>10.917</gom:rel_alt></extensions></trkpt>
   <trkpt lat="59.3803229856" lon="34.7170434367"><ele>177.911</ele><time>2026-08-15T20:00:09.008Z</time><hdop>3.0</hdop><vdop>1.312</vdop><extensions><gom:speed>0.949</gom:speed><gom:rel_alt>9.81</gom:rel_alt></extensions></trkpt>
   <trkpt lat="59.3803025757" lon="34.7168618847"><ele>177.06</ele><time>2026-08-15T20:00:19.504Z</time><hdop>3.0</hdop><vdop>1.375</vdop><extensions><gom:speed>0.886</gom:speed><gom:rel_alt>10.561</gom:rel_alt></extensions></trkpt>
   <trkpt lat="59.3803060961" lon="34.7166735433"><ele>177.506</ele><time>2026-08-15T20:02:27.505Z</time><hdop>3.375</hdop><vdop>1.375</vdop><extensions><gom:speed>1.048</gom:speed><gom:rel_alt>10.524</gom:rel_alt></extensions></trkpt>
   <trkpt lat="59.3802712693" lon="34.7164972719"><ele>176.935</ele><time>2026-08-15T20:02:39.511Z</time><hdop>3.0</hdop><vdop>1.375</vdop><extensions><gom:speed>0.943</gom:speed><gom:rel_alt>10.378</gom:rel_alt></extensions></trkpt>
   <trkpt lat="59.3802212712" lon="34.7163438831"><ele>174.892</ele><time>2026-08-15T20:02:57.506Z</time><hdop>3.0</hdop><vdop>1.375</vdop><extensions><gom:speed>0.855</gom:speed><gom:rel_alt>9.147</gom:rel_alt></extensions></trkpt>
   <trkpt lat="59.3802567686" lon="34.7161672764"><ele>174.649</ele><time>2026-08-15T20:03:10.812Z</time><hdop>3.0</hdop><vdop>1.375</vdop><extensions><gom:speed>1.216</gom:speed><gom:rel_alt>8.722</gom:rel_alt></extensions></trkpt>
   <trkpt lat="59.3803012765" lon="34.7160136361"><ele>174.743</ele><time>2026-08-15T20:03:25.888Z</time><hdop>3.0</hdop><vdop>1.375</vdop><extensions><gom:speed>0.164</gom:speed><gom:rel_alt>8.938</gom:rel_alt></extensions></trkpt>
   <trkpt lat="59.3802233667" lon="34.7158976306"><ele>174.362</ele><time>2026-08-15T20:03:35.291Z</time><hdop>3.0</hdop><vdop>1.375</vdop><extensions><gom:speed>1.091</gom:speed><gom:rel_alt>8.854</gom:rel_alt></extensions></trkpt>
   <trkpt lat="59.3801315849" lon="34.7159286436"><ele>174.478</ele><time>2026-08-15T20:03:48.410Z</time><hdop>3.0</hdop><vdop>1.312</vdop><extensions><gom:speed>0.967</gom:speed><gom:rel_alt>8.978</gom:rel_alt></extensions></trkpt>
   <trkpt lat="59.3801146953" lon="34.7157520369"><ele>174.902</ele><time>2026-08-15T20:04:05.889Z</time><hdop>3.0</hdop><vdop>1.375</vdop><extensions><gom:speed>1.045</gom:speed><gom:rel_alt>9.353</gom:rel_alt></extensions></trkpt>
   <trkpt lat="59.3801503603" lon="34.7155797888"><ele>174.302</ele><time>2026-08-15T20:04:17.175Z</time><hdop>3.0</hdop><vdop>1.312</vdop><extensions><gom:speed>0.949</gom:speed><gom:rel_alt>9.337</gom:rel_alt></extensions></trkpt>
   <trkpt lat="59.3802019929" lon="34.7154321835"><ele>174.654</ele><time>2026-08-15T20:04:29.952Z</time><hdop>3.0</hdop><vdop>1.312</vdop><extensions><gom:speed>1.006</gom:speed><gom:rel_alt>9.837</gom:rel_alt></extensions></trkpt>
   <trkpt lat="59.3801576945" lon="34.7152720891"><ele>173.985</ele><time>2026-08-15T20:04:48.408Z</time><hdop>3.0</hdop><vdop>1.312</vdop><extensions><gom:speed>0.865</gom:speed><gom:rel_alt>9.908</gom:rel_alt></extensions></trkpt>
   <trkpt lat="59.3801910964" lon="34.7150960692"><ele>174.027</ele><time>2026-08-15T20:04:56.748Z</time><hdop>3.0</hdop><vdop>1.375</vdop><extensions><gom:speed>1.181</gom:speed><gom:rel_alt>9.195</gom:rel_alt></extensions></trkpt>
   <trkpt lat="59.3802612948" lon="34.714982662"><ele>174.032</ele><time>2026-08-15T20:05:13.988Z</time><hdop>3.0</hdop><vdop>1.312</vdop><extensions><gom:speed>0.695</gom:speed><gom:rel_alt>9.76</gom:rel_alt></extensions></trkpt>
   <trkpt lat="59.3802564752" lon="34.714804798"><ele>174.056</ele><time>2026-08-15T20:05:29.511Z</time><hdop>3.0</hdop><vdop>1.312</vdop><extensions><gom:speed>0.676</gom:speed><gom:rel_alt>9.977</gom:rel_alt></extensions></trkpt>
   <trkpt lat="59.3801845585" lon="34.7146886248"><ele>173.927</ele><time>2026-08-15T20:05:45.972Z</time><hdop>3.0</hdop><vdop>1.312</vdop><extensions><gom:speed>0.974</gom:speed><gom:rel_alt>9.971</gom:rel_alt></extensions></trkpt>
   <trkpt lat="59.3802494763" lon="34.7145332244"><ele>173.745</ele><time>2026-08-15T20:08:00.368Z</time><hdop>3.25</hdop><vdop>1.375</vdop><extensions><gom:speed>1.024</gom:speed><gom:rel_alt>10.553</gom:rel_alt></extensions></trkpt>
   <trkpt lat="59.3802680842" lon="34.7143602219"><ele>173.167</ele><time>2026-08-15T20:08:10.507Z</time><hdop>3.0</hdop><vdop>1.375</vdop><extensions><gom:speed>0.906</gom:speed><gom:rel_alt>10.37</gom:rel_alt></extensions></trkpt>
   <trkpt lat="59.380319591" lon="34.7142132871"><ele>173.067</ele><time>2026-08-15T20:08:21.009Z</time><hdop>3.0</hdop><vdop>1.375</vdop><extensions><gom:speed>1.102</gom:speed><gom:rel_alt>11.293</gom:rel_alt></extensions></trkpt>
   <trkpt lat="59.3802637675" lon="34.7140657656"><ele>174.084</ele><time>2026-08-15T20:08:34.071Z</time><hdop>3.0</hdop><vdop>1.437</vdop><extensions><gom:speed>0.847</gom:speed><gom:rel_alt>11.427</gom:rel_alt></extensions></trkpt>
   <trkpt lat="59.3801769729" lon="34.7140130434"><ele>174.093</ele><time>2026-08-15T20:08:43.447Z</time><hdop>3.0</hdop><vdop>1.375</vdop><extensions><gom:speed>1.057</gom:speed><gom:rel_alt>11.38</gom:rel_alt></extensions></trkpt>
   <trkpt lat="59.3801440739" lon="34.7138424717"><ele>174.352</ele><time>2026-08-15T20:08:55.472Z</time><hdop>3.0</hdop><vdop>1.437</vdop><extensions><gom:speed>1.024</gom:speed><gom:rel_alt>11.789</gom:rel_alt></extensions></trkpt>
   <trkpt lat="59.380110672" lon="34.7136748336"><ele>174.341</ele><time>2026-08-15T20:09:06.507Z</time><hdop>3.0</hdop><vdop>1.437</vdop><extensions><gom:speed>0.901</gom:speed><gom:rel_alt>12.019</gom:rel_alt></extensions></trkpt>
   <trkpt lat="59.3800690978" lon="34.7135071956"><ele>174.142</ele><time>2026-08-15T20:09:18.506Z</time><hdop>3.0</hdop><vdop>1.375</vdop><extensions><gom:speed>0.92</gom:speed><gom:rel_alt>12.067</gom:rel_alt></extensions></trkpt>
   <trkpt lat="59.3800029646" lon="34.7133833949"><ele>174.491</ele><time>2026-08-15T20:09:28.966Z</time><hdop>3.0</hdop><vdop>1.437</vdop><extensions><gom:speed>1.047</gom:speed><gom:rel_alt>11.504</gom:rel_alt></extensions></trkpt>
   <trkpt lat="59.3799896792" lon="34.7132083807"><ele>173.195</ele><time>2026-08-15T20:09:42.506Z</time><hdop>3.0</hdop><vdop>1.312</vdop><extensions><gom:speed>0.788</gom:speed><gom:rel_alt>11.795</gom:rel_alt></extensions></trkpt>
   <trkpt lat="59.3799826804" lon="34.7130258229"><ele>173.464</ele><time>2026-08-15T20:09:56.333Z</time><hdop>3.0</hdop><vdop>1.437</vdop><extensions><gom:speed>0.902</gom:speed><gom:rel_alt>11.221</gom:rel_alt></extensions></trkpt>
   <trkpt lat="59.3799337719" lon="34.7128742781"><ele>172.96</ele><time>2026-08-15T20:10:09.222Z</time><hdop>3.0</hdop><vdop>1.375</vdop><extensions><gom:speed>1.146</gom:speed><gom:rel_alt>10.656</gom:rel_alt></extensions></trkpt>
   <trkpt lat="59.3799411899" lon="34.7126912173"><ele>172.205</ele><time>2026-08-15T20:10:47.770Z</time><hdop>3.0</hdop><vdop>1.375</vdop><extensions><gom:speed>0.911</gom:speed><gom:rel_alt>10.283</gom:rel_alt></extensions></trkpt>
   <trkpt lat="59.3799076623" lon="34.712525088"><ele>170.554</ele><time>2026-08-15T20:11:41.506Z</time><hdop>3.0</hdop><vdop>1.312</vdop><extensions><gom:speed>0.779</gom:speed><gom:rel_alt>9.89</gom:rel_alt></extensions></trkpt>
   <trkpt lat="59.3799200675" lon="34.7123421949"><ele>171.429</ele><time>2026-08-15T20:11:55.287Z</time><hdop>3.0</hdop><vdop>1.375</vdop><extensions><gom:speed>0.801</gom:speed><gom:rel_alt>9.535</gom:rel_alt></extensions></trkpt>
   <trkpt lat="59.3799510806" lon="34.7121710364"><ele>170.066</ele><time>2026-08-15T20:12:09.868Z</time><hdop>3.0</hdop><vdop>1.312</vdop><extensions><gom:speed>0.862</gom:speed><gom:rel_alt>9.789</gom:rel_alt></extensions></trkpt>
   <trkpt lat="59.3800068621" lon="34.7120247722"><ele>171.482</ele><time>2026-08-15T20:12:26.507Z</time><hdop>3.0</hdop><vdop>1.437</vdop><extensions><gom:speed>0.829</gom:speed><gom:rel_alt>10.447</gom:rel_alt></extensions></trkpt>
   <trkpt lat="59.3800705646" lon="34.7118896559"><ele>171.127</ele><time>2026-08-15T20:12:39.171Z</time><hdop>3.0</hdop><vdop>1.375</vdop><extensions><gom:speed>0.805</gom:speed><gom:rel_alt>10.579</gom:rel_alt></extensions></trkpt>
   <trkpt lat="59.3801343928" lon="34.7117621672"><ele>170.598</ele><time>2026-08-15T20:16:36.489Z</time><hdop>3.125</hdop><vdop>1.312</vdop><extensions><gom:speed>0.94</gom:speed><gom:rel_alt>10.106</gom:rel_alt></extensions></trkpt>
   <trkpt lat="59.3802274738" lon="34.7117345907"><ele>170.812</ele><time>2026-08-15T20:17:03.507Z</time><hdop>3.0</hdop><vdop>1.312</vdop><extensions><gom:speed>0.726</gom:speed><gom:rel_alt>10.067</gom:rel_alt></extensions></trkpt>
   <trkpt lat="59.3803188785" lon="34.7116829582"><ele>170.919</ele><time>2026-08-15T20:17:14.308Z</time><hdop>3.0</hdop><vdop>1.312</vdop><extensions><gom:speed>0.926</gom:speed><gom:rel_alt>10.325</gom:rel_alt></extensions></trkpt>
   <trkpt lat="59.3803840897" lon="34.7115566429"><ele>170.922</ele><time>2026-08-15T20:17:24.208Z</time><hdop>3.0</hdop><vdop>1.312</vdop><extensions><gom:speed>1.046</gom:speed><gom:rel_alt>9.958</gom:rel_alt></extensions></trkpt>
   <trkpt lat="59.3804388654" lon="34.7114139829"><ele>171.894</ele><time>2026-08-15T20:17:35.892Z</time><hdop>3.0</hdop><vdop>1.375</vdop><extensions><gom:speed>0.945</gom:speed><gom:rel_alt>12.101</gom:rel_alt></extensions></trkpt>
   <trkpt lat="59.3804901627" lon="34.7112619352"><ele>172.675</ele><time>2026-08-15T20:17:50.446Z</time><hdop>3.0</hdop><vdop>1.312</vdop><extensions><gom:speed>0.897</gom:speed><gom:rel_alt>11.552</gom:rel_alt></extensions></trkpt>
   <trkpt lat="59.3804611613" lon="34.7110893518"><ele>173.324</ele><time>2026-08-15T20:18:00.507Z</time><hdop>3.0</hdop><vdop>1.312</vdop><extensions><gom:speed>0.912</gom:speed><gom:rel_alt>12.902</gom:rel_alt></extensions></trkpt>
   <trkpt lat="59.3805401607" lon="34.7109992463"><ele>173.481</ele><time>2026-08-15T20:18:09.209Z</time><hdop>3.0</hdop><vdop>1.312</vdop><extensions><gom:speed>1.097</gom:speed><gom:rel_alt>13.348</gom:rel_alt></extensions></trkpt>
   <trkpt lat="59.380588189" lon="34.710836386"><ele>173.339</ele><time>2026-08-15T20:18:21.506Z</time><hdop>3.0</hdop><vdop>1.312</vdop><extensions><gom:speed>0.957</gom:speed><gom:rel_alt>13.401</gom:rel_alt></extensions></trkpt>
   <trkpt lat="59.3806352953" lon="34.7106716816"><ele>173.585</ele><time>2026-08-15T20:18:31.449Z</time><hdop>3.0</hdop><vdop>1.312</vdop><extensions><gom:speed>0.905</gom:speed><gom:rel_alt>12.92</gom:rel_alt></extensions></trkpt>
   <trkpt lat="59.3807157616" lon="34.7105860185"><ele>172.927</ele><time>2026-08-15T20:18:52.047Z</time><hdop>3.0</hdop><vdop>1.375</vdop><extensions><gom:speed>0.883</gom:speed><gom:rel_alt>11.729</gom:rel_alt></extensions></trkpt>
   <trkpt lat="59.3807890613" lon="34.7104689233"><ele>172.995</ele><time>2026-08-15T20:19:04.330Z</time><hdop>3.0</hdop><vdop>1.312</vdop><extensions><gom:speed>0.99</gom:speed><gom:rel_alt>12.019</gom:rel_alt></extensions></trkpt>
   <trkpt lat="59.3808785801" lon="34.7104126808"><ele>173.051</ele><time>2026-08-15T20:19:17.506Z</time><hdop>3.0</hdop><vdop>1.375</vdop><extensions><gom:speed>0.94</gom:speed><gom:rel_alt>12.088</gom:rel_alt></extensions></trkpt>
   <trkpt lat="59.3809594654" lon="34.7103104215"><ele>173.308</ele><time>2026-08-15T20:19:28.270Z</time><hdop>3.0</hdop><vdop>1.312</vdop><extensions><gom:speed>0.925</gom:speed><gom:rel_alt>12.128</gom:rel_alt></extensions></trkpt>
   <trkpt lat="59.381036076" lon="34.7101969306"><ele>172.927</ele><time>2026-08-15T20:21:59.085Z</time><hdop>6.812</hdop><vdop>1.312</vdop><extensions><gom:speed>0.884</gom:speed><gom:rel_alt>12.112</gom:rel_alt></extensions></trkpt>
   <trkpt lat="59.3810837691" lon="34.7100408595"><ele>172.364</ele><time>2026-08-15T20:22:11.095Z</time><hdop>3.0</hdop><vdop>1.375</vdop><extensions><gom:speed>1.025</gom:speed><gom:rel_alt>11.763</gom:rel_alt></extensions></trkpt>
   <trkpt lat="59.3810848587" lon="34.7098603972"><ele>172.11</ele><time>2026-08-15T20:22:19.428Z</time><hdop>3.0</hdop><vdop>1.312</vdop><extensions><gom:speed>1.012</gom:speed><gom:rel_alt>12.64</gom:rel_alt></extensions></trkpt>
   <trkpt lat="59.3810471821" lon="34.7096965309"><ele>172.015</ele><time>2026-08-15T20:22:27.807Z</time><hdop>3.0</hdop><vdop>1.375</vdop><extensions><gom:speed>1.075</gom:speed><gom:rel_alt>11.525</gom:rel_alt></extensions></trkpt>
   <trkpt lat="59.3810324718" lon="34.7095222712"><ele>171.488</ele><time>2026-08-15T20:22:36.272Z</time><hdop>3.0</hdop><vdop>1.375</vdop><extensions><gom:speed>1.092</gom:speed><gom:rel_alt>11.501</gom:rel_alt></extensions></trkpt>
   <trkpt lat="59.381014786" lon="34.7093471732"><ele>171.306</ele><time>2026-08-15T20:22:45.412Z</time><hdop>3.0</hdop><vdop>1.437</vdop><extensions><gom:speed>0.997</gom:speed><gom:rel_alt>11.446</gom:rel_alt></extensions></trkpt>
   <trkpt lat="59.3809887602" lon="34.7091704827"><ele>171.558</ele><time>2026-08-15T20:22:53.953Z</time><hdop>3.0</hdop><vdop>1.437</vdop><extensions><gom:speed>0.951</gom:speed><gom:rel_alt>10.656</gom:rel_alt></extensions></trkpt>
   <trkpt lat="59.3809162986" lon="34.7090617694"><ele>171.239</ele><time>2026-08-15T20:23:05.507Z</time><hdop>3.0</hdop><vdop>1.375</vdop><extensions><gom:speed>0.878</gom:speed><gom:rel_alt>11.314</gom:rel_alt></extensions></trkpt>
   <trkpt lat="59.3808851599" lon="34.7088955563"><ele>171.944</ele><time>2026-08-15T20:23:19.234Z</time><hdop>3.0</hdop><vdop>1.375</vdop><extensions><gom:speed>0.919</gom:speed><gom:rel_alt>11.142</gom:rel_alt></extensions></trkpt>
   <trkpt lat="59.3809066594" lon="34.7087137528"><ele>172.094</ele><time>2026-08-15T20:23:31.148Z</time><hdop>3.0</hdop><vdop>1.375</vdop><extensions><gom:speed>0.912</gom:speed><gom:rel_alt>11.694</gom:rel_alt></extensions></trkpt>
   <trkpt lat="59.3808760655" lon="34.7085435163"><ele>171.865</ele><time>2026-08-15T20:23:43.945Z</time><hdop>3.0</hdop><vdop>1.5</vdop><extensions><gom:speed>0.934</gom:speed><gom:rel_alt>10.796</gom:rel_alt></extensions></trkpt>
   <trkpt lat="59.3808925779" lon="34.7083686698"><ele>171.621</ele><time>2026-08-15T20:23:55.888Z</time><hdop>3.0</hdop><vdop>1.375</vdop><extensions><gom:speed>1.005</gom:speed><gom:rel_alt>10.23</gom:rel_alt></extensions></trkpt>
   <trkpt lat="59.3809158795" lon="34.7081837651"><ele>171.208</ele><time>2026-08-15T20:24:47.932Z</time><hdop>3.062</hdop><vdop>1.437</vdop><extensions><gom:speed>0.812</gom:speed><gom:rel_alt>10.088</gom:rel_alt></extensions></trkpt>
   <trkpt lat="59.3809407738" lon="34.7080093377"><ele>170.742</ele><time>2026-08-15T20:24:58.991Z</time><hdop>3.0</hdop><vdop>1.375</vdop><extensions><gom:speed>0.851</gom:speed><gom:rel_alt>7.979</gom:rel_alt></extensions></trkpt>
   <trkpt lat="59.3808896861" lon="34.7078529313"><ele>170.204</ele><time>2026-08-15T20:25:11.931Z</time><hdop>3.0</hdop><vdop>1.562</vdop><extensions><gom:speed>0.89</gom:speed><gom:rel_alt>9.71</gom:rel_alt></extensions></trkpt>
   <trkpt lat="59.3809427855" lon="34.7077075891"><ele>171.284</ele><time>2026-08-15T20:27:21.508Z</time><hdop>3.312</hdop><vdop>1.437</vdop><extensions><gom:speed>0.661</gom:speed><gom:rel_alt>9.599</gom:rel_alt></extensions></trkpt>
   <trkpt lat="59.3810007882" lon="34.7075651806"><ele>170.814</ele><time>2026-08-15T20:27:32.288Z</time><hdop>3.0</hdop><vdop>1.5</vdop><extensions><gom:speed>0.765</gom:speed><gom:rel_alt>9.173</gom:rel_alt></extensions></trkpt>
   <trkpt lat="59.3810175939" lon="34.7073898312"><ele>171.134</ele><time>2026-08-15T20:27:43.431Z</time><hdop>3.0</hdop><vdop>1.5</vdop><extensions><gom:speed>0.978</gom:speed><gom:rel_alt>9.517</gom:rel_alt></extensions></trkpt>
   <trkpt lat="59.3810246766" lon="34.7072093688"><ele>171.379</ele><time>2026-08-15T20:27:55.773Z</time><hdop>3.0</hdop><vdop>1.437</vdop><extensions><gom:speed>0.89</gom:speed><gom:rel_alt>8.656</gom:rel_alt></extensions></trkpt>
   <trkpt lat="59.3809581662" lon="34.7070811257"><ele>172.753</ele><time>2026-08-15T20:28:10.871Z</time><hdop>3.0</hdop><vdop>1.437</vdop><extensions><gom:speed>0.885</gom:speed><gom:rel_alt>10.056</gom:rel_alt></extensions></trkpt>
   <trkpt lat="59.3808884707" lon="34.7069646172"><ele>172.375</ele><time>2026-08-15T20:28:22.489Z</time><hdop>3.0</hdop><vdop>1.375</vdop><extensions><gom:speed>0.986</gom:speed><gom:rel_alt>11.647</gom:rel_alt></extensions></trkpt>
   <trkpt lat="59.3808142909" lon="34.7068615198"><ele>173.275</ele><time>2026-08-15T20:28:35.012Z</time><hdop>3.0</hdop><vdop>1.437</vdop><extensions><gom:speed>0.799</gom:speed><gom:rel_alt>11.126</gom:rel_alt></extensions></trkpt>
   <trkpt lat="59.3807850799" lon="34.7066865895"><ele>173.594</ele><time>2026-08-15T20:28:46.974Z</time><hdop>3.0</hdop><vdop>1.437</vdop><extensions><gom:speed>0.938</gom:speed><gom:rel_alt>11.06</gom:rel_alt></extensions></trkpt>
   <trkpt lat="59.3808057832" lon="34.7065075521"><ele>173.262</ele><time>2026-08-15T20:28:59.508Z</time><hdop>3.0</hdop><vdop>1.437</vdop><extensions><gom:speed>0.786</gom:speed><gom:rel_alt>11.253</gom:rel_alt></extensions></trkpt>
   <trkpt lat="59.3808678931" lon="34.7063747827"><ele>173.435</ele><time>2026-08-15T20:29:09.691Z</time><hdop>3.0</hdop><vdop>1.5</vdop><extensions><gom:speed>0.959</gom:speed><gom:rel_alt>11.382</gom:rel_alt></extensions></trkpt>
   <trkpt lat="59.3809113952" lon="34.7062067256"><ele>173.278</ele><time>2026-08-15T20:29:20.507Z</time><hdop>3.0</hdop><vdop>1.437</vdop><extensions><gom:speed>0.957</gom:speed><gom:rel_alt>11.298</gom:rel_alt></extensions></trkpt>
   <trkpt lat="59.3809691884" lon="34.7060600423"><ele>173.558</ele><time>2026-08-15T20:29:32.132Z</time><hdop>3.0</hdop><vdop>1.437</vdop><extensions><gom:speed>0.907</gom:speed><gom:rel_alt>11.322</gom:rel_alt></extensions></trkpt>
   <trkpt lat="59.3809882992" lon="34.7058865369"><ele>173.621</ele><time>2026-08-15T20:29:44.872Z</time><hdop>3.0</hdop><vdop>1.437</vdop><extensions><gom:speed>1.028</gom:speed><gom:rel_alt>10.809</gom:rel_alt></extensions></trkpt>
   <trkpt lat="59.3810229584" lon="34.7057225868"><ele>173.556</ele><time>2026-08-15T20:29:56.073Z</time><hdop>3.0</hdop><vdop>1.375</vdop><extensions><gom:speed>0.956</gom:speed><gom:rel_alt>10.495</gom:rel_alt></extensions></trkpt>
   <trkpt lat="59.3809854912" lon="34.7055616543"><ele>173.153</ele><time>2026-08-15T20:30:07.749Z</time><hdop>3.0</hdop><vdop>1.5</vdop><extensions><gom:speed>0.896</gom:speed><gom:rel_alt>10.497</gom:rel_alt></extensions></trkpt>
   <trkpt lat="59.3810004949" lon="34.7053822816"><ele>171.795</ele><time>2026-08-15T20:32:17.508Z</time><hdop>3.25</hdop><vdop>1.5</vdop><extensions><gom:speed>0.798</gom:speed><gom:rel_alt>10.849</gom:rel_alt></extensions></trkpt>
   <trkpt lat="59.3809900594" lon="34.7052001428"><ele>171.964</ele><time>2026-08-15T20:32:29.133Z</time><hdop>3.0</hdop><vdop>1.5</vdop><extensions><gom:speed>0.929</gom:speed><gom:rel_alt>10.772</gom:rel_alt></extensions></trkpt>
   <trkpt lat="59.380983773" lon="34.7050237876"><ele>172.007</ele><time>2026-08-15T20:32:38.508Z</time><hdop>3.0</hdop><vdop>1.5</vdop><extensions><gom:speed>0.92</gom:speed><gom:rel_alt>9.623</gom:rel_alt></extensions></trkpt>
   <trkpt lat="59.3810255987" lon="34.7048564848"><ele>171.141</ele><time>2026-08-15T20:32:50.508Z</time><hdop>3.0</hdop><vdop>1.5</vdop><extensions><gom:speed>0.915</gom:speed><gom:rel_alt>10.064</gom:rel_alt></extensions></trkpt>
   <trkpt lat="59.381021282" lon="34.7046687301"><ele>171.837</ele><time>2026-08-15T20:33:02.509Z</time><hdop>3.0</hdop><vdop>1.437</vdop><extensions><gom:speed>0.927</gom:speed><gom:rel_alt>10.061</gom:rel_alt></extensions></trkpt>
   <trkpt lat="59.3810045601" lon="34.7044938836"><ele>171.136</ele><time>2026-08-15T20:33:15.366Z</time><hdop>3.0</hdop><vdop>1.437</vdop><extensions><gom:speed>0.939</gom:speed><gom:rel_alt>10.053</gom:rel_alt></extensions></trkpt>
   <trkpt lat="59.3810444998" lon="34.7043286763"><ele>171.365</ele><time>2026-08-15T20:33:27.965Z</time><hdop>3.0</hdop><vdop>1.437</vdop><extensions><gom:speed>0.968</gom:speed><gom:rel_alt>8.994</gom:rel_alt></extensions></trkpt>
   <trkpt lat="59.3810547677" lon="34.7041488845"><ele>171.215</ele><time>2026-08-15T20:33:40.509Z</time><hdop>3.0</hdop><vdop>1.375</vdop><extensions><gom:speed>0.962</gom:speed><gom:rel_alt>9.641</gom:rel_alt></extensions></trkpt>
   <trkpt lat="59.381038884" lon="34.7039673325"><ele>171.089</ele><time>2026-08-15T20:33:51.330Z</time><hdop>3.0</hdop><vdop>1.375</vdop><extensions><gom:speed>1.007</gom:speed><gom:rel_alt>9.72</gom:rel_alt></extensions></trkpt>
   <trkpt lat="59.3810299992" lon="34.703787373"><ele>171.205</ele><time>2026-08-15T20:34:02.693Z</time><hdop>3.0</hdop><vdop>1.437</vdop><extensions><gom:speed>0.91</gom:speed><gom:rel_alt>9.115</gom:rel_alt></extensions></trkpt>
   <trkpt lat="59.3810156661" lon="34.7036079165"><ele>170.242</ele><time>2026-08-15T20:34:13.354Z</time><hdop>3.0</hdop><vdop>1.437</vdop><extensions><gom:speed>0.869</gom:speed><gom:rel_alt>9.279</gom:rel_alt></extensions></trkpt>
   <trkpt lat="59.3809548973" lon="34.7034720458"><ele>170.946</ele><time>2026-08-15T20:34:23.508Z</time><hdop>3.0</hdop><vdop>1.437</vdop><extensions><gom:speed>0.94</gom:speed><gom:rel_alt>8.695</gom:rel_alt></extensions></trkpt>
   <trkpt lat="59.3809285781" lon="34.7032983728"><ele>171.085</ele><time>2026-08-15T20:34:34.294Z</time><hdop>3.0</hdop><vdop>1.437</vdop><extensions><gom:speed>0.939</gom:speed><gom:rel_alt>9.345</gom:rel_alt></extensions></trkpt>
   <trkpt lat="59.3809522989" lon="34.7031234425"><ele>171.534</ele><time>2026-08-15T20:36:40.314Z</time><hdop>3.437</hdop><vdop>1.375</vdop><extensions><gom:speed>1.072</gom:speed><gom:rel_alt>9.728</gom:rel_alt></extensions></trkpt>
   <trkpt lat="59.3809161729" lon="34.7029605821"><ele>171.935</ele><time>2026-08-15T20:36:52.248Z</time><hdop>3.0</hdop><vdop>1.312</vdop><extensions><gom:speed>1.08</gom:speed><gom:rel_alt>9.216</gom:rel_alt></extensions></trkpt>
   <trkpt lat="59.3808831901" lon="34.7027924411"><ele>171.615</ele><time>2026-08-15T20:37:03.508Z</time><hdop>3.0</hdop><vdop>1.375</vdop><extensions><gom:speed>0.944</gom:speed><gom:rel_alt>9.48</gom:rel_alt></extensions></trkpt>
   <trkpt lat="59.3809638659" lon="34.7027084545"><ele>171.636</ele><time>2026-08-15T20:37:16.487Z</time><hdop>3.0</hdop><vdop>1.312</vdop><extensions><gom:speed>0.936</gom:speed><gom:rel_alt>9.372</gom:rel_alt></extensions></trkpt>
   <trkpt lat="59.3809650813" lon="34.7025297523"><ele>171.758</ele><time>2026-08-15T20:37:27.072Z</time><hdop>3.0</hdop><vdop>1.375</vdop><extensions><gom:speed>1.007</gom:speed><gom:rel_alt>9.528</gom:rel_alt></extensions></trkpt>
   <trkpt lat="59.3810527979" lon="34.7024875913"><ele>171.319</ele><time>2026-08-15T20:37:38.492Z</time><hdop>3.0</hdop><vdop>1.375</vdop><extensions><gom:speed>0.888</gom:speed><gom:rel_alt>9.15</gom:rel_alt></extensions></trkpt>
   <trkpt lat="59.381108789" lon="34.702345518"><ele>171.378</ele><time>2026-08-15T20:37:48.431Z</time><hdop>3.0</hdop><vdop>1.312</vdop><extensions><gom:speed>0.941</gom:speed><gom:rel_alt>8.764</gom:rel_alt></extensions></trkpt>
   <trkpt lat="59.381119476" lon="34.7021702524"><ele>171.165</ele><time>2026-08-15T20:38:14.507Z</time><hdop>3.0</hdop><vdop>1.312</vdop><extensions><gom:speed>0.648</gom:speed><gom:rel_alt>8.518</gom:rel_alt></extensions></trkpt>
   <trkpt lat="59.3810886725" lon="34.7020042908"><ele>171.199</ele><time>2026-08-15T20:38:30.508Z</time><hdop>3.0</hdop><vdop>1.375</vdop><extensions><gom:speed>0.914</gom:speed><gom:rel_alt>9.372</gom:rel_alt></extensions></trkpt>
   <trkpt lat="59.3811101721" lon="34.7018282708"><ele>171.397</ele><time>2026-08-15T20:38:45.886Z</time><hdop>3.0</hdop><vdop>1.312</vdop><extensions><gom:speed>0.861</gom:speed><gom:rel_alt>8.537</gom:rel_alt></extensions></trkpt>
   <trkpt lat="59.3811349825" lon="34.7016497363"><ele>171.559</ele><time>2026-08-15T20:38:57.866Z</time><hdop>3.0</hdop><vdop>1.375</vdop><extensions><gom:speed>0.967</gom:speed><gom:rel_alt>8.769</gom:rel_alt></extensions></trkpt>
   <trkpt lat="59.381047685" lon="34.7015872911"><ele>171.707</ele><time>2026-08-15T20:39:12.726Z</time><hdop>3.0</hdop><vdop>1.312</vdop><extensions><gom:speed>0.823</gom:speed><gom:rel_alt>9.229</gom:rel_alt></extensions></trkpt>
   <trkpt lat="59.3809792886" lon="34.7014656697"><ele>171.574</ele><time>2026-08-15T20:39:24.508Z</time><hdop>3.0</hdop><vdop>1.375</vdop><extensions><gom:speed>0.943</gom:speed><gom:rel_alt>9.316</gom:rel_alt></extensions></trkpt>
   <trkpt lat="59.3809631954" lon="34.7012861293"><ele>171.136</ele><time>2026-08-15T20:39:33.991Z</time><hdop>3.0</hdop><vdop>1.375</vdop><extensions><gom:speed>0.913</gom:speed><gom:rel_alt>8.796</gom:rel_alt></extensions></trkpt>
   <trkpt lat="59.3808811785" lon="34.7011840377"><ele>171.764</ele><time>2026-08-15T20:39:43.508Z</time><hdop>3.0</hdop><vdop>1.312</vdop><extensions><gom:speed>0.675</gom:speed><gom:rel_alt>9.742</gom:rel_alt></extensions></trkpt>
   <trkpt lat="59.3808154643" lon="34.7010616619"><ele>171.471</ele><time>2026-08-15T20:40:00.291Z</time><hdop>3.0</hdop><vdop>1.375</vdop><extensions><gom:speed>0.926</gom:speed><gom:rel_alt>9.055</gom:rel_alt></extensions></trkpt>
   <trkpt lat="59.3807278735" lon="34.7009946905"><ele>171.657</ele><time>2026-08-15T20:40:10.827Z</time><hdop>3.0</hdop><vdop>1.312</vdop><extensions><gom:speed>1.021</gom:speed><gom:rel_alt>8.484</gom:rel_alt></extensions></trkpt>
   <trkpt lat="59.3806330741" lon="34.7009824529"><ele>171.921</ele><time>2026-08-15T20:40:20.908Z</time><hdop>3.0</hdop><vdop>1.375</vdop><extensions><gom:speed>1.106</gom:speed><gom:rel_alt>9.184</gom:rel_alt></extensions></trkpt>
   <trkpt lat="59.3805416695" lon="34.7009356819"><ele>171.522</ele><time>2026-08-15T20:40:32.071Z</time><hdop>3.0</hdop><vdop>1.312</vdop><extensions><gom:speed>1.061</gom:speed><gom:rel_alt>10.003</gom:rel_alt></extensions></trkpt>
   <trkpt lat="59.3804510611" lon="34.7009105362"><ele>172.286</ele><time>2026-08-15T20:40:43.729Z</time><hdop>3.0</hdop><vdop>1.437</vdop><extensions><gom:speed>1.033</gom:speed><gom:rel_alt>9.779</gom:rel_alt></extensions></trkpt>
   <trkpt lat="59.3803930583" lon="34.7007655293"><ele>171.36</ele><time>2026-08-15T20:40:54.190Z</time><hdop>3.0</hdop><vdop>1.437</vdop><extensions><gom:speed>1.088</gom:speed><gom:rel_alt>9.734</gom:rel_alt></extensions></trkpt>
   <trkpt lat="59.3803187947" lon="34.7006651979"><ele>171.59</ele><time>2026-08-15T20:41:03.226Z</time><hdop>3.0</hdop><vdop>1.375</vdop><extensions><gom:speed>1.04</gom:speed><gom:rel_alt>10.732</gom:rel_alt></extensions></trkpt>
   <trkpt lat="59.3802411782" lon="34.7005615976"><ele>172.808</ele><time>2026-08-15T20:41:13.508Z</time><hdop>3.0</hdop><vdop>1.437</vdop><extensions><gom:speed>1.015</gom:speed><gom:rel_alt>9.953</gom:rel_alt></extensions></trkpt>
   <trkpt lat="59.3801900905" lon="34.700416423"><ele>172.103</ele><time>2026-08-15T20:41:22.508Z</time><hdop>3.0</hdop><vdop>1.437</vdop><extensions><gom:speed>1.033</gom:speed><gom:rel_alt>9.541</gom:rel_alt></extensions></trkpt>
   <trkpt lat="59.3801493964" lon="34.7002431691"><ele>172.217</ele><time>2026-08-15T20:41:31.112Z</time><hdop>3.0</hdop><vdop>1.312</vdop><extensions><gom:speed>1.162</gom:speed><gom:rel_alt>10.64</gom:rel_alt></extensions></trkpt>
   <trkpt lat="59.3800748813" lon="34.70013345"><ele>172.506</ele><time>2026-08-15T20:41:39.508Z</time><hdop>3.0</hdop><vdop>1.437</vdop><extensions><gom:speed>1.034</gom:speed><gom:rel_alt>10.619</gom:rel_alt></extensions></trkpt>
   <trkpt lat="59.380005982" lon="34.700006045"><ele>172.025</ele><time>2026-08-15T20:41:50.949Z</time><hdop>3.0</hdop><vdop>1.437</vdop><extensions><gom:speed>0.947</gom:speed><gom:rel_alt>10.495</gom:rel_alt></extensions></trkpt>
   <trkpt lat="59.3799453809" lon="34.699874533"><ele>172.715</ele><time>2026-08-15T20:44:15.506Z</time><hdop>3.312</hdop><vdop>1.437</vdop><extensions><gom:speed>0.915</gom:speed><gom:rel_alt>10.307</gom:rel_alt></extensions></trkpt>
   <trkpt lat="59.3798647889" lon="34.6997918874"><ele>172.674</ele><time>2026-08-15T20:44:29.509Z</time><hdop>3.0</hdop><vdop>1.375</vdop><extensions><gom:speed>0.665</gom:speed><gom:rel_alt>10.04</gom:rel_alt></extensions></trkpt>
   <trkpt lat="59.379772085" lon="34.699796246"><ele>172.908</ele><time>2026-08-15T20:44:42.766Z</time><hdop>3.0</hdop><vdop>1.437</vdop><extensions><gom:speed>1.005</gom:speed><gom:rel_alt>10.693</gom:rel_alt></extensions></trkpt>
   <trkpt lat="59.3796813928" lon="34.6997614611"><ele>172.722</ele><time>2026-08-15T20:44:55.325Z</time><hdop>3.0</hdop><vdop>1.375</vdop><extensions><gom:speed>0.709</gom:speed><gom:rel_alt>9.649</gom:rel_alt></extensions></trkpt>
   <trkpt lat="59.3795945982" lon="34.6997102477"><ele>172.391</ele><time>2026-08-15T20:45:06.994Z</time><hdop>3.0</hdop><vdop>1.375</vdop><extensions><gom:speed>0.809</gom:speed><gom:rel_alt>9.155</gom:rel_alt></extensions></trkpt>
   <trkpt lat="59.3795011819" lon="34.6997231558"><ele>172.232</ele><time>2026-08-15T20:45:20.115Z</time><hdop>3.0</hdop><vdop>1.437</vdop><extensions><gom:speed>1.026</gom:speed><gom:rel_alt>9.454</gom:rel_alt></extensions></trkpt>
   <trkpt lat="59.3794059635" lon="34.6997481339"><ele>172.46</ele><time>2026-08-15T20:45:31.250Z</time><hdop>3.0</hdop><vdop>1.437</vdop><extensions><gom:speed>0.979</gom:speed><gom:rel_alt>10.196</gom:rel_alt></extensions></trkpt>
   <trkpt lat="59.3793156904" lon="34.6997173723"><ele>172.545</ele><time>2026-08-15T20:45:41.055Z</time><hdop>3.0</hdop><vdop>1.437</vdop><extensions><gom:speed>0.942</gom:speed><gom:rel_alt>9.691</gom:rel_alt></extensions></trkpt>
   <trkpt lat="59.3792259621" lon="34.6996770553"><ele>172.483</ele><time>2026-08-15T20:45:52.588Z</time><hdop>3.0</hdop><vdop>1.375</vdop><extensions><gom:speed>0.962</gom:speed><gom:rel_alt>9.734</gom:rel_alt></extensions></trkpt>
   <trkpt lat="59.3791348928" lon="34.6996514905"><ele>172.275</ele><time>2026-08-15T20:46:03.509Z</time><hdop>3.0</hdop><vdop>1.375</vdop><extensions><gom:speed>0.898</gom:speed><gom:rel_alt>10.17</gom:rel_alt></extensions></trkpt>
   <trkpt lat="59.3790464637" lon="34.6996085752"><ele>172.009</ele><time>2026-08-15T20:46:15.210Z</time><hdop>3.0</hdop><vdop>1.375</vdop><extensions><gom:speed>0.97</gom:speed><gom:rel_alt>10.037</gom:rel_alt></extensions></trkpt>
   <trkpt lat="59.3789795761" lon="34.6994793263"><ele>172.15</ele><time>2026-08-15T20:46:26.508Z</time><hdop>3.0</hdop><vdop>1.437</vdop><extensions><gom:speed>0.836</gom:speed><gom:rel_alt>11.005</gom:rel_alt></extensions></trkpt>
   <trkpt lat="59.3788903926" lon="34.6994246762"><ele>172.586</ele><time>2026-08-15T20:46:39.507Z</time><hdop>3.0</hdop><vdop>1.437</vdop><extensions><gom:speed>0.882</gom:speed><gom:rel_alt>10.323</gom:rel_alt></extensions></trkpt>
   <trkpt lat="59.3788325994" lon="34.6992879674"><ele>172.612</ele><time>2026-08-15T20:46:58.508Z</time><hdop>3.0</hdop><vdop>1.437</vdop><extensions><gom:speed>0.916</gom:speed><gom:rel_alt>10.751</gom:rel_alt></extensions></trkpt>
   <trkpt lat="59.3787525942" lon="34.6991904859"><ele>173.052</ele><time>2026-08-15T20:47:09.507Z</time><hdop>3.0</hdop><vdop>1.437</vdop><extensions><gom:speed>0.956</gom:speed><gom:rel_alt>9.702</gom:rel_alt></extensions></trkpt>
   <trkpt lat="59.3786652966" lon="34.6991251908"><ele>173.479</ele><time>2026-08-15T20:47:20.508Z</time><hdop>3.0</hdop><vdop>1.375</vdop><extensions><gom:speed>0.56</gom:speed><gom:rel_alt>11.364</gom:rel_alt></extensions></trkpt>
   <trkpt lat="59.3785879736" lon="34.6992169727"><ele>173.935</ele><time>2026-08-15T20:49:46.489Z</time><hdop>3.187</hdop><vdop>1.375</vdop><extensions><gom:speed>0.773</gom:speed><gom:rel_alt>10.862</gom:rel_alt></extensions></trkpt>
   <trkpt lat="59.3784978681" lon="34.6992817648"><ele>173.72</ele><time>2026-08-15T20:49:58.451Z</time><hdop>3.0</hdop><vdop>1.375</vdop><extensions><gom:speed>0.895</gom:speed><gom:rel_alt>11.084</gom:rel_alt></extensions></trkpt>
   <trkpt lat="59.3784917912" lon="34.699458623"><ele>173.717</ele><time>2026-08-15T20:50:15.448Z</time><hdop>3.0</hdop><vdop>1.375</vdop><extensions><gom:speed>0.754</gom:speed><gom:rel_alt>10.727</gom:rel_alt></extensions></trkpt>
   <trkpt lat="59.3785118659" lon="34.6996342238"><ele>173.282</ele><time>2026-08-15T20:50:29.110Z</time><hdop>3.0</hdop><vdop>1.375</vdop><extensions><gom:speed>0.573</gom:speed><gom:rel_alt>10.524</gom:rel_alt></extensions></trkpt>
   <trkpt lat="59.3784227663" lon="34.6996782288"><ele>173.499</ele><time>2026-08-15T20:50:44.452Z</time><hdop>3.0</hdop><vdop>1.375</vdop><extensions><gom:speed>0.554</gom:speed><gom:rel_alt>10.487</gom:rel_alt></extensions></trkpt>
   <trkpt lat="59.3783308587" lon="34.6996537537"><ele>173.319</ele><time>2026-08-15T20:50:54.247Z</time><hdop>3.0</hdop><vdop>1.375</vdop><extensions><gom:speed>0.83</gom:speed><gom:rel_alt>10.17</gom:rel_alt></extensions></trkpt>
   <trkpt lat="59.3782997618" lon="34.6998255827"><ele>172.912</ele><time>2026-08-15T20:51:05.106Z</time><hdop>3.0</hdop><vdop>1.312</vdop><extensions><gom:speed>0.95</gom:speed><gom:rel_alt>10.056</gom:rel_alt></extensions></trkpt>
   <trkpt lat="59.3782665695" lon="34.6999959868"><ele>172.695</ele><time>2026-08-15T20:51:16.127Z</time><hdop>3.0</hdop><vdop>1.437</vdop><extensions><gom:speed>0.89</gom:speed><gom:rel_alt>9.89</gom:rel_alt></extensions></trkpt>
   <trkpt lat="59.3782367718" lon="34.7001638763"><ele>172.56</ele><time>2026-08-15T20:51:26.508Z</time><hdop>3.0</hdop><vdop>1.375</vdop><extensions><gom:speed>0.986</gom:speed><gom:rel_alt>9.662</gom:rel_alt></extensions></trkpt>
   <trkpt lat="59.3782549606" lon="34.7003425785"><ele>172.512</ele><time>2026-08-15T20:51:36.647Z</time><hdop>3.0</hdop><vdop>1.375</vdop><extensions><gom:speed>0.978</gom:speed><gom:rel_alt>10.106</gom:rel_alt></extensions></trkpt>
   <trkpt lat="59.3782771726" lon="34.7005179279"><ele>172.585</ele><time>2026-08-15T20:51:46.508Z</time><hdop>3.0</hdop><vdop>1.437</vdop><extensions><gom:speed>0.961</gom:speed><gom:rel_alt>9.845</gom:rel_alt></extensions></trkpt>
   <trkpt lat="59.3782839619" lon="34.7007117175"><ele>172.784</ele><time>2026-08-15T20:51:55.392Z</time><hdop>3.0</hdop><vdop>1.375</vdop><extensions><gom:speed>1.061</gom:speed><gom:rel_alt>9.699</gom:rel_alt></extensions></trkpt>
   <trkpt lat="59.3782824951" lon="34.7008938562"><ele>173.082</ele><time>2026-08-15T20:52:06.393Z</time><hdop>3.0</hdop><vdop>1.375</vdop><extensions><gom:speed>0.687</gom:speed><gom:rel_alt>10.019</gom:rel_alt></extensions></trkpt>
   <trkpt lat="59.3782684973" lon="34.7010760788"><ele>172.804</ele><time>2026-08-15T20:52:18.392Z</time><hdop>3.0</hdop><vdop>1.437</vdop><extensions><gom:speed>1.059</gom:speed><gom:rel_alt>10.37</gom:rel_alt></extensions></trkpt>
   <trkpt lat="59.3782634682" lon="34.7012533561"><ele>173.004</ele><time>2026-08-15T20:52:31.874Z</time><hdop>3.0</hdop><vdop>1.312</vdop><extensions><gom:speed>0.854</gom:speed><gom:rel_alt>9.971</gom:rel_alt></extensions></trkpt>
   <trkpt lat="59.3782360594" lon="34.7014252689"><ele>172.907</ele><time>2026-08-15T20:52:48.509Z</time><hdop>3.0</hdop><vdop>1.375</vdop><extensions><gom:speed>0.965</gom:speed><gom:rel_alt>10.109</gom:rel_alt></extensions></trkpt>
   <trkpt lat="59.3782223969" lon="34.7015998639"><ele>173.139</ele><time>2026-08-15T20:53:02.154Z</time><hdop>3.0</hdop><vdop>1.312</vdop><extensions><gom:speed>0.968</gom:speed><gom:rel_alt>10.566</gom:rel_alt></extensions></trkpt>
   <trkpt lat="59.3781967902" lon="34.7017828409"><ele>173.583</ele><time>2026-08-15T20:55:32.951Z</time><hdop>3.0</hdop><vdop>1.375</vdop><extensions><gom:speed>0.663</gom:speed><gom:rel_alt>10.172</gom:rel_alt></extensions></trkpt>
   <trkpt lat="59.3781832953" lon="34.7019624651"><ele>173.488</ele><time>2026-08-15T20:55:40.049Z</time><hdop>3.0</hdop><vdop>1.375</vdop><extensions><gom:speed>1.123</gom:speed><gom:rel_alt>10.333</gom:rel_alt></extensions></trkpt>
   <trkpt lat="59.3781999753" lon="34.7021361381"><ele>173.565</ele><time>2026-08-15T20:55:49.008Z</time><hdop>3.0</hdop><vdop>1.312</vdop><extensions><gom:speed>0.842</gom:speed><gom:rel_alt>10.135</gom:rel_alt></extensions></trkpt>
   <trkpt lat="59.3782296891" lon="34.7023068775"><ele>173.67</ele><time>2026-08-15T20:56:02.529Z</time><hdop>3.0</hdop><vdop>1.375</vdop><extensions><gom:speed>0.537</gom:speed><gom:rel_alt>10.492</gom:rel_alt></extensions></trkpt>
   <trkpt lat="59.3781751648" lon="34.7024643734"><ele>173.841</ele><time>2026-08-15T20:56:28.508Z</time><hdop>3.0</hdop><vdop>1.375</vdop><extensions><gom:speed>0.903</gom:speed><gom:rel_alt>10.537</gom:rel_alt></extensions></trkpt>
   <trkpt lat="59.378105176" lon="34.7025875874"><ele>174.064</ele><time>2026-08-15T20:57:13.252Z</time><hdop>3.0</hdop><vdop>1.375</vdop><extensions><gom:speed>0.891</gom:speed><gom:rel_alt>10.452</gom:rel_alt></extensions></trkpt>
   <trkpt lat="59.378162592" lon="34.7027331811"><ele>174.093</ele><time>2026-08-15T20:57:24.273Z</time><hdop>3.0</hdop><vdop>1.375</vdop><extensions><gom:speed>0.772</gom:speed><gom:rel_alt>10.952</gom:rel_alt></extensions></trkpt>
   <trkpt lat="59.3781603708" lon="34.7029174991"><ele>174.243</ele><time>2026-08-15T20:57:39.951Z</time><hdop>3.0</hdop><vdop>1.375</vdop><extensions><gom:speed>0.919</gom:speed><gom:rel_alt>11.66</gom:rel_alt></extensions></trkpt>
   <trkpt lat="59.3781370691" lon="34.7030925971"><ele>175.004</ele><time>2026-08-15T20:57:54.230Z</time><hdop>3.0</hdop><vdop>1.375</vdop><extensions><gom:speed>0.949</gom:speed><gom:rel_alt>12.157</gom:rel_alt></extensions></trkpt>
   <trkpt lat="59.3780976741" lon="34.7032636717"><ele>175.482</ele><time>2026-08-15T20:58:11.170Z</time><hdop>3.125</hdop><vdop>1.375</vdop><extensions><gom:speed>0.889</gom:speed><gom:rel_alt>12.12</gom:rel_alt></extensions></trkpt>
   <trkpt lat="59.3780682956" lon="34.7034344949"><ele>175.762</ele><time>2026-08-15T20:58:22.495Z</time><hdop>3.0</hdop><vdop>1.375</vdop><extensions><gom:speed>0.884</gom:speed><gom:rel_alt>12.719</gom:rel_alt></extensions></trkpt>
   <trkpt lat="59.3780411801" lon="34.7036147896"><ele>175.751</ele><time>2026-08-15T20:58:32.509Z</time><hdop>3.0</hdop><vdop>1.375</vdop><extensions><gom:speed>1.005</gom:speed><gom:rel_alt>13.105</gom:rel_alt></extensions></trkpt>
   <trkpt lat="59.3779919783" lon="34.7037722856"><ele>176.139</ele><time>2026-08-15T20:58:43.510Z</time><hdop>3.0</hdop><vdop>1.375</vdop><extensions><gom:speed>0.699</gom:speed><gom:rel_alt>12.529</gom:rel_alt></extensions></trkpt>
   <trkpt lat="59.378061171" lon="34.7039041329"><ele>177.062</ele><time>2026-08-15T21:01:21.950Z</time><hdop>3.0</hdop><vdop>1.375</vdop><extensions><gom:speed>0.49</gom:speed><gom:rel_alt>13.372</gom:rel_alt></extensions></trkpt>
   <trkpt lat="59.3780562675" lon="34.7040903788"><ele>176.787</ele><time>2026-08-15T21:01:37.510Z</time><hdop>3.0</hdop><vdop>1.312</vdop><extensions><gom:speed>0.557</gom:speed><gom:rel_alt>12.939</gom:rel_alt></extensions></trkpt>
   <trkpt lat="59.3779817943" lon="34.7041917999"><ele>177.215</ele><time>2026-08-15T21:01:55.910Z</time><hdop>3.0</hdop><vdop>1.375</vdop><extensions><gom:speed>0.689</gom:speed><gom:rel_alt>13.108</gom:rel_alt></extensions></trkpt>
   <trkpt lat="59.3778900963" lon="34.7042335417"><ele>177.478</ele><time>2026-08-15T21:02:06.509Z</time><hdop>3.0</hdop><vdop>1.312</vdop><extensions><gom:speed>0.82</gom:speed><gom:rel_alt>13.285</gom:rel_alt></extensions></trkpt>
   <trkpt lat="59.3778337699" lon="34.7043749444"><ele>177.485</ele><time>2026-08-15T21:02:24.510Z</time><hdop>3.0</hdop><vdop>1.375</vdop><extensions><gom:speed>0.696</gom:speed><gom:rel_alt>13.06</gom:rel_alt></extensions></trkpt>
   <trkpt lat="59.3777476878" lon="34.7042967413"><ele>176.536</ele><time>2026-08-15T21:04:16.508Z</time><hdop>3.687</hdop><vdop>1.312</vdop><extensions><gom:speed>0.765</gom:speed><gom:rel_alt>12.207</gom:rel_alt></extensions></trkpt>
   <trkpt lat="59.3776570794" lon="34.7043145947"><ele>176.336</ele><time>2026-08-15T21:04:27.509Z</time><hdop>3.0</hdop><vdop>1.312</vdop><extensions><gom:speed>0.902</gom:speed><gom:rel_alt>12.754</gom:rel_alt></extensions></trkpt>
   <trkpt lat="59.377570662" lon="34.704376537"><ele>176.072</ele><time>2026-08-15T21:04:42.368Z</time><hdop>3.0</hdop><vdop>1.375</vdop><extensions><gom:speed>0.899</gom:speed><gom:rel_alt>12.051</gom:rel_alt></extensions></trkpt>
   <trkpt lat="59.3775425826" lon="34.7045520541"><ele>176.309</ele><time>2026-08-15T21:04:57.987Z</time><hdop>3.0</hdop><vdop>1.312</vdop><extensions><gom:speed>0.884</gom:speed><gom:rel_alt>12.513</gom:rel_alt></extensions></trkpt>
   <trkpt lat="59.3775222984" lon="34.7047260624"><ele>176.092</ele><time>2026-08-15T21:05:11.032Z</time><hdop>3.0</hdop><vdop>1.375</vdop><extensions><gom:speed>0.832</gom:speed><gom:rel_alt>12.59</gom:rel_alt></extensions></trkpt>
   <trkpt lat="59.3775029781" lon="34.7048992325"><ele>176.42</ele><time>2026-08-15T21:05:26.508Z</time><hdop>3.0</hdop><vdop>1.312</vdop><extensions><gom:speed>0.784</gom:speed><gom:rel_alt>12.489</gom:rel_alt></extensions></trkpt>
   <trkpt lat="59.3774281696" lon="34.7050097898"><ele>176.197</ele><time>2026-08-15T21:05:37.076Z</time><hdop>3.0</hdop><vdop>1.312</vdop><extensions><gom:speed>0.901</gom:speed><gom:rel_alt>12.455</gom:rel_alt></extensions></trkpt>
   <trkpt lat="59.37738077" lon="34.7051684592"><ele>176.691</ele><time>2026-08-15T21:05:49.170Z</time><hdop>3.0</hdop><vdop>1.312</vdop><extensions><gom:speed>0.686</gom:speed><gom:rel_alt>12.64</gom:rel_alt></extensions></trkpt>
   <trkpt lat="59.377464589" lon="34.7052374423"><ele>176.655</ele><time>2026-08-15T21:06:03.914Z</time><hdop>3.0</hdop><vdop>1.312</vdop><extensions><gom:speed>0.695</gom:speed><gom:rel_alt>12.857</gom:rel_alt></extensions></trkpt>
   <trkpt lat="59.3774360905" lon="34.7054083493"><ele>177.364</ele><time>2026-08-15T21:06:22.412Z</time><hdop>3.0</hdop><vdop>1.312</vdop><extensions><gom:speed>0.689</gom:speed><gom:rel_alt>12.984</gom:rel_alt></extensions></trkpt>
   <trkpt lat="59.3774018924" lon="34.7055747301"><ele>177.595</ele><time>2026-08-15T21:06:40.510Z</time><hdop>3.0</hdop><vdop>1.375</vdop><extensions><gom:speed>0.624</gom:speed><gom:rel_alt>13.451</gom:rel_alt></extensions></trkpt>
   <trkpt lat="59.3773655987" lon="34.7057453856"><ele>178.052</ele><time>2026-08-15T21:06:55.509Z</time><hdop>3.0</hdop><vdop>1.312</vdop><extensions><gom:speed>0.767</gom:speed><gom:rel_alt>13.435</gom:rel_alt></extensions></trkpt>
   <trkpt lat="59.3772886948" lon="34.7058472257"><ele>177.978</ele><time>2026-08-15T21:07:14.509Z</time><hdop>3.0</hdop><vdop>1.312</vdop><extensions><gom:speed>0.672</gom:speed><gom:rel_alt>13.639</gom:rel_alt></extensions></trkpt>
   <trkpt lat="59.3772301891" lon="34.7059859462"><ele>177.191</ele><time>2026-08-15T21:07:33.135Z</time><hdop>3.562</hdop><vdop>1.312</vdop><extensions><gom:speed>0.77</gom:speed><gom:rel_alt>12.944</gom:rel_alt></extensions></trkpt>
   <trkpt lat="59.3771349707" lon="34.7059810847"><ele>177.451</ele><time>2026-08-15T21:07:47.510Z</time><hdop>3.0</hdop><vdop>1.312</vdop><extensions><gom:speed>0.937</gom:speed><gom:rel_alt>13.615</gom:rel_alt></extensions></trkpt>
   <trkpt lat="59.3770693823" lon="34.705852674"><ele>177.259</ele><time>2026-08-15T21:14:12.414Z</time><hdop>4.062</hdop><vdop>1.312</vdop><extensions><gom:speed>4.022</gom:speed><gom:rel_alt>13.018</gom:rel_alt></extensions></trkpt>
   <trkpt lat="59.3770043806" lon="34.705721581"><ele>177.243</ele><time>2026-08-15T21:14:15.549Z</time><hdop>4.0</hdop><vdop>1.312</vdop><extensions><gom:speed>1.874</gom:speed><gom:rel_alt>13.517</gom:rel_alt></extensions></trkpt>
   <trkpt lat="59.377082961" lon="34.7058812563"><ele>177.228</ele><time>2026-08-15T21:14:17.510Z</time><hdop>3.25</hdop><vdop>1.312</vdop><extensions><gom:speed>1.084</gom:speed><gom:rel_alt>13.541</gom:rel_alt></extensions></trkpt>
   <trkpt lat="59.3770480922" lon="34.705709092"><ele>177.569</ele><time>2026-08-15T21:14:50.350Z</time><hdop>3.0</hdop><vdop>1.312</vdop><extensions><gom:speed>0.754</gom:speed><gom:rel_alt>14.202</gom:rel_alt></extensions></trkpt>
   <trkpt lat="59.3770580667" lon="34.7055223432"><ele>177.938</ele><time>2026-08-15T21:15:16.873Z</time><hdop>3.0</hdop><vdop>1.312</vdop><extensions><gom:speed>0.822</gom:speed><gom:rel_alt>14.545</gom:rel_alt></extensions></trkpt>
   <trkpt lat="59.3769687994" lon="34.7054934256"><ele>178.159</ele><time>2026-08-15T21:15:29.510Z</time><hdop>3.0</hdop><vdop>1.312</vdop><extensions><gom:speed>0.909</gom:speed><gom:rel_alt>14.474</gom:rel_alt></extensions></trkpt>
   <trkpt lat="59.3769059771" lon="34.7053594828"><ele>178.386</ele><time>2026-08-15T21:15:41.510Z</time><hdop>3.0</hdop><vdop>1.312</vdop><extensions><gom:speed>0.865</gom:speed><gom:rel_alt>13.932</gom:rel_alt></extensions></trkpt>
   <trkpt lat="59.3768872854" lon="34.7051798586"><ele>178.473</ele><time>2026-08-15T21:15:53.511Z</time><hdop>3.0</hdop><vdop>1.312</vdop><extensions><gom:speed>0.922</gom:speed><gom:rel_alt>14.78</gom:rel_alt></extensions></trkpt>
   <trkpt lat="59.3768151591" lon="34.7050665353"><ele>178.504</ele><time>2026-08-15T21:16:03.510Z</time><hdop>3.0</hdop><vdop>1.312</vdop><extensions><gom:speed>0.903</gom:speed><gom:rel_alt>14.865</gom:rel_alt></extensions></trkpt>
   <trkpt lat="59.3767814639" lon="34.7048977237"><ele>178.831</ele><time>2026-08-15T21:16:17.511Z</time><hdop>3.0</hdop><vdop>1.312</vdop><extensions><gom:speed>0.796</gom:speed><gom:rel_alt>15.401</gom:rel_alt></extensions></trkpt>
   <trkpt lat="59.3767311725" lon="34.7047483582"><ele>179.118</ele><time>2026-08-15T21:16:32.511Z</time><hdop>3.0</hdop><vdop>1.312</vdop><extensions><gom:speed>0.629</gom:speed><gom:rel_alt>15.354</gom:rel_alt></extensions></trkpt>
   <trkpt lat="59.3767092957" lon="34.7045721706"><ele>179.254</ele><time>2026-08-15T21:16:44.073Z</time><hdop>3.0</hdop><vdop>1.312</vdop><extensions><gom:speed>0.882</gom:speed><gom:rel_alt>15.425</gom:rel_alt></extensions></trkpt>
   <trkpt lat="59.3766541847" lon="34.7044328634"><ele>179.171</ele><time>2026-08-15T21:16:55.491Z</time><hdop>3.0</hdop><vdop>1.312</vdop><extensions><gom:speed>0.812</gom:speed><gom:rel_alt>15.56</gom:rel_alt></extensions></trkpt>
   <trkpt lat="59.3765763587" lon="34.70433622"><ele>179.376</ele><time>2026-08-15T21:17:08.511Z</time><hdop>3.0</hdop><vdop>1.312</vdop><extensions><gom:speed>0.871</gom:speed><gom:rel_alt>16.212</gom:rel_alt></extensions></trkpt>
   <trkpt lat="59.3765329824" lon="34.7041817416"><ele>179.446</ele><time>2026-08-15T21:17:20.510Z</time><hdop>3.0</hdop><vdop>1.312</vdop><extensions><gom:speed>0.845</gom:speed><gom:rel_alt>15.798</gom:rel_alt></extensions></trkpt>
   <trkpt lat="59.3764411586" lon="34.7042119164"><ele>179.119</ele><time>2026-08-15T21:17:35.390Z</time><hdop>3.0</hdop><vdop>1.312</vdop><extensions><gom:speed>0.654</gom:speed><gom:rel_alt>15.924</gom:rel_alt></extensions></trkpt>
   <trkpt lat="59.3763673979" lon="34.7041040413"><ele>178.508</ele><time>2026-08-15T21:17:54.332Z</time><hdop>3.0</hdop><vdop>1.312</vdop><extensions><gom:speed>0.634</gom:speed><gom:rel_alt>15.222</gom:rel_alt></extensions></trkpt>
   <trkpt lat="59.37630248" lon="34.7039773908"><ele>177.9</ele><time>2026-08-15T21:18:11.510Z</time><hdop>3.0</hdop><vdop>1.312</vdop><extensions><gom:speed>0.663</gom:speed><gom:rel_alt>14.07</gom:rel_alt></extensions></trkpt>
   <trkpt lat="59.3762571759" lon="34.7038250916"><ele>177.116</ele><time>2026-08-15T21:18:25.093Z</time><hdop>3.0</hdop><vdop>1.312</vdop><extensions><gom:speed>0.845</gom:speed><gom:rel_alt>13.412</gom:rel_alt></extensions></trkpt>
   <trkpt lat="59.3762767895" lon="34.7036477305"><ele>176.816</ele><time>2026-08-15T21:18:36.995Z</time><hdop>3.0</hdop><vdop>1.312</vdop><extensions><gom:speed>0.85</gom:speed><gom:rel_alt>13.906</gom:rel_alt></extensions></trkpt>
   <trkpt lat="59.3762977862" lon="34.7034738898"><ele>177.207</ele><time>2026-08-15T21:19:01.513Z</time><hdop>3.0</hdop><vdop>1.312</vdop><extensions><gom:speed>0.875</gom:speed><gom:rel_alt>13.546</gom:rel_alt></extensions></trkpt>
   <trkpt lat="59.3762468661" lon="34.7033271227"><ele>176.668</ele><time>2026-08-15T21:19:16.429Z</time><hdop>3.0</hdop><vdop>1.312</vdop><extensions><gom:speed>0.39</gom:speed><gom:rel_alt>13.977</gom:rel_alt></extensions></trkpt>
   <trkpt lat="59.3762310662" lon="34.7031519409"><ele>176.312</ele><time>2026-08-15T21:19:42.010Z</time><hdop>3.0</hdop><vdop>1.312</vdop><extensions><gom:speed>0.41</gom:speed><gom:rel_alt>13.163</gom:rel_alt></extensions></trkpt>
   <trkpt lat="59.3761384881" lon="34.7031209279"><ele>175.995</ele><time>2026-08-15T21:20:01.066Z</time><hdop>3.0</hdop><vdop>1.312</vdop><extensions><gom:speed>0.699</gom:speed><gom:rel_alt>12.873</gom:rel_alt></extensions></trkpt>
   <trkpt lat="59.3760499752" lon="34.703167196"><ele>176.0</ele><time>2026-08-15T21:20:40.813Z</time><hdop>3.0</hdop><vdop>1.312</vdop><extensions><gom:speed>0.851</gom:speed><gom:rel_alt>12.735</gom:rel_alt></extensions></trkpt>
   <trkpt lat="59.3759669944" lon="34.70323576"><ele>175.537</ele><time>2026-08-15T21:20:52.510Z</time><hdop>3.125</hdop><vdop>1.312</vdop><extensions><gom:speed>0.972</gom:speed><gom:rel_alt>11.039</gom:rel_alt></extensions></trkpt>
   <trkpt lat="59.3758801998" lon="34.7032872249"><ele>175.593</ele><time>2026-08-15T21:21:01.352Z</time><hdop>3.0</hdop><vdop>1.312</vdop><extensions><gom:speed>1.178</gom:speed><gom:rel_alt>13.475</gom:rel_alt></extensions></trkpt>
   <trkpt lat="59.3757969675" lon="34.7033559565"><ele>175.716</ele><time>2026-08-15T21:21:10.909Z</time><hdop>3.0</hdop><vdop>1.312</vdop><extensions><gom:speed>1.18</gom:speed><gom:rel_alt>12.503</gom:rel_alt></extensions></trkpt>
   <trkpt lat="59.3757296608" lon="34.7034866303"><ele>175.427</ele><time>2026-08-15T21:21:19.688Z</time><hdop>3.0</hdop><vdop>1.312</vdop><extensions><gom:speed>1.216</gom:speed><gom:rel_alt>12.719</gom:rel_alt></extensions></trkpt>
   <trkpt lat="59.3756699816" lon="34.7036323916"><ele>175.252</ele><time>2026-08-15T21:21:27.848Z</time><hdop>3.0</hdop><vdop>1.312</vdop><extensions><gom:speed>1.195</gom:speed><gom:rel_alt>11.966</gom:rel_alt></extensions></trkpt>
   <trkpt lat="59.3755891801" lon="34.7037232515"><ele>175.281</ele><time>2026-08-15T21:21:37.432Z</time><hdop>3.0</hdop><vdop>1.312</vdop><extensions><gom:speed>1.179</gom:speed><gom:rel_alt>11.945</gom:rel_alt></extensions></trkpt>
   <trkpt lat="59.3755050677" lon="34.7037951682"><ele>174.98</ele><time>2026-08-15T21:21:46.268Z</time><hdop>3.0</hdop><vdop>1.312</vdop><extensions><gom:speed>1.097</gom:speed><gom:rel_alt>12.63</gom:rel_alt></extensions></trkpt>
   <trkpt lat="59.3754231765" lon="34.7038800769"><ele>174.889</ele><time>2026-08-15T21:21:54.809Z</time><hdop>3.0</hdop><vdop>1.312</vdop><extensions><gom:speed>1.167</gom:speed><gom:rel_alt>11.657</gom:rel_alt></extensions></trkpt>
   <trkpt lat="59.3753434646" lon="34.7039773908"><ele>175.097</ele><time>2026-08-15T21:22:03.454Z</time><hdop>3.0</hdop><vdop>1.312</vdop><extensions><gom:speed>1.199</gom:speed><gom:rel_alt>12.072</gom:rel_alt></extensions></trkpt>
   <trkpt lat="59.375267776" lon="34.704093061"><ele>174.95</ele><time>2026-08-15T21:22:11.955Z</time><hdop>3.0</hdop><vdop>1.312</vdop><extensions><gom:speed>1.187</gom:speed><gom:rel_alt>12.587</gom:rel_alt></extensions></trkpt>
   <trkpt lat="59.3751970746" lon="34.704201942"><ele>174.418</ele><time>2026-08-15T21:22:19.935Z</time><hdop>3.0</hdop><vdop>1.312</vdop><extensions><gom:speed>1.149</gom:speed><gom:rel_alt>11.768</gom:rel_alt></extensions></trkpt>
   <trkpt lat="59.3751369764" lon="34.7043476194"><ele>174.322</ele><time>2026-08-15T21:22:28.095Z</time><hdop>3.0</hdop><vdop>1.312</vdop><extensions><gom:speed>1.206</gom:speed><gom:rel_alt>11.686</gom:rel_alt></extensions></trkpt>
   <trkpt lat="59.375077884" lon="34.7044911176"><ele>174.385</ele><time>2026-08-15T21:22:36.190Z</time><hdop>3.0</hdop><vdop>1.312</vdop><extensions><gom:speed>1.164</gom:speed><gom:rel_alt>12.215</gom:rel_alt></extensions></trkpt>
   <trkpt lat="59.3750193783" lon="34.7046444226"><ele>173.931</ele><time>2026-08-15T21:22:44.511Z</time><hdop>3.0</hdop><vdop>1.312</vdop><extensions><gom:speed>1.22</gom:speed><gom:rel_alt>12.204</gom:rel_alt></extensions></trkpt>
   <trkpt lat="59.3749690869" lon="34.7047995717"><ele>174.743</ele><time>2026-08-15T21:22:53.109Z</time><hdop>3.0</hdop><vdop>1.312</vdop><extensions><gom:speed>1.182</gom:speed><gom:rel_alt>12.968</gom:rel_alt></extensions></trkpt>
   <trkpt lat="59.3749075637" lon="34.7049375378"><ele>174.658</ele><time>2026-08-15T21:23:01.510Z</time><hdop>3.0</hdop><vdop>1.312</vdop><extensions><gom:speed>1.191</gom:speed><gom:rel_alt>11.689</gom:rel_alt></extensions></trkpt>
   <trkpt lat="59.374843987" lon="34.7050687984"><ele>174.162</ele><time>2026-08-15T21:23:10.131Z</time><hdop>3.0</hdop><vdop>1.312</vdop><extensions><gom:speed>1.194</gom:speed><gom:rel_alt>12.305</gom:rel_alt></extensions></trkpt>
   <trkpt lat="59.3747773928" lon="34.7051957842"><ele>174.58</ele><time>2026-08-15T21:23:18.111Z</time><hdop>3.0</hdop><vdop>1.312</vdop><extensions><gom:speed>1.228</gom:speed><gom:rel_alt>12.46</gom:rel_alt></extensions></trkpt>
   <trkpt lat="59.3747110919" lon="34.7053326607"><ele>174.893</ele><time>2026-08-15T21:23:26.186Z</time><hdop>3.0</hdop><vdop>1.312</vdop><extensions><gom:speed>1.186</gom:speed><gom:rel_alt>12.936</gom:rel_alt></extensions></trkpt>
   <trkpt lat="59.3746414802" lon="34.7054618258"><ele>174.868</ele><time>2026-08-15T21:23:34.052Z</time><hdop>3.0</hdop><vdop>1.312</vdop><extensions><gom:speed>1.205</gom:speed><gom:rel_alt>12.508</gom:rel_alt></extensions></trkpt>
   <trkpt lat="59.3745671746" lon="34.7055698686"><ele>174.264</ele><time>2026-08-15T21:23:41.509Z</time><hdop>3.0</hdop><vdop>1.375</vdop><extensions><gom:speed>1.202</gom:speed><gom:rel_alt>12.236</gom:rel_alt></extensions></trkpt>
   <trkpt lat="59.3745007899" lon="34.705699369"><ele>174.954</ele><time>2026-08-15T21:23:49.510Z</time><hdop>3.0</hdop><vdop>1.312</vdop><extensions><gom:speed>1.205</gom:speed><gom:rel_alt>12.976</gom:rel_alt></extensions></trkpt>
   <trkpt lat="59.3744379676" lon="34.7058352396"><ele>175.246</ele><time>2026-08-15T21:23:57.250Z</time><hdop>3.0</hdop><vdop>1.312</vdop><extensions><gom:speed>1.201</gom:speed><gom:rel_alt>11.948</gom:rel_alt></extensions></trkpt>
   <trkpt lat="59.3743703675" lon="34.7059625607"><ele>174.862</ele><time>2026-08-15T21:24:04.754Z</time><hdop>3.0</hdop><vdop>1.312</vdop><extensions><gom:speed>1.204</gom:speed><gom:rel_alt>12.207</gom:rel_alt></extensions></trkpt>
   <trkpt lat="59.3743076709" lon="34.7060903847"><ele>173.909</ele><time>2026-08-15T21:24:12.192Z</time><hdop>3.0</hdop><vdop>1.375</vdop><extensions><gom:speed>1.213</gom:speed><gom:rel_alt>11.533</gom:rel_alt></extensions></trkpt>
   <trkpt lat="59.3742400709" lon="34.7062167838"><ele>174.865</ele><time>2026-08-15T21:24:19.669Z</time><hdop>3.0</hdop><vdop>1.312</vdop><extensions><gom:speed>1.198</gom:speed><gom:rel_alt>12.175</gom:rel_alt></extensions></trkpt>
   <trkpt lat="59.3741773742" lon="34.7063577675"><ele>174.485</ele><time>2026-08-15T21:24:27.754Z</time><hdop>3.0</hdop><vdop>1.312</vdop><extensions><gom:speed>1.193</gom:speed><gom:rel_alt>12.178</gom:rel_alt></extensions></trkpt>
   <trkpt lat="59.3741134622" lon="34.7064850886"><ele>173.508</ele><time>2026-08-15T21:24:35.191Z</time><hdop>3.0</hdop><vdop>1.312</vdop><extensions><gom:speed>1.193</gom:speed><gom:rel_alt>12.175</gom:rel_alt></extensions></trkpt>
   <trkpt lat="59.3740459879" lon="34.7066147566"><ele>173.444</ele><time>2026-08-15T21:24:43.510Z</time><hdop>3.0</hdop><vdop>1.312</vdop><extensions><gom:speed>1.247</gom:speed><gom:rel_alt>11.884</gom:rel_alt></extensions></trkpt>
   <trkpt lat="59.3739717661" lon="34.7067157585"><ele>174.002</ele><time>2026-08-15T21:24:51.132Z</time><hdop>3.0</hdop><vdop>1.312</vdop><extensions><gom:speed>1.221</gom:speed><gom:rel_alt>12.283</gom:rel_alt></extensions></trkpt>
   <trkpt lat="59.3738929762" lon="34.7068041876"><ele>173.596</ele><time>2026-08-15T21:24:59.072Z</time><hdop>3.0</hdop><vdop>1.312</vdop><extensions><gom:speed>1.264</gom:speed><gom:rel_alt>12.13</gom:rel_alt></extensions></trkpt>
   <trkpt lat="59.3738144797" lon="34.7068954665"><ele>173.038</ele><time>2026-08-15T21:25:06.093Z</time><hdop>3.062</hdop><vdop>1.312</vdop><extensions><gom:speed>1.314</gom:speed><gom:rel_alt>12.223</gom:rel_alt></extensions></trkpt>
   <trkpt lat="59.373728188" lon="34.7069557324"><ele>173.615</ele><time>2026-08-15T21:25:13.750Z</time><hdop>3.0</hdop><vdop>1.312</vdop><extensions><gom:speed>1.245</gom:speed><gom:rel_alt>12.019</gom:rel_alt></extensions></trkpt>
   <trkpt lat="59.373638795" lon="34.7070249669"><ele>174.187</ele><time>2026-08-15T21:25:21.311Z</time><hdop>3.0</hdop><vdop>1.312</vdop><extensions><gom:speed>1.257</gom:speed><gom:rel_alt>12.772</gom:rel_alt></extensions></trkpt>
   <trkpt lat="59.3735634836" lon="34.7071229514"><ele>173.957</ele><time>2026-08-15T21:25:28.911Z</time><hdop>3.0</hdop><vdop>1.312</vdop><extensions><gom:speed>1.267</gom:speed><gom:rel_alt>12.075</gom:rel_alt></extensions></trkpt>
   <trkpt lat="59.3734879627" lon="34.7072281443"><ele>173.326</ele><time>2026-08-15T21:25:35.806Z</time><hdop>3.0</hdop><vdop>1.312</vdop><extensions><gom:speed>1.291</gom:speed><gom:rel_alt>12.778</gom:rel_alt></extensions></trkpt>
   <trkpt lat="59.3734131961" lon="34.707343144"><ele>173.635</ele><time>2026-08-15T21:25:43.729Z</time><hdop>3.0</hdop><vdop>1.375</vdop><extensions><gom:speed>1.281</gom:speed><gom:rel_alt>12.91</gom:rel_alt></extensions></trkpt>
   <trkpt lat="59.373340064" lon="34.7074599877"><ele>173.747</ele><time>2026-08-15T21:25:51.670Z</time><hdop>3.0</hdop><vdop>1.312</vdop><extensions><gom:speed>1.318</gom:speed><gom:rel_alt>13.055</gom:rel_alt></extensions></trkpt>
   <trkpt lat="59.3732755653" lon="34.7075884823"><ele>173.874</ele><time>2026-08-15T21:26:16.312Z</time><hdop>3.0</hdop><vdop>1.375</vdop><extensions><gom:speed>0.954</gom:speed><gom:rel_alt>13.623</gom:rel_alt></extensions></trkpt>
   <trkpt lat="59.3732164728" lon="34.7077309747"><ele>174.372</ele><time>2026-08-15T21:26:23.009Z</time><hdop>3.0</hdop><vdop>1.312</vdop><extensions><gom:speed>1.186</gom:speed><gom:rel_alt>13.081</gom:rel_alt></extensions></trkpt>
   <trkpt lat="59.3731728869" lon="34.7078893926"><ele>173.602</ele><time>2026-08-15T21:26:30.732Z</time><hdop>3.0</hdop><vdop>1.312</vdop><extensions><gom:speed>1.179</gom:speed><gom:rel_alt>12.733</gom:rel_alt></extensions></trkpt>
   <trkpt lat="59.3731145908" lon="34.7080261853"><ele>173.388</ele><time>2026-08-15T21:26:39.433Z</time><hdop>3.0</hdop><vdop>1.312</vdop><extensions><gom:speed>1.122</gom:speed><gom:rel_alt>12.315</gom:rel_alt></extensions></trkpt>
   <trkpt lat="59.3730847931" lon="34.7081935719"><ele>174.913</ele><time>2026-08-15T21:26:48.266Z</time><hdop>3.0</hdop><vdop>1.312</vdop><extensions><gom:speed>1.11</gom:speed><gom:rel_alt>14.994</gom:rel_alt></extensions></trkpt>
   <trkpt lat="59.3730449791" lon="34.7083664905"><ele>174.65</ele><time>2026-08-15T21:26:57.415Z</time><hdop>3.0</hdop><vdop>1.312</vdop><extensions><gom:speed>1.071</gom:speed><gom:rel_alt>13.829</gom:rel_alt></extensions></trkpt>
   <trkpt lat="59.3729921731" lon="34.708520047"><ele>173.225</ele><time>2026-08-15T21:27:07.112Z</time><hdop>3.0</hdop><vdop>1.312</vdop><extensions><gom:speed>1.122</gom:speed><gom:rel_alt>13.56</gom:rel_alt></extensions></trkpt>
   <trkpt lat="59.3729536583" lon="34.7086874336"><ele>174.805</ele><time>2026-08-15T21:27:15.511Z</time><hdop>3.0</hdop><vdop>1.375</vdop><extensions><gom:speed>1.194</gom:speed><gom:rel_alt>13.42</gom:rel_alt></extensions></trkpt>
   <trkpt lat="59.3729057976" lon="34.7088453487"><ele>174.343</ele><time>2026-08-15T21:27:24.307Z</time><hdop>3.0</hdop><vdop>1.312</vdop><extensions><gom:speed>1.215</gom:speed><gom:rel_alt>13.974</gom:rel_alt></extensions></trkpt>
   <trkpt lat="59.372860661" lon="34.7090014197"><ele>174.209</ele><time>2026-08-15T21:27:32.674Z</time><hdop>3.062</hdop><vdop>1.312</vdop><extensions><gom:speed>1.173</gom:speed><gom:rel_alt>14.799</gom:rel_alt></extensions></trkpt>
   <trkpt lat="59.3728220624" lon="34.7091618493"><ele>173.932</ele><time>2026-08-15T21:27:40.293Z</time><hdop>3.0</hdop><vdop>1.312</vdop><extensions><gom:speed>1.193</gom:speed><gom:rel_alt>15.06</gom:rel_alt></extensions></trkpt>
   <trkpt lat="59.3727829608" lon="34.709325967"><ele>174.4</ele><time>2026-08-15T21:27:48.348Z</time><hdop>3.062</hdop><vdop>1.312</vdop><extensions><gom:speed>1.176</gom:speed><gom:rel_alt>14.019</gom:rel_alt></extensions></trkpt>
   <trkpt lat="59.3727504809" lon="34.709492264"><ele>173.419</ele><time>2026-08-15T21:27:56.431Z</time><hdop>3.0</hdop><vdop>1.375</vdop><extensions><gom:speed>1.2</gom:speed><gom:rel_alt>12.791</gom:rel_alt></extensions></trkpt>
   <trkpt lat="59.372710164" lon="34.7096624166"><ele>172.348</ele><time>2026-08-15T21:28:05.048Z</time><hdop>3.0</hdop><vdop>1.312</vdop><extensions><gom:speed>1.159</gom:speed><gom:rel_alt>12.27</gom:rel_alt></extensions></trkpt>
   <trkpt lat="59.3726788995" lon="34.7098401968"><ele>172.705</ele><time>2026-08-15T21:28:13.255Z</time><hdop>3.0</hdop><vdop>1.312</vdop><extensions><gom:speed>1.224</gom:speed><gom:rel_alt>12.68</gom:rel_alt></extensions></trkpt>
   <trkpt lat="59.3726399655" lon="34.7100106847"><ele>172.501</ele><time>2026-08-15T21:28:22.108Z</time><hdop>3.0</hdop><vdop>1.312</vdop><extensions><gom:speed>1.205</gom:speed><gom:rel_alt>12.318</gom:rel_alt></extensions></trkpt>
   <trkpt lat="59.3725522908" lon="34.7100777399"><ele>172.501</ele><time>2026-08-15T21:28:30.390Z</time><hdop>3.0</hdop><vdop>1.312</vdop><extensions><gom:speed>1.19</gom:speed><gom:rel_alt>11.533</gom:rel_alt></extensions></trkpt>
   <trkpt lat="59.3724645742" lon="34.7101235889"><ele>171.956</ele><time>2026-08-15T21:28:38.511Z</time><hdop>3.0</hdop><vdop>1.312</vdop><extensions><gom:speed>1.227</gom:speed><gom:rel_alt>12.767</gom:rel_alt></extensions></trkpt>
   <trkpt lat="59.3723810905" lon="34.7102084976"><ele>173.32</ele><time>2026-08-15T21:28:46.691Z</time><hdop>3.0</hdop><vdop>1.312</vdop><extensions><gom:speed>1.226</gom:speed><gom:rel_alt>14.099</gom:rel_alt></extensions></trkpt>
   <trkpt lat="59.372298864" lon="34.710298184"><ele>172.28</ele><time>2026-08-15T21:28:54.347Z</time><hdop>3.0</hdop><vdop>1.312</vdop><extensions><gom:speed>1.255</gom:speed><gom:rel_alt>14.395</gom:rel_alt></extensions></trkpt>
   <trkpt lat="59.3722077946" lon="34.7103202284"><ele>172.247</ele><time>2026-08-15T21:29:02.512Z</time><hdop>3.0</hdop><vdop>1.312</vdop><extensions><gom:speed>1.241</gom:speed><gom:rel_alt>13.047</gom:rel_alt></extensions></trkpt>
   <trkpt lat="59.3721178987" lon="34.710358366"><ele>172.22</ele><time>2026-08-15T21:29:10.031Z</time><hdop>3.0</hdop><vdop>1.312</vdop><extensions><gom:speed>1.304</gom:speed><gom:rel_alt>13.206</gom:rel_alt></extensions></trkpt>
   <trkpt lat="59.3720253625" lon="34.710352834"><ele>171.529</ele><time>2026-08-15T21:29:17.630Z</time><hdop>3.0</hdop><vdop>1.312</vdop><extensions><gom:speed>1.249</gom:speed><gom:rel_alt>12.955</gom:rel_alt></extensions></trkpt>
   <trkpt lat="59.3719334968" lon="34.7103007823"><ele>171.892</ele><time>2026-08-15T21:29:25.789Z</time><hdop>3.0</hdop><vdop>1.312</vdop><extensions><gom:speed>1.273</gom:speed><gom:rel_alt>13.301</gom:rel_alt></extensions></trkpt>
   <trkpt lat="59.3718447744" lon="34.7102502395"><ele>171.659</ele><time>2026-08-15T21:29:33.910Z</time><hdop>3.0</hdop><vdop>1.312</vdop><extensions><gom:speed>1.236</gom:speed><gom:rel_alt>12.875</gom:rel_alt></extensions></trkpt>
   <trkpt lat="59.3717610811" lon="34.7101567812"><ele>172.047</ele><time>2026-08-15T21:29:41.653Z</time><hdop>3.062</hdop><vdop>1.312</vdop><extensions><gom:speed>1.264</gom:speed><gom:rel_alt>12.207</gom:rel_alt></extensions></trkpt>
   <trkpt lat="59.3716767591" lon="34.7100725431"><ele>171.332</ele><time>2026-08-15T21:29:49.251Z</time><hdop>3.0</hdop><vdop>1.312</vdop><extensions><gom:speed>1.244</gom:speed><gom:rel_alt>12.511</gom:rel_alt></extensions></trkpt>
   <trkpt lat="59.3715942812" lon="34.7099799231"><ele>171.392</ele><time>2026-08-15T21:29:58.010Z</time><hdop>3.0</hdop><vdop>1.312</vdop><extensions><gom:speed>1.226</gom:speed><gom:rel_alt>14.067</gom:rel_alt></extensions></trkpt>
   <trkpt lat="59.3715104622" lon="34.7098889794"><ele>171.045</ele><time>2026-08-15T21:30:06.890Z</time><hdop>3.0</hdop><vdop>1.312</vdop><extensions><gom:speed>1.23</gom:speed><gom:rel_alt>14.12</gom:rel_alt></extensions></trkpt>
   <trkpt lat="59.3714347736" lon="34.709789151"><ele>170.661</ele><time>2026-08-15T21:30:14.851Z</time><hdop>3.0</hdop><vdop>1.312</vdop><extensions><gom:speed>1.227</gom:speed><gom:rel_alt>13.221</gom:rel_alt></extensions></trkpt>
   <trkpt lat="59.3713520861" lon="34.7096762467"><ele>171.084</ele><time>2026-08-15T21:30:23.467Z</time><hdop>3.0</hdop><vdop>1.312</vdop><extensions><gom:speed>1.241</gom:speed><gom:rel_alt>13.538</gom:rel_alt></extensions></trkpt>
   <trkpt lat="59.37126877" lon="34.7095796872"><ele>170.607</ele><time>2026-08-15T21:30:32.186Z</time><hdop>3.0</hdop><vdop>1.312</vdop><extensions><gom:speed>1.253</gom:speed><gom:rel_alt>15.23</gom:rel_alt></extensions></trkpt>
   <trkpt lat="59.3711916984" lon="34.7094826248"><ele>171.24</ele><time>2026-08-15T21:30:40.393Z</time><hdop>3.0</hdop><vdop>1.312</vdop><extensions><gom:speed>1.209</gom:speed><gom:rel_alt>13.774</gom:rel_alt></extensions></trkpt>
   <trkpt lat="59.3711120703" lon="34.709397297"><ele>171.777</ele><time>2026-08-15T21:30:48.629Z</time><hdop>3.0</hdop><vdop>1.312</vdop><extensions><gom:speed>1.2</gom:speed><gom:rel_alt>13.996</gom:rel_alt></extensions></trkpt>
   <trkpt lat="59.371047362" lon="34.7092618454"><ele>171.198</ele><time>2026-08-15T21:30:56.731Z</time><hdop>3.0</hdop><vdop>1.312</vdop><extensions><gom:speed>1.238</gom:speed><gom:rel_alt>15.528</gom:rel_alt></extensions></trkpt>
   <trkpt lat="59.3709817736" lon="34.7091169223"><ele>172.128</ele><time>2026-08-15T21:31:05.328Z</time><hdop>3.0</hdop><vdop>1.312</vdop><extensions><gom:speed>1.262</gom:speed><gom:rel_alt>13.359</gom:rel_alt></extensions></trkpt>
   <trkpt lat="59.3708898661" lon="34.7090882562"><ele>172.154</ele><time>2026-08-15T21:31:13.469Z</time><hdop>3.0</hdop><vdop>1.312</vdop><extensions><gom:speed>1.195</gom:speed><gom:rel_alt>14.384</gom:rel_alt></extensions></trkpt>
   <trkpt lat="59.370799593" lon="34.7091047686"><ele>172.069</ele><time>2026-08-15T21:31:21.512Z</time><hdop>3.0</hdop><vdop>1.312</vdop><extensions><gom:speed>1.191</gom:speed><gom:rel_alt>14.926</gom:rel_alt></extensions></trkpt>
   <trkpt lat="59.3707067634" lon="34.7090732526"><ele>172.109</ele><time>2026-08-15T21:34:46.512Z</time><hdop>3.187</hdop><vdop>1.312</vdop><extensions><gom:speed>1.065</gom:speed><gom:rel_alt>14.944</gom:rel_alt></extensions></trkpt>
   <trkpt lat="59.3706171608" lon="34.7090140764"><ele>172.655</ele><time>2026-08-15T21:34:53.803Z</time><hdop>3.062</hdop><vdop>1.375</vdop><extensions><gom:speed>1.262</gom:speed><gom:rel_alt>15.732</gom:rel_alt></extensions></trkpt>
   <trkpt lat="59.3705244989" lon="34.7089821413"><ele>173.568</ele><time>2026-08-15T21:35:02.087Z</time><hdop>3.0</hdop><vdop>1.312</vdop><extensions><gom:speed>1.206</gom:speed><gom:rel_alt>16.078</gom:rel_alt></extensions></trkpt>
   <trkpt lat="59.3704344773" lon="34.7089893498"><ele>173.795</ele><time>2026-08-15T21:35:10.428Z</time><hdop>3.0</hdop><vdop>1.437</vdop><extensions><gom:speed>1.17</gom:speed><gom:rel_alt>15.763</gom:rel_alt></extensions></trkpt>
   <trkpt lat="59.3703380854" lon="34.708952637"><ele>173.02</ele><time>2026-08-15T21:35:18.682Z</time><hdop>3.0</hdop><vdop>1.437</vdop><extensions><gom:speed>1.204</gom:speed><gom:rel_alt>16.284</gom:rel_alt></extensions></trkpt>
   <trkpt lat="59.370248399" lon="34.7088897728"><ele>173.793</ele><time>2026-08-15T21:35:27.512Z</time><hdop>3.0</hdop><vdop>1.375</vdop><extensions><gom:speed>1.19</gom:speed><gom:rel_alt>15.961</gom:rel_alt></extensions></trkpt>
   <trkpt lat="59.3701564914" lon="34.7088727575"><ele>173.855</ele><time>2026-08-15T21:35:35.270Z</time><hdop>3.062</hdop><vdop>1.375</vdop><extensions><gom:speed>1.209</gom:speed><gom:rel_alt>15.562</gom:rel_alt></extensions></trkpt>
   <trkpt lat="59.3700624884" lon="34.7088365477"><ele>173.13</ele><time>2026-08-15T21:35:44.445Z</time><hdop>3.0</hdop><vdop>1.312</vdop><extensions><gom:speed>1.241</gom:speed><gom:rel_alt>15.848</gom:rel_alt></extensions></trkpt>
   <trkpt lat="59.3699708742" lon="34.7087899443"><ele>173.722</ele><time>2026-08-15T21:35:52.729Z</time><hdop>3.0</hdop><vdop>1.375</vdop><extensions><gom:speed>1.219</gom:speed><gom:rel_alt>17.401</gom:rel_alt></extensions></trkpt>
   <trkpt lat="59.3698827804" lon="34.7087528963"><ele>174.401</ele><time>2026-08-15T21:36:01.513Z</time><hdop>3.0</hdop><vdop>1.375</vdop><extensions><gom:speed>1.191</gom:speed><gom:rel_alt>16.654</gom:rel_alt></extensions></trkpt>
   <trkpt lat="59.3698010987" lon="34.7086778783"><ele>174.141</ele><time>2026-08-15T21:36:09.905Z</time><hdop>3.0</hdop><vdop>1.375</vdop><extensions><gom:speed>1.181</gom:speed><gom:rel_alt>17.267</gom:rel_alt></extensions></trkpt>
   <trkpt lat="59.3697068862" lon="34.7086762857"><ele>174.32</ele><time>2026-08-15T21:36:18.512Z</time><hdop>3.0</hdop><vdop>1.375</vdop><extensions><gom:speed>1.214</gom:speed><gom:rel_alt>15.835</gom:rel_alt></extensions></trkpt>
   <trkpt lat="59.3696176608" lon="34.7087067958"><ele>174.481</ele><time>2026-08-15T21:36:26.443Z</time><hdop>3.0</hdop><vdop>1.375</vdop><extensions><gom:speed>1.161</gom:speed><gom:rel_alt>17.108</gom:rel_alt></extensions></trkpt>
   <trkpt lat="59.3695527849" lon="34.7088311833"><ele>174.585</ele><time>2026-08-15T21:36:34.944Z</time><hdop>3.062</hdop><vdop>1.437</vdop><extensions><gom:speed>1.16</gom:speed><gom:rel_alt>17.544</gom:rel_alt></extensions></trkpt>
   <trkpt lat="59.3694707679" lon="34.708914667"><ele>173.858</ele><time>2026-08-15T21:36:43.665Z</time><hdop>3.0</hdop><vdop>1.375</vdop><extensions><gom:speed>1.2</gom:speed><gom:rel_alt>17.568</gom:rel_alt></extensions></trkpt>
   <trkpt lat="59.3693750885" lon="34.7089278266"><ele>175.03</ele><time>2026-08-15T21:36:52.403Z</time><hdop>3.0</hdop><vdop>1.437</vdop><extensions><gom:speed>1.265</gom:speed><gom:rel_alt>17.298</gom:rel_alt></extensions></trkpt>
   <trkpt lat="59.3692813788" lon="34.7089684788"><ele>175.187</ele><time>2026-08-15T21:37:01.104Z</time><hdop>3.0</hdop><vdop>1.375</vdop><extensions><gom:speed>1.273</gom:speed><gom:rel_alt>17.275</gom:rel_alt></extensions></trkpt>
   <trkpt lat="59.3691948776" lon="34.7090263978"><ele>174.392</ele><time>2026-08-15T21:37:09.407Z</time><hdop>3.0</hdop><vdop>1.312</vdop><extensions><gom:speed>1.215</gom:speed><gom:rel_alt>17.047</gom:rel_alt></extensions></trkpt>
   <trkpt lat="59.3691074963" lon="34.7090917766"><ele>175.222</ele><time>2026-08-15T21:37:18.127Z</time><hdop>3.0</hdop><vdop>1.437</vdop><extensions><gom:speed>1.233</gom:speed><gom:rel_alt>17.544</gom:rel_alt></extensions></trkpt>
   <trkpt lat="59.3690206597" lon="34.7091450855"><ele>175.153</ele><time>2026-08-15T21:37:26.505Z</time><hdop>3.0</hdop><vdop>1.375</vdop><extensions><gom:speed>1.175</gom:speed><gom:rel_alt>17.597</gom:rel_alt></extensions></trkpt>
   <trkpt lat="59.3689259861" lon="34.7091731649"><ele>175.246</ele><time>2026-08-15T21:37:35.206Z</time><hdop>3.0</hdop><vdop>1.375</vdop><extensions><gom:speed>1.211</gom:speed><gom:rel_alt>16.247</gom:rel_alt></extensions></trkpt>
   <trkpt lat="59.3688406584" lon="34.7092298266"><ele>174.032</ele><time>2026-08-15T21:37:43.280Z</time><hdop>3.0</hdop><vdop>1.437</vdop><extensions><gom:speed>1.282</gom:speed><gom:rel_alt>16.886</gom:rel_alt></extensions></trkpt>
   <trkpt lat="59.3687553725" lon="34.7092890866"><ele>174.684</ele><time>2026-08-15T21:37:51.326Z</time><hdop>3.0</hdop><vdop>1.375</vdop><extensions><gom:speed>1.258</gom:speed><gom:rel_alt>16.31</gom:rel_alt></extensions></trkpt>
   <trkpt lat="59.3686779656" lon="34.7093919326"><ele>174.422</ele><time>2026-08-15T21:37:59.401Z</time><hdop>3.0</hdop><vdop>1.375</vdop><extensions><gom:speed>1.238</gom:speed><gom:rel_alt>15.562</gom:rel_alt></extensions></trkpt>
   <trkpt lat="59.3685930989" lon="34.7094788529"><ele>173.409</ele><time>2026-08-15T21:38:07.466Z</time><hdop>3.0</hdop><vdop>1.312</vdop><extensions><gom:speed>1.244</gom:speed><gom:rel_alt>15.325</gom:rel_alt></extensions></trkpt>
   <trkpt lat="59.3685094894" lon="34.7095462434"><ele>173.67</ele><time>2026-08-15T21:38:14.921Z</time><hdop>3.0</hdop><vdop>1.437</vdop><extensions><gom:speed>1.235</gom:speed><gom:rel_alt>14.986</gom:rel_alt></extensions></trkpt>
   <trkpt lat="59.368417498" lon="34.709590919"><ele>173.881</ele><time>2026-08-15T21:38:22.768Z</time><hdop>3.0</hdop><vdop>1.312</vdop><extensions><gom:speed>1.179</gom:speed><gom:rel_alt>15.256</gom:rel_alt></extensions></trkpt>
   <trkpt lat="59.3683284822" lon="34.7096513525"><ele>173.74</ele><time>2026-08-15T21:38:31.022Z</time><hdop>3.0</hdop><vdop>1.437</vdop><extensions><gom:speed>1.218</gom:speed><gom:rel_alt>16.038</gom:rel_alt></extensions></trkpt>
   <trkpt lat="59.3682515782" lon="34.7097470738"><ele>173.641</ele><time>2026-08-15T21:38:38.745Z</time><hdop>3.0</hdop><vdop>1.375</vdop><extensions><gom:speed>1.166</gom:speed><gom:rel_alt>15.547</gom:rel_alt></extensions></trkpt>
   <trkpt lat="59.3681718663" lon="34.7098333236"><ele>173.937</ele><time>2026-08-15T21:38:47.067Z</time><hdop>3.0</hdop><vdop>1.375</vdop><extensions><gom:speed>1.229</gom:speed><gom:rel_alt>15.652</gom:rel_alt></extensions></trkpt>
   <trkpt lat="59.3680894722" lon="34.7099110238"><ele>174.987</ele><time>2026-08-15T21:38:56.147Z</time><hdop>3.0</hdop><vdop>1.312</vdop><extensions><gom:speed>1.226</gom:speed><gom:rel_alt>16.707</gom:rel_alt></extensions></trkpt>
   <trkpt lat="59.3680047731" lon="34.709973469"><ele>174.948</ele><time>2026-08-15T21:39:04.512Z</time><hdop>3.0</hdop><vdop>1.312</vdop><extensions><gom:speed>1.151</gom:speed><gom:rel_alt>15.433</gom:rel_alt></extensions></trkpt>
   <trkpt lat="59.3679243906" lon="34.710055947"><ele>175.18</ele><time>2026-08-15T21:39:12.809Z</time><hdop>3.0</hdop><vdop>1.437</vdop><extensions><gom:speed>1.179</gom:speed><gom:rel_alt>17.314</gom:rel_alt></extensions></trkpt>
   <trkpt lat="59.3678480734" lon="34.710161978"><ele>175.592</ele><time>2026-08-15T21:39:21.512Z</time><hdop>3.0</hdop><vdop>1.312</vdop><extensions><gom:speed>1.151</gom:speed><gom:rel_alt>16.466</gom:rel_alt></extensions></trkpt>
   <trkpt lat="59.3677826946" lon="34.7102926519"><ele>175.297</ele><time>2026-08-15T21:39:30.249Z</time><hdop>3.0</hdop><vdop>1.375</vdop><extensions><gom:speed>1.188</gom:speed><gom:rel_alt>16.68</gom:rel_alt></extensions></trkpt>
   <trkpt lat="59.3677108616" lon="34.710407484"><ele>175.231</ele><time>2026-08-15T21:39:38.446Z</time><hdop>3.0</hdop><vdop>1.437</vdop><extensions><gom:speed>1.182</gom:speed><gom:rel_alt>16.59</gom:rel_alt></extensions></trkpt>
   <trkpt lat="59.367640286" lon="34.710524663"><ele>174.777</ele><time>2026-08-15T21:39:46.512Z</time><hdop>3.0</hdop><vdop>1.312</vdop><extensions><gom:speed>1.164</gom:speed><gom:rel_alt>15.148</gom:rel_alt></extensions></trkpt>
   <trkpt lat="59.3675552935" lon="34.7105974179"><ele>174.23</ele><time>2026-08-15T21:39:55.441Z</time><hdop>3.0</hdop><vdop>1.375</vdop><extensions><gom:speed>1.155</gom:speed><gom:rel_alt>15.695</gom:rel_alt></extensions></trkpt>
   <trkpt lat="59.3674660682" lon="34.7106449433"><ele>173.972</ele><time>2026-08-15T21:40:03.924Z</time><hdop>3.0</hdop><vdop>1.375</vdop><extensions><gom:speed>1.16</gom:speed><gom:rel_alt>14.107</gom:rel_alt></extensions></trkpt>
   <trkpt lat="59.3673751664" lon="34.710665898"><ele>173.808</ele><time>2026-08-15T21:40:13.081Z</time><hdop>3.0</hdop><vdop>1.375</vdop><extensions><gom:speed>1.225</gom:speed><gom:rel_alt>15.874</gom:rel_alt></extensions></trkpt>
   <trkpt lat="59.3672809957" lon="34.7106702566"><ele>173.656</ele><time>2026-08-15T21:40:21.327Z</time><hdop>3.0</hdop><vdop>1.312</vdop><extensions><gom:speed>1.262</gom:speed><gom:rel_alt>15.306</gom:rel_alt></extensions></trkpt>
   <trkpt lat="59.3671878728" lon="34.7106692508"><ele>174.107</ele><time>2026-08-15T21:40:30.048Z</time><hdop>3.0</hdop><vdop>1.312</vdop><extensions><gom:speed>1.271</gom:speed><gom:rel_alt>15.935</gom:rel_alt></extensions></trkpt>
   <trkpt lat="59.3670980607" lon="34.7107031975"><ele>173.888</ele><time>2026-08-15T21:40:38.340Z</time><hdop>3.0</hdop><vdop>1.375</vdop><extensions><gom:speed>1.266</gom:speed><gom:rel_alt>16.028</gom:rel_alt></extensions></trkpt>
   <trkpt lat="59.3670119786" lon="34.7107546624"><ele>174.281</ele><time>2026-08-15T21:40:46.514Z</time><hdop>3.0</hdop><vdop>1.312</vdop><extensions><gom:speed>1.23</gom:speed><gom:rel_alt>15.84</gom:rel_alt></extensions></trkpt>
   <trkpt lat="59.366917766" lon="34.7108123299"><ele>173.774</ele><time>2026-08-15T21:40:54.688Z</time><hdop>3.0</hdop><vdop>1.375</vdop><extensions><gom:speed>1.256</gom:speed><gom:rel_alt>13.507</gom:rel_alt></extensions></trkpt>
   <trkpt lat="59.366828373" lon="34.7108541556"><ele>173.357</ele><time>2026-08-15T21:41:02.849Z</time><hdop>3.0</hdop><vdop>1.312</vdop><extensions><gom:speed>1.166</gom:speed><gom:rel_alt>15.182</gom:rel_alt></extensions></trkpt>
   <trkpt lat="59.3667447635" lon="34.7109431714"><ele>173.391</ele><time>2026-08-15T21:41:11.008Z</time><hdop>3.0</hdop><vdop>1.375</vdop><extensions><gom:speed>1.217</gom:speed><gom:rel_alt>14.926</gom:rel_alt></extensions></trkpt>
   <trkpt lat="59.3666697874" lon="34.711053142"><ele>173.112</ele><time>2026-08-15T21:41:19.102Z</time><hdop>3.0</hdop><vdop>1.312</vdop><extensions><gom:speed>1.251</gom:speed><gom:rel_alt>14.648</gom:rel_alt></extensions></trkpt>
   <trkpt lat="59.3665952722" lon="34.711158754"><ele>172.339</ele><time>2026-08-15T21:41:26.519Z</time><hdop>3.0</hdop><vdop>1.312</vdop><extensions><gom:speed>1.201</gom:speed><gom:rel_alt>15.459</gom:rel_alt></extensions></trkpt>
   <trkpt lat="59.3665219725" lon="34.7112775255"><ele>171.653</ele><time>2026-08-15T21:41:35.145Z</time><hdop>3.0</hdop><vdop>1.312</vdop><extensions><gom:speed>1.222</gom:speed><gom:rel_alt>14.722</gom:rel_alt></extensions></trkpt>
   <trkpt lat="59.3664414643" lon="34.7113788627"><ele>172.602</ele><time>2026-08-15T21:41:43.248Z</time><hdop>3.0</hdop><vdop>1.312</vdop><extensions><gom:speed>1.23</gom:speed><gom:rel_alt>14.31</gom:rel_alt></extensions></trkpt>
   <trkpt lat="59.3663623811" lon="34.7114722371"><ele>171.952</ele><time>2026-08-15T21:41:51.503Z</time><hdop>3.062</hdop><vdop>1.312</vdop><extensions><gom:speed>1.242</gom:speed><gom:rel_alt>13.171</gom:rel_alt></extensions></trkpt>
   <trkpt lat="59.3662847646" lon="34.711570976"><ele>170.696</ele><time>2026-08-15T21:41:59.625Z</time><hdop>3.0</hdop><vdop>1.312</vdop><extensions><gom:speed>1.215</gom:speed><gom:rel_alt>13.343</gom:rel_alt></extensions></trkpt>
   <trkpt lat="59.3662051785" lon="34.7116675355"><ele>170.192</ele><time>2026-08-15T21:42:07.842Z</time><hdop>3.062</hdop><vdop>1.312</vdop><extensions><gom:speed>1.253</gom:speed><gom:rel_alt>13.993</gom:rel_alt></extensions></trkpt>
   <trkpt lat="59.3661291965" lon="34.7117755782"><ele>171.198</ele><time>2026-08-15T21:42:16.248Z</time><hdop>3.0</hdop><vdop>1.312</vdop><extensions><gom:speed>1.169</gom:speed><gom:rel_alt>13.464</gom:rel_alt></extensions></trkpt>
   <trkpt lat="59.36608867" lon="34.7119338285"><ele>170.232</ele><time>2026-08-15T21:42:24.085Z</time><hdop>3.0</hdop><vdop>1.312</vdop><extensions><gom:speed>1.199</gom:speed><gom:rel_alt>12.651</gom:rel_alt></extensions></trkpt>
   <trkpt lat="59.3660602973" lon="34.7121052385"><ele>169.414</ele><time>2026-08-15T21:42:32.702Z</time><hdop>3.0</hdop><vdop>1.312</vdop><extensions><gom:speed>1.25</gom:speed><gom:rel_alt>12.291</gom:rel_alt></extensions></trkpt>
   <trkpt lat="59.3660014982" lon="34.7122407738"><ele>169.603</ele><time>2026-08-15T21:42:40.281Z</time><hdop>3.0</hdop><vdop>1.312</vdop><extensions><gom:speed>1.26</gom:speed><gom:rel_alt>12.331</gom:rel_alt></extensions></trkpt>
   <trkpt lat="59.3659279889" lon="34.7123612218"><ele>169.48</ele><time>2026-08-15T21:42:48.385Z</time><hdop>3.0</hdop><vdop>1.312</vdop><extensions><gom:speed>1.221</gom:speed><gom:rel_alt>12.04</gom:rel_alt></extensions></trkpt>
   <trkpt lat="59.3658596764" lon="34.7124775626"><ele>168.815</ele><time>2026-08-15T21:42:56.107Z</time><hdop>3.062</hdop><vdop>1.312</vdop><extensions><gom:speed>1.257</gom:speed><gom:rel_alt>11.94</gom:rel_alt></extensions></trkpt>
   <trkpt lat="59.3657966864" lon="34.7126057219"><ele>169.541</ele><time>2026-08-15T21:43:03.782Z</time><hdop>3.062</hdop><vdop>1.312</vdop><extensions><gom:speed>1.258</gom:speed><gom:rel_alt>12.981</gom:rel_alt></extensions></trkpt>
   <trkpt lat="59.3657245601" lon="34.7127301932"><ele>170.443</ele><time>2026-08-15T21:43:11.980Z</time><hdop>3.0</hdop><vdop>1.312</vdop><extensions><gom:speed>1.236</gom:speed><gom:rel_alt>12.519</gom:rel_alt></extensions></trkpt>
   <trkpt lat="59.3656565829" lon="34.7128485456"><ele>169.344</ele><time>2026-08-15T21:43:20.263Z</time><hdop>3.0</hdop><vdop>1.312</vdop><extensions><gom:speed>1.249</gom:speed><gom:rel_alt>13.116</gom:rel_alt></extensions></trkpt>
   <trkpt lat="59.3655806848" lon="34.7129634615"><ele>169.511</ele><time>2026-08-15T21:43:28.405Z</time><hdop>3.0</hdop><vdop>1.312</vdop><extensions><gom:speed>1.224</gom:speed><gom:rel_alt>13.562</gom:rel_alt></extensions></trkpt>
   <trkpt lat="59.3655033617" lon="34.7130665589"><ele>169.9</ele><time>2026-08-15T21:43:36.640Z</time><hdop>3.0</hdop><vdop>1.312</vdop><extensions><gom:speed>1.23</gom:speed><gom:rel_alt>12.413</gom:rel_alt></extensions></trkpt>
   <trkpt lat="59.3654214705" lon="34.7131458517"><ele>170.245</ele><time>2026-08-15T21:43:44.743Z</time><hdop>3.0</hdop><vdop>1.312</vdop><extensions><gom:speed>1.265</gom:speed><gom:rel_alt>12.698</gom:rel_alt></extensions></trkpt>
   <trkpt lat="59.3653270903" lon="34.7132030163"><ele>169.272</ele><time>2026-08-15T21:43:53.367Z</time><hdop>3.0</hdop><vdop>1.312</vdop><extensions><gom:speed>1.26</gom:speed><gom:rel_alt>12.492</gom:rel_alt></extensions></trkpt>
   <trkpt lat="59.365233674" lon="34.7132394776"><ele>168.941</ele><time>2026-08-15T21:44:02.686Z</time><hdop>3.062</hdop><vdop>1.312</vdop><extensions><gom:speed>1.245</gom:speed><gom:rel_alt>12.672</gom:rel_alt></extensions></trkpt>
   <trkpt lat="59.3651450773" lon="34.7132980671"><ele>170.121</ele><time>2026-08-15T21:44:10.807Z</time><hdop>3.0</hdop><vdop>1.312</vdop><extensions><gom:speed>1.274</gom:speed><gom:rel_alt>12.577</gom:rel_alt></extensions></trkpt>
   <trkpt lat="59.3650547623" lon="34.7133479394"><ele>169.114</ele><time>2026-08-15T21:44:18.844Z</time><hdop>3.0</hdop><vdop>1.312</vdop><extensions><gom:speed>1.246</gom:speed><gom:rel_alt>12.453</gom:rel_alt></extensions></trkpt>
   <trkpt lat="59.3649875813" lon="34.7134787809"><ele>169.194</ele><time>2026-08-15T21:44:27.042Z</time><hdop>3.0</hdop><vdop>1.312</vdop><extensions><gom:speed>1.21</gom:speed><gom:rel_alt>12.656</gom:rel_alt></extensions></trkpt>
   <trkpt lat="59.3649519582" lon="34.7136423957"><ele>169.279</ele><time>2026-08-15T21:44:34.023Z</time><hdop>3.0</hdop><vdop>1.312</vdop><extensions><gom:speed>1.309</gom:speed><gom:rel_alt>12.032</gom:rel_alt></extensions></trkpt>
   <trkpt lat="59.3649021697" lon="34.7137998916"><ele>169.612</ele><time>2026-08-15T21:44:42.220Z</time><hdop>3.0</hdop><vdop>1.312</vdop><extensions><gom:speed>1.224</gom:speed><gom:rel_alt>10.952</gom:rel_alt></extensions></trkpt>
   <trkpt lat="59.3648520878" lon="34.7139482513"><ele>168.352</ele><time>2026-08-15T21:44:50.246Z</time><hdop>3.0</hdop><vdop>1.312</vdop><extensions><gom:speed>1.226</gom:speed><gom:rel_alt>10.854</gom:rel_alt></extensions></trkpt>
   <trkpt lat="59.3647932888" lon="34.7140939288"><ele>167.7</ele><time>2026-08-15T21:44:58.424Z</time><hdop>3.0</hdop><vdop>1.312</vdop><extensions><gom:speed>1.293</gom:speed><gom:rel_alt>10.965</gom:rel_alt></extensions></trkpt>
   <trkpt lat="59.3647564922" lon="34.7142598905"><ele>168.799</ele><time>2026-08-15T21:45:06.422Z</time><hdop>3.0</hdop><vdop>1.312</vdop><extensions><gom:speed>1.268</gom:speed><gom:rel_alt>11.404</gom:rel_alt></extensions></trkpt>
   <trkpt lat="59.3647122777" lon="34.7144206554"><ele>168.437</ele><time>2026-08-15T21:45:14.184Z</time><hdop>3.0</hdop><vdop>1.312</vdop><extensions><gom:speed>1.251</gom:speed><gom:rel_alt>10.812</gom:rel_alt></extensions></trkpt>
   <trkpt lat="59.3647165944" lon="34.7146075718"><ele>167.819</ele><time>2026-08-15T21:45:22.513Z</time><hdop>3.0</hdop><vdop>1.312</vdop><extensions><gom:speed>1.232</gom:speed><gom:rel_alt>11.491</gom:rel_alt></extensions></trkpt>
   <trkpt lat="59.3647946718" lon="34.7147375752"><ele>167.942</ele><time>2026-08-15T21:46:14.514Z</time><hdop>3.687</hdop><vdop>1.312</vdop><extensions><gom:speed>2.85</gom:speed><gom:rel_alt>10.627</gom:rel_alt></extensions></trkpt>
   <trkpt lat="59.3648658761" lon="34.7148489706"><ele>167.848</ele><time>2026-08-15T21:46:21.046Z</time><hdop>3.0</hdop><vdop>1.312</vdop><extensions><gom:speed>1.313</gom:speed><gom:rel_alt>11.142</gom:rel_alt></extensions></trkpt>
   <trkpt lat="59.3648591705" lon="34.7150311932"><ele>168.155</ele><time>2026-08-15T21:46:29.727Z</time><hdop>3.0</hdop><vdop>1.312</vdop><extensions><gom:speed>1.304</gom:speed><gom:rel_alt>11.456</gom:rel_alt></extensions></trkpt>
   <trkpt lat="59.3648620623" lon="34.7152119909"><ele>169.003</ele><time>2026-08-15T21:46:38.429Z</time><hdop>3.0</hdop><vdop>1.312</vdop><extensions><gom:speed>1.261</gom:speed><gom:rel_alt>12.072</gom:rel_alt></extensions></trkpt>
   <trkpt lat="59.3648295824" lon="34.7153801318"><ele>168.67</ele><time>2026-08-15T21:46:47.101Z</time><hdop>3.0</hdop><vdop>1.312</vdop><extensions><gom:speed>1.235</gom:speed><gom:rel_alt>11.52</gom:rel_alt></extensions></trkpt>
   <trkpt lat="59.3647700709" lon="34.7155166731"><ele>167.576</ele><time>2026-08-15T21:46:55.290Z</time><hdop>3.0</hdop><vdop>1.312</vdop><extensions><gom:speed>1.224</gom:speed><gom:rel_alt>10.344</gom:rel_alt></extensions></trkpt>
   <trkpt lat="59.3647198633" lon="34.715664446"><ele>168.033</ele><time>2026-08-15T21:47:03.363Z</time><hdop>3.0</hdop><vdop>1.312</vdop><extensions><gom:speed>1.259</gom:speed><gom:rel_alt>10.059</gom:rel_alt></extensions></trkpt>
   <trkpt lat="59.3646895627" lon="34.7158435673"><ele>167.246</ele><time>2026-08-15T21:47:12.225Z</time><hdop>3.0</hdop><vdop>1.312</vdop><extensions><gom:speed>1.235</gom:speed><gom:rel_alt>10.106</gom:rel_alt></extensions></trkpt>
   <trkpt lat="59.3646043607" lon="34.7159060963"><ele>168.05</ele><time>2026-08-15T21:47:35.906Z</time><hdop>3.0</hdop><vdop>1.312</vdop><extensions><gom:speed>1.199</gom:speed><gom:rel_alt>9.48</gom:rel_alt></extensions></trkpt>
   <trkpt lat="59.3645482858" lon="34.7157588262"><ele>166.807</ele><time>2026-08-15T21:47:42.982Z</time><hdop>3.0</hdop><vdop>1.312</vdop><extensions><gom:speed>1.282</gom:speed><gom:rel_alt>10.31</gom:rel_alt></extensions></trkpt>
   <trkpt lat="59.3645071725" lon="34.7155941218"><ele>166.701</ele><time>2026-08-15T21:47:50.467Z</time><hdop>3.0</hdop><vdop>1.312</vdop><extensions><gom:speed>1.316</gom:speed><gom:rel_alt>9.837</gom:rel_alt></extensions></trkpt>
   <trkpt lat="59.3644524806" lon="34.7154492826"><ele>166.951</ele><time>2026-08-15T21:47:58.048Z</time><hdop>3.0</hdop><vdop>1.312</vdop><extensions><gom:speed>1.333</gom:speed><gom:rel_alt>10.257</gom:rel_alt></extensions></trkpt>
   <trkpt lat="59.3643820726" lon="34.715324476"><ele>168.183</ele><time>2026-08-15T21:48:06.102Z</time><hdop>3.0</hdop><vdop>1.312</vdop><extensions><gom:speed>1.325</gom:speed><gom:rel_alt>10.37</gom:rel_alt></extensions></trkpt>
   <trkpt lat="59.3643168614" lon="34.7151919581"><ele>168.139</ele><time>2026-08-15T21:48:14.225Z</time><hdop>3.062</hdop><vdop>1.312</vdop><extensions><gom:speed>1.313</gom:speed><gom:rel_alt>11.171</gom:rel_alt></extensions></trkpt>
   <trkpt lat="59.3642488842" lon="34.7150635474"><ele>168.047</ele><time>2026-08-15T21:48:22.185Z</time><hdop>3.0</hdop><vdop>1.312</vdop><extensions><gom:speed>1.313</gom:speed><gom:rel_alt>11.974</gom:rel_alt></extensions></trkpt>
   <trkpt lat="59.3641857684" lon="34.714928934"><ele>168.957</ele><time>2026-08-15T21:48:29.670Z</time><hdop>3.0</hdop><vdop>1.312</vdop><extensions><gom:speed>1.303</gom:speed><gom:rel_alt>11.884</gom:rel_alt></extensions></trkpt>
   <trkpt lat="59.3641101637" lon="34.7148129285"><ele>169.075</ele><time>2026-08-15T21:48:37.249Z</time><hdop>3.0</hdop><vdop>1.312</vdop><extensions><gom:speed>1.322</gom:speed><gom:rel_alt>12.172</gom:rel_alt></extensions></trkpt>
   <trkpt lat="59.3640248778" lon="34.7147415985"><ele>168.693</ele><time>2026-08-15T21:48:44.145Z</time><hdop>3.0</hdop><vdop>1.312</vdop><extensions><gom:speed>1.315</gom:speed><gom:rel_alt>12.157</gom:rel_alt></extensions></trkpt>
   <trkpt lat="59.3639359877" lon="34.7146823384"><ele>168.37</ele><time>2026-08-15T21:48:51.725Z</time><hdop>3.0</hdop><vdop>1.312</vdop><extensions><gom:speed>1.34</gom:speed><gom:rel_alt>12.429</gom:rel_alt></extensions></trkpt>
   <trkpt lat="59.3638521687" lon="34.7145808336"><ele>168.966</ele><time>2026-08-15T21:48:59.305Z</time><hdop>3.0</hdop><vdop>1.312</vdop><extensions><gom:speed>1.32</gom:speed><gom:rel_alt>11.834</gom:rel_alt></extensions></trkpt>
   <trkpt lat="59.3637708642" lon="34.7145033848"><ele>168.997</ele><time>2026-08-15T21:49:07.341Z</time><hdop>3.0</hdop><vdop>1.312</vdop><extensions><gom:speed>1.309</gom:speed><gom:rel_alt>11.52</gom:rel_alt></extensions></trkpt>
   <trkpt lat="59.3636777832" lon="34.7144922368"><ele>168.684</ele><time>2026-08-15T21:49:15.514Z</time><hdop>3.0</hdop><vdop>1.312</vdop><extensions><gom:speed>1.204</gom:speed><gom:rel_alt>11.602</gom:rel_alt></extensions></trkpt>
   <trkpt lat="59.3635899828" lon="34.7144420292"><ele>168.388</ele><time>2026-08-15T21:49:23.514Z</time><hdop>3.0</hdop><vdop>1.312</vdop><extensions><gom:speed>1.233</gom:speed><gom:rel_alt>12.405</gom:rel_alt></extensions></trkpt>
   <trkpt lat="59.3634982847" lon="34.7143904805"><ele>168.452</ele><time>2026-08-15T21:49:31.514Z</time><hdop>3.0</hdop><vdop>1.312</vdop><extensions><gom:speed>1.307</gom:speed><gom:rel_alt>10.886</gom:rel_alt></extensions></trkpt>
   <trkpt lat="59.3634075926" lon="34.7143521752"><ele>167.409</ele><time>2026-08-15T21:49:38.620Z</time><hdop>3.0</hdop><vdop>1.312</vdop><extensions><gom:speed>1.311</gom:speed><gom:rel_alt>10.833</gom:rel_alt></extensions></trkpt>
   <trkpt lat="59.3633163975" lon="34.7143591322"><ele>167.724</ele><time>2026-08-15T21:49:46.229Z</time><hdop>3.0</hdop><vdop>1.312</vdop><extensions><gom:speed>1.3</gom:speed><gom:rel_alt>11.52</gom:rel_alt></extensions></trkpt>
   <trkpt lat="59.3632184968" lon="34.7143853676"><ele>168.077</ele><time>2026-08-15T21:49:54.370Z</time><hdop>3.0</hdop><vdop>1.312</vdop><extensions><gom:speed>1.311</gom:speed><gom:rel_alt>10.875</gom:rel_alt></extensions></trkpt>
   <trkpt lat="59.3631400841" lon="34.7144843579"><ele>168.343</ele><time>2026-08-15T21:50:03.183Z</time><hdop>3.0</hdop><vdop>1.312</vdop><extensions><gom:speed>1.2</gom:speed><gom:rel_alt>10.648</gom:rel_alt></extensions></trkpt>
   <trkpt lat="59.3630483861" lon="34.7145254292"><ele>167.279</ele><time>2026-08-15T21:50:10.802Z</time><hdop>3.0</hdop><vdop>1.312</vdop><extensions><gom:speed>1.369</gom:speed><gom:rel_alt>10.695</gom:rel_alt></extensions></trkpt>
   <trkpt lat="59.3629589931" lon="34.7145053964"><ele>166.902</ele><time>2026-08-15T21:50:18.381Z</time><hdop>3.0</hdop><vdop>1.312</vdop><extensions><gom:speed>1.226</gom:speed><gom:rel_alt>8.986</gom:rel_alt></extensions></trkpt>
   <trkpt lat="59.3628643614" lon="34.7145086654"><ele>167.391</ele><time>2026-08-15T21:50:27.206Z</time><hdop>3.0</hdop><vdop>1.312</vdop><extensions><gom:speed>1.231</gom:speed><gom:rel_alt>10.207</gom:rel_alt></extensions></trkpt>
   <trkpt lat="59.3627664608" lon="34.7144860342"><ele>166.603</ele><time>2026-08-15T21:50:36.468Z</time><hdop>3.062</hdop><vdop>1.312</vdop><extensions><gom:speed>1.221</gom:speed><gom:rel_alt>10.249</gom:rel_alt></extensions></trkpt>
   <trkpt lat="59.3626771935" lon="34.714536158"><ele>166.074</ele><time>2026-08-15T21:50:44.009Z</time><hdop>3.0</hdop><vdop>1.312</vdop><extensions><gom:speed>1.307</gom:speed><gom:rel_alt>9.89</gom:rel_alt></extensions></trkpt>
   <trkpt lat="59.3625845735" lon="34.7145744633"><ele>166.647</ele><time>2026-08-15T21:50:52.064Z</time><hdop>3.0</hdop><vdop>1.312</vdop><extensions><gom:speed>1.268</gom:speed><gom:rel_alt>10.098</gom:rel_alt></extensions></trkpt>
   <trkpt lat="59.3624926659" lon="34.7145924844"><ele>166.259</ele><time>2026-08-15T21:51:00.023Z</time><hdop>3.0</hdop><vdop>1.312</vdop><extensions><gom:speed>1.331</gom:speed><gom:rel_alt>8.978</gom:rel_alt></extensions></trkpt>
   <trkpt lat="59.3624012613" lon="34.7145327214"><ele>165.987</ele><time>2026-08-15T21:51:08.241Z</time><hdop>3.0</hdop><vdop>1.312</vdop><extensions><gom:speed>1.286</gom:speed><gom:rel_alt>9.874</gom:rel_alt></extensions></trkpt>
   <trkpt lat="59.3623113654" lon="34.7144709468"><ele>166.28</ele><time>2026-08-15T21:51:17.064Z</time><hdop>3.0</hdop><vdop>1.312</vdop><extensions><gom:speed>1.286</gom:speed><gom:rel_alt>11.293</gom:rel_alt></extensions></trkpt>
   <trkpt lat="59.3622198769" lon="34.7144726232"><ele>166.951</ele><time>2026-08-15T21:51:24.701Z</time><hdop>3.0</hdop><vdop>1.312</vdop><extensions><gom:speed>1.27</gom:speed><gom:rel_alt>9.974</gom:rel_alt></extensions></trkpt>
   <trkpt lat="59.3621231916" lon="34.7144705277"><ele>166.372</ele><time>2026-08-15T21:51:33.384Z</time><hdop>3.0</hdop><vdop>1.312</vdop><extensions><gom:speed>1.266</gom:speed><gom:rel_alt>10.828</gom:rel_alt></extensions></trkpt>
   <trkpt lat="59.3620344692" lon="34.7145313803"><ele>166.459</ele><time>2026-08-15T21:51:41.524Z</time><hdop>3.062</hdop><vdop>1.312</vdop><extensions><gom:speed>1.268</gom:speed><gom:rel_alt>9.313</gom:rel_alt></extensions></trkpt>
   <trkpt lat="59.3619498958" lon="34.7146268502"><ele>166.695</ele><time>2026-08-15T21:51:49.283Z</time><hdop>3.0</hdop><vdop>1.312</vdop><extensions><gom:speed>1.361</gom:speed><gom:rel_alt>9.303</gom:rel_alt></extensions></trkpt>
   <trkpt lat="59.3618781886" lon="34.7147331327"><ele>166.775</ele><time>2026-08-15T21:51:56.882Z</time><hdop>3.0</hdop><vdop>1.312</vdop><extensions><gom:speed>1.242</gom:speed><gom:rel_alt>9.324</gom:rel_alt></extensions></trkpt>
   <trkpt lat="59.361836782" lon="34.714891886"><ele>165.523</ele><time>2026-08-15T21:52:05.222Z</time><hdop>3.062</hdop><vdop>1.312</vdop><extensions><gom:speed>1.24</gom:speed><gom:rel_alt>10.056</gom:rel_alt></extensions></trkpt>
   <trkpt lat="59.3618082835" lon="34.71506975"><ele>165.81</ele><time>2026-08-15T21:52:13.761Z</time><hdop>3.0</hdop><vdop>1.312</vdop><extensions><gom:speed>1.326</gom:speed><gom:rel_alt>8.759</gom:rel_alt></extensions></trkpt>
   <trkpt lat="59.3617377917" lon="34.7151792176"><ele>166.422</ele><time>2026-08-15T21:52:21.322Z</time><hdop>3.0</hdop><vdop>1.312</vdop><extensions><gom:speed>1.315</gom:speed><gom:rel_alt>9.808</gom:rel_alt></extensions></trkpt>
   <trkpt lat="59.3616580798" lon="34.7152613603"><ele>165.653</ele><time>2026-08-15T21:52:29.463Z</time><hdop>3.0</hdop><vdop>1.312</vdop><extensions><gom:speed>1.309</gom:speed><gom:rel_alt>9.858</gom:rel_alt></extensions></trkpt>
   <trkpt lat="59.3615678905" lon="34.7153067902"><ele>166.059</ele><time>2026-08-15T21:52:37.669Z</time><hdop>3.0</hdop><vdop>1.312</vdop><extensions><gom:speed>1.263</gom:speed><gom:rel_alt>10.645</gom:rel_alt></extensions></trkpt>
   <trkpt lat="59.3614777851" lon="34.7153509628"><ele>165.984</ele><time>2026-08-15T21:52:45.847Z</time><hdop>3.0</hdop><vdop>1.312</vdop><extensions><gom:speed>1.236</gom:speed><gom:rel_alt>10.434</gom:rel_alt></extensions></trkpt>
   <trkpt lat="59.3613850812" lon="34.7154012542"><ele>166.529</ele><time>2026-08-15T21:52:54.121Z</time><hdop>3.0</hdop><vdop>1.312</vdop><extensions><gom:speed>1.304</gom:speed><gom:rel_alt>9.657</gom:rel_alt></extensions></trkpt>
   <trkpt lat="59.3612865939" lon="34.7153938782"><ele>166.064</ele><time>2026-08-15T21:53:02.346Z</time><hdop>3.0</hdop><vdop>1.312</vdop><extensions><gom:speed>1.27</gom:speed><gom:rel_alt>10.621</gom:rel_alt></extensions></trkpt>
   <trkpt lat="59.3612100671" lon="34.7152904455"><ele>166.578</ele><time>2026-08-15T21:53:10.743Z</time><hdop>3.0</hdop><vdop>1.312</vdop><extensions><gom:speed>1.319</gom:speed><gom:rel_alt>11.026</gom:rel_alt></extensions></trkpt>
   <trkpt lat="59.3611433891" lon="34.7151594363"><ele>166.835</ele><time>2026-08-15T21:53:18.865Z</time><hdop>3.0</hdop><vdop>1.312</vdop><extensions><gom:speed>1.3</gom:speed><gom:rel_alt>10.553</gom:rel_alt></extensions></trkpt>
   <trkpt lat="59.3610661917" lon="34.7150579315"><ele>166.716</ele><time>2026-08-15T21:53:27.203Z</time><hdop>3.0</hdop><vdop>1.312</vdop><extensions><gom:speed>1.269</gom:speed><gom:rel_alt>11.145</gom:rel_alt></extensions></trkpt>
   <trkpt lat="59.3609864798" lon="34.7149713464"><ele>167.25</ele><time>2026-08-15T21:53:34.983Z</time><hdop>3.0</hdop><vdop>1.312</vdop><extensions><gom:speed>1.296</gom:speed><gom:rel_alt>11.472</gom:rel_alt></extensions></trkpt>
   <trkpt lat="59.3609046724" lon="34.7148619626"><ele>167.574</ele><time>2026-08-15T21:53:43.303Z</time><hdop>3.0</hdop><vdop>1.312</vdop><extensions><gom:speed>1.281</gom:speed><gom:rel_alt>11.507</gom:rel_alt></extensions></trkpt>
   <trkpt lat="59.360819177" lon="34.7147817478"><ele>168.052</ele><time>2026-08-15T21:53:52.042Z</time><hdop>3.062</hdop><vdop>1.312</vdop><extensions><gom:speed>1.26</gom:speed><gom:rel_alt>11.25</gom:rel_alt></extensions></trkpt>
   <trkpt lat="59.3607284848" lon="34.7147638943"><ele>167.261</ele><time>2026-08-15T21:53:59.583Z</time><hdop>3.0</hdop><vdop>1.312</vdop><extensions><gom:speed>1.251</gom:speed><gom:rel_alt>11.182</gom:rel_alt></extensions></trkpt>
   <trkpt lat="59.3606335598" lon="34.7147434425"><ele>167.506</ele><time>2026-08-15T21:54:07.885Z</time><hdop>3.0</hdop><vdop>1.312</vdop><extensions><gom:speed>1.299</gom:speed><gom:rel_alt>11.38</gom:rel_alt></extensions></trkpt>
   <trkpt lat="59.3605429933" lon="34.7147159498"><ele>167.652</ele><time>2026-08-15T21:54:15.408Z</time><hdop>3.0</hdop><vdop>1.312</vdop><extensions><gom:speed>1.348</gom:speed><gom:rel_alt>11.966</gom:rel_alt></extensions></trkpt>
   <trkpt lat="59.36045096" lon="34.7146794886"><ele>167.795</ele><time>2026-08-15T21:54:23.515Z</time><hdop>3.0</hdop><vdop>1.312</vdop><extensions><gom:speed>1.261</gom:speed><gom:rel_alt>10.864</gom:rel_alt></extensions></trkpt>
   <trkpt lat="59.360362992" lon="34.7146396745"><ele>167.606</ele><time>2026-08-15T21:54:31.205Z</time><hdop>3.0</hdop><vdop>1.312</vdop><extensions><gom:speed>1.261</gom:speed><gom:rel_alt>11.332</gom:rel_alt></extensions></trkpt>
   <trkpt lat="59.3602774965" lon="34.7145770617"><ele>167.836</ele><time>2026-08-15T21:54:38.509Z</time><hdop>3.0</hdop><vdop>1.312</vdop><extensions><gom:speed>1.302</gom:speed><gom:rel_alt>12.299</gom:rel_alt></extensions></trkpt>
   <trkpt lat="59.3601905762" lon="34.714493578"><ele>167.926</ele><time>2026-08-15T21:54:47.209Z</time><hdop>3.0</hdop><vdop>1.312</vdop><extensions><gom:speed>1.293</gom:speed><gom:rel_alt>12.865</gom:rel_alt></extensions></trkpt>
   <trkpt lat="59.3601051646" lon="34.7144204878"><ele>167.859</ele><time>2026-08-15T21:54:55.515Z</time><hdop>3.0</hdop><vdop>1.312</vdop><extensions><gom:speed>1.2</gom:speed><gom:rel_alt>12.408</gom:rel_alt></extensions></trkpt>
   <trkpt lat="59.3600203817" lon="34.7143431228"><ele>168.077</ele><time>2026-08-15T21:55:03.964Z</time><hdop>3.0</hdop><vdop>1.312</vdop><extensions><gom:speed>1.139</gom:speed><gom:rel_alt>12.643</gom:rel_alt></extensions></trkpt>
   <trkpt lat="59.3599375685" lon="34.7142694459"><ele>168.07</ele><time>2026-08-15T21:55:12.085Z</time><hdop>3.0</hdop><vdop>1.312</vdop><extensions><gom:speed>1.23</gom:speed><gom:rel_alt>12.299</gom:rel_alt></extensions></trkpt>
   <trkpt lat="59.3598586948" lon="34.7141796757"><ele>167.965</ele><time>2026-08-15T21:55:20.387Z</time><hdop>3.0</hdop><vdop>1.312</vdop><extensions><gom:speed>1.206</gom:speed><gom:rel_alt>12.114</gom:rel_alt></extensions></trkpt>
   <trkpt lat="59.359775672" lon="34.7140917495"><ele>167.364</ele><time>2026-08-15T21:55:28.746Z</time><hdop>3.0</hdop><vdop>1.312</vdop><extensions><gom:speed>1.194</gom:speed><gom:rel_alt>11.499</gom:rel_alt></extensions></trkpt>
   <trkpt lat="59.3596999834" lon="34.7139895741"><ele>167.646</ele><time>2026-08-15T21:55:37.303Z</time><hdop>3.0</hdop><vdop>1.312</vdop><extensions><gom:speed>1.199</gom:speed><gom:rel_alt>12.302</gom:rel_alt></extensions></trkpt>
   <trkpt lat="59.3596266837" lon="34.71387382"><ele>168.517</ele><time>2026-08-15T21:56:14.242Z</time><hdop>3.0</hdop><vdop>1.312</vdop><extensions><gom:speed>0.99</gom:speed><gom:rel_alt>12.727</gom:rel_alt></extensions></trkpt>
   <trkpt lat="59.3595589998" lon="34.7137319982"><ele>168.336</ele><time>2026-08-15T21:56:21.385Z</time><hdop>3.25</hdop><vdop>1.312</vdop><extensions><gom:speed>1.24</gom:speed><gom:rel_alt>12.949</gom:rel_alt></extensions></trkpt>
   <trkpt lat="59.3594835627" lon="34.7136261348"><ele>168.054</ele><time>2026-08-15T21:56:30.180Z</time><hdop>3.0</hdop><vdop>1.312</vdop><extensions><gom:speed>1.237</gom:speed><gom:rel_alt>12.31</gom:rel_alt></extensions></trkpt>
   <trkpt lat="59.3594095924" lon="34.7135168348"><ele>167.76</ele><time>2026-08-15T21:56:38.388Z</time><hdop>3.0</hdop><vdop>1.312</vdop><extensions><gom:speed>1.237</gom:speed><gom:rel_alt>12.69</gom:rel_alt></extensions></trkpt>
   <trkpt lat="59.3593327722" lon="34.7134046849"><ele>167.562</ele><time>2026-08-15T21:56:47.249Z</time><hdop>3.0</hdop><vdop>1.312</vdop><extensions><gom:speed>1.181</gom:speed><gom:rel_alt>12.347</gom:rel_alt></extensions></trkpt>
   <trkpt lat="59.359260185" lon="34.7132941276"><ele>166.861</ele><time>2026-08-15T21:56:55.466Z</time><hdop>3.0</hdop><vdop>1.312</vdop><extensions><gom:speed>1.197</gom:speed><gom:rel_alt>12.637</gom:rel_alt></extensions></trkpt>
   <trkpt lat="59.3591973626" lon="34.7131592628"><ele>167.572</ele><time>2026-08-15T21:57:03.861Z</time><hdop>3.062</hdop><vdop>1.312</vdop><extensions><gom:speed>1.232</gom:speed><gom:rel_alt>11.538</gom:rel_alt></extensions></trkpt>
   <trkpt lat="59.359141581" lon="34.7130209614"><ele>167.558</ele><time>2026-08-15T21:57:12.201Z</time><hdop>3.0</hdop><vdop>1.312</vdop><extensions><gom:speed>1.163</gom:speed><gom:rel_alt>12.252</gom:rel_alt></extensions></trkpt>
   <trkpt lat="59.3591024794" lon="34.7128609509"><ele>166.843</ele><time>2026-08-15T21:57:20.502Z</time><hdop>3.0</hdop><vdop>1.312</vdop><extensions><gom:speed>1.124</gom:speed><gom:rel_alt>10.957</gom:rel_alt></extensions></trkpt>
   <trkpt lat="59.3590687842" lon="34.7126965817"><ele>166.921</ele><time>2026-08-15T21:57:28.927Z</time><hdop>3.0</hdop><vdop>1.312</vdop><extensions><gom:speed>1.233</gom:speed><gom:rel_alt>11.396</gom:rel_alt></extensions></trkpt>
   <trkpt lat="59.3590352985" lon="34.7125301171"><ele>166.48</ele><time>2026-08-15T21:57:37.200Z</time><hdop>3.0</hdop><vdop>1.312</vdop><extensions><gom:speed>1.229</gom:speed><gom:rel_alt>11.102</gom:rel_alt></extensions></trkpt>
   <trkpt lat="59.3590085602" lon="34.7123480622"><ele>166.107</ele><time>2026-08-15T21:57:45.987Z</time><hdop>3.0</hdop><vdop>1.312</vdop><extensions><gom:speed>1.17</gom:speed><gom:rel_alt>10.399</gom:rel_alt></extensions></trkpt>
   <trkpt lat="59.3589884856" lon="34.7121671807"><ele>165.42</ele><time>2026-08-15T21:57:52.948Z</time><hdop>3.0</hdop><vdop>1.312</vdop><extensions><gom:speed>1.242</gom:speed><gom:rel_alt>9.81</gom:rel_alt></extensions></trkpt>
   <trkpt lat="59.3589552932" lon="34.7119977825"><ele>165.089</ele><time>2026-08-15T21:58:00.708Z</time><hdop>3.0</hdop><vdop>1.312</vdop><extensions><gom:speed>1.197</gom:speed><gom:rel_alt>9.393</gom:rel_alt></extensions></trkpt>
   <trkpt lat="59.3589154792" lon="34.7118369337"><ele>164.704</ele><time>2026-08-15T21:58:09.305Z</time><hdop>3.0</hdop><vdop>1.312</vdop><extensions><gom:speed>1.25</gom:speed><gom:rel_alt>9.319</gom:rel_alt></extensions></trkpt>
   <trkpt lat="59.3588673671" lon="34.7116773423"><ele>164.039</ele><time>2026-08-15T21:58:18.043Z</time><hdop>3.0</hdop><vdop>1.312</vdop><extensions><gom:speed>1.229</gom:speed><gom:rel_alt>10.183</gom:rel_alt></extensions></trkpt>
   <trkpt lat="59.3588444845" lon="34.7114994783"><ele>164.584</ele><time>2026-08-15T21:58:27.515Z</time><hdop>3.0</hdop><vdop>1.312</vdop><extensions><gom:speed>1.252</gom:speed><gom:rel_alt>9.179</gom:rel_alt></extensions></trkpt>
   <trkpt lat="59.3588074784" lon="34.7113385458"><ele>164.112</ele><time>2026-08-15T21:58:36.327Z</time><hdop>3.062</hdop><vdop>1.312</vdop><extensions><gom:speed>1.229</gom:speed><gom:rel_alt>9.181</gom:rel_alt></extensions></trkpt>
   <trkpt lat="59.3587751661" lon="34.711163364"><ele>163.676</ele><time>2026-08-15T21:58:45.189Z</time><hdop>3.0</hdop><vdop>1.312</vdop><extensions><gom:speed>1.268</gom:speed><gom:rel_alt>9.631</gom:rel_alt></extensions></trkpt>
   <trkpt lat="59.3587515711" lon="34.7109907806"><ele>164.296</ele><time>2026-08-15T21:58:53.461Z</time><hdop>3.0</hdop><vdop>1.312</vdop><extensions><gom:speed>1.218</gom:speed><gom:rel_alt>9.152</gom:rel_alt></extensions></trkpt>
   <trkpt lat="59.3587341786" lon="34.7108140901"><ele>164.277</ele><time>2026-08-15T21:59:02.303Z</time><hdop>3.0</hdop><vdop>1.312</vdop><extensions><gom:speed>1.191</gom:speed><gom:rel_alt>8.51</gom:rel_alt></extensions></trkpt>
   <trkpt lat="59.3587205999" lon="34.710639076"><ele>163.642</ele><time>2026-08-15T21:59:10.516Z</time><hdop>3.0</hdop><vdop>1.312</vdop><extensions><gom:speed>1.242</gom:speed><gom:rel_alt>8.957</gom:rel_alt></extensions></trkpt>
   <trkpt lat="59.3587163671" lon="34.7104583621"><ele>163.789</ele><time>2026-08-15T21:59:18.926Z</time><hdop>3.0</hdop><vdop>1.312</vdop><extensions><gom:speed>1.169</gom:speed><gom:rel_alt>8.833</gom:rel_alt></extensions></trkpt>
   <trkpt lat="59.3586623876" lon="34.7103121817"><ele>164.169</ele><time>2026-08-15T21:59:27.426Z</time><hdop>3.0</hdop><vdop>1.312</vdop><extensions><gom:speed>1.266</gom:speed><gom:rel_alt>10.495</gom:rel_alt></extensions></trkpt>
   <trkpt lat="59.3586280637" lon="34.7101394307"><ele>164.511</ele><time>2026-08-15T21:59:37.086Z</time><hdop>3.0</hdop><vdop>1.312</vdop><extensions><gom:speed>1.133</gom:speed><gom:rel_alt>9.372</gom:rel_alt></extensions></trkpt>
   <trkpt lat="59.3585975955" lon="34.7099707868"><ele>164.361</ele><time>2026-08-15T21:59:46.004Z</time><hdop>3.0</hdop><vdop>1.312</vdop><extensions><gom:speed>1.156</gom:speed><gom:rel_alt>9.657</gom:rel_alt></extensions></trkpt>
   <trkpt lat="59.3586043849" lon="34.7097780869"><ele>164.573</ele><time>2026-08-15T21:59:54.429Z</time><hdop>3.0</hdop><vdop>1.312</vdop><extensions><gom:speed>1.235</gom:speed><gom:rel_alt>10.008</gom:rel_alt></extensions></trkpt>
   <trkpt lat="59.358647384" lon="34.7096136339"><ele>164.645</ele><time>2026-08-15T22:00:03.423Z</time><hdop>3.0</hdop><vdop>1.312</vdop><extensions><gom:speed>1.231</gom:speed><gom:rel_alt>10.23</gom:rel_alt></extensions></trkpt>
   <trkpt lat="59.358703878" lon="34.7094670344"><ele>164.59</ele><time>2026-08-15T22:00:11.801Z</time><hdop>3.062</hdop><vdop>1.312</vdop><extensions><gom:speed>1.25</gom:speed><gom:rel_alt>10.164</gom:rel_alt></extensions></trkpt>
   <trkpt lat="59.3587485955" lon="34.7093047608"><ele>164.764</ele><time>2026-08-15T22:00:20.207Z</time><hdop>3.0</hdop><vdop>1.312</vdop><extensions><gom:speed>1.222</gom:speed><gom:rel_alt>10.378</gom:rel_alt></extensions></trkpt>
   <trkpt lat="59.3587847634" lon="34.7091246337"><ele>164.911</ele><time>2026-08-15T22:00:28.516Z</time><hdop>3.0</hdop><vdop>1.312</vdop><extensions><gom:speed>1.254</gom:speed><gom:rel_alt>10.859</gom:rel_alt></extensions></trkpt>
   <trkpt lat="59.3587978811" lon="34.7089433331"><ele>164.551</ele><time>2026-08-15T22:00:37.389Z</time><hdop>3.0</hdop><vdop>1.312</vdop><extensions><gom:speed>1.209</gom:speed><gom:rel_alt>9.681</gom:rel_alt></extensions></trkpt>
   <trkpt lat="59.3587839671" lon="34.7087598533"><ele>164.334</ele><time>2026-08-15T22:00:45.824Z</time><hdop>3.0</hdop><vdop>1.312</vdop><extensions><gom:speed>1.186</gom:speed><gom:rel_alt>10.299</gom:rel_alt></extensions></trkpt>
   <trkpt lat="59.3587602883" lon="34.7085870184"><ele>164.594</ele><time>2026-08-15T22:00:54.249Z</time><hdop>3.0</hdop><vdop>1.312</vdop><extensions><gom:speed>1.227</gom:speed><gom:rel_alt>10.41</gom:rel_alt></extensions></trkpt>
   <trkpt lat="59.3587133915" lon="34.7084356413"><ele>164.12</ele><time>2026-08-15T22:01:02.516Z</time><hdop>3.0</hdop><vdop>1.312</vdop><extensions><gom:speed>1.23</gom:speed><gom:rel_alt>9.903</gom:rel_alt></extensions></trkpt>
   <trkpt lat="59.3586504853" lon="34.7082993515"><ele>164.568</ele><time>2026-08-15T22:01:11.088Z</time><hdop>3.0</hdop><vdop>1.312</vdop><extensions><gom:speed>1.265</gom:speed><gom:rel_alt>10.466</gom:rel_alt></extensions></trkpt>
   <trkpt lat="59.3585887945" lon="34.7081567753"><ele>164.864</ele><time>2026-08-15T22:01:20.302Z</time><hdop>3.0</hdop><vdop>1.312</vdop><extensions><gom:speed>1.22</gom:speed><gom:rel_alt>10.841</gom:rel_alt></extensions></trkpt>
   <trkpt lat="59.3585222841" lon="34.70802585"><ele>165.456</ele><time>2026-08-15T22:01:29.324Z</time><hdop>3.0</hdop><vdop>1.312</vdop><extensions><gom:speed>1.246</gom:speed><gom:rel_alt>12.009</gom:rel_alt></extensions></trkpt>
  </trkseg>
 </trk>
</gpx>